﻿<?xml version="1.0" encoding="UTF-8"?>
<gpx xmlns="http://www.topografix.com/GPX/1/0" xmlns:xsi="http://www.w3.org/2001/XMLSchema-instance" xsi:schemaLocation="http://www.topografix.com/GPX/1/0 http://www.topografix.com/GPX/1/0/gpx.xsd" creator="Bike Route Toaster http://www.bikeroutetoaster.com" version="1.0">
  <trk>
    <trkseg>
      <trkpt lat="49.0362924395243" lon="7.95186996459961">
        <ele>160</ele>
        <time>2010-12-10T00:00:00Z</time>
        <course>180.197547944113</course>
        <speed>7.64417277558633</speed>
      </trkpt>
      <trkpt lat="49.036289" lon="7.95187">
        <ele>160</ele>
        <time>2010-12-10T00:00:00Z</time>
        <course>181.004276496318</course>
        <speed>8.32800722449626</speed>
      </trkpt>
      <trkpt lat="49.036098" lon="7.95188">
        <ele>160</ele>
        <time>2010-12-10T00:00:02Z</time>
        <course>70.9769852522418</course>
        <speed>8.31543146529842</speed>
      </trkpt>
      <trkpt lat="49.036209" lon="7.95092">
        <ele>160</ele>
        <time>2010-12-10T00:00:11Z</time>
        <course>360</course>
        <speed>8.29253731351672</speed>
      </trkpt>
      <trkpt lat="49.036259" lon="7.95092">
        <ele>160</ele>
        <time>2010-12-10T00:00:11Z</time>
        <course>69.2055849652534</course>
        <speed>8.32949890616895</speed>
      </trkpt>
      <trkpt lat="49.036301" lon="7.95059">
        <ele>160</ele>
        <time>2010-12-10T00:00:14Z</time>
        <course>69.5842807933054</course>
        <speed>8.31909804577808</speed>
      </trkpt>
      <trkpt lat="49.036491" lon="7.94907">
        <ele>160</ele>
        <time>2010-12-10T00:00:28Z</time>
        <course>180</course>
        <speed>8.36829629709653</speed>
      </trkpt>
      <trkpt lat="49.03643" lon="7.94907">
        <ele>160</ele>
        <time>2010-12-10T00:00:29Z</time>
        <course>176.087943841689</course>
        <speed>8.32332746439831</speed>
      </trkpt>
      <trkpt lat="49.036381" lon="7.94906">
        <ele>160</ele>
        <time>2010-12-10T00:00:29Z</time>
        <course>65.2404983363365</course>
        <speed>8.3164866856146</speed>
      </trkpt>
      <trkpt lat="49.03648" lon="7.94842">
        <ele>160</ele>
        <time>2010-12-10T00:00:35Z</time>
        <course>68.6563338133457</course>
        <speed>8.31804481250444</speed>
      </trkpt>
      <trkpt lat="49.036518" lon="7.94813">
        <ele>160</ele>
        <time>2010-12-10T00:00:38Z</time>
        <course>76.6712620509795</course>
        <speed>8.31939196991637</speed>
      </trkpt>
      <trkpt lat="49.036549" lon="7.94774">
        <ele>160</ele>
        <time>2010-12-10T00:00:41Z</time>
        <course>80.5374840713902</course>
        <speed>8.32090623005995</speed>
      </trkpt>
      <trkpt lat="49.036591" lon="7.94699">
        <ele>160</ele>
        <time>2010-12-10T00:00:48Z</time>
        <course>59.1949913079274</course>
        <speed>8.32641885377264</speed>
      </trkpt>
      <trkpt lat="49.036659" lon="7.94665">
        <ele>160</ele>
        <time>2010-12-10T00:00:51Z</time>
        <course>79.3134932188606</course>
        <speed>8.31667555122483</speed>
      </trkpt>
      <trkpt lat="49.036678" lon="7.94635">
        <ele>160</ele>
        <time>2010-12-10T00:00:53Z</time>
        <course>82.9739894173033</course>
        <speed>8.33379381446259</speed>
      </trkpt>
      <trkpt lat="49.03669" lon="7.94606">
        <ele>160</ele>
        <time>2010-12-10T00:00:56Z</time>
        <course>82.5062592668836</course>
        <speed>8.3277229189435</speed>
      </trkpt>
      <trkpt lat="49.036709" lon="7.94563">
        <ele>160</ele>
        <time>2010-12-10T00:01:00Z</time>
        <course>80.2115427327752</course>
        <speed>8.32029785243256</speed>
      </trkpt>
      <trkpt lat="49.03672" lon="7.94544">
        <ele>160</ele>
        <time>2010-12-10T00:01:01Z</time>
        <course>115.106181991393</course>
        <speed>8.32345596777198</speed>
      </trkpt>
      <trkpt lat="49.036709" lon="7.94537">
        <ele>160</ele>
        <time>2010-12-10T00:01:02Z</time>
        <course>360</course>
        <speed>8.3339999993774</speed>
      </trkpt>
      <trkpt lat="49.036739" lon="7.94537">
        <ele>160</ele>
        <time>2010-12-10T00:01:02Z</time>
        <course>97.5117019313923</course>
        <speed>8.31630659921907</speed>
      </trkpt>
      <trkpt lat="49.036709" lon="7.94469">
        <ele>160</ele>
        <time>2010-12-10T00:01:08Z</time>
        <course>61.150100306759</course>
        <speed>8.32567262638713</speed>
      </trkpt>
      <trkpt lat="49.03677" lon="7.94436">
        <ele>160</ele>
        <time>2010-12-10T00:01:11Z</time>
        <course>52.8984325970895</course>
        <speed>8.32403159211141</speed>
      </trkpt>
      <trkpt lat="49.036869" lon="7.94397">
        <ele>160</ele>
        <time>2010-12-10T00:01:15Z</time>
        <course>64.3011361307779</course>
        <speed>8.30077245214209</speed>
      </trkpt>
      <trkpt lat="49.036911" lon="7.94371">
        <ele>160</ele>
        <time>2010-12-10T00:01:17Z</time>
        <course>82.8537501175412</course>
        <speed>8.30508514002733</speed>
      </trkpt>
      <trkpt lat="49.036919" lon="7.94352">
        <ele>160</ele>
        <time>2010-12-10T00:01:19Z</time>
        <course>90.0024287879202</course>
        <speed>8.29905108095651</speed>
      </trkpt>
      <trkpt lat="49.036919" lon="7.94343">
        <ele>159</ele>
        <time>2010-12-10T00:01:20Z</time>
        <course>90.0024287879202</course>
        <speed>8.29905108095651</speed>
      </trkpt>
      <trkpt lat="49.036919" lon="7.94334">
        <ele>159</ele>
        <time>2010-12-10T00:01:21Z</time>
        <course>90.0013493267059</course>
        <speed>8.2780938811112</speed>
      </trkpt>
      <trkpt lat="49.036919" lon="7.94329">
        <ele>159</ele>
        <time>2010-12-10T00:01:21Z</time>
        <course>94.7071288759505</course>
        <speed>8.3245639896328</speed>
      </trkpt>
      <trkpt lat="49.036911" lon="7.943">
        <ele>159</ele>
        <time>2010-12-10T00:01:24Z</time>
        <course>6.71665244689541</course>
        <speed>8.33236826198141</speed>
      </trkpt>
      <trkpt lat="49.036968" lon="7.94298">
        <ele>159</ele>
        <time>2010-12-10T00:01:24Z</time>
        <course>3.14992228191748</course>
        <speed>8.31384424850983</speed>
      </trkpt>
      <trkpt lat="49.037029" lon="7.94297">
        <ele>159</ele>
        <time>2010-12-10T00:01:25Z</time>
        <course>6.24866119304222</course>
        <speed>8.29684238011001</speed>
      </trkpt>
      <trkpt lat="49.037121" lon="7.94294">
        <ele>159</ele>
        <time>2010-12-10T00:01:26Z</time>
        <course>4.20693765458386</course>
        <speed>8.31324499645093</speed>
      </trkpt>
      <trkpt lat="49.037258" lon="7.94291">
        <ele>159</ele>
        <time>2010-12-10T00:01:28Z</time>
        <course>8.99909933124088</course>
        <speed>8.31965335857458</speed>
      </trkpt>
      <trkpt lat="49.037449" lon="7.94282">
        <ele>159</ele>
        <time>2010-12-10T00:01:31Z</time>
        <course>13.1400665434508</course>
        <speed>8.29313080250856</speed>
      </trkpt>
      <trkpt lat="49.037521" lon="7.94277">
        <ele>159</ele>
        <time>2010-12-10T00:01:32Z</time>
        <course>12.9123182701948</course>
        <speed>8.30304304104413</speed>
      </trkpt>
      <trkpt lat="49.037609" lon="7.94271">
        <ele>159</ele>
        <time>2010-12-10T00:01:33Z</time>
        <course>16.871326138669</course>
        <speed>8.33214640552687</speed>
      </trkpt>
      <trkpt lat="49.037731" lon="7.9426">
        <ele>159</ele>
        <time>2010-12-10T00:01:35Z</time>
        <course>26.7783225087739</course>
        <speed>8.31168159762713</speed>
      </trkpt>
      <trkpt lat="49.037811" lon="7.94248">
        <ele>159</ele>
        <time>2010-12-10T00:01:37Z</time>
        <course>29.8397541377643</course>
        <speed>8.33150838017128</speed>
      </trkpt>
      <trkpt lat="49.037899" lon="7.94233">
        <ele>159</ele>
        <time>2010-12-10T00:01:39Z</time>
        <course>30.5004141001796</course>
        <speed>8.29996737896696</speed>
      </trkpt>
      <trkpt lat="49.037979" lon="7.94219">
        <ele>159</ele>
        <time>2010-12-10T00:01:40Z</time>
        <course>28.8940779843769</course>
        <speed>8.29200078137281</speed>
      </trkpt>
      <trkpt lat="49.03804" lon="7.94209">
        <ele>159</ele>
        <time>2010-12-10T00:01:41Z</time>
        <course>41.4916092391155</course>
        <speed>8.32809547661035</speed>
      </trkpt>
      <trkpt lat="49.038139" lon="7.94183">
        <ele>159</ele>
        <time>2010-12-10T00:01:44Z</time>
        <course>54.7005855219363</course>
        <speed>4.93968768835258</speed>
      </trkpt>
      <trkpt lat="49.03817" lon="7.9417">
        <ele>159</ele>
        <time>2010-12-10T00:01:46Z</time>
        <course>60.5723478604967</course>
        <speed>4.95707566267928</speed>
      </trkpt>
      <trkpt lat="49.038189" lon="7.9416">
        <ele>159</ele>
        <time>2010-12-10T00:01:48Z</time>
        <course>64.8876362898787</course>
        <speed>4.94319979556563</speed>
      </trkpt>
      <trkpt lat="49.038219" lon="7.94141">
        <ele>160</ele>
        <time>2010-12-10T00:01:50Z</time>
        <course>69.7961658873949</course>
        <speed>4.942466862197</speed>
      </trkpt>
      <trkpt lat="49.03825" lon="7.94116">
        <ele>160</ele>
        <time>2010-12-10T00:01:54Z</time>
        <course>64.9925109952302</course>
        <speed>4.9468147484507</speed>
      </trkpt>
      <trkpt lat="49.038261" lon="7.94109">
        <ele>160</ele>
        <time>2010-12-10T00:01:55Z</time>
        <course>76.6431228592349</course>
        <speed>4.95849102688939</speed>
      </trkpt>
      <trkpt lat="49.038269" lon="7.94099">
        <ele>161</ele>
        <time>2010-12-10T00:01:57Z</time>
        <course>78.4694581914939</course>
        <speed>4.94479218561531</speed>
      </trkpt>
      <trkpt lat="49.03828" lon="7.94083">
        <ele>161</ele>
        <time>2010-12-10T00:01:59Z</time>
        <course>23.4953630356829</course>
        <speed>4.95802637202012</speed>
      </trkpt>
      <trkpt lat="49.038311" lon="7.94079">
        <ele>161</ele>
        <time>2010-12-10T00:02:00Z</time>
        <course>21.3402088261876</course>
        <speed>4.9387632604261</speed>
      </trkpt>
      <trkpt lat="49.03838" lon="7.94071">
        <ele>162</ele>
        <time>2010-12-10T00:02:02Z</time>
        <course>6.30560242375965</course>
        <speed>4.95223007218531</speed>
      </trkpt>
      <trkpt lat="49.038441" lon="7.94069">
        <ele>162</ele>
        <time>2010-12-10T00:02:03Z</time>
        <course>10.3675296581979</course>
        <speed>4.93974677657338</speed>
      </trkpt>
      <trkpt lat="49.03857" lon="7.94062">
        <ele>162</ele>
        <time>2010-12-10T00:02:06Z</time>
        <course>34.2249763711492</course>
        <speed>4.94815689837169</speed>
      </trkpt>
      <trkpt lat="49.038689" lon="7.94038">
        <ele>163</ele>
        <time>2010-12-10T00:02:11Z</time>
        <course>16.7362511688965</course>
        <speed>4.9420825123372</speed>
      </trkpt>
      <trkpt lat="49.038891" lon="7.9402">
        <ele>164</ele>
        <time>2010-12-10T00:02:16Z</time>
        <course>69.4301092396041</course>
        <speed>4.94611264683853</speed>
      </trkpt>
      <trkpt lat="49.03891" lon="7.94005">
        <ele>164</ele>
        <time>2010-12-10T00:02:18Z</time>
        <course>78.2287328841419</course>
        <speed>4.94523858404511</speed>
      </trkpt>
      <trkpt lat="49.038929" lon="7.93978">
        <ele>165</ele>
        <time>2010-12-10T00:02:22Z</time>
        <course>25.5196690110464</course>
        <speed>4.95074177224344</speed>
      </trkpt>
      <trkpt lat="49.039028" lon="7.93964">
        <ele>166</ele>
        <time>2010-12-10T00:02:25Z</time>
        <course>81.6763266920179</course>
        <speed>8.31983947618306</speed>
      </trkpt>
      <trkpt lat="49.039089" lon="7.93841">
        <ele>164</ele>
        <time>2010-12-10T00:02:36Z</time>
        <course>90.0156400517483</course>
        <speed>8.31684013906878</speed>
      </trkpt>
      <trkpt lat="49.039089" lon="7.93783">
        <ele>163</ele>
        <time>2010-12-10T00:02:41Z</time>
        <course>90.0032358727999</course>
        <speed>8.32503407029781</speed>
      </trkpt>
      <trkpt lat="49.039089" lon="7.93771">
        <ele>163</ele>
        <time>2010-12-10T00:02:42Z</time>
        <course>104.492151075333</course>
        <speed>8.32353074476353</speed>
      </trkpt>
      <trkpt lat="49.039028" lon="7.93701">
        <ele>162</ele>
        <time>2010-12-10T00:02:48Z</time>
        <course>95.9247260088821</course>
        <speed>8.33690197220208</speed>
      </trkpt>
      <trkpt lat="49.039021" lon="7.93681">
        <ele>162</ele>
        <time>2010-12-10T00:02:50Z</time>
        <course>10.7474409024503</course>
        <speed>7.02999615968883</speed>
      </trkpt>
      <trkpt lat="49.039841" lon="7.93635">
        <ele>162</ele>
        <time>2010-12-10T00:03:04Z</time>
        <course>92.9194544635508</course>
        <speed>7.03551741809657</speed>
      </trkpt>
      <trkpt lat="49.039829" lon="7.93565">
        <ele>163</ele>
        <time>2010-12-10T00:03:11Z</time>
        <course>9.44862519042322</course>
        <speed>7.05136141159438</speed>
      </trkpt>
      <trkpt lat="49.03989" lon="7.93562">
        <ele>163</ele>
        <time>2010-12-10T00:03:12Z</time>
        <course>41.132815598382</course>
        <speed>7.05147670256257</speed>
      </trkpt>
      <trkpt lat="49.039921" lon="7.93554">
        <ele>163</ele>
        <time>2010-12-10T00:03:13Z</time>
        <course>125.063871613683</course>
        <speed>7.04329276607351</speed>
      </trkpt>
      <trkpt lat="49.039902" lon="7.93546">
        <ele>163</ele>
        <time>2010-12-10T00:03:14Z</time>
        <course>162.138674471727</course>
        <speed>7.05372924070447</speed>
      </trkpt>
      <trkpt lat="49.03986" lon="7.93542">
        <ele>163</ele>
        <time>2010-12-10T00:03:15Z</time>
        <course>56.702302829599</course>
        <speed>7.03696623157817</speed>
      </trkpt>
      <trkpt lat="49.039989" lon="7.93484">
        <ele>164</ele>
        <time>2010-12-10T00:03:21Z</time>
        <course>57.6336575529638</course>
        <speed>6.45468363458053</speed>
      </trkpt>
      <trkpt lat="49.040249" lon="7.93363">
        <ele>165</ele>
        <time>2010-12-10T00:03:36Z</time>
        <course>65.1836913496778</course>
        <speed>6.45242231598279</speed>
      </trkpt>
      <trkpt lat="49.040409" lon="7.93261">
        <ele>166</ele>
        <time>2010-12-10T00:03:47Z</time>
        <course>65.1772204451798</course>
        <speed>6.45240759110998</speed>
      </trkpt>
      <trkpt lat="49.040489" lon="7.9321">
        <ele>167</ele>
        <time>2010-12-10T00:03:53Z</time>
        <course>71.0173666525125</course>
        <speed>6.15131111640874</speed>
      </trkpt>
      <trkpt lat="49.040531" lon="7.93174">
        <ele>167</ele>
        <time>2010-12-10T00:03:58Z</time>
        <course>86.5762661282603</course>
        <speed>6.15584739752021</speed>
      </trkpt>
      <trkpt lat="49.04055" lon="7.93081">
        <ele>168</ele>
        <time>2010-12-10T00:04:09Z</time>
        <course>105.660876057257</course>
        <speed>6.15545976956867</speed>
      </trkpt>
      <trkpt lat="49.04044" lon="7.92965">
        <ele>170</ele>
        <time>2010-12-10T00:04:23Z</time>
        <course>90.0385420960638</course>
        <speed>6.15627419315898</speed>
      </trkpt>
      <trkpt lat="49.04044" lon="7.92822">
        <ele>172</ele>
        <time>2010-12-10T00:04:40Z</time>
        <course>93.3385579050832</course>
        <speed>7.37208479090226</speed>
      </trkpt>
      <trkpt lat="49.040428" lon="7.92761">
        <ele>172</ele>
        <time>2010-12-10T00:04:46Z</time>
        <course>93.1215949538424</course>
        <speed>7.36460690796876</speed>
      </trkpt>
      <trkpt lat="49.040421" lon="7.92723">
        <ele>172</ele>
        <time>2010-12-10T00:04:49Z</time>
        <course>105.502839413677</course>
        <speed>7.35862601157364</speed>
      </trkpt>
      <trkpt lat="49.04039" lon="7.9269">
        <ele>172</ele>
        <time>2010-12-10T00:04:53Z</time>
        <course>175.159912633369</course>
        <speed>7.35361991390572</speed>
      </trkpt>
      <trkpt lat="49.04023" lon="7.92686">
        <ele>172</ele>
        <time>2010-12-10T00:04:55Z</time>
        <course>108.207447347676</course>
        <speed>7.36471466722001</speed>
      </trkpt>
      <trkpt lat="49.040161" lon="7.92624">
        <ele>173</ele>
        <time>2010-12-10T00:05:01Z</time>
        <course>119.079063970265</course>
        <speed>7.36791355498658</speed>
      </trkpt>
      <trkpt lat="49.039791" lon="7.92427">
        <ele>174</ele>
        <time>2010-12-10T00:05:22Z</time>
        <course>127.292011656787</course>
        <speed>8.32567845808132</speed>
      </trkpt>
      <trkpt lat="49.039688" lon="7.92387">
        <ele>173</ele>
        <time>2010-12-10T00:05:25Z</time>
        <course>130.167958334453</course>
        <speed>8.31739290232664</speed>
      </trkpt>
      <trkpt lat="49.038719" lon="7.92046">
        <ele>171</ele>
        <time>2010-12-10T00:05:58Z</time>
        <course>131.034625182522</course>
        <speed>7.67344444752201</speed>
      </trkpt>
      <trkpt lat="49.038151" lon="7.91852">
        <ele>171</ele>
        <time>2010-12-10T00:06:18Z</time>
        <course>137.189691290288</course>
        <speed>7.67445480533961</speed>
      </trkpt>
      <trkpt lat="49.037788" lon="7.91752">
        <ele>172</ele>
        <time>2010-12-10T00:06:29Z</time>
        <course>121.499991694944</course>
        <speed>8.31642424655662</speed>
      </trkpt>
      <trkpt lat="49.03772" lon="7.91719">
        <ele>171</ele>
        <time>2010-12-10T00:06:32Z</time>
        <course>119.01845273202</course>
        <speed>8.31525028935399</speed>
      </trkpt>
      <trkpt lat="49.037651" lon="7.91682">
        <ele>171</ele>
        <time>2010-12-10T00:06:35Z</time>
        <course>107.027636391598</course>
        <speed>8.31178333035982</speed>
      </trkpt>
      <trkpt lat="49.037579" lon="7.91612">
        <ele>170</ele>
        <time>2010-12-10T00:06:41Z</time>
        <course>31.2659636966582</course>
        <speed>8.32028748704424</speed>
      </trkpt>
      <trkpt lat="49.037651" lon="7.91599">
        <ele>170</ele>
        <time>2010-12-10T00:06:43Z</time>
        <course>86.4280035988375</course>
        <speed>8.31705904407478</speed>
      </trkpt>
      <trkpt lat="49.037659" lon="7.91561">
        <ele>170</ele>
        <time>2010-12-10T00:06:46Z</time>
        <course>94.3861533532258</course>
        <speed>8.31240136617649</speed>
      </trkpt>
      <trkpt lat="49.03764" lon="7.91487">
        <ele>169</ele>
        <time>2010-12-10T00:06:53Z</time>
        <course>110.617172797671</course>
        <speed>8.32116314573418</speed>
      </trkpt>
      <trkpt lat="49.037491" lon="7.91369">
        <ele>169</ele>
        <time>2010-12-10T00:07:03Z</time>
        <course>69.5494640458254</course>
        <speed>8.32500571196445</speed>
      </trkpt>
      <trkpt lat="49.03756" lon="7.91314">
        <ele>168</ele>
        <time>2010-12-10T00:07:08Z</time>
        <course>39.638904530602</course>
        <speed>8.31969652270781</speed>
      </trkpt>
      <trkpt lat="49.038109" lon="7.91179">
        <ele>166</ele>
        <time>2010-12-10T00:07:22Z</time>
        <course>18.9031361383451</course>
        <speed>8.32137794018304</speed>
      </trkpt>
      <trkpt lat="49.0387" lon="7.91119">
        <ele>165</ele>
        <time>2010-12-10T00:07:32Z</time>
        <course>21.6626145438619</course>
        <speed>4.23350525765359</speed>
      </trkpt>
      <trkpt lat="49.03904" lon="7.91079">
        <ele>167</ele>
        <time>2010-12-10T00:07:43Z</time>
        <course>37.6111884223562</course>
        <speed>4.22995471699368</speed>
      </trkpt>
      <trkpt lat="49.039211" lon="7.9104">
        <ele>168</ele>
        <time>2010-12-10T00:07:51Z</time>
        <course>68.1858326699095</course>
        <speed>4.23362762022837</speed>
      </trkpt>
      <trkpt lat="49.03928" lon="7.90989">
        <ele>170</ele>
        <time>2010-12-10T00:08:00Z</time>
        <course>94.4255308815681</course>
        <speed>4.23371975640976</speed>
      </trkpt>
      <trkpt lat="49.039261" lon="7.90916">
        <ele>173</ele>
        <time>2010-12-10T00:08:12Z</time>
        <course>118.148666035595</course>
        <speed>4.23351045354121</speed>
      </trkpt>
      <trkpt lat="49.039131" lon="7.90844">
        <ele>176</ele>
        <time>2010-12-10T00:08:25Z</time>
        <course>137.812184904074</course>
        <speed>7.6469418762815</speed>
      </trkpt>
      <trkpt lat="49.038811" lon="7.90758">
        <ele>176</ele>
        <time>2010-12-10T00:08:35Z</time>
        <course>129.877246407378</course>
        <speed>7.65083994648441</speed>
      </trkpt>
      <trkpt lat="49.03878" lon="7.90747">
        <ele>176</ele>
        <time>2010-12-10T00:08:36Z</time>
        <course>118.991621102493</course>
        <speed>7.64654081048537</speed>
      </trkpt>
      <trkpt lat="49.038681" lon="7.90694">
        <ele>176</ele>
        <time>2010-12-10T00:08:41Z</time>
        <course>95.9174877826041</course>
        <speed>7.65427033308331</speed>
      </trkpt>
      <trkpt lat="49.038658" lon="7.90628">
        <ele>176</ele>
        <time>2010-12-10T00:08:47Z</time>
        <course>70.4228395605808</course>
        <speed>7.64580066034316</speed>
      </trkpt>
      <trkpt lat="49.0387" lon="7.90593">
        <ele>176</ele>
        <time>2010-12-10T00:08:51Z</time>
        <course>36.707666200764</course>
        <speed>7.64503571199384</speed>
      </trkpt>
      <trkpt lat="49.038872" lon="7.90555">
        <ele>177</ele>
        <time>2010-12-10T00:08:55Z</time>
        <course>29.5419745161305</course>
        <speed>8.32260463514541</speed>
      </trkpt>
      <trkpt lat="49.039009" lon="7.90532">
        <ele>176</ele>
        <time>2010-12-10T00:08:58Z</time>
        <course>23.7096463598968</course>
        <speed>8.32150966732799</speed>
      </trkpt>
      <trkpt lat="49.03944" lon="7.90476">
        <ele>174</ele>
        <time>2010-12-10T00:09:06Z</time>
        <course>20.3949275525113</course>
        <speed>8.30543441506384</speed>
      </trkpt>
      <trkpt lat="49.039631" lon="7.90455">
        <ele>173</ele>
        <time>2010-12-10T00:09:09Z</time>
        <course>23.8047394972675</course>
        <speed>8.33715364919239</speed>
      </trkpt>
      <trkpt lat="49.0397" lon="7.90446">
        <ele>173</ele>
        <time>2010-12-10T00:09:10Z</time>
        <course>25.0863649992157</course>
        <speed>8.32607799833439</speed>
      </trkpt>
      <trkpt lat="49.039982" lon="7.90407">
        <ele>172</ele>
        <time>2010-12-10T00:09:15Z</time>
        <course>155.129432869192</course>
        <speed>8.32240950677496</speed>
      </trkpt>
      <trkpt lat="49.039909" lon="7.90397">
        <ele>171</ele>
        <time>2010-12-10T00:09:16Z</time>
        <course>25.7166326341985</course>
        <speed>8.32038633292599</speed>
      </trkpt>
      <trkpt lat="49.04031" lon="7.9034">
        <ele>170</ele>
        <time>2010-12-10T00:09:24Z</time>
        <course>9.71476399682919</course>
        <speed>6.06707333576475</speed>
      </trkpt>
      <trkpt lat="49.040508" lon="7.9033">
        <ele>170</ele>
        <time>2010-12-10T00:09:27Z</time>
        <course>8.59305936691142</course>
        <speed>6.07376776348813</speed>
      </trkpt>
      <trkpt lat="49.04071" lon="7.90321">
        <ele>170</ele>
        <time>2010-12-10T00:09:31Z</time>
        <course>11.232556266301</course>
        <speed>6.06879453389566</speed>
      </trkpt>
      <trkpt lat="49.041069" lon="7.903">
        <ele>171</ele>
        <time>2010-12-10T00:09:38Z</time>
        <course>6.07636684609385</course>
        <speed>6.06974059961069</speed>
      </trkpt>
      <trkpt lat="49.04158" lon="7.90284">
        <ele>172</ele>
        <time>2010-12-10T00:09:48Z</time>
        <course>359.684264978421</course>
        <speed>6.07215056806778</speed>
      </trkpt>
      <trkpt lat="49.042198" lon="7.90285">
        <ele>174</ele>
        <time>2010-12-10T00:09:59Z</time>
        <course>359.488673297091</course>
        <speed>8.32433118338914</speed>
      </trkpt>
      <trkpt lat="49.04258" lon="7.90286">
        <ele>174</ele>
        <time>2010-12-10T00:10:04Z</time>
        <course>348.020666527016</course>
        <speed>8.30472977899569</speed>
      </trkpt>
      <trkpt lat="49.042789" lon="7.90299">
        <ele>174</ele>
        <time>2010-12-10T00:10:07Z</time>
        <course>331.178661975573</course>
        <speed>8.35493073613482</speed>
      </trkpt>
      <trkpt lat="49.04282" lon="7.90304">
        <ele>174</ele>
        <time>2010-12-10T00:10:08Z</time>
        <course>10.2813901818552</course>
        <speed>8.31185659021735</speed>
      </trkpt>
      <trkpt lat="49.04314" lon="7.90287">
        <ele>174</ele>
        <time>2010-12-10T00:10:12Z</time>
        <course>12.2300209206805</course>
        <speed>8.32282704133891</speed>
      </trkpt>
      <trkpt lat="49.043629" lon="7.90256">
        <ele>174</ele>
        <time>2010-12-10T00:10:19Z</time>
        <course>19.4432485354516</course>
        <speed>8.3192134771519</speed>
      </trkpt>
      <trkpt lat="49.04425" lon="7.90192">
        <ele>174</ele>
        <time>2010-12-10T00:10:29Z</time>
        <course>22.957453078166</course>
        <speed>8.31725777107802</speed>
      </trkpt>
      <trkpt lat="49.045158" lon="7.9008">
        <ele>172</ele>
        <time>2010-12-10T00:10:45Z</time>
        <course>29.7097243951843</course>
        <speed>8.3194846874956</speed>
      </trkpt>
      <trkpt lat="49.045429" lon="7.90035">
        <ele>171</ele>
        <time>2010-12-10T00:10:50Z</time>
        <course>78.1102809290627</course>
        <speed>8.31614263000368</speed>
      </trkpt>
      <trkpt lat="49.045479" lon="7.89966">
        <ele>171</ele>
        <time>2010-12-10T00:10:57Z</time>
        <course>62.5766944630345</course>
        <speed>3.4744957430134</speed>
      </trkpt>
      <trkpt lat="49.04557" lon="7.89915">
        <ele>173</ele>
        <time>2010-12-10T00:11:08Z</time>
        <course>65.1521800714559</course>
        <speed>3.47598612600014</speed>
      </trkpt>
      <trkpt lat="49.045731" lon="7.89814">
        <ele>178</ele>
        <time>2010-12-10T00:11:29Z</time>
        <course>63.9364284737574</course>
        <speed>3.47536071969</speed>
      </trkpt>
      <trkpt lat="49.046021" lon="7.89642">
        <ele>188</ele>
        <time>2010-12-10T00:12:07Z</time>
        <course>51.3997209403432</course>
        <speed>2.95269047641471</speed>
      </trkpt>
      <trkpt lat="49.046219" lon="7.8957">
        <ele>193</ele>
        <time>2010-12-10T00:12:26Z</time>
        <course>55.7348386691751</course>
        <speed>2.95311785063491</speed>
      </trkpt>
      <trkpt lat="49.046581" lon="7.89416">
        <ele>204</ele>
        <time>2010-12-10T00:13:06Z</time>
        <course>56.6932767534606</course>
        <speed>2.95287622159383</speed>
      </trkpt>
      <trkpt lat="49.047001" lon="7.89231">
        <ele>217</ele>
        <time>2010-12-10T00:13:54Z</time>
        <course>35.3975518512284</course>
        <speed>8.31983823433214</speed>
      </trkpt>
      <trkpt lat="49.04739" lon="7.89151">
        <ele>207</ele>
        <time>2010-12-10T00:14:03Z</time>
        <course>35.1037086439434</course>
        <speed>8.31599741406587</speed>
      </trkpt>
      <trkpt lat="49.04805" lon="7.89017">
        <ele>192</ele>
        <time>2010-12-10T00:14:18Z</time>
        <course>63.6284141198024</course>
        <speed>8.31309588899122</speed>
      </trkpt>
      <trkpt lat="49.048141" lon="7.88964">
        <ele>187</ele>
        <time>2010-12-10T00:14:23Z</time>
        <course>77.0643101358861</course>
        <speed>3.59852268007012</speed>
      </trkpt>
      <trkpt lat="49.04818" lon="7.88915">
        <ele>189</ele>
        <time>2010-12-10T00:14:33Z</time>
        <course>87.5272484649058</course>
        <speed>3.59813789690466</speed>
      </trkpt>
      <trkpt lat="49.048191" lon="7.88842">
        <ele>192</ele>
        <time>2010-12-10T00:14:47Z</time>
        <course>128.618916879251</course>
        <speed>3.59866437482235</speed>
      </trkpt>
      <trkpt lat="49.04797" lon="7.88762">
        <ele>197</ele>
        <time>2010-12-10T00:15:05Z</time>
        <course>141.33722515323</course>
        <speed>3.59792809612744</speed>
      </trkpt>
      <trkpt lat="49.047741" lon="7.88709">
        <ele>200</ele>
        <time>2010-12-10T00:15:18Z</time>
        <course>150.626447394152</course>
        <speed>3.59902571038494</speed>
      </trkpt>
      <trkpt lat="49.04681" lon="7.88557">
        <ele>210</ele>
        <time>2010-12-10T00:16:00Z</time>
        <course>138.686095882834</course>
        <speed>8.32051704263397</speed>
      </trkpt>
      <trkpt lat="49.046211" lon="7.88404">
        <ele>202</ele>
        <time>2010-12-10T00:16:16Z</time>
        <course>121.848460866434</course>
        <speed>8.31561091201839</speed>
      </trkpt>
      <trkpt lat="49.045959" lon="7.88286">
        <ele>198</ele>
        <time>2010-12-10T00:16:26Z</time>
        <course>133.767528096067</course>
        <speed>8.3172995142614</speed>
      </trkpt>
      <trkpt lat="49.045551" lon="7.88162">
        <ele>194</ele>
        <time>2010-12-10T00:16:39Z</time>
        <course>133.232731493557</course>
        <speed>8.31198319202722</speed>
      </trkpt>
      <trkpt lat="49.045509" lon="7.88149">
        <ele>194</ele>
        <time>2010-12-10T00:16:40Z</time>
        <course>141.276964920028</course>
        <speed>8.34457356697684</speed>
      </trkpt>
      <trkpt lat="49.045479" lon="7.88142">
        <ele>194</ele>
        <time>2010-12-10T00:16:41Z</time>
        <course>144.119410431642</course>
        <speed>8.27117901742414</speed>
      </trkpt>
      <trkpt lat="49.045441" lon="7.88134">
        <ele>193</ele>
        <time>2010-12-10T00:16:41Z</time>
        <course>150.20448264772</course>
        <speed>8.32767167157836</speed>
      </trkpt>
      <trkpt lat="49.045399" lon="7.88127">
        <ele>193</ele>
        <time>2010-12-10T00:16:42Z</time>
        <course>10.4630496049961</course>
        <speed>8.31973736746228</speed>
      </trkpt>
      <trkpt lat="49.04607" lon="7.88091">
        <ele>191</ele>
        <time>2010-12-10T00:16:52Z</time>
        <course>137.92788596478</course>
        <speed>4.93698232024004</speed>
      </trkpt>
      <trkpt lat="49.04583" lon="7.88028">
        <ele>192</ele>
        <time>2010-12-10T00:17:03Z</time>
        <course>154.323880800964</course>
        <speed>4.93740089075129</speed>
      </trkpt>
      <trkpt lat="49.04528" lon="7.87951">
        <ele>195</ele>
        <time>2010-12-10T00:17:19Z</time>
        <course>132.994929904532</course>
        <speed>4.93614705920673</speed>
      </trkpt>
      <trkpt lat="49.04512" lon="7.87901">
        <ele>197</ele>
        <time>2010-12-10T00:17:28Z</time>
        <course>68.5252250662504</course>
        <speed>4.93999787601508</speed>
      </trkpt>
      <trkpt lat="49.04517" lon="7.87864">
        <ele>198</ele>
        <time>2010-12-10T00:17:33Z</time>
        <course>25.9035557185054</course>
        <speed>4.75890536107978</speed>
      </trkpt>
      <trkpt lat="49.045361" lon="7.87837">
        <ele>199</ele>
        <time>2010-12-10T00:17:39Z</time>
        <course>6.92843158419021</course>
        <speed>4.76471752930159</speed>
      </trkpt>
      <trkpt lat="49.045559" lon="7.8783">
        <ele>199</ele>
        <time>2010-12-10T00:17:44Z</time>
        <course>356.310944502404</course>
        <speed>4.76408650712398</speed>
      </trkpt>
      <trkpt lat="49.045719" lon="7.87833">
        <ele>200</ele>
        <time>2010-12-10T00:17:48Z</time>
        <course>345.845969189979</course>
        <speed>4.76646185494515</speed>
      </trkpt>
      <trkpt lat="49.04591" lon="7.87847">
        <ele>201</ele>
        <time>2010-12-10T00:17:53Z</time>
        <course>328.935525095642</course>
        <speed>4.76327550646237</speed>
      </trkpt>
      <trkpt lat="49.04607" lon="7.87875">
        <ele>202</ele>
        <time>2010-12-10T00:17:58Z</time>
        <course>326.288996198445</course>
        <speed>4.76426228434371</speed>
      </trkpt>
      <trkpt lat="49.046261" lon="7.87912">
        <ele>203</ele>
        <time>2010-12-10T00:18:06Z</time>
        <course>339.737556922255</course>
        <speed>4.76371633976204</speed>
      </trkpt>
      <trkpt lat="49.0467" lon="7.87959">
        <ele>206</ele>
        <time>2010-12-10T00:18:18Z</time>
        <course>342.990628438391</course>
        <speed>8.31235332544616</speed>
      </trkpt>
      <trkpt lat="49.046982" lon="7.87984">
        <ele>204</ele>
        <time>2010-12-10T00:18:22Z</time>
        <course>354.382477551252</course>
        <speed>8.32645691438458</speed>
      </trkpt>
      <trkpt lat="49.047298" lon="7.87993">
        <ele>202</ele>
        <time>2010-12-10T00:18:27Z</time>
        <course>1.96644811460982</course>
        <speed>8.32408297284708</speed>
      </trkpt>
      <trkpt lat="49.0476" lon="7.8799">
        <ele>201</ele>
        <time>2010-12-10T00:18:31Z</time>
        <course>10.1552045481708</course>
        <speed>8.31642392364498</speed>
      </trkpt>
      <trkpt lat="49.047909" lon="7.87974">
        <ele>199</ele>
        <time>2010-12-10T00:18:35Z</time>
        <course>20.3917416294386</course>
        <speed>8.31584238429103</speed>
      </trkpt>
      <trkpt lat="49.048599" lon="7.879">
        <ele>196</ele>
        <time>2010-12-10T00:18:46Z</time>
        <course>13.957710163079</course>
        <speed>5.76968280869535</speed>
      </trkpt>
      <trkpt lat="49.04892" lon="7.87877">
        <ele>196</ele>
        <time>2010-12-10T00:18:53Z</time>
        <course>1.98164937610782</course>
        <speed>5.76908883462122</speed>
      </trkpt>
      <trkpt lat="49.049221" lon="7.87874">
        <ele>197</ele>
        <time>2010-12-10T00:18:59Z</time>
        <course>350.217152625239</course>
        <speed>5.77296261154427</speed>
      </trkpt>
      <trkpt lat="49.05019" lon="7.87922">
        <ele>200</ele>
        <time>2010-12-10T00:19:19Z</time>
        <course>352.647465091029</course>
        <speed>5.77492805022898</speed>
      </trkpt>
      <trkpt lat="49.050541" lon="7.87935">
        <ele>201</ele>
        <time>2010-12-10T00:19:26Z</time>
        <course>357.301824375187</course>
        <speed>4.44298551916698</speed>
      </trkpt>
      <trkpt lat="49.050911" lon="7.8794">
        <ele>202</ele>
        <time>2010-12-10T00:19:35Z</time>
        <course>17.1757047914096</course>
        <speed>4.44240877791596</speed>
      </trkpt>
      <trkpt lat="49.05151" lon="7.87887">
        <ele>206</ele>
        <time>2010-12-10T00:19:52Z</time>
        <course>35.4202704063905</course>
        <speed>4.44334565269793</speed>
      </trkpt>
      <trkpt lat="49.051682" lon="7.87852">
        <ele>207</ele>
        <time>2010-12-10T00:19:59Z</time>
        <course>56.0783611897454</course>
        <speed>4.43832577134817</speed>
      </trkpt>
      <trkpt lat="49.051769" lon="7.87815">
        <ele>208</ele>
        <time>2010-12-10T00:20:06Z</time>
        <course>59.2585734193106</course>
        <speed>4.44115401132469</speed>
      </trkpt>
      <trkpt lat="49.05228" lon="7.8757">
        <ele>217</ele>
        <time>2010-12-10T00:20:48Z</time>
        <course>27.4219824797743</course>
        <speed>8.316809840255</speed>
      </trkpt>
      <trkpt lat="49.053329" lon="7.87415">
        <ele>208</ele>
        <time>2010-12-10T00:21:07Z</time>
        <course>24.8430391154317</course>
        <speed>8.32014314311438</speed>
      </trkpt>
      <trkpt lat="49.054409" lon="7.87273">
        <ele>200</ele>
        <time>2010-12-10T00:21:27Z</time>
        <course>19.0817992761253</course>
        <speed>8.31640089273043</speed>
      </trkpt>
      <trkpt lat="49.05545" lon="7.87171">
        <ele>196</ele>
        <time>2010-12-10T00:21:43Z</time>
        <course>28.3912933006326</course>
        <speed>8.32088506108016</speed>
      </trkpt>
      <trkpt lat="49.056229" lon="7.87052">
        <ele>193</ele>
        <time>2010-12-10T00:21:58Z</time>
        <course>21.2479413655661</course>
        <speed>8.31736989224951</speed>
      </trkpt>
      <trkpt lat="49.057819" lon="7.86878">
        <ele>193</ele>
        <time>2010-12-10T00:22:24Z</time>
        <course>29.4818358008638</course>
        <speed>8.3175264847171</speed>
      </trkpt>
      <trkpt lat="49.059429" lon="7.86623">
        <ele>184</ele>
        <time>2010-12-10T00:22:55Z</time>
        <course>30.2151723201873</course>
        <speed>3.69302339971069</speed>
      </trkpt>
      <trkpt lat="49.059711" lon="7.86577">
        <ele>186</ele>
        <time>2010-12-10T00:23:07Z</time>
        <course>47.6957138631932</course>
        <speed>3.69260109260574</speed>
      </trkpt>
      <trkpt lat="49.060108" lon="7.86455">
        <ele>193</ele>
        <time>2010-12-10T00:23:34Z</time>
        <course>53.9166782703875</course>
        <speed>3.69232624568195</speed>
      </trkpt>
      <trkpt lat="49.060421" lon="7.86335">
        <ele>199</ele>
        <time>2010-12-10T00:24:00Z</time>
        <course>38.093634706334</course>
        <speed>8.3211201561192</speed>
      </trkpt>
      <trkpt lat="49.060791" lon="7.86254">
        <ele>192</ele>
        <time>2010-12-10T00:24:08Z</time>
        <course>25.5915122054064</course>
        <speed>8.32076224106062</speed>
      </trkpt>
      <trkpt lat="49.06139" lon="7.86174">
        <ele>185</ele>
        <time>2010-12-10T00:24:19Z</time>
        <course>23.9408501887482</course>
        <speed>8.32228735440394</speed>
      </trkpt>
      <trkpt lat="49.061859" lon="7.86116">
        <ele>180</ele>
        <time>2010-12-10T00:24:27Z</time>
        <course>29.9964696899792</course>
        <speed>4.19211505364557</speed>
      </trkpt>
      <trkpt lat="49.062351" lon="7.86037">
        <ele>183</ele>
        <time>2010-12-10T00:24:46Z</time>
        <course>34.4732339388562</course>
        <speed>4.19184150328165</speed>
      </trkpt>
      <trkpt lat="49.062592" lon="7.85991">
        <ele>186</ele>
        <time>2010-12-10T00:24:56Z</time>
        <course>38.87361168609</course>
        <speed>4.19229061565015</speed>
      </trkpt>
      <trkpt lat="49.062851" lon="7.85933">
        <ele>188</ele>
        <time>2010-12-10T00:25:08Z</time>
        <course>59.6674418372666</course>
        <speed>4.19175055051267</speed>
      </trkpt>
      <trkpt lat="49.062988" lon="7.85868">
        <ele>191</ele>
        <time>2010-12-10T00:25:20Z</time>
        <course>62.4297042609051</course>
        <speed>8.32271798246516</speed>
      </trkpt>
      <trkpt lat="49.063099" lon="7.85809">
        <ele>189</ele>
        <time>2010-12-10T00:25:26Z</time>
        <course>58.335525447443</course>
        <speed>8.31159774331188</speed>
      </trkpt>
      <trkpt lat="49.063179" lon="7.85773">
        <ele>188</ele>
        <time>2010-12-10T00:25:29Z</time>
        <course>56.9316262594057</course>
        <speed>8.30877168277879</speed>
      </trkpt>
      <trkpt lat="49.06324" lon="7.85747">
        <ele>187</ele>
        <time>2010-12-10T00:25:31Z</time>
        <course>56.7378087612188</course>
        <speed>8.32185844743876</speed>
      </trkpt>
      <trkpt lat="49.063389" lon="7.85684">
        <ele>185</ele>
        <time>2010-12-10T00:25:37Z</time>
        <course>46.8739437866037</course>
        <speed>8.32079945868322</speed>
      </trkpt>
      <trkpt lat="49.063541" lon="7.85639">
        <ele>184</ele>
        <time>2010-12-10T00:25:42Z</time>
        <course>21.2342773110733</course>
        <speed>8.31990374966828</speed>
      </trkpt>
      <trkpt lat="49.063801" lon="7.85611">
        <ele>183</ele>
        <time>2010-12-10T00:25:46Z</time>
        <course>6.74733334042606</course>
        <speed>8.35297065173821</speed>
      </trkpt>
      <trkpt lat="49.063862" lon="7.85609">
        <ele>183</ele>
        <time>2010-12-10T00:25:47Z</time>
        <course>6.74733334042606</course>
        <speed>8.35297065173821</speed>
      </trkpt>
      <trkpt lat="49.063862" lon="7.85609">
        <ele>183</ele>
        <time>2010-12-10T00:25:48Z</time>
        <course>6.90303336114463</course>
        <speed>8.31205773748349</speed>
      </trkpt>
      <trkpt lat="49.06422" lon="7.85597">
        <ele>182</ele>
        <time>2010-12-10T00:25:53Z</time>
        <course>347.354891533616</course>
        <speed>8.32242180776943</speed>
      </trkpt>
      <trkpt lat="49.06451" lon="7.85615">
        <ele>182</ele>
        <time>2010-12-10T00:25:57Z</time>
        <course>357.237649518699</course>
        <speed>8.3241211048773</speed>
      </trkpt>
      <trkpt lat="49.06496" lon="7.85621">
        <ele>182</ele>
        <time>2010-12-10T00:26:03Z</time>
        <course>358.675207876796</course>
        <speed>8.32357524081101</speed>
      </trkpt>
      <trkpt lat="49.06543" lon="7.85624">
        <ele>182</ele>
        <time>2010-12-10T00:26:09Z</time>
        <course>3.15264877307235</course>
        <speed>8.31651159991693</speed>
      </trkpt>
      <trkpt lat="49.065891" lon="7.85617">
        <ele>182</ele>
        <time>2010-12-10T00:26:15Z</time>
        <course>4.06339385587389</course>
        <speed>8.3159933126299</speed>
      </trkpt>
      <trkpt lat="49.066761" lon="7.856">
        <ele>182</ele>
        <time>2010-12-10T00:26:27Z</time>
        <course>299.212949625755</course>
        <speed>8.31108277491496</speed>
      </trkpt>
      <trkpt lat="49.066879" lon="7.85658">
        <ele>182</ele>
        <time>2010-12-10T00:26:32Z</time>
        <course>286.944782544996</course>
        <speed>8.32202467160798</speed>
      </trkpt>
      <trkpt lat="49.06694" lon="7.85713">
        <ele>182</ele>
        <time>2010-12-10T00:26:37Z</time>
        <course>312.749716931641</course>
        <speed>8.30961955044096</speed>
      </trkpt>
      <trkpt lat="49.067051" lon="7.85746">
        <ele>182</ele>
        <time>2010-12-10T00:26:40Z</time>
        <course>334.211840473543</course>
        <speed>2.51501315727843</speed>
      </trkpt>
      <trkpt lat="49.06736" lon="7.85787">
        <ele>187</ele>
        <time>2010-12-10T00:26:59Z</time>
        <course>338.235820251009</course>
        <speed>2.51499686707214</speed>
      </trkpt>
      <trkpt lat="49.06778" lon="7.85833">
        <ele>193</ele>
        <time>2010-12-10T00:27:21Z</time>
        <course>343.811550447088</course>
        <speed>2.51506255404428</speed>
      </trkpt>
      <trkpt lat="49.068069" lon="7.85856">
        <ele>198</ele>
        <time>2010-12-10T00:27:36Z</time>
        <course>359.564971223988</course>
        <speed>2.51428399873294</speed>
      </trkpt>
      <trkpt lat="49.06855" lon="7.85857">
        <ele>204</ele>
        <time>2010-12-10T00:27:57Z</time>
        <course>355.027633279152</course>
        <speed>2.51516471885375</speed>
      </trkpt>
      <trkpt lat="49.06876" lon="7.85862">
        <ele>207</ele>
        <time>2010-12-10T00:28:06Z</time>
        <course>356.988196981623</course>
        <speed>4.52307710362358</speed>
      </trkpt>
      <trkpt lat="49.069038" lon="7.85866">
        <ele>208</ele>
        <time>2010-12-10T00:28:13Z</time>
        <course>4.85479292511324</course>
        <speed>4.52314299269724</speed>
      </trkpt>
      <trkpt lat="49.069469" lon="7.85856">
        <ele>210</ele>
        <time>2010-12-10T00:28:24Z</time>
        <course>357.540385141335</course>
        <speed>4.52504890233273</speed>
      </trkpt>
      <trkpt lat="49.069981" lon="7.85862">
        <ele>212</ele>
        <time>2010-12-10T00:28:37Z</time>
        <course>1.50673053273476</course>
        <speed>4.5222552254891</speed>
      </trkpt>
      <trkpt lat="49.070679" lon="7.85857">
        <ele>216</ele>
        <time>2010-12-10T00:28:54Z</time>
        <course>4.37987528339517</course>
        <speed>7.036874878271</speed>
      </trkpt>
      <trkpt lat="49.071159" lon="7.85847">
        <ele>216</ele>
        <time>2010-12-10T00:29:01Z</time>
        <course>358.159883587981</course>
        <speed>7.04091083424029</speed>
      </trkpt>
      <trkpt lat="49.071388" lon="7.85849">
        <ele>216</ele>
        <time>2010-12-10T00:29:05Z</time>
        <course>357.803934438136</course>
        <speed>7.03346135104785</speed>
      </trkpt>
      <trkpt lat="49.072639" lon="7.85862">
        <ele>218</ele>
        <time>2010-12-10T00:29:25Z</time>
        <course>355.826387789188</course>
        <speed>8.3158371325446</speed>
      </trkpt>
      <trkpt lat="49.073399" lon="7.85877">
        <ele>218</ele>
        <time>2010-12-10T00:29:35Z</time>
        <course>3.46422739045061</course>
        <speed>8.31565084131187</speed>
      </trkpt>
      <trkpt lat="49.07444" lon="7.8586">
        <ele>218</ele>
        <time>2010-12-10T00:29:49Z</time>
        <course>6.52573260858526</course>
        <speed>8.31826589671133</speed>
      </trkpt>
      <trkpt lat="49.075871" lon="7.85816">
        <ele>200</ele>
        <time>2010-12-10T00:30:09Z</time>
        <course>2.96785218564763</course>
        <speed>8.32031857432749</speed>
      </trkpt>
      <trkpt lat="49.076302" lon="7.8581">
        <ele>195</ele>
        <time>2010-12-10T00:30:14Z</time>
        <course>12.1495277115863</course>
        <speed>3.60629306871715</speed>
      </trkpt>
      <trkpt lat="49.076839" lon="7.85779">
        <ele>199</ele>
        <time>2010-12-10T00:30:32Z</time>
        <course>17.4448784386174</course>
        <speed>3.60701298277096</speed>
      </trkpt>
      <trkpt lat="49.077469" lon="7.85726">
        <ele>204</ele>
        <time>2010-12-10T00:30:54Z</time>
        <course>15.7475122326343</course>
        <speed>3.60633129038215</speed>
      </trkpt>
      <trkpt lat="49.078159" lon="7.85674">
        <ele>210</ele>
        <time>2010-12-10T00:31:18Z</time>
        <course>11.5761937234761</course>
        <speed>8.31409951067699</speed>
      </trkpt>
      <trkpt lat="49.078781" lon="7.8564">
        <ele>208</ele>
        <time>2010-12-10T00:31:27Z</time>
        <course>10.0777838082184</course>
        <speed>8.31654202996847</speed>
      </trkpt>
      <trkpt lat="49.079182" lon="7.85621">
        <ele>207</ele>
        <time>2010-12-10T00:31:32Z</time>
        <course>21.111423781341</course>
        <speed>8.31197331059328</speed>
      </trkpt>
      <trkpt lat="49.079571" lon="7.85581">
        <ele>206</ele>
        <time>2010-12-10T00:31:39Z</time>
        <course>32.1694200443279</course>
        <speed>8.31976052254215</speed>
      </trkpt>
      <trkpt lat="49.080151" lon="7.85484">
        <ele>204</ele>
        <time>2010-12-10T00:31:50Z</time>
        <course>100.026219171291</course>
        <speed>8.31933540428371</speed>
      </trkpt>
      <trkpt lat="49.08009" lon="7.85392">
        <ele>200</ele>
        <time>2010-12-10T00:31:58Z</time>
        <course>46.6855278321846</course>
        <speed>8.32316188739555</speed>
      </trkpt>
      <trkpt lat="49.080349" lon="7.85319">
        <ele>197</ele>
        <time>2010-12-10T00:32:05Z</time>
        <course>56.3031692062062</course>
        <speed>8.31465752366652</speed>
      </trkpt>
      <trkpt lat="49.08057" lon="7.85231">
        <ele>194</ele>
        <time>2010-12-10T00:32:14Z</time>
        <course>75.1434602604028</course>
        <speed>8.31938775139177</speed>
      </trkpt>
      <trkpt lat="49.08065" lon="7.85151">
        <ele>191</ele>
        <time>2010-12-10T00:32:21Z</time>
        <course>68.5056777890431</course>
        <speed>3.21089710935343</speed>
      </trkpt>
      <trkpt lat="49.080742" lon="7.85089">
        <ele>194</ele>
        <time>2010-12-10T00:32:35Z</time>
        <course>51.6015771950852</course>
        <speed>3.2112000529806</speed>
      </trkpt>
      <trkpt lat="49.080978" lon="7.8501">
        <ele>199</ele>
        <time>2010-12-10T00:32:55Z</time>
        <course>42.3521346324118</course>
        <speed>3.21040759153781</speed>
      </trkpt>
      <trkpt lat="49.081131" lon="7.84973">
        <ele>202</ele>
        <time>2010-12-10T00:33:05Z</time>
        <course>22.4531201950667</course>
        <speed>3.21236673704503</speed>
      </trkpt>
      <trkpt lat="49.081551" lon="7.84927">
        <ele>206</ele>
        <time>2010-12-10T00:33:23Z</time>
        <course>31.5418678835386</course>
        <speed>3.21191507810017</speed>
      </trkpt>
      <trkpt lat="49.081951" lon="7.84862">
        <ele>212</ele>
        <time>2010-12-10T00:33:43Z</time>
        <course>48.3256861270488</course>
        <speed>5.56187542298613</speed>
      </trkpt>
      <trkpt lat="49.082291" lon="7.84761">
        <ele>214</ele>
        <time>2010-12-10T00:33:58Z</time>
        <course>54.7682363292057</course>
        <speed>5.56141515387737</speed>
      </trkpt>
      <trkpt lat="49.082569" lon="7.84657">
        <ele>216</ele>
        <time>2010-12-10T00:34:12Z</time>
        <course>63.8216053407899</course>
        <speed>5.56129838893082</speed>
      </trkpt>
      <trkpt lat="49.082649" lon="7.84614">
        <ele>216</ele>
        <time>2010-12-10T00:34:18Z</time>
        <course>75.210450289645</course>
        <speed>5.56510358423666</speed>
      </trkpt>
      <trkpt lat="49.08271" lon="7.84553">
        <ele>218</ele>
        <time>2010-12-10T00:34:26Z</time>
        <course>90.0169716252066</course>
        <speed>8.31773045544618</speed>
      </trkpt>
      <trkpt lat="49.08271" lon="7.84489">
        <ele>217</ele>
        <time>2010-12-10T00:34:32Z</time>
        <course>102.196704317327</course>
        <speed>8.31876224156884</speed>
      </trkpt>
      <trkpt lat="49.082661" lon="7.84429">
        <ele>217</ele>
        <time>2010-12-10T00:34:37Z</time>
        <course>98.0572071491645</course>
        <speed>8.32079675207889</speed>
      </trkpt>
      <trkpt lat="49.08263" lon="7.84371">
        <ele>216</ele>
        <time>2010-12-10T00:34:42Z</time>
        <course>90.0249278896831</course>
        <speed>8.32280330942499</speed>
      </trkpt>
      <trkpt lat="49.08263" lon="7.84277">
        <ele>216</ele>
        <time>2010-12-10T00:34:51Z</time>
        <course>87.2356393552798</course>
        <speed>5.62169245519319</speed>
      </trkpt>
      <trkpt lat="49.082649" lon="7.84174">
        <ele>217</ele>
        <time>2010-12-10T00:35:04Z</time>
        <course>78.3969933246993</course>
        <speed>5.62179602956069</speed>
      </trkpt>
      <trkpt lat="49.082691" lon="7.8412">
        <ele>218</ele>
        <time>2010-12-10T00:35:11Z</time>
        <course>78.3504779451623</course>
        <speed>5.62463738621971</speed>
      </trkpt>
      <trkpt lat="49.082741" lon="7.84056">
        <ele>219</ele>
        <time>2010-12-10T00:35:19Z</time>
        <course>56.7441404610877</course>
        <speed>5.61990765926053</speed>
      </trkpt>
      <trkpt lat="49.08289" lon="7.83996">
        <ele>221</ele>
        <time>2010-12-10T00:35:28Z</time>
        <course>58.157751613355</course>
        <speed>8.32071423632546</speed>
      </trkpt>
      <trkpt lat="49.08305" lon="7.83928">
        <ele>215</ele>
        <time>2010-12-10T00:35:34Z</time>
        <course>67.0387352345248</course>
        <speed>8.32596187798138</speed>
      </trkpt>
      <trkpt lat="49.083111" lon="7.8389">
        <ele>212</ele>
        <time>2010-12-10T00:35:37Z</time>
        <course>41.1657536112472</course>
        <speed>8.31110760755571</speed>
      </trkpt>
      <trkpt lat="49.083241" lon="7.8386">
        <ele>209</ele>
        <time>2010-12-10T00:35:40Z</time>
        <course>44.2231733259577</course>
        <speed>8.31432770752257</speed>
      </trkpt>
      <trkpt lat="49.083389" lon="7.83822">
        <ele>205</ele>
        <time>2010-12-10T00:35:44Z</time>
        <course>34.9899943996108</course>
        <speed>8.33327414654497</speed>
      </trkpt>
      <trkpt lat="49.083519" lon="7.83798">
        <ele>203</ele>
        <time>2010-12-10T00:35:47Z</time>
        <course>50.7856189234185</course>
        <speed>8.32725172227503</speed>
      </trkpt>
      <trkpt lat="49.083649" lon="7.83756">
        <ele>199</ele>
        <time>2010-12-10T00:35:51Z</time>
        <course>38.9311807514218</course>
        <speed>8.31799496949312</speed>
      </trkpt>
      <trkpt lat="49.083851" lon="7.83713">
        <ele>195</ele>
        <time>2010-12-10T00:35:56Z</time>
        <course>24.6374114248039</course>
        <speed>2.49301301182902</speed>
      </trkpt>
      <trkpt lat="49.084888" lon="7.83588">
        <ele>212</ele>
        <time>2010-12-10T00:36:55Z</time>
        <course>28.0579817637485</course>
        <speed>2.49260849280458</speed>
      </trkpt>
      <trkpt lat="49.085331" lon="7.83526">
        <ele>220</ele>
        <time>2010-12-10T00:37:21Z</time>
        <course>90.0201321444931</course>
        <speed>8.31729145877089</speed>
      </trkpt>
      <trkpt lat="49.085331" lon="7.8345">
        <ele>216</ele>
        <time>2010-12-10T00:37:28Z</time>
        <course>43.6144581190535</course>
        <speed>8.31960564321882</speed>
      </trkpt>
      <trkpt lat="49.085571" lon="7.8339">
        <ele>213</ele>
        <time>2010-12-10T00:37:34Z</time>
        <course>74.5200432879113</course>
        <speed>8.2929471851412</speed>
      </trkpt>
      <trkpt lat="49.08559" lon="7.83372">
        <ele>212</ele>
        <time>2010-12-10T00:37:36Z</time>
        <course>49.759904300054</course>
        <speed>8.32735886069713</speed>
      </trkpt>
      <trkpt lat="49.08569" lon="7.83341">
        <ele>210</ele>
        <time>2010-12-10T00:37:39Z</time>
        <course>51.2219473653875</course>
        <speed>8.29307610506329</speed>
      </trkpt>
      <trkpt lat="49.085739" lon="7.83325">
        <ele>209</ele>
        <time>2010-12-10T00:37:40Z</time>
        <course>22.7478098902236</course>
        <speed>8.3292331287733</speed>
      </trkpt>
      <trkpt lat="49.08593" lon="7.83304">
        <ele>208</ele>
        <time>2010-12-10T00:37:44Z</time>
        <course>46.5419772736332</course>
        <speed>8.31276710864376</speed>
      </trkpt>
      <trkpt lat="49.086071" lon="7.83265">
        <ele>206</ele>
        <time>2010-12-10T00:37:47Z</time>
        <course>64.8244375081199</course>
        <speed>4.77737684194191</speed>
      </trkpt>
      <trkpt lat="49.08622" lon="7.83182">
        <ele>208</ele>
        <time>2010-12-10T00:38:01Z</time>
        <course>97.1956441114199</course>
        <speed>4.77836190829686</speed>
      </trkpt>
      <trkpt lat="49.086151" lon="7.83038">
        <ele>212</ele>
        <time>2010-12-10T00:38:23Z</time>
        <course>49.7084584706542</course>
        <speed>4.78007461316245</speed>
      </trkpt>
      <trkpt lat="49.086342" lon="7.82979">
        <ele>214</ele>
        <time>2010-12-10T00:38:33Z</time>
        <course>59.6586744633769</course>
        <speed>2.18785943367503</speed>
      </trkpt>
      <trkpt lat="49.086418" lon="7.82945">
        <ele>217</ele>
        <time>2010-12-10T00:38:45Z</time>
        <course>61.1795839066625</course>
        <speed>2.18771497505557</speed>
      </trkpt>
      <trkpt lat="49.0867" lon="7.82811">
        <ele>232</ele>
        <time>2010-12-10T00:39:31Z</time>
        <course>69.5935996147995</course>
        <speed>2.1878908838177</speed>
      </trkpt>
      <trkpt lat="49.086811" lon="7.82733">
        <ele>240</ele>
        <time>2010-12-10T00:39:58Z</time>
        <course>25.5386731839967</course>
        <speed>2.18639276455654</speed>
      </trkpt>
      <trkpt lat="49.086899" lon="7.82722">
        <ele>241</ele>
        <time>2010-12-10T00:40:04Z</time>
        <course>45.0046028474549</course>
        <speed>2.18712316127619</speed>
      </trkpt>
      <trkpt lat="49.087029" lon="7.82688">
        <ele>246</ele>
        <time>2010-12-10T00:40:17Z</time>
        <course>28.4911300887716</course>
        <speed>8.31654283362146</speed>
      </trkpt>
      <trkpt lat="49.08765" lon="7.826">
        <ele>242</ele>
        <time>2010-12-10T00:40:28Z</time>
        <course>18.8908128796255</course>
        <speed>8.31906738021442</speed>
      </trkpt>
      <trkpt lat="49.088581" lon="7.82517">
        <ele>237</ele>
        <time>2010-12-10T00:40:42Z</time>
        <course>8.73704898072659</course>
        <speed>8.32386297928775</speed>
      </trkpt>
      <trkpt lat="49.089031" lon="7.82499">
        <ele>230</ele>
        <time>2010-12-10T00:40:49Z</time>
        <course>8.0074879882183</course>
        <speed>8.31017220905157</speed>
      </trkpt>
      <trkpt lat="49.089359" lon="7.82487">
        <ele>225</ele>
        <time>2010-12-10T00:40:53Z</time>
        <course>11.3925754989908</course>
        <speed>8.32534062243206</speed>
      </trkpt>
      <trkpt lat="49.089741" lon="7.82467">
        <ele>219</ele>
        <time>2010-12-10T00:40:59Z</time>
        <course>34.6881896961611</course>
        <speed>8.31266601126645</speed>
      </trkpt>
      <trkpt lat="49.089958" lon="7.82428">
        <ele>214</ele>
        <time>2010-12-10T00:41:03Z</time>
        <course>64.9138008673459</course>
        <speed>8.31419104900504</speed>
      </trkpt>
      <trkpt lat="49.09005" lon="7.82377">
        <ele>210</ele>
        <time>2010-12-10T00:41:08Z</time>
        <course>42.5455990988645</course>
        <speed>8.31243331787047</speed>
      </trkpt>
      <trkpt lat="49.090302" lon="7.82317">
        <ele>208</ele>
        <time>2010-12-10T00:41:14Z</time>
        <course>113.231734076228</course>
        <speed>8.32020655207459</speed>
      </trkpt>
      <trkpt lat="49.090221" lon="7.82268">
        <ele>208</ele>
        <time>2010-12-10T00:41:18Z</time>
        <course>112.173877552995</course>
        <speed>8.31428403878336</speed>
      </trkpt>
      <trkpt lat="49.09013" lon="7.8221">
        <ele>207</ele>
        <time>2010-12-10T00:41:24Z</time>
        <course>121.925592575657</course>
        <speed>8.24491581364047</speed>
      </trkpt>
      <trkpt lat="49.090118" lon="7.82205">
        <ele>207</ele>
        <time>2010-12-10T00:41:24Z</time>
        <course>115.74856733434</course>
        <speed>8.32160742487411</speed>
      </trkpt>
      <trkpt lat="49.089951" lon="7.82115">
        <ele>206</ele>
        <time>2010-12-10T00:41:32Z</time>
        <course>90.0203580170489</course>
        <speed>3.85103349491399</speed>
      </trkpt>
      <trkpt lat="49.089951" lon="7.82038">
        <ele>209</ele>
        <time>2010-12-10T00:41:47Z</time>
        <course>53.7015953218753</course>
        <speed>3.85277799362078</speed>
      </trkpt>
      <trkpt lat="49.090118" lon="7.81979">
        <ele>211</ele>
        <time>2010-12-10T00:41:59Z</time>
        <course>54.9378191065857</course>
        <speed>3.85185231886321</speed>
      </trkpt>
      <trkpt lat="49.090302" lon="7.81911">
        <ele>215</ele>
        <time>2010-12-10T00:42:13Z</time>
        <course>73.0955327746681</course>
        <speed>3.85238600529837</speed>
      </trkpt>
      <trkpt lat="49.09037" lon="7.81853">
        <ele>217</ele>
        <time>2010-12-10T00:42:24Z</time>
        <course>95.510333121197</course>
        <speed>3.85107840653304</speed>
      </trkpt>
      <trkpt lat="49.09034" lon="7.81772">
        <ele>221</ele>
        <time>2010-12-10T00:42:39Z</time>
        <course>107.350124521359</course>
        <speed>8.31383397509232</speed>
      </trkpt>
      <trkpt lat="49.090221" lon="7.81673">
        <ele>211</ele>
        <time>2010-12-10T00:42:48Z</time>
        <course>132.017478929975</course>
        <speed>8.32057560997122</speed>
      </trkpt>
      <trkpt lat="49.089729" lon="7.81531">
        <ele>196</ele>
        <time>2010-12-10T00:43:02Z</time>
        <course>104.574224732908</course>
        <speed>8.33359152619452</speed>
      </trkpt>
      <trkpt lat="49.089699" lon="7.81501">
        <ele>194</ele>
        <time>2010-12-10T00:43:05Z</time>
        <course>110.200035743861</course>
        <speed>8.32481286154314</speed>
      </trkpt>
      <trkpt lat="49.0896" lon="7.81431">
        <ele>193</ele>
        <time>2010-12-10T00:43:11Z</time>
        <course>70.0231155639054</course>
        <speed>8.32517648284673</speed>
      </trkpt>
      <trkpt lat="49.089691" lon="7.81366">
        <ele>193</ele>
        <time>2010-12-10T00:43:17Z</time>
        <course>59.798474432032</course>
        <speed>8.32195309622655</speed>
      </trkpt>
      <trkpt lat="49.089931" lon="7.81259">
        <ele>192</ele>
        <time>2010-12-10T00:43:27Z</time>
        <course>62.7659329061125</course>
        <speed>8.3248440551767</speed>
      </trkpt>
      <trkpt lat="49.09005" lon="7.81199">
        <ele>192</ele>
        <time>2010-12-10T00:43:32Z</time>
        <course>28.8511504935284</course>
        <speed>5.17518495717099</speed>
      </trkpt>
      <trkpt lat="49.090519" lon="7.81132">
        <ele>194</ele>
        <time>2010-12-10T00:43:46Z</time>
        <course>17.4013550834546</course>
        <speed>5.17718866160679</speed>
      </trkpt>
      <trkpt lat="49.090679" lon="7.81119">
        <ele>194</ele>
        <time>2010-12-10T00:43:50Z</time>
        <course>360</course>
        <speed>5.17194470038942</speed>
      </trkpt>
      <trkpt lat="49.090881" lon="7.81119">
        <ele>195</ele>
        <time>2010-12-10T00:43:54Z</time>
        <course>340.265636612062</course>
        <speed>5.17740376730665</speed>
      </trkpt>
      <trkpt lat="49.091301" lon="7.81158">
        <ele>197</ele>
        <time>2010-12-10T00:44:05Z</time>
        <course>347.397223439933</course>
        <speed>5.17755449858085</speed>
      </trkpt>
      <trkpt lat="49.09182" lon="7.81188">
        <ele>199</ele>
        <time>2010-12-10T00:44:17Z</time>
        <course>353.943797887783</course>
        <speed>8.31252626507671</speed>
      </trkpt>
      <trkpt lat="49.092331" lon="7.81202">
        <ele>197</ele>
        <time>2010-12-10T00:44:24Z</time>
        <course>357.654370509941</course>
        <speed>8.31366391700783</speed>
      </trkpt>
      <trkpt lat="49.092899" lon="7.81208">
        <ele>196</ele>
        <time>2010-12-10T00:44:31Z</time>
        <course>5.96376867378141</course>
        <speed>8.31069791841558</speed>
      </trkpt>
      <trkpt lat="49.093159" lon="7.81201">
        <ele>196</ele>
        <time>2010-12-10T00:44:35Z</time>
        <course>11.5466949744331</course>
        <speed>8.30511537679583</speed>
      </trkpt>
      <trkpt lat="49.09333" lon="7.81192">
        <ele>195</ele>
        <time>2010-12-10T00:44:37Z</time>
        <course>22.9777349662809</course>
        <speed>8.31915378691781</speed>
      </trkpt>
      <trkpt lat="49.093559" lon="7.81167">
        <ele>195</ele>
        <time>2010-12-10T00:44:41Z</time>
        <course>22.7463422233411</course>
        <speed>8.32193090914442</speed>
      </trkpt>
      <trkpt lat="49.0938" lon="7.81141">
        <ele>195</ele>
        <time>2010-12-10T00:44:45Z</time>
        <course>128.153033321342</course>
        <speed>8.32647818574418</speed>
      </trkpt>
      <trkpt lat="49.093681" lon="7.81102">
        <ele>195</ele>
        <time>2010-12-10T00:44:49Z</time>
        <course>120.08836009185</course>
        <speed>8.31780466456142</speed>
      </trkpt>
      <trkpt lat="49.093609" lon="7.8107">
        <ele>195</ele>
        <time>2010-12-10T00:44:52Z</time>
        <course>127.910506850591</course>
        <speed>8.32424033470853</speed>
      </trkpt>
      <trkpt lat="49.093479" lon="7.81027">
        <ele>195</ele>
        <time>2010-12-10T00:44:56Z</time>
        <course>34.7817066323408</course>
        <speed>8.32161581908039</speed>
      </trkpt>
      <trkpt lat="49.093658" lon="7.80995">
        <ele>195</ele>
        <time>2010-12-10T00:44:59Z</time>
        <course>36.7000919008105</course>
        <speed>8.31874520042156</speed>
      </trkpt>
      <trkpt lat="49.093971" lon="7.80935">
        <ele>195</ele>
        <time>2010-12-10T00:45:06Z</time>
        <course>41.4586266722407</course>
        <speed>2.4528150159387</speed>
      </trkpt>
      <trkpt lat="49.0942" lon="7.80883">
        <ele>200</ele>
        <time>2010-12-10T00:45:25Z</time>
        <course>57.0490151051398</course>
        <speed>2.4524367434949</speed>
      </trkpt>
      <trkpt lat="49.094311" lon="7.80839">
        <ele>204</ele>
        <time>2010-12-10T00:45:39Z</time>
        <course>74.826085562345</course>
        <speed>2.45220685019023</speed>
      </trkpt>
      <trkpt lat="49.09433" lon="7.80821">
        <ele>206</ele>
        <time>2010-12-10T00:45:44Z</time>
        <course>80.0867252712406</course>
        <speed>2.4526791078871</speed>
      </trkpt>
      <trkpt lat="49.094429" lon="7.80676">
        <ele>218</ele>
        <time>2010-12-10T00:46:27Z</time>
        <course>90.0034306117859</course>
        <speed>2.45056619419608</speed>
      </trkpt>
      <trkpt lat="49.094429" lon="7.80663">
        <ele>220</ele>
        <time>2010-12-10T00:46:31Z</time>
        <course>58.9253055318645</course>
        <speed>8.30413971877932</speed>
      </trkpt>
      <trkpt lat="49.09449" lon="7.80637">
        <ele>217</ele>
        <time>2010-12-10T00:46:34Z</time>
        <course>33.9357292142075</course>
        <speed>8.32392223180569</speed>
      </trkpt>
      <trkpt lat="49.094681" lon="7.80604">
        <ele>213</ele>
        <time>2010-12-10T00:46:38Z</time>
        <course>24.4624593860562</course>
        <speed>8.31627793140538</speed>
      </trkpt>
      <trkpt lat="49.095058" lon="7.8056">
        <ele>207</ele>
        <time>2010-12-10T00:46:44Z</time>
        <course>45.5307283034354</course>
        <speed>8.31343134544169</speed>
      </trkpt>
      <trkpt lat="49.095169" lon="7.80531">
        <ele>205</ele>
        <time>2010-12-10T00:46:47Z</time>
        <course>20.925199484746</course>
        <speed>8.31405511601554</speed>
      </trkpt>
      <trkpt lat="49.095322" lon="7.80516">
        <ele>202</ele>
        <time>2010-12-10T00:46:49Z</time>
        <course>17.2695928521629</course>
        <speed>8.31404024168651</speed>
      </trkpt>
      <trkpt lat="49.095661" lon="7.80489">
        <ele>197</ele>
        <time>2010-12-10T00:46:54Z</time>
        <course>26.0175333281196</course>
        <speed>8.31866106606961</speed>
      </trkpt>
      <trkpt lat="49.095829" lon="7.80468">
        <ele>195</ele>
        <time>2010-12-10T00:46:57Z</time>
        <course>29.3800046492415</course>
        <speed>3.10635561002331</speed>
      </trkpt>
      <trkpt lat="49.09594" lon="7.80452">
        <ele>196</ele>
        <time>2010-12-10T00:47:03Z</time>
        <course>3.4540129517998</course>
        <speed>3.10374096293657</speed>
      </trkpt>
      <trkpt lat="49.096199" lon="7.80448">
        <ele>198</ele>
        <time>2010-12-10T00:47:12Z</time>
        <course>356.767503603864</course>
        <speed>3.1047546512964</speed>
      </trkpt>
      <trkpt lat="49.097031" lon="7.8046">
        <ele>206</ele>
        <time>2010-12-10T00:47:42Z</time>
        <course>357.322020496592</course>
        <speed>3.10513233544345</speed>
      </trkpt>
      <trkpt lat="49.09745" lon="7.80465">
        <ele>210</ele>
        <time>2010-12-10T00:47:57Z</time>
        <course>348.776995459697</course>
        <speed>3.10467000843237</speed>
      </trkpt>
      <trkpt lat="49.098202" lon="7.80503">
        <ele>218</ele>
        <time>2010-12-10T00:48:25Z</time>
        <course>345.373926264932</course>
        <speed>8.31659657779263</speed>
      </trkpt>
      <trkpt lat="49.09885" lon="7.80546">
        <ele>210</ele>
        <time>2010-12-10T00:48:35Z</time>
        <course>331.588793003213</course>
        <speed>8.30656016366649</speed>
      </trkpt>
      <trkpt lat="49.09901" lon="7.80568">
        <ele>208</ele>
        <time>2010-12-10T00:48:38Z</time>
        <course>340.023686340942</course>
        <speed>8.31585305811896</speed>
      </trkpt>
      <trkpt lat="49.099541" lon="7.80617">
        <ele>202</ele>
        <time>2010-12-10T00:48:46Z</time>
        <course>348.541431987745</course>
        <speed>8.32283266374932</speed>
      </trkpt>
      <trkpt lat="49.09993" lon="7.80637">
        <ele>198</ele>
        <time>2010-12-10T00:48:51Z</time>
        <course>5.10714118180718</course>
        <speed>5.58510342099744</speed>
      </trkpt>
      <trkpt lat="49.10046" lon="7.80625">
        <ele>199</ele>
        <time>2010-12-10T00:49:02Z</time>
        <course>8.42467946029937</course>
        <speed>5.58147735637988</speed>
      </trkpt>
      <trkpt lat="49.1007" lon="7.80616">
        <ele>200</ele>
        <time>2010-12-10T00:49:07Z</time>
        <course>7.66987749254124</course>
        <speed>5.59730892691631</speed>
      </trkpt>
      <trkpt lat="49.100788" lon="7.80613">
        <ele>200</ele>
        <time>2010-12-10T00:49:09Z</time>
        <course>77.3434977655231</course>
        <speed>5.58570721437358</speed>
      </trkpt>
      <trkpt lat="49.100868" lon="7.80523">
        <ele>202</ele>
        <time>2010-12-10T00:49:21Z</time>
        <course>77.3434977655231</course>
        <speed>5.58570721437358</speed>
      </trkpt>
      <trkpt lat="49.100868" lon="7.80523">
        <ele>202</ele>
        <time>2010-12-10T00:49:22Z</time>
        <course>257.296126376974</course>
        <speed>8.32228165567248</speed>
      </trkpt>
      <trkpt lat="49.100788" lon="7.80613">
        <ele>199</ele>
        <time>2010-12-10T00:49:30Z</time>
        <course>261.939063529129</course>
        <speed>8.33093317836292</speed>
      </trkpt>
      <trkpt lat="49.100769" lon="7.80647">
        <ele>198</ele>
        <time>2010-12-10T00:49:33Z</time>
        <course>215.432091334776</course>
        <speed>8.32974204960888</speed>
      </trkpt>
      <trkpt lat="49.100658" lon="7.80667">
        <ele>197</ele>
        <time>2010-12-10T00:49:35Z</time>
        <course>269.992367385184</course>
        <speed>8.30654017621797</speed>
      </trkpt>
      <trkpt lat="49.100658" lon="7.80696">
        <ele>196</ele>
        <time>2010-12-10T00:49:37Z</time>
        <course>269.997368063876</course>
        <speed>8.36250972947867</speed>
      </trkpt>
      <trkpt lat="49.100658" lon="7.80706">
        <ele>196</ele>
        <time>2010-12-10T00:49:38Z</time>
        <course>7.44412637950924</course>
        <speed>8.32067577571105</speed>
      </trkpt>
      <trkpt lat="49.101021" lon="7.80694">
        <ele>194</ele>
        <time>2010-12-10T00:49:43Z</time>
        <course>8.86976714553737</course>
        <speed>8.31326533042488</speed>
      </trkpt>
      <trkpt lat="49.101452" lon="7.80677">
        <ele>193</ele>
        <time>2010-12-10T00:49:49Z</time>
        <course>16.7469233150277</course>
        <speed>6.61919321610518</speed>
      </trkpt>
      <trkpt lat="49.10186" lon="7.80646">
        <ele>193</ele>
        <time>2010-12-10T00:49:57Z</time>
        <course>21.6738741688558</course>
        <speed>6.62047081831415</speed>
      </trkpt>
      <trkpt lat="49.102249" lon="7.80607">
        <ele>194</ele>
        <time>2010-12-10T00:50:05Z</time>
        <course>26.6741544934134</course>
        <speed>6.61958810391742</speed>
      </trkpt>
      <trkpt lat="49.10281" lon="7.80536">
        <ele>195</ele>
        <time>2010-12-10T00:50:17Z</time>
        <course>28.4772852934039</course>
        <speed>6.61874934794704</speed>
      </trkpt>
      <trkpt lat="49.103668" lon="7.80419">
        <ele>197</ele>
        <time>2010-12-10T00:50:36Z</time>
        <course>40.1726025622455</course>
        <speed>8.31885468549669</speed>
      </trkpt>
      <trkpt lat="49.10405" lon="7.80338">
        <ele>196</ele>
        <time>2010-12-10T00:50:45Z</time>
        <course>13.1938170827594</course>
        <speed>8.32010597955123</speed>
      </trkpt>
      <trkpt lat="49.105652" lon="7.80244">
        <ele>194</ele>
        <time>2010-12-10T00:51:08Z</time>
        <course>3.66915934736504</course>
        <speed>8.31855864574622</speed>
      </trkpt>
      <trkpt lat="49.107529" lon="7.80214">
        <ele>192</ele>
        <time>2010-12-10T00:51:33Z</time>
        <course>66.9167051183561</course>
        <speed>6.12756525306309</speed>
      </trkpt>
      <trkpt lat="49.10775" lon="7.80085">
        <ele>193</ele>
        <time>2010-12-10T00:51:49Z</time>
        <course>355.515850069262</course>
        <speed>6.12747489478225</speed>
      </trkpt>
      <trkpt lat="49.108879" lon="7.80107">
        <ele>196</ele>
        <time>2010-12-10T00:52:09Z</time>
        <course>355.375107090771</course>
        <speed>7.29950131175997</speed>
      </trkpt>
      <trkpt lat="49.111431" lon="7.80158">
        <ele>198</ele>
        <time>2010-12-10T00:52:49Z</time>
        <course>350.589995097917</course>
        <speed>7.3321872794727</speed>
      </trkpt>
      <trkpt lat="49.113049" lon="7.80224">
        <ele>199</ele>
        <time>2010-12-10T00:53:14Z</time>
        <course>53.9352791781513</course>
        <speed>7.33055645615619</speed>
      </trkpt>
      <trkpt lat="49.113461" lon="7.80085">
        <ele>200</ele>
        <time>2010-12-10T00:53:29Z</time>
        <course>21.0996747542101</course>
        <speed>6.09445817270957</speed>
      </trkpt>
      <trkpt lat="49.114052" lon="7.80029">
        <ele>201</ele>
        <time>2010-12-10T00:53:42Z</time>
        <course>4.07879485537405</course>
        <speed>6.09626552257938</speed>
      </trkpt>
      <trkpt lat="49.114681" lon="7.80018">
        <ele>202</ele>
        <time>2010-12-10T00:53:53Z</time>
        <course>7.02055554803299</course>
        <speed>6.09364101921022</speed>
      </trkpt>
      <trkpt lat="49.115311" lon="7.79999">
        <ele>204</ele>
        <time>2010-12-10T00:54:05Z</time>
        <course>6.08214192827657</course>
        <speed>8.31727568343775</speed>
      </trkpt>
      <trkpt lat="49.116772" lon="7.79961">
        <ele>200</ele>
        <time>2010-12-10T00:54:25Z</time>
        <course>13.078125227835</course>
        <speed>8.31985873218642</speed>
      </trkpt>
      <trkpt lat="49.117939" lon="7.79895">
        <ele>198</ele>
        <time>2010-12-10T00:54:42Z</time>
        <course>357.536284673663</course>
        <speed>8.31004121230734</speed>
      </trkpt>
      <trkpt lat="49.11813" lon="7.79897">
        <ele>197</ele>
        <time>2010-12-10T00:54:44Z</time>
        <course>355.942425407511</course>
        <speed>8.31521132065693</speed>
      </trkpt>
      <trkpt lat="49.11871" lon="7.79907">
        <ele>197</ele>
        <time>2010-12-10T00:54:52Z</time>
        <course>328.74678604293</course>
        <speed>8.31669514304283</speed>
      </trkpt>
      <trkpt lat="49.118961" lon="7.79944">
        <ele>197</ele>
        <time>2010-12-10T00:54:57Z</time>
        <course>326.922553052387</course>
        <speed>8.31686157259111</speed>
      </trkpt>
      <trkpt lat="49.119499" lon="7.80029">
        <ele>197</ele>
        <time>2010-12-10T00:55:07Z</time>
        <course>348.61310716236</course>
        <speed>7.51846131378873</speed>
      </trkpt>
      <trkpt lat="49.121101" lon="7.80107">
        <ele>197</ele>
        <time>2010-12-10T00:55:32Z</time>
        <course>354.632382499741</course>
        <speed>7.52017458005669</speed>
      </trkpt>
      <trkpt lat="49.12278" lon="7.80145">
        <ele>199</ele>
        <time>2010-12-10T00:55:57Z</time>
        <course>14.2631273563983</course>
        <speed>5.56925490004955</speed>
      </trkpt>
      <trkpt lat="49.12368" lon="7.8009">
        <ele>201</ele>
        <time>2010-12-10T00:56:16Z</time>
        <course>3.55310030397764</course>
        <speed>5.56849182097145</speed>
      </trkpt>
      <trkpt lat="49.124889" lon="7.80072">
        <ele>205</ele>
        <time>2010-12-10T00:56:40Z</time>
        <course>358.554202061819</course>
        <speed>8.31680008669667</speed>
      </trkpt>
      <trkpt lat="49.126381" lon="7.80081">
        <ele>204</ele>
        <time>2010-12-10T00:57:00Z</time>
        <course>6.09267270178554</course>
        <speed>8.31648323401373</speed>
      </trkpt>
      <trkpt lat="49.12756" lon="7.80051">
        <ele>204</ele>
        <time>2010-12-10T00:57:16Z</time>
        <course>356.841675444569</course>
        <speed>3.30621665626602</speed>
      </trkpt>
      <trkpt lat="49.129162" lon="7.80072">
        <ele>217</ele>
        <time>2010-12-10T00:58:10Z</time>
        <course>9.40137291499491</course>
        <speed>3.30618919157248</speed>
      </trkpt>
      <trkpt lat="49.13036" lon="7.80025">
        <ele>228</ele>
        <time>2010-12-10T00:58:52Z</time>
        <course>5.07434878314048</course>
        <speed>8.31654684901168</speed>
      </trkpt>
      <trkpt lat="49.131599" lon="7.79999">
        <ele>218</ele>
        <time>2010-12-10T00:59:09Z</time>
        <course>353.959446493876</course>
        <speed>8.32057268074463</speed>
      </trkpt>
      <trkpt lat="49.132641" lon="7.80025">
        <ele>210</ele>
        <time>2010-12-10T00:59:23Z</time>
        <course>358.356067816605</course>
        <speed>8.32245896613025</speed>
      </trkpt>
      <trkpt lat="49.133381" lon="7.8003">
        <ele>207</ele>
        <time>2010-12-10T00:59:33Z</time>
        <course>355.94854330905</course>
        <speed>8.30554245754126</speed>
      </trkpt>
      <trkpt lat="49.133621" lon="7.80034">
        <ele>206</ele>
        <time>2010-12-10T00:59:36Z</time>
        <course>6.91875764239038</course>
        <speed>8.31838334829011</speed>
      </trkpt>
      <trkpt lat="49.13485" lon="7.79999">
        <ele>203</ele>
        <time>2010-12-10T00:59:53Z</time>
        <course>5.29878849154426</course>
        <speed>8.31704485193128</speed>
      </trkpt>
      <trkpt lat="49.135448" lon="7.79986">
        <ele>202</ele>
        <time>2010-12-10T01:00:01Z</time>
        <course>23.9281704963763</course>
        <speed>8.32108997108531</speed>
      </trkpt>
      <trkpt lat="49.13591" lon="7.79938">
        <ele>202</ele>
        <time>2010-12-10T01:00:08Z</time>
        <course>28.2728383940011</course>
        <speed>8.32274098406961</speed>
      </trkpt>
      <trkpt lat="49.136379" lon="7.79879">
        <ele>202</ele>
        <time>2010-12-10T01:00:16Z</time>
        <course>38.4153113234267</course>
        <speed>8.31667657459942</speed>
      </trkpt>
      <trkpt lat="49.137119" lon="7.79742">
        <ele>202</ele>
        <time>2010-12-10T01:00:32Z</time>
        <course>61.8645107693993</course>
        <speed>3.17540920313147</speed>
      </trkpt>
      <trkpt lat="49.13747" lon="7.79589">
        <ele>211</ele>
        <time>2010-12-10T01:01:09Z</time>
        <course>65.2598218905004</course>
        <speed>3.1761717972327</speed>
      </trkpt>
      <trkpt lat="49.137741" lon="7.79452">
        <ele>220</ele>
        <time>2010-12-10T01:01:42Z</time>
        <course>78.8547729088737</course>
        <speed>5.2793617156163</speed>
      </trkpt>
      <trkpt lat="49.137852" lon="7.79321">
        <ele>222</ele>
        <time>2010-12-10T01:02:00Z</time>
        <course>72.1859798235285</course>
        <speed>5.28044536132354</speed>
      </trkpt>
      <trkpt lat="49.138008" lon="7.79208">
        <ele>225</ele>
        <time>2010-12-10T01:02:16Z</time>
        <course>52.6805558744907</course>
        <speed>5.27913512979404</speed>
      </trkpt>
      <trkpt lat="49.138401" lon="7.79088">
        <ele>228</ele>
        <time>2010-12-10T01:02:34Z</time>
        <course>31.0332317094891</course>
        <speed>8.31595877901229</speed>
      </trkpt>
      <trkpt lat="49.13908" lon="7.78993">
        <ele>221</ele>
        <time>2010-12-10T01:02:46Z</time>
        <course>18.8501016167286</course>
        <speed>8.31783879075403</speed>
      </trkpt>
      <trkpt lat="49.1399" lon="7.78928">
        <ele>214</ele>
        <time>2010-12-10T01:02:59Z</time>
        <course>24.0787535684576</course>
        <speed>7.16185804251842</speed>
      </trkpt>
      <trkpt lat="49.14045" lon="7.78871">
        <ele>214</ele>
        <time>2010-12-10T01:03:09Z</time>
        <course>40.1248361111132</course>
        <speed>7.16329473369146</speed>
      </trkpt>
      <trkpt lat="49.140911" lon="7.78781">
        <ele>215</ele>
        <time>2010-12-10T01:03:21Z</time>
        <course>57.1441252178566</course>
        <speed>7.16236511704913</speed>
      </trkpt>
      <trkpt lat="49.141232" lon="7.78666">
        <ele>216</ele>
        <time>2010-12-10T01:03:33Z</time>
        <course>84.7879521157382</course>
        <speed>5.30859284805895</speed>
      </trkpt>
      <trkpt lat="49.14127" lon="7.7857">
        <ele>217</ele>
        <time>2010-12-10T01:03:47Z</time>
        <course>95.9219051237984</course>
        <speed>5.30966130284333</speed>
      </trkpt>
      <trkpt lat="49.141209" lon="7.78433">
        <ele>220</ele>
        <time>2010-12-10T01:04:05Z</time>
        <course>120.04524458994</course>
        <speed>5.3091861323816</speed>
      </trkpt>
      <trkpt lat="49.14085" lon="7.78289">
        <ele>224</ele>
        <time>2010-12-10T01:04:27Z</time>
        <course>104.290009931277</course>
        <speed>8.31634968380686</speed>
      </trkpt>
      <trkpt lat="49.14069" lon="7.78143">
        <ele>222</ele>
        <time>2010-12-10T01:04:39Z</time>
        <course>93.2220600444101</course>
        <speed>8.31914870383368</speed>
      </trkpt>
      <trkpt lat="49.140659" lon="7.78014">
        <ele>222</ele>
        <time>2010-12-10T01:04:51Z</time>
        <course>62.6481767671518</course>
        <speed>7.67352357638663</speed>
      </trkpt>
      <trkpt lat="49.140869" lon="7.7792">
        <ele>222</ele>
        <time>2010-12-10T01:05:00Z</time>
        <course>30.6974921319383</course>
        <speed>7.66468499831227</speed>
      </trkpt>
      <trkpt lat="49.141109" lon="7.77887">
        <ele>222</ele>
        <time>2010-12-10T01:05:05Z</time>
        <course>31.2074786119164</course>
        <speed>7.66687027435779</speed>
      </trkpt>
      <trkpt lat="49.14138" lon="7.77849">
        <ele>222</ele>
        <time>2010-12-10T01:05:10Z</time>
        <course>22.09861375688</course>
        <speed>7.68167245430945</speed>
      </trkpt>
      <trkpt lat="49.141529" lon="7.77835">
        <ele>222</ele>
        <time>2010-12-10T01:05:13Z</time>
        <course>21.3962640723853</course>
        <speed>7.67423124428658</speed>
      </trkpt>
      <trkpt lat="49.142059" lon="7.77787">
        <ele>223</ele>
        <time>2010-12-10T01:05:22Z</time>
        <course>17.7259519112333</course>
        <speed>8.31825840583243</speed>
      </trkpt>
      <trkpt lat="49.142601" lon="7.77747">
        <ele>218</ele>
        <time>2010-12-10T01:05:30Z</time>
        <course>12.3054685690284</course>
        <speed>8.32047560215783</speed>
      </trkpt>
      <trkpt lat="49.142899" lon="7.77732">
        <ele>216</ele>
        <time>2010-12-10T01:05:34Z</time>
        <course>357.644724866643</course>
        <speed>8.32043103994595</speed>
      </trkpt>
      <trkpt lat="49.143532" lon="7.77738">
        <ele>211</ele>
        <time>2010-12-10T01:05:42Z</time>
        <course>344.12281759714</course>
        <speed>8.31761868794968</speed>
      </trkpt>
      <trkpt lat="49.143929" lon="7.77764">
        <ele>208</ele>
        <time>2010-12-10T01:05:48Z</time>
        <course>320.736547955671</course>
        <speed>8.31599966296066</speed>
      </trkpt>
      <trkpt lat="49.144131" lon="7.77802">
        <ele>207</ele>
        <time>2010-12-10T01:05:52Z</time>
        <course>306.082818395983</course>
        <speed>8.28298944244537</speed>
      </trkpt>
      <trkpt lat="49.144169" lon="7.77814">
        <ele>207</ele>
        <time>2010-12-10T01:05:54Z</time>
        <course>309.069994589472</course>
        <speed>8.3230221068038</speed>
      </trkpt>
      <trkpt lat="49.144402" lon="7.7788">
        <ele>207</ele>
        <time>2010-12-10T01:06:00Z</time>
        <course>319.563959090799</course>
        <speed>8.32905819182674</speed>
      </trkpt>
      <trkpt lat="49.14455" lon="7.77909">
        <ele>207</ele>
        <time>2010-12-10T01:06:03Z</time>
        <course>325.524136124075</course>
        <speed>8.31581674345166</speed>
      </trkpt>
      <trkpt lat="49.144588" lon="7.77915">
        <ele>207</ele>
        <time>2010-12-10T01:06:04Z</time>
        <course>330.776960291259</course>
        <speed>8.3082382805797</speed>
      </trkpt>
      <trkpt lat="49.144798" lon="7.77942">
        <ele>206</ele>
        <time>2010-12-10T01:06:08Z</time>
        <course>348.387536729158</course>
        <speed>8.31211571045517</speed>
      </trkpt>
      <trkpt lat="49.145031" lon="7.77953">
        <ele>206</ele>
        <time>2010-12-10T01:06:11Z</time>
        <course>357.369052969548</course>
        <speed>8.32089663235856</speed>
      </trkpt>
      <trkpt lat="49.14579" lon="7.77961">
        <ele>206</ele>
        <time>2010-12-10T01:06:21Z</time>
        <course>6.84532784281908</course>
        <speed>6.73132320871187</speed>
      </trkpt>
      <trkpt lat="49.146481" lon="7.77942">
        <ele>206</ele>
        <time>2010-12-10T01:06:33Z</time>
        <course>15.9953333257109</course>
        <speed>6.72952483431448</speed>
      </trkpt>
      <trkpt lat="49.147091" lon="7.77902">
        <ele>207</ele>
        <time>2010-12-10T01:06:44Z</time>
        <course>23.6480595603211</course>
        <speed>6.73083326996972</speed>
      </trkpt>
      <trkpt lat="49.147861" lon="7.77825">
        <ele>209</ele>
        <time>2010-12-10T01:06:59Z</time>
        <course>27.5582790273655</course>
        <speed>8.3172907099867</speed>
      </trkpt>
      <trkpt lat="49.148769" lon="7.77717">
        <ele>207</ele>
        <time>2010-12-10T01:07:14Z</time>
        <course>147.09416606535</course>
        <speed>8.33630368552458</speed>
      </trkpt>
      <trkpt lat="49.148708" lon="7.77708">
        <ele>207</ele>
        <time>2010-12-10T01:07:15Z</time>
        <course>123.375362937359</course>
        <speed>8.31523846928724</speed>
      </trkpt>
      <trkpt lat="49.148682" lon="7.77699">
        <ele>207</ele>
        <time>2010-12-10T01:07:16Z</time>
        <course>27.1502093705151</course>
        <speed>8.32214098315246</speed>
      </trkpt>
      <trkpt lat="49.14917" lon="7.77642">
        <ele>207</ele>
        <time>2010-12-10T01:07:24Z</time>
        <course>26.5214592857606</course>
        <speed>7.64092314616027</speed>
      </trkpt>
      <trkpt lat="49.149769" lon="7.77574">
        <ele>207</ele>
        <time>2010-12-10T01:07:35Z</time>
        <course>25.7167653161044</course>
        <speed>7.63433322376647</speed>
      </trkpt>
      <trkpt lat="49.149979" lon="7.77551">
        <ele>207</ele>
        <time>2010-12-10T01:07:39Z</time>
        <course>23.9146327035823</course>
        <speed>7.63796949527309</speed>
      </trkpt>
      <trkpt lat="49.152512" lon="7.77297">
        <ele>209</ele>
        <time>2010-12-10T01:08:23Z</time>
        <course>49.3188359720446</course>
        <speed>8.29479181925787</speed>
      </trkpt>
      <trkpt lat="49.152569" lon="7.77282">
        <ele>208</ele>
        <time>2010-12-10T01:08:25Z</time>
        <course>19.0928560166024</course>
        <speed>8.31538845883393</speed>
      </trkpt>
      <trkpt lat="49.153042" lon="7.77245">
        <ele>207</ele>
        <time>2010-12-10T01:08:32Z</time>
        <course>21.925331219078</course>
        <speed>8.31074683098422</speed>
      </trkpt>
      <trkpt lat="49.153339" lon="7.77218">
        <ele>206</ele>
        <time>2010-12-10T01:08:36Z</time>
        <course>121.999606184266</course>
        <speed>8.31417357384986</speed>
      </trkpt>
      <trkpt lat="49.153198" lon="7.77167">
        <ele>205</ele>
        <time>2010-12-10T01:08:41Z</time>
        <course>133.602930151304</course>
        <speed>8.32597155200257</speed>
      </trkpt>
      <trkpt lat="49.153" lon="7.7712">
        <ele>204</ele>
        <time>2010-12-10T01:08:46Z</time>
        <course>113.408511184733</course>
        <speed>8.31823235387701</speed>
      </trkpt>
      <trkpt lat="49.152889" lon="7.77062">
        <ele>204</ele>
        <time>2010-12-10T01:08:51Z</time>
        <course>101.648488314854</course>
        <speed>2.30597077341655</speed>
      </trkpt>
      <trkpt lat="49.152828" lon="7.76995">
        <ele>210</ele>
        <time>2010-12-10T01:09:13Z</time>
        <course>6.75197633803</course>
        <speed>2.30628117889146</speed>
      </trkpt>
      <trkpt lat="49.153389" lon="7.7698">
        <ele>218</ele>
        <time>2010-12-10T01:09:40Z</time>
        <course>6.53186207937782</course>
        <speed>2.30666307998393</speed>
      </trkpt>
      <trkpt lat="49.153931" lon="7.76966">
        <ele>226</ele>
        <time>2010-12-10T01:10:07Z</time>
        <course>11.3749178774196</course>
        <speed>2.30597035838163</speed>
      </trkpt>
      <trkpt lat="49.15435" lon="7.76947">
        <ele>233</ele>
        <time>2010-12-10T01:10:28Z</time>
        <course>35.7667657551168</course>
        <speed>8.32074289824016</speed>
      </trkpt>
      <trkpt lat="49.155109" lon="7.76824">
        <ele>229</ele>
        <time>2010-12-10T01:10:42Z</time>
        <course>28.6799274071708</course>
        <speed>8.31571513827664</speed>
      </trkpt>
      <trkpt lat="49.155239" lon="7.76808">
        <ele>228</ele>
        <time>2010-12-10T01:10:45Z</time>
        <course>32.4148851167839</course>
        <speed>8.29488697212133</speed>
      </trkpt>
      <trkpt lat="49.155281" lon="7.76802">
        <ele>228</ele>
        <time>2010-12-10T01:10:45Z</time>
        <course>23.9816633724306</course>
        <speed>8.31245176696507</speed>
      </trkpt>
      <trkpt lat="49.155651" lon="7.76765">
        <ele>226</ele>
        <time>2010-12-10T01:10:51Z</time>
        <course>12.3171699479929</course>
        <speed>8.3176465286465</speed>
      </trkpt>
      <trkpt lat="49.15612" lon="7.76742">
        <ele>225</ele>
        <time>2010-12-10T01:10:58Z</time>
        <course>23.6858470039231</course>
        <speed>3.7721974902613</speed>
      </trkpt>
      <trkpt lat="49.15728" lon="7.76628">
        <ele>234</ele>
        <time>2010-12-10T01:11:38Z</time>
        <course>32.309421933819</course>
        <speed>3.77139109336497</speed>
      </trkpt>
      <trkpt lat="49.157909" lon="7.76539">
        <ele>240</ele>
        <time>2010-12-10T01:12:04Z</time>
        <course>39.7504222212898</course>
        <speed>8.31512983531765</speed>
      </trkpt>
      <trkpt lat="49.158081" lon="7.76507">
        <ele>237</ele>
        <time>2010-12-10T01:12:07Z</time>
        <course>11.9596643130715</course>
        <speed>8.31895547544336</speed>
      </trkpt>
      <trkpt lat="49.15844" lon="7.7649">
        <ele>234</ele>
        <time>2010-12-10T01:12:12Z</time>
        <course>356.046102988979</course>
        <speed>8.31221181857661</speed>
      </trkpt>
      <trkpt lat="49.158699" lon="7.76494">
        <ele>232</ele>
        <time>2010-12-10T01:12:16Z</time>
        <course>347.820757475764</course>
        <speed>8.31842286174745</speed>
      </trkpt>
      <trkpt lat="49.159031" lon="7.7651">
        <ele>229</ele>
        <time>2010-12-10T01:12:21Z</time>
        <course>348.364394557935</course>
        <speed>8.31981087697266</speed>
      </trkpt>
      <trkpt lat="49.159401" lon="7.76527">
        <ele>226</ele>
        <time>2010-12-10T01:12:26Z</time>
        <course>5.92438562555803</course>
        <speed>8.31133802365231</speed>
      </trkpt>
      <trkpt lat="49.15979" lon="7.76518">
        <ele>223</ele>
        <time>2010-12-10T01:12:31Z</time>
        <course>19.3826112563692</course>
        <speed>5.71787723554258</speed>
      </trkpt>
      <trkpt lat="49.16016" lon="7.76489">
        <ele>224</ele>
        <time>2010-12-10T01:12:39Z</time>
        <course>32.336027051724</course>
        <speed>5.71626569413723</speed>
      </trkpt>
      <trkpt lat="49.161098" lon="7.76357">
        <ele>227</ele>
        <time>2010-12-10T01:13:04Z</time>
        <course>28.1641301816407</course>
        <speed>5.74227543156755</speed>
      </trkpt>
      <trkpt lat="49.16114" lon="7.76352">
        <ele>227</ele>
        <time>2010-12-10T01:13:05Z</time>
        <course>36.5806202102518</course>
        <speed>5.7164468777668</speed>
      </trkpt>
      <trkpt lat="49.164261" lon="7.75841">
        <ele>239</ele>
        <time>2010-12-10T01:14:34Z</time>
        <course>36.2887559700234</course>
        <speed>8.32293804733559</speed>
      </trkpt>
      <trkpt lat="49.16452" lon="7.75799">
        <ele>233</ele>
        <time>2010-12-10T01:14:39Z</time>
        <course>37.6117011517919</course>
        <speed>8.31824752364207</speed>
      </trkpt>
      <trkpt lat="49.165138" lon="7.75694">
        <ele>218</ele>
        <time>2010-12-10T01:14:51Z</time>
        <course>63.2824981250471</course>
        <speed>8.31693297592327</speed>
      </trkpt>
      <trkpt lat="49.165291" lon="7.75627">
        <ele>211</ele>
        <time>2010-12-10T01:14:57Z</time>
        <course>39.4190221650563</course>
        <speed>8.30771965945653</speed>
      </trkpt>
      <trkpt lat="49.16544" lon="7.756">
        <ele>208</ele>
        <time>2010-12-10T01:15:00Z</time>
        <course>53.2033668681335</course>
        <speed>4.64271178201672</speed>
      </trkpt>
      <trkpt lat="49.165909" lon="7.75462">
        <ele>212</ele>
        <time>2010-12-10T01:15:25Z</time>
        <course>47.9853239255508</course>
        <speed>4.6426220135131</speed>
      </trkpt>
      <trkpt lat="49.16613" lon="7.75408">
        <ele>214</ele>
        <time>2010-12-10T01:15:35Z</time>
        <course>59.1179255404608</course>
        <speed>4.64299626823213</speed>
      </trkpt>
      <trkpt lat="49.166451" lon="7.7529">
        <ele>218</ele>
        <time>2010-12-10T01:15:55Z</time>
        <course>53.7027902899729</course>
        <speed>7.62501443909352</speed>
      </trkpt>
      <trkpt lat="49.166889" lon="7.75159">
        <ele>218</ele>
        <time>2010-12-10T01:16:09Z</time>
        <course>49.860319713646</course>
        <speed>7.62455786457042</speed>
      </trkpt>
      <trkpt lat="49.1674" lon="7.75026">
        <ele>219</ele>
        <time>2010-12-10T01:16:23Z</time>
        <course>52.2597363362758</course>
        <speed>4.29423935463006</speed>
      </trkpt>
      <trkpt lat="49.16782" lon="7.74907">
        <ele>223</ele>
        <time>2010-12-10T01:16:46Z</time>
        <course>35.8313521236804</course>
        <speed>4.29543144321742</speed>
      </trkpt>
      <trkpt lat="49.168041" lon="7.74872">
        <ele>225</ele>
        <time>2010-12-10T01:16:55Z</time>
        <course>27.9341875497105</course>
        <speed>4.29239082974528</speed>
      </trkpt>
      <trkpt lat="49.168411" lon="7.74829">
        <ele>227</ele>
        <time>2010-12-10T01:17:07Z</time>
        <course>27.8118359125422</course>
        <speed>4.29052361584635</speed>
      </trkpt>
      <trkpt lat="49.16861" lon="7.74806">
        <ele>229</ele>
        <time>2010-12-10T01:17:13Z</time>
        <course>22.5421451981073</course>
        <speed>8.31290764309569</speed>
      </trkpt>
      <trkpt lat="49.168819" lon="7.74787">
        <ele>228</ele>
        <time>2010-12-10T01:17:16Z</time>
        <course>18.0708855938514</course>
        <speed>8.30793343882428</speed>
      </trkpt>
      <trkpt lat="49.169071" lon="7.74769">
        <ele>228</ele>
        <time>2010-12-10T01:17:20Z</time>
        <course>14.8681826927812</course>
        <speed>8.32747520523595</speed>
      </trkpt>
      <trkpt lat="49.169312" lon="7.74755">
        <ele>228</ele>
        <time>2010-12-10T01:17:23Z</time>
        <course>6.83582237293131</course>
        <speed>8.31540508812868</speed>
      </trkpt>
      <trkpt lat="49.169579" lon="7.74748">
        <ele>228</ele>
        <time>2010-12-10T01:17:27Z</time>
        <course>3.27323884170531</course>
        <speed>8.31630689599924</speed>
      </trkpt>
      <trkpt lat="49.169899" lon="7.74744">
        <ele>227</ele>
        <time>2010-12-10T01:17:31Z</time>
        <course>357.454548029459</course>
        <speed>8.32551401132008</speed>
      </trkpt>
      <trkpt lat="49.170311" lon="7.74748">
        <ele>227</ele>
        <time>2010-12-10T01:17:37Z</time>
        <course>344.536512212675</course>
        <speed>8.31745745138954</speed>
      </trkpt>
      <trkpt lat="49.170891" lon="7.74783">
        <ele>227</ele>
        <time>2010-12-10T01:17:45Z</time>
        <course>350.557246361696</course>
        <speed>8.32044924169463</speed>
      </trkpt>
      <trkpt lat="49.171581" lon="7.74808">
        <ele>223</ele>
        <time>2010-12-10T01:17:55Z</time>
        <course>358.385399075027</course>
        <speed>8.31519448942183</speed>
      </trkpt>
      <trkpt lat="49.17207" lon="7.74811">
        <ele>220</ele>
        <time>2010-12-10T01:18:01Z</time>
        <course>6.58774028800862</course>
        <speed>8.3174131412377</speed>
      </trkpt>
      <trkpt lat="49.172508" lon="7.748">
        <ele>218</ele>
        <time>2010-12-10T01:18:07Z</time>
        <course>4.91568495204981</course>
        <speed>8.31825605081138</speed>
      </trkpt>
      <trkpt lat="49.172829" lon="7.74794">
        <ele>217</ele>
        <time>2010-12-10T01:18:11Z</time>
        <course>11.7687432987741</course>
        <speed>4.28795846124739</speed>
      </trkpt>
      <trkpt lat="49.174091" lon="7.74737">
        <ele>223</ele>
        <time>2010-12-10T01:18:46Z</time>
        <course>16.3752889432662</course>
        <speed>4.28717688556799</speed>
      </trkpt>
      <trkpt lat="49.174641" lon="7.74702">
        <ele>227</ele>
        <time>2010-12-10T01:19:01Z</time>
        <course>27.4179229910817</course>
        <speed>8.31579490462891</speed>
      </trkpt>
      <trkpt lat="49.17514" lon="7.74646">
        <ele>224</ele>
        <time>2010-12-10T01:19:09Z</time>
        <course>39.0063850511503</course>
        <speed>8.31832522686981</speed>
      </trkpt>
      <trkpt lat="49.176319" lon="7.7444">
        <ele>216</ele>
        <time>2010-12-10T01:19:33Z</time>
        <course>312.86505317473</course>
        <speed>5.9758920350623</speed>
      </trkpt>
      <trkpt lat="49.176922" lon="7.7458">
        <ele>218</ele>
        <time>2010-12-10T01:19:54Z</time>
        <course>269.994670012907</course>
        <speed>5.9822801280026</speed>
      </trkpt>
      <trkpt lat="49.176922" lon="7.74601">
        <ele>218</ele>
        <time>2010-12-10T01:19:56Z</time>
        <course>319.421096599901</course>
        <speed>5.97391708187457</speed>
      </trkpt>
      <trkpt lat="49.177052" lon="7.74625">
        <ele>219</ele>
        <time>2010-12-10T01:20:00Z</time>
        <course>7.48085500800594</course>
        <speed>5.98931090188489</speed>
      </trkpt>
      <trkpt lat="49.177158" lon="7.74622">
        <ele>219</ele>
        <time>2010-12-10T01:20:02Z</time>
        <course>351.601916010598</course>
        <speed>5.98125852665797</speed>
      </trkpt>
      <trkpt lat="49.177441" lon="7.74631">
        <ele>220</ele>
        <time>2010-12-10T01:20:07Z</time>
        <course>345.903754725166</course>
        <speed>8.321709546084</speed>
      </trkpt>
      <trkpt lat="49.177811" lon="7.74651">
        <ele>219</ele>
        <time>2010-12-10T01:20:12Z</time>
        <course>88.5001650958573</course>
        <speed>8.31575976146605</speed>
      </trkpt>
      <trkpt lat="49.177818" lon="7.74594">
        <ele>218</ele>
        <time>2010-12-10T01:20:17Z</time>
        <course>130.117206412099</course>
        <speed>8.3177879171854</speed>
      </trkpt>
      <trkpt lat="49.177349" lon="7.74474">
        <ele>217</ele>
        <time>2010-12-10T01:20:30Z</time>
        <course>160.092968615041</course>
        <speed>8.3190157458583</speed>
      </trkpt>
      <trkpt lat="49.176479" lon="7.74406">
        <ele>216</ele>
        <time>2010-12-10T01:20:43Z</time>
        <course>149.112388884327</course>
        <speed>1.3528976985737</speed>
      </trkpt>
      <trkpt lat="49.176239" lon="7.74375">
        <ele>225</ele>
        <time>2010-12-10T01:21:09Z</time>
        <course>149.112388884327</course>
        <speed>1.3528976985737</speed>
      </trkpt>
      <trkpt lat="49.176239" lon="7.74375">
        <ele>225</ele>
        <time>2010-12-10T01:21:10Z</time>
        <course>329.096648096749</course>
        <speed>8.31065729123847</speed>
      </trkpt>
      <trkpt lat="49.176479" lon="7.74406">
        <ele>223</ele>
        <time>2010-12-10T01:21:14Z</time>
        <course>340.058450455237</course>
        <speed>8.3190157458583</speed>
      </trkpt>
      <trkpt lat="49.177349" lon="7.74474">
        <ele>219</ele>
        <time>2010-12-10T01:21:27Z</time>
        <course>310.056313376379</course>
        <speed>8.3177879171854</speed>
      </trkpt>
      <trkpt lat="49.177818" lon="7.74594">
        <ele>216</ele>
        <time>2010-12-10T01:21:39Z</time>
        <course>268.471244409127</course>
        <speed>8.31575976146605</speed>
      </trkpt>
      <trkpt lat="49.177811" lon="7.74651">
        <ele>215</ele>
        <time>2010-12-10T01:21:44Z</time>
        <course>2.35565334077536</course>
        <speed>8.31115896420878</speed>
      </trkpt>
      <trkpt lat="49.17815" lon="7.74648">
        <ele>215</ele>
        <time>2010-12-10T01:21:48Z</time>
        <course>354.907562384247</course>
        <speed>8.31937883201734</speed>
      </trkpt>
      <trkpt lat="49.178829" lon="7.74661">
        <ele>214</ele>
        <time>2010-12-10T01:21:58Z</time>
        <course>349.213304794163</course>
        <speed>8.31930091092012</speed>
      </trkpt>
      <trkpt lat="49.17971" lon="7.74697">
        <ele>213</ele>
        <time>2010-12-10T01:22:10Z</time>
        <course>347.13901492217</course>
        <speed>6.05649217439752</speed>
      </trkpt>
      <trkpt lat="49.182461" lon="7.74831">
        <ele>219</ele>
        <time>2010-12-10T01:23:03Z</time>
        <course>341.492308416374</course>
        <speed>5.79288077594881</speed>
      </trkpt>
      <trkpt lat="49.18433" lon="7.74964">
        <ele>224</ele>
        <time>2010-12-10T01:23:42Z</time>
        <course>336.726372040155</course>
        <speed>8.31894610333205</speed>
      </trkpt>
      <trkpt lat="49.18536" lon="7.75058">
        <ele>221</ele>
        <time>2010-12-10T01:23:58Z</time>
        <course>338.451953029785</course>
        <speed>8.31803789342548</speed>
      </trkpt>
      <trkpt lat="49.186089" lon="7.75119">
        <ele>219</ele>
        <time>2010-12-10T01:24:09Z</time>
        <course>331.240684445712</course>
        <speed>8.33542020508065</speed>
      </trkpt>
      <trkpt lat="49.186218" lon="7.75134">
        <ele>218</ele>
        <time>2010-12-10T01:24:12Z</time>
        <course>57.3164778782479</course>
        <speed>8.32327172081915</speed>
      </trkpt>
      <trkpt lat="49.186321" lon="7.751">
        <ele>218</ele>
        <time>2010-12-10T01:24:15Z</time>
        <course>90.0126274493857</course>
        <speed>8.3098601727259</speed>
      </trkpt>
      <trkpt lat="49.186321" lon="7.7505">
        <ele>218</ele>
        <time>2010-12-10T01:24:19Z</time>
        <course>107.504455770042</course>
        <speed>8.32133751401281</speed>
      </trkpt>
      <trkpt lat="49.18626" lon="7.75009">
        <ele>218</ele>
        <time>2010-12-10T01:24:23Z</time>
        <course>97.9098312014045</course>
        <speed>8.33376169828439</speed>
      </trkpt>
      <trkpt lat="49.186241" lon="7.7498">
        <ele>217</ele>
        <time>2010-12-10T01:24:25Z</time>
        <course>41.0664278557941</course>
        <speed>8.30893506338477</speed>
      </trkpt>
      <trkpt lat="49.186409" lon="7.74949">
        <ele>217</ele>
        <time>2010-12-10T01:24:29Z</time>
        <course>67.9892142042911</course>
        <speed>8.31527224830867</speed>
      </trkpt>
      <trkpt lat="49.186581" lon="7.74859">
        <ele>217</ele>
        <time>2010-12-10T01:24:37Z</time>
        <course>65.2786648745544</course>
        <speed>8.31518638927645</speed>
      </trkpt>
      <trkpt lat="49.186729" lon="7.74791">
        <ele>216</ele>
        <time>2010-12-10T01:24:43Z</time>
        <course>28.2199012822404</course>
        <speed>8.31692154595018</speed>
      </trkpt>
      <trkpt lat="49.186958" lon="7.74765">
        <ele>216</ele>
        <time>2010-12-10T01:24:47Z</time>
        <course>2.8151932130758</course>
        <speed>8.3186236107242</speed>
      </trkpt>
      <trkpt lat="49.187439" lon="7.7476">
        <ele>216</ele>
        <time>2010-12-10T01:24:54Z</time>
        <course>349.821979912394</course>
        <speed>8.32087820667117</speed>
      </trkpt>
      <trkpt lat="49.187729" lon="7.74771">
        <ele>216</ele>
        <time>2010-12-10T01:24:58Z</time>
        <course>316.826559336702</course>
        <speed>8.31660263287877</speed>
      </trkpt>
      <trkpt lat="49.18869" lon="7.74961">
        <ele>215</ele>
        <time>2010-12-10T01:25:19Z</time>
        <course>317.137521535884</course>
        <speed>6.72028952060258</speed>
      </trkpt>
      <trkpt lat="49.19009" lon="7.75234">
        <ele>218</ele>
        <time>2010-12-10T01:25:56Z</time>
        <course>316.945376817235</course>
        <speed>6.13812925330615</speed>
      </trkpt>
      <trkpt lat="49.190472" lon="7.75309">
        <ele>219</ele>
        <time>2010-12-10T01:26:07Z</time>
        <course>328.807267371221</course>
        <speed>6.13875493652152</speed>
      </trkpt>
      <trkpt lat="49.191551" lon="7.75446">
        <ele>222</ele>
        <time>2010-12-10T01:26:33Z</time>
        <course>333.869975547865</course>
        <speed>6.58397894166517</speed>
      </trkpt>
      <trkpt lat="49.19194" lon="7.75486">
        <ele>222</ele>
        <time>2010-12-10T01:26:41Z</time>
        <course>346.256684904027</course>
        <speed>6.58364820389813</speed>
      </trkpt>
      <trkpt lat="49.19278" lon="7.75529">
        <ele>223</ele>
        <time>2010-12-10T01:26:56Z</time>
        <course>358.690003977971</course>
        <speed>6.5822749692583</speed>
      </trkpt>
      <trkpt lat="49.192989" lon="7.7553">
        <ele>224</ele>
        <time>2010-12-10T01:26:59Z</time>
        <course>358.478538400573</course>
        <speed>6.58380859599555</speed>
      </trkpt>
      <trkpt lat="49.193169" lon="7.75531">
        <ele>224</ele>
        <time>2010-12-10T01:27:02Z</time>
        <course>21.8080709045387</course>
        <speed>6.58226119369796</speed>
      </trkpt>
      <trkpt lat="49.193432" lon="7.75509">
        <ele>225</ele>
        <time>2010-12-10T01:27:07Z</time>
        <course>35.9383753126111</course>
        <speed>8.32325415278945</speed>
      </trkpt>
      <trkpt lat="49.193531" lon="7.75494">
        <ele>224</ele>
        <time>2010-12-10T01:27:09Z</time>
        <course>39.0743153105507</course>
        <speed>8.31944847498445</speed>
      </trkpt>
      <trkpt lat="49.194328" lon="7.75359">
        <ele>222</ele>
        <time>2010-12-10T01:27:25Z</time>
        <course>28.1695117140171</course>
        <speed>8.31908672479138</speed>
      </trkpt>
      <trkpt lat="49.195431" lon="7.75236">
        <ele>220</ele>
        <time>2010-12-10T01:27:43Z</time>
        <course>27.6836882017313</course>
        <speed>8.31841491776198</speed>
      </trkpt>
      <trkpt lat="49.195999" lon="7.75174">
        <ele>220</ele>
        <time>2010-12-10T01:27:53Z</time>
        <course>19.4978501975801</course>
        <speed>8.31920758850091</speed>
      </trkpt>
      <trkpt lat="49.197128" lon="7.75091">
        <ele>220</ele>
        <time>2010-12-10T01:28:09Z</time>
        <course>13.09453007261</course>
        <speed>7.01041940878008</speed>
      </trkpt>
      <trkpt lat="49.197418" lon="7.75077">
        <ele>220</ele>
        <time>2010-12-10T01:28:14Z</time>
        <course>9.89767227142221</course>
        <speed>7.00977904948255</speed>
      </trkpt>
      <trkpt lat="49.197639" lon="7.75069">
        <ele>220</ele>
        <time>2010-12-10T01:28:18Z</time>
        <course>3.4276457230922</course>
        <speed>7.01139251626586</speed>
      </trkpt>
      <trkpt lat="49.1978" lon="7.75067">
        <ele>220</ele>
        <time>2010-12-10T01:28:20Z</time>
        <course>2.90645669010224</course>
        <speed>7.00751191207922</speed>
      </trkpt>
      <trkpt lat="49.19799" lon="7.75065">
        <ele>220</ele>
        <time>2010-12-10T01:28:23Z</time>
        <course>357.223779395049</course>
        <speed>7.01282101741941</speed>
      </trkpt>
      <trkpt lat="49.198189" lon="7.75067">
        <ele>221</ele>
        <time>2010-12-10T01:28:26Z</time>
        <course>349.539618263929</course>
        <speed>7.01021917646413</speed>
      </trkpt>
      <trkpt lat="49.198372" lon="7.75074">
        <ele>221</ele>
        <time>2010-12-10T01:28:29Z</time>
        <course>340.382592412242</course>
        <speed>7.01630857970104</speed>
      </trkpt>
      <trkpt lat="49.198521" lon="7.75085">
        <ele>221</ele>
        <time>2010-12-10T01:28:32Z</time>
        <course>52.0245315620118</course>
        <speed>6.98534656717712</speed>
      </trkpt>
      <trkpt lat="49.19857" lon="7.75072">
        <ele>221</ele>
        <time>2010-12-10T01:28:34Z</time>
        <course>34.0601786033832</course>
        <speed>6.97235682391692</speed>
      </trkpt>
      <trkpt lat="49.19862" lon="7.75065">
        <ele>221</ele>
        <time>2010-12-10T01:28:35Z</time>
        <course>50.67795276096</course>
        <speed>6.99752640624781</speed>
      </trkpt>
      <trkpt lat="49.198711" lon="7.75042">
        <ele>221</ele>
        <time>2010-12-10T01:28:37Z</time>
        <course>34.0699365253413</course>
        <speed>7.00477567921003</speed>
      </trkpt>
      <trkpt lat="49.198811" lon="7.75028">
        <ele>222</ele>
        <time>2010-12-10T01:28:40Z</time>
        <course>30.3544244292854</course>
        <speed>5.23637544788403</speed>
      </trkpt>
      <trkpt lat="49.19891" lon="7.75016">
        <ele>222</ele>
        <time>2010-12-10T01:28:42Z</time>
        <course>13.5266127465263</course>
        <speed>5.23807795959142</speed>
      </trkpt>
      <trkpt lat="49.199131" lon="7.75005">
        <ele>223</ele>
        <time>2010-12-10T01:28:47Z</time>
        <course>11.9429354305956</course>
        <speed>5.23836757628495</speed>
      </trkpt>
      <trkpt lat="49.199291" lon="7.74998">
        <ele>223</ele>
        <time>2010-12-10T01:28:51Z</time>
        <course>7.27863506474073</course>
        <speed>5.23973491785778</speed>
      </trkpt>
      <trkpt lat="49.200581" lon="7.74964">
        <ele>228</ele>
        <time>2010-12-10T01:29:19Z</time>
        <course>360</course>
        <speed>6.21650349636896</speed>
      </trkpt>
      <trkpt lat="49.200741" lon="7.74964">
        <ele>228</ele>
        <time>2010-12-10T01:29:21Z</time>
        <course>82.5236712468246</course>
        <speed>6.22058793006552</speed>
      </trkpt>
      <trkpt lat="49.200748" lon="7.74953">
        <ele>228</ele>
        <time>2010-12-10T01:29:23Z</time>
        <course>90.0067654359513</course>
        <speed>6.22345708734457</speed>
      </trkpt>
      <trkpt lat="49.200748" lon="7.74926">
        <ele>228</ele>
        <time>2010-12-10T01:29:26Z</time>
        <course>96.865043260493</course>
        <speed>6.2038954016703</speed>
      </trkpt>
      <trkpt lat="49.200741" lon="7.74914">
        <ele>228</ele>
        <time>2010-12-10T01:29:27Z</time>
        <course>68.1684819731912</course>
        <speed>6.22347997033474</speed>
      </trkpt>
      <trkpt lat="49.200809" lon="7.74879">
        <ele>229</ele>
        <time>2010-12-10T01:29:32Z</time>
        <course>72.8094625705048</course>
        <speed>6.20796100398214</speed>
      </trkpt>
      <trkpt lat="49.200821" lon="7.74871">
        <ele>229</ele>
        <time>2010-12-10T01:29:32Z</time>
        <course>75.361326454231</course>
        <speed>6.23246373264654</speed>
      </trkpt>
      <trkpt lat="49.20084" lon="7.74856">
        <ele>229</ele>
        <time>2010-12-10T01:29:34Z</time>
        <course>78.3535065594525</course>
        <speed>6.22136367897947</speed>
      </trkpt>
      <trkpt lat="49.200871" lon="7.74825">
        <ele>230</ele>
        <time>2010-12-10T01:29:38Z</time>
        <course>97.1587963694679</course>
        <speed>6.21895802251008</speed>
      </trkpt>
      <trkpt lat="49.20084" lon="7.74774">
        <ele>230</ele>
        <time>2010-12-10T01:29:44Z</time>
        <course>85.3743886349356</course>
        <speed>6.20933905236309</speed>
      </trkpt>
      <trkpt lat="49.200851" lon="7.74746">
        <ele>231</ele>
        <time>2010-12-10T01:29:47Z</time>
        <course>87.0682650459494</course>
        <speed>6.21689483241708</speed>
      </trkpt>
      <trkpt lat="49.200871" lon="7.74666">
        <ele>232</ele>
        <time>2010-12-10T01:29:57Z</time>
        <course>77.7761948954903</course>
        <speed>4.35244474885659</speed>
      </trkpt>
      <trkpt lat="49.200932" lon="7.74608">
        <ele>233</ele>
        <time>2010-12-10T01:30:06Z</time>
        <course>103.821208890955</course>
        <speed>4.35135368345749</speed>
      </trkpt>
      <trkpt lat="49.200901" lon="7.74582">
        <ele>234</ele>
        <time>2010-12-10T01:30:11Z</time>
        <course>130.471821663793</course>
        <speed>4.35510927197493</speed>
      </trkpt>
      <trkpt lat="49.200748" lon="7.74545">
        <ele>236</ele>
        <time>2010-12-10T01:30:18Z</time>
        <course>30.5956630399391</course>
        <speed>4.35818864583567</speed>
      </trkpt>
      <trkpt lat="49.200871" lon="7.7453">
        <ele>237</ele>
        <time>2010-12-10T01:30:22Z</time>
        <course>39.0821285766938</course>
        <speed>4.35375668710192</speed>
      </trkpt>
      <trkpt lat="49.201092" lon="7.74493">
        <ele>238</ele>
        <time>2010-12-10T01:30:30Z</time>
        <course>49.5382461449562</course>
        <speed>4.35174773852561</speed>
      </trkpt>
      <trkpt lat="49.201241" lon="7.74457">
        <ele>240</ele>
        <time>2010-12-10T01:30:38Z</time>
        <course>63.2838326327793</course>
        <speed>4.35449207735485</speed>
      </trkpt>
      <trkpt lat="49.201439" lon="7.74376">
        <ele>243</ele>
        <time>2010-12-10T01:30:52Z</time>
        <course>66.1818529130114</course>
        <speed>5.02230593730518</speed>
      </trkpt>
      <trkpt lat="49.201469" lon="7.74362">
        <ele>243</ele>
        <time>2010-12-10T01:30:54Z</time>
        <course>72.5684483894807</course>
        <speed>5.02915354991089</speed>
      </trkpt>
      <trkpt lat="49.20153" lon="7.74322">
        <ele>244</ele>
        <time>2010-12-10T01:31:00Z</time>
        <course>18.1659513974292</course>
        <speed>5.03092631207614</speed>
      </trkpt>
      <trkpt lat="49.201752" lon="7.74307">
        <ele>245</ele>
        <time>2010-12-10T01:31:05Z</time>
        <course>3.74396343604632</course>
        <speed>5.02734112686386</speed>
      </trkpt>
      <trkpt lat="49.202049" lon="7.74303">
        <ele>246</ele>
        <time>2010-12-10T01:31:12Z</time>
        <course>4.41208161954529</course>
        <speed>5.02722118263331</speed>
      </trkpt>
      <trkpt lat="49.202301" lon="7.74299">
        <ele>247</ele>
        <time>2010-12-10T01:31:18Z</time>
        <course>7.90986763939169</course>
        <speed>5.02930885571205</speed>
      </trkpt>
      <trkpt lat="49.202511" lon="7.74293">
        <ele>248</ele>
        <time>2010-12-10T01:31:22Z</time>
        <course>7.90986763939169</course>
        <speed>5.02930885571205</speed>
      </trkpt>
      <trkpt lat="49.202511" lon="7.74293">
        <ele>248</ele>
        <time>2010-12-10T01:31:23Z</time>
        <course>7.17959685456092</course>
        <speed>6.12019112849289</speed>
      </trkpt>
      <trkpt lat="49.20282" lon="7.74285">
        <ele>248</ele>
        <time>2010-12-10T01:31:29Z</time>
        <course>20.6012208204571</course>
        <speed>6.1168456316749</speed>
      </trkpt>
      <trkpt lat="49.203079" lon="7.74265">
        <ele>249</ele>
        <time>2010-12-10T01:31:34Z</time>
        <course>19.8802657172363</course>
        <speed>6.11487430968041</speed>
      </trkpt>
      <trkpt lat="49.203281" lon="7.7425">
        <ele>249</ele>
        <time>2010-12-10T01:31:38Z</time>
        <course>26.5572274869521</course>
        <speed>6.12297001597325</speed>
      </trkpt>
      <trkpt lat="49.203671" lon="7.7421">
        <ele>250</ele>
        <time>2010-12-10T01:31:47Z</time>
        <course>31.0309086643066</course>
        <speed>6.12258812616042</speed>
      </trkpt>
      <trkpt lat="49.203979" lon="7.74172">
        <ele>251</ele>
        <time>2010-12-10T01:31:54Z</time>
        <course>67.2635804739982</course>
        <speed>6.12398573934236</speed>
      </trkpt>
      <trkpt lat="49.204071" lon="7.74127">
        <ele>252</ele>
        <time>2010-12-10T01:32:00Z</time>
        <course>114.778276274722</course>
        <speed>4.80855162019503</speed>
      </trkpt>
      <trkpt lat="49.203999" lon="7.74095">
        <ele>252</ele>
        <time>2010-12-10T01:32:05Z</time>
        <course>105.016456159174</course>
        <speed>4.80675115115808</speed>
      </trkpt>
      <trkpt lat="49.203918" lon="7.74033">
        <ele>254</ele>
        <time>2010-12-10T01:32:14Z</time>
        <course>84.159736143721</course>
        <speed>4.80777994357629</speed>
      </trkpt>
      <trkpt lat="49.203949" lon="7.73971">
        <ele>256</ele>
        <time>2010-12-10T01:32:24Z</time>
        <course>108.363220228012</course>
        <speed>4.81036403302451</speed>
      </trkpt>
      <trkpt lat="49.203831" lon="7.73898">
        <ele>258</ele>
        <time>2010-12-10T01:32:35Z</time>
        <course>112.538670222673</course>
        <speed>4.80969947465118</speed>
      </trkpt>
      <trkpt lat="49.203629" lon="7.73798">
        <ele>261</ele>
        <time>2010-12-10T01:32:51Z</time>
        <course>108.165355537458</course>
        <speed>8.31825969818415</speed>
      </trkpt>
      <trkpt lat="49.203522" lon="7.73731">
        <ele>258</ele>
        <time>2010-12-10T01:32:57Z</time>
        <course>105.374664870644</course>
        <speed>8.31835232693424</speed>
      </trkpt>
      <trkpt lat="49.203419" lon="7.73654">
        <ele>256</ele>
        <time>2010-12-10T01:33:04Z</time>
        <course>115.294919664475</course>
        <speed>8.32110330403199</speed>
      </trkpt>
      <trkpt lat="49.203281" lon="7.73594">
        <ele>254</ele>
        <time>2010-12-10T01:33:09Z</time>
        <course>62.701802468159</course>
        <speed>8.32650191519076</speed>
      </trkpt>
      <trkpt lat="49.203369" lon="7.73559">
        <ele>253</ele>
        <time>2010-12-10T01:33:12Z</time>
        <course>62.937634315293</course>
        <speed>8.31243871805337</speed>
      </trkpt>
      <trkpt lat="49.203491" lon="7.7351">
        <ele>252</ele>
        <time>2010-12-10T01:33:17Z</time>
        <course>55.3870371090487</course>
        <speed>2.91791154160519</speed>
      </trkpt>
      <trkpt lat="49.203831" lon="7.73409">
        <ele>259</ele>
        <time>2010-12-10T01:33:45Z</time>
        <course>53.498811037177</course>
        <speed>2.91781650301503</speed>
      </trkpt>
      <trkpt lat="49.204109" lon="7.73332">
        <ele>265</ele>
        <time>2010-12-10T01:34:07Z</time>
        <course>52.8461180845735</course>
        <speed>2.91921082194254</speed>
      </trkpt>
      <trkpt lat="49.204231" lon="7.73299">
        <ele>268</ele>
        <time>2010-12-10T01:34:17Z</time>
        <course>27.5311058875183</course>
        <speed>2.91767140718291</speed>
      </trkpt>
      <trkpt lat="49.20454" lon="7.73266">
        <ele>272</ele>
        <time>2010-12-10T01:34:31Z</time>
        <course>43.1764841389009</course>
        <speed>5.15667758773182</speed>
      </trkpt>
      <trkpt lat="49.204769" lon="7.73222">
        <ele>273</ele>
        <time>2010-12-10T01:34:39Z</time>
        <course>15.6205784912633</course>
        <speed>5.15528506009786</speed>
      </trkpt>
      <trkpt lat="49.205101" lon="7.73203">
        <ele>274</ele>
        <time>2010-12-10T01:34:47Z</time>
        <course>10.1897109730464</course>
        <speed>5.15780169576362</speed>
      </trkpt>
      <trkpt lat="49.205509" lon="7.73188">
        <ele>275</ele>
        <time>2010-12-10T01:34:56Z</time>
        <course>7.83933268643289</course>
        <speed>5.15788296697756</speed>
      </trkpt>
      <trkpt lat="49.205971" lon="7.73175">
        <ele>277</ele>
        <time>2010-12-10T01:35:06Z</time>
        <course>356.800516901433</course>
        <speed>5.15372089417857</speed>
      </trkpt>
      <trkpt lat="49.206409" lon="7.7318">
        <ele>279</ele>
        <time>2010-12-10T01:35:15Z</time>
        <course>2.74031196569962</course>
        <speed>8.3224993200767</speed>
      </trkpt>
      <trkpt lat="49.206921" lon="7.73175">
        <ele>277</ele>
        <time>2010-12-10T01:35:22Z</time>
        <course>360</course>
        <speed>8.32099843986705</speed>
      </trkpt>
      <trkpt lat="49.207401" lon="7.73175">
        <ele>276</ele>
        <time>2010-12-10T01:35:28Z</time>
        <course>6.66671650109182</course>
        <speed>8.31543246903122</speed>
      </trkpt>
      <trkpt lat="49.207821" lon="7.73165">
        <ele>275</ele>
        <time>2010-12-10T01:35:34Z</time>
        <course>1.92290232705667</course>
        <speed>8.3186154010092</speed>
      </trkpt>
      <trkpt lat="49.20826" lon="7.73162">
        <ele>275</ele>
        <time>2010-12-10T01:35:40Z</time>
        <course>357.82866587942</course>
        <speed>8.32317496812651</speed>
      </trkpt>
      <trkpt lat="49.208649" lon="7.73165">
        <ele>273</ele>
        <time>2010-12-10T01:35:45Z</time>
        <course>10.018942174078</course>
        <speed>8.31341465875352</speed>
      </trkpt>
      <trkpt lat="49.209011" lon="7.73152">
        <ele>273</ele>
        <time>2010-12-10T01:35:50Z</time>
        <course>13.1941113337009</course>
        <speed>8.31235217309254</speed>
      </trkpt>
      <trkpt lat="49.209431" lon="7.73132">
        <ele>271</ele>
        <time>2010-12-10T01:35:56Z</time>
        <course>11.0901394837547</course>
        <speed>8.32390730974182</speed>
      </trkpt>
      <trkpt lat="49.209808" lon="7.73117">
        <ele>270</ele>
        <time>2010-12-10T01:36:01Z</time>
        <course>10.9247012655438</course>
        <speed>8.31435669382278</speed>
      </trkpt>
      <trkpt lat="49.21014" lon="7.73104">
        <ele>270</ele>
        <time>2010-12-10T01:36:06Z</time>
        <course>15.8820258837439</course>
        <speed>8.32212471219694</speed>
      </trkpt>
      <trkpt lat="49.2104" lon="7.73089">
        <ele>270</ele>
        <time>2010-12-10T01:36:10Z</time>
        <course>14.6891171857161</course>
        <speed>8.32721054637949</speed>
      </trkpt>
      <trkpt lat="49.21072" lon="7.73072">
        <ele>270</ele>
        <time>2010-12-10T01:36:14Z</time>
        <course>11.9147943807235</course>
        <speed>8.31510541508263</speed>
      </trkpt>
      <trkpt lat="49.211071" lon="7.73057">
        <ele>270</ele>
        <time>2010-12-10T01:36:19Z</time>
        <course>14.6536975876771</course>
        <speed>8.32526679065802</speed>
      </trkpt>
      <trkpt lat="49.21143" lon="7.73038">
        <ele>270</ele>
        <time>2010-12-10T01:36:24Z</time>
        <course>13.2160982973387</course>
        <speed>8.32535168877246</speed>
      </trkpt>
      <trkpt lat="49.21183" lon="7.73019">
        <ele>270</ele>
        <time>2010-12-10T01:36:30Z</time>
        <course>12.8946079488577</course>
        <speed>8.31627238256538</speed>
      </trkpt>
      <trkpt lat="49.212219" lon="7.73001">
        <ele>270</ele>
        <time>2010-12-10T01:36:35Z</time>
        <course>23.3950991844541</course>
        <speed>3.17941509631134</speed>
      </trkpt>
      <trkpt lat="49.212631" lon="7.72965">
        <ele>274</ele>
        <time>2010-12-10T01:36:52Z</time>
        <course>32.9081885895315</course>
        <speed>3.18073960488201</speed>
      </trkpt>
      <trkpt lat="49.21283" lon="7.72939">
        <ele>276</ele>
        <time>2010-12-10T01:37:01Z</time>
        <course>56.0658772349541</course>
        <speed>3.18022532321724</speed>
      </trkpt>
      <trkpt lat="49.21291" lon="7.72915">
        <ele>278</ele>
        <time>2010-12-10T01:37:07Z</time>
        <course>107.212242597961</course>
        <speed>3.18037142731943</speed>
      </trkpt>
      <trkpt lat="49.212841" lon="7.7287">
        <ele>280</ele>
        <time>2010-12-10T01:37:17Z</time>
        <course>116.736932848179</course>
        <speed>3.17967930947675</speed>
      </trkpt>
      <trkpt lat="49.212669" lon="7.72801">
        <ele>285</ele>
        <time>2010-12-10T01:37:34Z</time>
        <course>133.008037877964</course>
        <speed>3.18081461684236</speed>
      </trkpt>
      <trkpt lat="49.212429" lon="7.72749">
        <ele>289</ele>
        <time>2010-12-10T01:37:49Z</time>
        <course>141.894047333251</course>
        <speed>3.83241411413744</speed>
      </trkpt>
      <trkpt lat="49.21212" lon="7.727">
        <ele>291</ele>
        <time>2010-12-10T01:38:02Z</time>
        <course>148.807434324564</course>
        <speed>3.83354077533006</speed>
      </trkpt>
      <trkpt lat="49.21172" lon="7.72651">
        <ele>295</ele>
        <time>2010-12-10T01:38:17Z</time>
        <course>145.806309670332</course>
        <speed>3.83124495700579</speed>
      </trkpt>
      <trkpt lat="49.211342" lon="7.72599">
        <ele>298</ele>
        <time>2010-12-10T01:38:31Z</time>
        <course>160.768262621926</course>
        <speed>3.83282105608676</speed>
      </trkpt>
      <trkpt lat="49.210861" lon="7.72565">
        <ele>302</ele>
        <time>2010-12-10T01:38:47Z</time>
        <course>156.190367906811</course>
        <speed>8.32321114830998</speed>
      </trkpt>
      <trkpt lat="49.210548" lon="7.72537">
        <ele>300</ele>
        <time>2010-12-10T01:38:52Z</time>
        <course>128.170699653064</course>
        <speed>8.32137657259704</speed>
      </trkpt>
      <trkpt lat="49.210331" lon="7.72481">
        <ele>299</ele>
        <time>2010-12-10T01:38:57Z</time>
        <course>138.299595585056</course>
        <speed>8.32245165897933</speed>
      </trkpt>
      <trkpt lat="49.21006" lon="7.72432">
        <ele>298</ele>
        <time>2010-12-10T01:39:03Z</time>
        <course>117.547701421237</course>
        <speed>8.31665543013086</speed>
      </trkpt>
      <trkpt lat="49.209911" lon="7.72374">
        <ele>296</ele>
        <time>2010-12-10T01:39:08Z</time>
        <course>95.9334685621617</course>
        <speed>8.31647908050543</speed>
      </trkpt>
      <trkpt lat="49.209888" lon="7.72329">
        <ele>296</ele>
        <time>2010-12-10T01:39:12Z</time>
        <course>49.959149143683</course>
        <speed>2.91489577501785</speed>
      </trkpt>
      <trkpt lat="49.210091" lon="7.7228">
        <ele>299</ele>
        <time>2010-12-10T01:39:27Z</time>
        <course>31.0967519358988</course>
        <speed>2.91382530275787</speed>
      </trkpt>
      <trkpt lat="49.210369" lon="7.72246">
        <ele>303</ele>
        <time>2010-12-10T01:39:40Z</time>
        <course>18.2050562462882</course>
        <speed>2.91549414170423</speed>
      </trkpt>
      <trkpt lat="49.210579" lon="7.72232">
        <ele>305</ele>
        <time>2010-12-10T01:39:49Z</time>
        <course>2.18254188023529</course>
        <speed>2.91371859173494</speed>
      </trkpt>
      <trkpt lat="49.210838" lon="7.7223">
        <ele>308</ele>
        <time>2010-12-10T01:39:59Z</time>
        <course>350.687260593828</course>
        <speed>2.91523980391166</speed>
      </trkpt>
      <trkpt lat="49.211109" lon="7.72239">
        <ele>311</ele>
        <time>2010-12-10T01:40:09Z</time>
        <course>341.417609463791</course>
        <speed>2.91434846863326</speed>
      </trkpt>
      <trkpt lat="49.2113" lon="7.72252">
        <ele>313</ele>
        <time>2010-12-10T01:40:17Z</time>
        <course>330.211737450853</course>
        <speed>2.91289983090897</speed>
      </trkpt>
      <trkpt lat="49.211559" lon="7.72282">
        <ele>317</ele>
        <time>2010-12-10T01:40:30Z</time>
        <course>354.78802862849</course>
        <speed>8.30999006970135</speed>
      </trkpt>
      <trkpt lat="49.21183" lon="7.72287">
        <ele>315</ele>
        <time>2010-12-10T01:40:33Z</time>
        <course>25.3882240669029</course>
        <speed>8.32299690159115</speed>
      </trkpt>
      <trkpt lat="49.212101" lon="7.72261">
        <ele>314</ele>
        <time>2010-12-10T01:40:38Z</time>
        <course>27.5536221340995</course>
        <speed>8.31975049819327</speed>
      </trkpt>
      <trkpt lat="49.212471" lon="7.72222">
        <ele>312</ele>
        <time>2010-12-10T01:40:44Z</time>
        <course>11.9806831307251</course>
        <speed>8.32730871397215</speed>
      </trkpt>
      <trkpt lat="49.212681" lon="7.72213">
        <ele>312</ele>
        <time>2010-12-10T01:40:47Z</time>
        <course>2.70083991942215</course>
        <speed>8.32039766088505</speed>
      </trkpt>
      <trkpt lat="49.212891" lon="7.72211">
        <ele>311</ele>
        <time>2010-12-10T01:40:49Z</time>
        <course>356.740971279429</course>
        <speed>8.28602896325074</speed>
      </trkpt>
      <trkpt lat="49.212978" lon="7.72212">
        <ele>310</ele>
        <time>2010-12-10T01:40:51Z</time>
        <course>344.542865170914</course>
        <speed>8.32538914552319</speed>
      </trkpt>
      <trkpt lat="49.213211" lon="7.72225">
        <ele>310</ele>
        <time>2010-12-10T01:40:54Z</time>
        <course>358.513147217993</course>
        <speed>8.32797234767521</speed>
      </trkpt>
      <trkpt lat="49.213402" lon="7.72226">
        <ele>308</ele>
        <time>2010-12-10T01:40:56Z</time>
        <course>25.1997829411341</course>
        <speed>8.33065076683429</speed>
      </trkpt>
      <trkpt lat="49.213539" lon="7.72213">
        <ele>307</ele>
        <time>2010-12-10T01:40:59Z</time>
        <course>48.6728234427753</course>
        <speed>8.32088476403303</speed>
      </trkpt>
      <trkpt lat="49.213779" lon="7.72158">
        <ele>305</ele>
        <time>2010-12-10T01:41:04Z</time>
        <course>45.3849438754285</course>
        <speed>8.32524863851142</speed>
      </trkpt>
      <trkpt lat="49.213921" lon="7.72129">
        <ele>304</ele>
        <time>2010-12-10T01:41:08Z</time>
        <course>46.9624183303866</course>
        <speed>8.31790634694051</speed>
      </trkpt>
      <trkpt lat="49.214729" lon="7.71955">
        <ele>296</ele>
        <time>2010-12-10T01:41:26Z</time>
        <course>50.6230431231148</course>
        <speed>8.31765213280789</speed>
      </trkpt>
      <trkpt lat="49.215641" lon="7.71732">
        <ele>285</ele>
        <time>2010-12-10T01:41:49Z</time>
        <course>43.1840615363422</course>
        <speed>8.31209136999534</speed>
      </trkpt>
      <trkpt lat="49.215832" lon="7.71696">
        <ele>284</ele>
        <time>2010-12-10T01:41:53Z</time>
        <course>43.7256176362513</course>
        <speed>6.93171969323813</speed>
      </trkpt>
      <trkpt lat="49.216228" lon="7.7162">
        <ele>284</ele>
        <time>2010-12-10T01:42:03Z</time>
        <course>62.5961930828724</course>
        <speed>6.9381791426147</speed>
      </trkpt>
      <trkpt lat="49.216259" lon="7.71608">
        <ele>284</ele>
        <time>2010-12-10T01:42:05Z</time>
        <course>44.4302492540307</course>
        <speed>6.94139894245301</speed>
      </trkpt>
      <trkpt lat="49.21632" lon="7.71596">
        <ele>284</ele>
        <time>2010-12-10T01:42:06Z</time>
        <course>37.5467429225092</course>
        <speed>6.93187296882847</speed>
      </trkpt>
      <trkpt lat="49.21656" lon="7.71559">
        <ele>285</ele>
        <time>2010-12-10T01:42:12Z</time>
        <course>35.930368525682</course>
        <speed>6.93222459253461</speed>
      </trkpt>
      <trkpt lat="49.21698" lon="7.71498">
        <ele>285</ele>
        <time>2010-12-10T01:42:21Z</time>
        <course>53.0705332925398</course>
        <speed>6.90260581833013</speed>
      </trkpt>
      <trkpt lat="49.21701" lon="7.7149">
        <ele>286</ele>
        <time>2010-12-10T01:42:22Z</time>
        <course>58.1474881856624</course>
        <speed>5.61835599416611</speed>
      </trkpt>
      <trkpt lat="49.217041" lon="7.7148">
        <ele>286</ele>
        <time>2010-12-10T01:42:23Z</time>
        <course>90.0024827598981</course>
        <speed>5.5833135391843</speed>
      </trkpt>
      <trkpt lat="49.217041" lon="7.7147">
        <ele>286</ele>
        <time>2010-12-10T01:42:25Z</time>
        <course>103.767171418238</course>
        <speed>5.58474834994565</speed>
      </trkpt>
      <trkpt lat="49.21703" lon="7.71461">
        <ele>286</ele>
        <time>2010-12-10T01:42:26Z</time>
        <course>109.04936382909</course>
        <speed>5.60641098045418</speed>
      </trkpt>
      <trkpt lat="49.216999" lon="7.71443">
        <ele>286</ele>
        <time>2010-12-10T01:42:28Z</time>
        <course>109.416959554213</course>
        <speed>5.60477610249298</speed>
      </trkpt>
      <trkpt lat="49.216862" lon="7.71365">
        <ele>288</ele>
        <time>2010-12-10T01:42:39Z</time>
        <course>111.024172261815</course>
        <speed>5.60322674877462</speed>
      </trkpt>
      <trkpt lat="49.216839" lon="7.71353">
        <ele>288</ele>
        <time>2010-12-10T01:42:40Z</time>
        <course>121.866493067446</course>
        <speed>5.61837473486032</speed>
      </trkpt>
      <trkpt lat="49.216808" lon="7.71343">
        <ele>288</ele>
        <time>2010-12-10T01:42:42Z</time>
        <course>137.513233504487</course>
        <speed>5.59482969696259</speed>
      </trkpt>
      <trkpt lat="49.216759" lon="7.71334">
        <ele>288</ele>
        <time>2010-12-10T01:42:43Z</time>
        <course>57.0663170449107</course>
        <speed>5.59943759247464</speed>
      </trkpt>
      <trkpt lat="49.216801" lon="7.71321">
        <ele>289</ele>
        <time>2010-12-10T01:42:45Z</time>
        <course>72.3894935222981</course>
        <speed>5.60140094446979</speed>
      </trkpt>
      <trkpt lat="49.21682" lon="7.71309">
        <ele>289</ele>
        <time>2010-12-10T01:42:47Z</time>
        <course>68.1525702632531</course>
        <speed>5.60907675521798</speed>
      </trkpt>
      <trkpt lat="49.21685" lon="7.71294">
        <ele>289</ele>
        <time>2010-12-10T01:42:49Z</time>
        <course>64.5051447312426</course>
        <speed>5.60052600307972</speed>
      </trkpt>
      <trkpt lat="49.216919" lon="7.71265">
        <ele>290</ele>
        <time>2010-12-10T01:42:53Z</time>
        <course>85.6587225957818</course>
        <speed>5.60760684632616</speed>
      </trkpt>
      <trkpt lat="49.21693" lon="7.71236">
        <ele>290</ele>
        <time>2010-12-10T01:42:57Z</time>
        <course>83.9052123257623</course>
        <speed>5.6019676541118</speed>
      </trkpt>
      <trkpt lat="49.216969" lon="7.71163">
        <ele>292</ele>
        <time>2010-12-10T01:43:06Z</time>
        <course>69.3668679168155</course>
        <speed>8.31936081559754</speed>
      </trkpt>
      <trkpt lat="49.217159" lon="7.71062">
        <ele>291</ele>
        <time>2010-12-10T01:43:15Z</time>
        <course>75.7251971826282</course>
        <speed>8.31218548395112</speed>
      </trkpt>
      <trkpt lat="49.21722" lon="7.71014">
        <ele>290</ele>
        <time>2010-12-10T01:43:20Z</time>
        <course>86.1248354775753</course>
        <speed>8.32334628879303</speed>
      </trkpt>
      <trkpt lat="49.217239" lon="7.70958">
        <ele>290</ele>
        <time>2010-12-10T01:43:24Z</time>
        <course>88.2306303468698</course>
        <speed>8.31914326657148</speed>
      </trkpt>
      <trkpt lat="49.217251" lon="7.70881">
        <ele>290</ele>
        <time>2010-12-10T01:43:31Z</time>
        <course>92.5056113593445</course>
        <speed>8.31948829635214</speed>
      </trkpt>
      <trkpt lat="49.21722" lon="7.70737">
        <ele>287</ele>
        <time>2010-12-10T01:43:44Z</time>
        <course>90.0027307543975</course>
        <speed>8.31678067312775</speed>
      </trkpt>
      <trkpt lat="49.21722" lon="7.70726">
        <ele>287</ele>
        <time>2010-12-10T01:43:45Z</time>
        <course>117.664352778005</course>
        <speed>8.33117937520418</speed>
      </trkpt>
      <trkpt lat="49.217152" lon="7.707">
        <ele>286</ele>
        <time>2010-12-10T01:43:47Z</time>
        <course>137.178201687691</course>
        <speed>8.32733318943042</speed>
      </trkpt>
      <trkpt lat="49.216969" lon="7.70666">
        <ele>285</ele>
        <time>2010-12-10T01:43:51Z</time>
        <course>147.854197048657</course>
        <speed>8.31933753512801</speed>
      </trkpt>
      <trkpt lat="49.216129" lon="7.7056">
        <ele>283</ele>
        <time>2010-12-10T01:44:05Z</time>
        <course>145.316882220453</course>
        <speed>8.32393799926657</speed>
      </trkpt>
      <trkpt lat="49.21587" lon="7.70524">
        <ele>283</ele>
        <time>2010-12-10T01:44:10Z</time>
        <course>148.14272214314</course>
        <speed>8.31762661797613</speed>
      </trkpt>
      <trkpt lat="49.215118" lon="7.7043">
        <ele>283</ele>
        <time>2010-12-10T01:44:23Z</time>
        <course>134.547564572252</course>
        <speed>8.32568293737227</speed>
      </trkpt>
      <trkpt lat="49.214981" lon="7.70402">
        <ele>283</ele>
        <time>2010-12-10T01:44:26Z</time>
        <course>128.214587326502</course>
        <speed>8.32000038709413</speed>
      </trkpt>
      <trkpt lat="49.214512" lon="7.70282">
        <ele>283</ele>
        <time>2010-12-10T01:44:38Z</time>
        <course>144.748346314238</course>
        <speed>7.66208898514915</speed>
      </trkpt>
      <trkpt lat="49.212978" lon="7.70063">
        <ele>284</ele>
        <time>2010-12-10T01:45:09Z</time>
        <course>164.617281331092</course>
        <speed>8.32949029516327</speed>
      </trkpt>
      <trkpt lat="49.21278" lon="7.70052">
        <ele>283</ele>
        <time>2010-12-10T01:45:12Z</time>
        <course>192.149196137048</course>
        <speed>8.30264411429198</speed>
      </trkpt>
      <trkpt lat="49.212688" lon="7.70056">
        <ele>283</ele>
        <time>2010-12-10T01:45:13Z</time>
        <course>117.851150811338</course>
        <speed>8.3318377108895</speed>
      </trkpt>
      <trkpt lat="49.21262" lon="7.7003">
        <ele>282</ele>
        <time>2010-12-10T01:45:15Z</time>
        <course>107.970039080034</course>
        <speed>8.32679732026536</speed>
      </trkpt>
      <trkpt lat="49.212551" lon="7.69987">
        <ele>281</ele>
        <time>2010-12-10T01:45:19Z</time>
        <course>93.4461213692742</course>
        <speed>8.32383289441503</speed>
      </trkpt>
      <trkpt lat="49.21254" lon="7.6995">
        <ele>281</ele>
        <time>2010-12-10T01:45:22Z</time>
        <course>90.0107034225091</course>
        <speed>8.32361727129901</speed>
      </trkpt>
      <trkpt lat="49.21254" lon="7.69907">
        <ele>280</ele>
        <time>2010-12-10T01:45:26Z</time>
        <course>85.7088046056313</course>
        <speed>8.31410009383124</speed>
      </trkpt>
      <trkpt lat="49.212559" lon="7.69856">
        <ele>279</ele>
        <time>2010-12-10T01:45:31Z</time>
        <course>86.4769355766928</course>
        <speed>8.33147924229498</speed>
      </trkpt>
      <trkpt lat="49.21257" lon="7.6982">
        <ele>279</ele>
        <time>2010-12-10T01:45:34Z</time>
        <course>81.1527132357116</course>
        <speed>7.63784661359208</speed>
      </trkpt>
      <trkpt lat="49.212669" lon="7.69692">
        <ele>279</ele>
        <time>2010-12-10T01:45:46Z</time>
        <course>79.0233830712134</course>
        <speed>7.63064564255328</speed>
      </trkpt>
      <trkpt lat="49.212719" lon="7.6964">
        <ele>279</ele>
        <time>2010-12-10T01:45:51Z</time>
        <course>59.6165326368934</course>
        <speed>7.63517649776291</speed>
      </trkpt>
      <trkpt lat="49.212841" lon="7.69598">
        <ele>279</ele>
        <time>2010-12-10T01:45:55Z</time>
        <course>54.6603165464364</course>
        <speed>7.64319278819301</speed>
      </trkpt>
      <trkpt lat="49.212971" lon="7.69561">
        <ele>279</ele>
        <time>2010-12-10T01:45:59Z</time>
        <course>154.75106614264</course>
        <speed>7.63408574672414</speed>
      </trkpt>
      <trkpt lat="49.212761" lon="7.69541">
        <ele>280</ele>
        <time>2010-12-10T01:46:03Z</time>
        <course>153.170179558028</course>
        <speed>8.32492754223326</speed>
      </trkpt>
      <trkpt lat="49.212399" lon="7.69504">
        <ele>278</ele>
        <time>2010-12-10T01:46:09Z</time>
        <course>153.530256515868</course>
        <speed>8.32622232847069</speed>
      </trkpt>
      <trkpt lat="49.212101" lon="7.69474">
        <ele>277</ele>
        <time>2010-12-10T01:46:14Z</time>
        <course>160.304722315886</course>
        <speed>8.30751214333862</speed>
      </trkpt>
      <trkpt lat="49.21188" lon="7.69458">
        <ele>276</ele>
        <time>2010-12-10T01:46:17Z</time>
        <course>67.9811454873012</course>
        <speed>8.31201916420747</speed>
      </trkpt>
      <trkpt lat="49.21191" lon="7.69443">
        <ele>276</ele>
        <time>2010-12-10T01:46:18Z</time>
        <course>90.0014940366079</course>
        <speed>8.37583968393749</speed>
      </trkpt>
      <trkpt lat="49.21191" lon="7.69437">
        <ele>276</ele>
        <time>2010-12-10T01:46:19Z</time>
        <course>90.0014940366079</course>
        <speed>8.37583968393749</speed>
      </trkpt>
      <trkpt lat="49.21191" lon="7.69437">
        <ele>276</ele>
        <time>2010-12-10T01:46:20Z</time>
        <course>73.5370117581407</course>
        <speed>5.62213432873504</speed>
      </trkpt>
      <trkpt lat="49.211929" lon="7.69424">
        <ele>276</ele>
        <time>2010-12-10T01:46:21Z</time>
        <course>77.7237546091023</course>
        <speed>5.60398911518831</speed>
      </trkpt>
      <trkpt lat="49.211971" lon="7.69385">
        <ele>276</ele>
        <time>2010-12-10T01:46:27Z</time>
        <course>86.3038634400788</course>
        <speed>5.60783597392412</speed>
      </trkpt>
      <trkpt lat="49.211979" lon="7.6936">
        <ele>277</ele>
        <time>2010-12-10T01:46:30Z</time>
        <course>83.6588599954062</course>
        <speed>5.6036402574934</speed>
      </trkpt>
      <trkpt lat="49.21199" lon="7.6934">
        <ele>277</ele>
        <time>2010-12-10T01:46:32Z</time>
        <course>57.9217753317308</course>
        <speed>5.61882170892408</speed>
      </trkpt>
      <trkpt lat="49.212021" lon="7.6933">
        <ele>277</ele>
        <time>2010-12-10T01:46:34Z</time>
        <course>52.8318126938959</course>
        <speed>5.62691837958253</speed>
      </trkpt>
      <trkpt lat="49.212051" lon="7.69322">
        <ele>278</ele>
        <time>2010-12-10T01:46:35Z</time>
        <course>38.3594256666577</course>
        <speed>5.62026578532263</speed>
      </trkpt>
      <trkpt lat="49.212101" lon="7.69314">
        <ele>278</ele>
        <time>2010-12-10T01:46:36Z</time>
        <course>23.2761377749487</course>
        <speed>5.61655017432006</speed>
      </trkpt>
      <trkpt lat="49.21217" lon="7.69308">
        <ele>278</ele>
        <time>2010-12-10T01:46:38Z</time>
        <course>14.030353540827</course>
        <speed>5.59621099190722</speed>
      </trkpt>
      <trkpt lat="49.212269" lon="7.69303">
        <ele>278</ele>
        <time>2010-12-10T01:46:40Z</time>
        <course>15.9103027973918</course>
        <speed>5.6129385952313</speed>
      </trkpt>
      <trkpt lat="49.21246" lon="7.69292">
        <ele>279</ele>
        <time>2010-12-10T01:46:44Z</time>
        <course>15.8698462613271</course>
        <speed>5.6117500195109</speed>
      </trkpt>
      <trkpt lat="49.212669" lon="7.6928">
        <ele>279</ele>
        <time>2010-12-10T01:46:49Z</time>
        <course>18.6951856520286</course>
        <speed>5.61356799356622</speed>
      </trkpt>
      <trkpt lat="49.21283" lon="7.69269">
        <ele>280</ele>
        <time>2010-12-10T01:46:52Z</time>
        <course>26.1008598231085</course>
        <speed>5.59941611257125</speed>
      </trkpt>
      <trkpt lat="49.212921" lon="7.6926">
        <ele>280</ele>
        <time>2010-12-10T01:46:54Z</time>
        <course>34.0430375775082</course>
        <speed>5.59643588622616</speed>
      </trkpt>
      <trkpt lat="49.213009" lon="7.69248">
        <ele>281</ele>
        <time>2010-12-10T01:46:57Z</time>
        <course>54.7647534821743</course>
        <speed>6.40510502554308</speed>
      </trkpt>
      <trkpt lat="49.213058" lon="7.69234">
        <ele>281</ele>
        <time>2010-12-10T01:46:58Z</time>
        <course>71.7783974380647</course>
        <speed>6.40340886214265</speed>
      </trkpt>
      <trkpt lat="49.213089" lon="7.69215">
        <ele>281</ele>
        <time>2010-12-10T01:47:01Z</time>
        <course>76.1839230196073</course>
        <speed>6.41432073015325</speed>
      </trkpt>
      <trkpt lat="49.213139" lon="7.69174">
        <ele>281</ele>
        <time>2010-12-10T01:47:05Z</time>
        <course>79.9124493079361</course>
        <speed>6.41863576686764</speed>
      </trkpt>
      <trkpt lat="49.213169" lon="7.6914">
        <ele>282</ele>
        <time>2010-12-10T01:47:09Z</time>
        <course>90.006718343932</course>
        <speed>6.40489075386047</speed>
      </trkpt>
      <trkpt lat="49.213169" lon="7.69113">
        <ele>282</ele>
        <time>2010-12-10T01:47:12Z</time>
        <course>90.0087089643722</course>
        <speed>6.41567339818831</speed>
      </trkpt>
      <trkpt lat="49.213169" lon="7.69078">
        <ele>282</ele>
        <time>2010-12-10T01:47:16Z</time>
        <course>98.2125726662624</course>
        <speed>6.41610924064621</speed>
      </trkpt>
      <trkpt lat="49.213139" lon="7.69036">
        <ele>283</ele>
        <time>2010-12-10T01:47:21Z</time>
        <course>104.591461370096</course>
        <speed>6.41516811484229</speed>
      </trkpt>
      <trkpt lat="49.213081" lon="7.68991">
        <ele>283</ele>
        <time>2010-12-10T01:47:26Z</time>
        <course>104.921573298317</course>
        <speed>6.41577017274737</speed>
      </trkpt>
      <trkpt lat="49.21294" lon="7.68884">
        <ele>285</ele>
        <time>2010-12-10T01:47:38Z</time>
        <course>104.217589903414</course>
        <speed>8.3178191206449</speed>
      </trkpt>
      <trkpt lat="49.212841" lon="7.68805">
        <ele>284</ele>
        <time>2010-12-10T01:47:46Z</time>
        <course>113.400112816651</course>
        <speed>8.29092282940053</speed>
      </trkpt>
      <trkpt lat="49.212811" lon="7.68791">
        <ele>284</ele>
        <time>2010-12-10T01:47:47Z</time>
        <course>124.82132484697</course>
        <speed>8.29839601486874</speed>
      </trkpt>
      <trkpt lat="49.21278" lon="7.68782">
        <ele>284</ele>
        <time>2010-12-10T01:47:48Z</time>
        <course>146.913372918336</course>
        <speed>8.31050502924542</speed>
      </trkpt>
      <trkpt lat="49.212742" lon="7.68777">
        <ele>283</ele>
        <time>2010-12-10T01:47:48Z</time>
        <course>164.619506494916</course>
        <speed>8.29015705998505</speed>
      </trkpt>
      <trkpt lat="49.212688" lon="7.68774">
        <ele>283</ele>
        <time>2010-12-10T01:47:49Z</time>
        <course>170.145068585077</course>
        <speed>8.33088957443602</speed>
      </trkpt>
      <trkpt lat="49.212631" lon="7.68772">
        <ele>283</ele>
        <time>2010-12-10T01:47:50Z</time>
        <course>176.903808024643</course>
        <speed>8.321109712406</speed>
      </trkpt>
      <trkpt lat="49.212448" lon="7.6877">
        <ele>283</ele>
        <time>2010-12-10T01:47:52Z</time>
        <course>177.525873765124</course>
        <speed>8.32936639521458</speed>
      </trkpt>
      <trkpt lat="49.212219" lon="7.68768">
        <ele>283</ele>
        <time>2010-12-10T01:47:55Z</time>
        <course>175.363698394816</course>
        <speed>8.31351005135952</speed>
      </trkpt>
      <trkpt lat="49.212158" lon="7.68767">
        <ele>283</ele>
        <time>2010-12-10T01:47:56Z</time>
        <course>158.011805860875</course>
        <speed>8.33879892600856</speed>
      </trkpt>
      <trkpt lat="49.212109" lon="7.68763">
        <ele>283</ele>
        <time>2010-12-10T01:47:57Z</time>
        <course>118.757369938678</course>
        <speed>8.33709960923333</speed>
      </trkpt>
      <trkpt lat="49.21209" lon="7.68756">
        <ele>282</ele>
        <time>2010-12-10T01:47:58Z</time>
        <course>112.018604491154</course>
        <speed>8.34243757710862</speed>
      </trkpt>
      <trkpt lat="49.21207" lon="7.68746">
        <ele>282</ele>
        <time>2010-12-10T01:47:59Z</time>
        <course>90.0047306850967</course>
        <speed>8.30853697219695</speed>
      </trkpt>
      <trkpt lat="49.21207" lon="7.68727">
        <ele>282</ele>
        <time>2010-12-10T01:48:00Z</time>
        <course>93.1146738383346</course>
        <speed>8.31974231039039</speed>
      </trkpt>
      <trkpt lat="49.212051" lon="7.68656">
        <ele>282</ele>
        <time>2010-12-10T01:48:06Z</time>
        <course>91.3376361415474</course>
        <speed>7.75587090643117</speed>
      </trkpt>
      <trkpt lat="49.21204" lon="7.68559">
        <ele>282</ele>
        <time>2010-12-10T01:48:15Z</time>
        <course>92.8037138035556</course>
        <speed>7.75476947476253</speed>
      </trkpt>
      <trkpt lat="49.212021" lon="7.6848">
        <ele>282</ele>
        <time>2010-12-10T01:48:23Z</time>
        <course>97.9126533339832</course>
        <speed>7.75180797089734</speed>
      </trkpt>
      <trkpt lat="49.21196" lon="7.68391">
        <ele>282</ele>
        <time>2010-12-10T01:48:31Z</time>
        <course>98.3203286747091</course>
        <speed>7.7499480312928</speed>
      </trkpt>
      <trkpt lat="49.21188" lon="7.6828">
        <ele>283</ele>
        <time>2010-12-10T01:48:42Z</time>
        <course>98.3203286747091</course>
        <speed>7.7499480312928</speed>
      </trkpt>
      <trkpt lat="49.21188" lon="7.6828">
        <ele>283</ele>
        <time>2010-12-10T01:48:43Z</time>
        <course>99.893179535437</course>
        <speed>6.98380893778328</speed>
      </trkpt>
      <trkpt lat="49.2118" lon="7.68187">
        <ele>283</ele>
        <time>2010-12-10T01:48:52Z</time>
        <course>97.8174851006378</course>
        <speed>6.98297960905613</speed>
      </trkpt>
      <trkpt lat="49.211731" lon="7.68085">
        <ele>284</ele>
        <time>2010-12-10T01:49:03Z</time>
        <course>98.0753297436318</course>
        <speed>6.98626391011093</speed>
      </trkpt>
      <trkpt lat="49.211689" lon="7.68025">
        <ele>284</ele>
        <time>2010-12-10T01:49:09Z</time>
        <course>96.1622649519218</course>
        <speed>7.00312095566168</speed>
      </trkpt>
      <trkpt lat="49.211681" lon="7.6801">
        <ele>284</ele>
        <time>2010-12-10T01:49:11Z</time>
        <course>84.2276747661135</course>
        <speed>6.97516209636637</speed>
      </trkpt>
      <trkpt lat="49.211689" lon="7.67994">
        <ele>285</ele>
        <time>2010-12-10T01:49:13Z</time>
        <course>68.8876788087404</course>
        <speed>3.34768058092893</speed>
      </trkpt>
      <trkpt lat="49.211731" lon="7.67972">
        <ele>286</ele>
        <time>2010-12-10T01:49:18Z</time>
        <course>61.2330116742883</course>
        <speed>3.35519446151499</speed>
      </trkpt>
      <trkpt lat="49.211769" lon="7.67958">
        <ele>287</ele>
        <time>2010-12-10T01:49:21Z</time>
        <course>56.8378445105633</course>
        <speed>3.35280144163161</speed>
      </trkpt>
      <trkpt lat="49.211811" lon="7.67945">
        <ele>287</ele>
        <time>2010-12-10T01:49:24Z</time>
        <course>73.8002251234182</course>
        <speed>3.34996756895592</speed>
      </trkpt>
      <trkpt lat="49.21188" lon="7.67897">
        <ele>290</ele>
        <time>2010-12-10T01:49:35Z</time>
        <course>78.574049433574</course>
        <speed>3.34815533109781</speed>
      </trkpt>
      <trkpt lat="49.21191" lon="7.67867">
        <ele>292</ele>
        <time>2010-12-10T01:49:41Z</time>
        <course>83.3912851867369</course>
        <speed>3.35178737489218</speed>
      </trkpt>
      <trkpt lat="49.211941" lon="7.67813">
        <ele>295</ele>
        <time>2010-12-10T01:49:53Z</time>
        <course>75.8201351910725</course>
        <speed>3.35308143390177</speed>
      </trkpt>
      <trkpt lat="49.211971" lon="7.67789">
        <ele>296</ele>
        <time>2010-12-10T01:49:58Z</time>
        <course>68.4367205109453</course>
        <speed>3.34950155233096</speed>
      </trkpt>
      <trkpt lat="49.212059" lon="7.67744">
        <ele>298</ele>
        <time>2010-12-10T01:50:08Z</time>
        <course>72.6051919706485</course>
        <speed>3.35306625360174</speed>
      </trkpt>
      <trkpt lat="49.21209" lon="7.67724">
        <ele>300</ele>
        <time>2010-12-10T01:50:13Z</time>
        <course>87.8922584308802</course>
        <speed>8.31514338764367</speed>
      </trkpt>
      <trkpt lat="49.212101" lon="7.67664">
        <ele>298</ele>
        <time>2010-12-10T01:50:18Z</time>
        <course>82.9114522577193</course>
        <speed>8.31449173529747</speed>
      </trkpt>
      <trkpt lat="49.212109" lon="7.67651">
        <ele>298</ele>
        <time>2010-12-10T01:50:19Z</time>
        <course>170.617551039468</course>
        <speed>8.31610227222921</speed>
      </trkpt>
      <trkpt lat="49.21175" lon="7.67639">
        <ele>296</ele>
        <time>2010-12-10T01:50:24Z</time>
        <course>148.286325573232</course>
        <speed>8.3163734951961</speed>
      </trkpt>
      <trkpt lat="49.211071" lon="7.67554">
        <ele>292</ele>
        <time>2010-12-10T01:50:36Z</time>
        <course>95.9818117238175</course>
        <speed>8.31509701265962</speed>
      </trkpt>
      <trkpt lat="49.210999" lon="7.67414">
        <ele>289</ele>
        <time>2010-12-10T01:50:48Z</time>
        <course>101.406734130923</course>
        <speed>8.31797227883763</speed>
      </trkpt>
      <trkpt lat="49.210861" lon="7.67275">
        <ele>287</ele>
        <time>2010-12-10T01:51:00Z</time>
        <course>104.382552186364</course>
        <speed>8.31805963768943</speed>
      </trkpt>
      <trkpt lat="49.21077" lon="7.67203">
        <ele>286</ele>
        <time>2010-12-10T01:51:07Z</time>
        <course>90.0077241899771</course>
        <speed>8.3039144677398</speed>
      </trkpt>
      <trkpt lat="49.21077" lon="7.67172">
        <ele>286</ele>
        <time>2010-12-10T01:51:10Z</time>
        <course>82.5341777197201</course>
        <speed>8.32286806232741</speed>
      </trkpt>
      <trkpt lat="49.210781" lon="7.67155">
        <ele>286</ele>
        <time>2010-12-10T01:51:11Z</time>
        <course>86.914402839908</course>
        <speed>8.31901327388231</speed>
      </trkpt>
      <trkpt lat="49.210789" lon="7.67125">
        <ele>286</ele>
        <time>2010-12-10T01:51:14Z</time>
        <course>90.0087207656596</course>
        <speed>6.44855071691497</speed>
      </trkpt>
      <trkpt lat="49.210789" lon="7.6709">
        <ele>286</ele>
        <time>2010-12-10T01:51:18Z</time>
        <course>96.0488696124411</course>
        <speed>6.44923707336082</speed>
      </trkpt>
      <trkpt lat="49.210739" lon="7.66994">
        <ele>287</ele>
        <time>2010-12-10T01:51:28Z</time>
        <course>97.3511999072535</course>
        <speed>6.47012290945924</speed>
      </trkpt>
      <trkpt lat="49.210732" lon="7.66983">
        <ele>287</ele>
        <time>2010-12-10T01:51:30Z</time>
        <course>127.843959179841</course>
        <speed>6.47437805949803</speed>
      </trkpt>
      <trkpt lat="49.210709" lon="7.66977">
        <ele>287</ele>
        <time>2010-12-10T01:51:30Z</time>
        <course>158.460735048671</course>
        <speed>6.46290534296548</speed>
      </trkpt>
      <trkpt lat="49.210659" lon="7.66973">
        <ele>287</ele>
        <time>2010-12-10T01:51:31Z</time>
        <course>180</course>
        <speed>6.4604651163431</speed>
      </trkpt>
      <trkpt lat="49.210609" lon="7.66973">
        <ele>287</ele>
        <time>2010-12-10T01:51:32Z</time>
        <course>188.501060139658</course>
        <speed>6.44503978032792</speed>
      </trkpt>
      <trkpt lat="49.21051" lon="7.66976">
        <ele>287</ele>
        <time>2010-12-10T01:51:34Z</time>
        <course>187.169661065559</course>
        <speed>6.4480546499152</speed>
      </trkpt>
      <trkpt lat="49.210079" lon="7.66987">
        <ele>288</ele>
        <time>2010-12-10T01:51:42Z</time>
        <course>184.145158303025</course>
        <speed>6.43300911533978</speed>
      </trkpt>
      <trkpt lat="49.210011" lon="7.66988">
        <ele>288</ele>
        <time>2010-12-10T01:51:43Z</time>
        <course>184.084792426048</course>
        <speed>6.47190663757628</speed>
      </trkpt>
      <trkpt lat="49.209942" lon="7.66989">
        <ele>288</ele>
        <time>2010-12-10T01:51:44Z</time>
        <course>171.834072244915</course>
        <speed>6.43685793196438</speed>
      </trkpt>
      <trkpt lat="49.209839" lon="7.66986">
        <ele>289</ele>
        <time>2010-12-10T01:51:46Z</time>
        <course>165.46438325747</course>
        <speed>8.26887620582797</speed>
      </trkpt>
      <trkpt lat="49.209801" lon="7.66984">
        <ele>289</ele>
        <time>2010-12-10T01:51:46Z</time>
        <course>153.138175999762</course>
        <speed>4.42711840007435</speed>
      </trkpt>
      <trkpt lat="49.205570003726" lon="7.66545295715332">
        <ele>314</ele>
        <time>2010-12-10T01:53:55Z</time>
        <course>156.937184563369</course>
        <speed>5.52627477497293</speed>
      </trkpt>
      <trkpt lat="49.2015603196717" lon="7.66193389892578">
        <ele>327</ele>
        <time>2010-12-10T01:55:28Z</time>
        <course>160.016844857706</course>
        <speed>4.52939590278025</speed>
      </trkpt>
      <trkpt lat="49.2000180469244" lon="7.66077518463135">
        <ele>335</ele>
        <time>2010-12-10T01:56:10Z</time>
        <course>143.223993459283</course>
        <speed>4.78160482044662</speed>
      </trkpt>
      <trkpt lat="49.1979709560854" lon="7.65759944915771">
        <ele>347</ele>
        <time>2010-12-10T01:57:17Z</time>
        <course>171.641298357644</course>
        <speed>4.20731060031387</speed>
      </trkpt>
      <trkpt lat="49.1954470288364" lon="7.65682697296143">
        <ele>361</ele>
        <time>2010-12-10T01:58:25Z</time>
        <course>152.612404795324</course>
        <speed>2.03918466817093</speed>
      </trkpt>
      <trkpt lat="49.1949702725617" lon="7.65631198883057">
        <ele>371</ele>
        <time>2010-12-10T01:58:57Z</time>
        <course>96.8800827558194</course>
        <speed>8.43673076451523</speed>
      </trkpt>
      <trkpt lat="49.194969" lon="7.65629">
        <ele>371</ele>
        <time>2010-12-10T01:58:57Z</time>
        <course>8.79631654528591</course>
        <speed>6.17618526101292</speed>
      </trkpt>
      <trkpt lat="49.195" lon="7.65628">
        <ele>371</ele>
        <time>2010-12-10T01:58:58Z</time>
        <course>34.4248719351097</course>
        <speed>6.13910891406004</speed>
      </trkpt>
      <trkpt lat="49.195042" lon="7.65622">
        <ele>371</ele>
        <time>2010-12-10T01:58:59Z</time>
        <course>48.6519088912344</course>
        <speed>6.12663308061237</speed>
      </trkpt>
      <trkpt lat="49.19508" lon="7.65613">
        <ele>371</ele>
        <time>2010-12-10T01:59:00Z</time>
        <course>47.4850970833594</course>
        <speed>6.14756308969344</speed>
      </trkpt>
      <trkpt lat="49.19519" lon="7.65588">
        <ele>371</ele>
        <time>2010-12-10T01:59:04Z</time>
        <course>49.0410079278721</course>
        <speed>6.15142286791351</speed>
      </trkpt>
      <trkpt lat="49.19529" lon="7.65564">
        <ele>372</ele>
        <time>2010-12-10T01:59:07Z</time>
        <course>55.765023986248</course>
        <speed>6.15017463953906</speed>
      </trkpt>
      <trkpt lat="49.195339" lon="7.65549">
        <ele>372</ele>
        <time>2010-12-10T01:59:09Z</time>
        <course>76.897066090704</course>
        <speed>6.13910868321945</speed>
      </trkpt>
      <trkpt lat="49.195358" lon="7.65532">
        <ele>372</ele>
        <time>2010-12-10T01:59:11Z</time>
        <course>106.941408252316</course>
        <speed>6.14168849775091</speed>
      </trkpt>
      <trkpt lat="49.19532" lon="7.65506">
        <ele>372</ele>
        <time>2010-12-10T01:59:14Z</time>
        <course>105.047681323307</course>
        <speed>6.14099837911251</speed>
      </trkpt>
      <trkpt lat="49.195271" lon="7.65468">
        <ele>373</ele>
        <time>2010-12-10T01:59:19Z</time>
        <course>98.1846627786231</course>
        <speed>6.15561392838614</speed>
      </trkpt>
      <trkpt lat="49.195251" lon="7.65439">
        <ele>373</ele>
        <time>2010-12-10T01:59:22Z</time>
        <course>116.12775739867</course>
        <speed>6.14758503907809</speed>
      </trkpt>
      <trkpt lat="49.19503" lon="7.65345">
        <ele>375</ele>
        <time>2010-12-10T01:59:34Z</time>
        <course>125.951748949317</course>
        <speed>3.96645977645821</speed>
      </trkpt>
      <trkpt lat="49.19495" lon="7.65322">
        <ele>376</ele>
        <time>2010-12-10T01:59:39Z</time>
        <course>139.523365678519</course>
        <speed>3.96674916514021</speed>
      </trkpt>
      <trkpt lat="49.194832" lon="7.65301">
        <ele>377</ele>
        <time>2010-12-10T01:59:44Z</time>
        <course>144.408259911689</course>
        <speed>3.96669645619197</speed>
      </trkpt>
      <trkpt lat="49.194611" lon="7.65268">
        <ele>379</ele>
        <time>2010-12-10T01:59:53Z</time>
        <course>151.774396835666</course>
        <speed>3.97009166880833</speed>
      </trkpt>
      <trkpt lat="49.19437" lon="7.65241">
        <ele>380</ele>
        <time>2010-12-10T02:00:01Z</time>
        <course>152.531604092402</course>
        <speed>3.96695026860508</speed>
      </trkpt>
      <trkpt lat="49.194241" lon="7.65227">
        <ele>381</ele>
        <time>2010-12-10T02:00:05Z</time>
        <course>143.427526694765</course>
        <speed>3.96720799469636</speed>
      </trkpt>
      <trkpt lat="49.194099" lon="7.65205">
        <ele>383</ele>
        <time>2010-12-10T02:00:11Z</time>
        <course>124.846876185383</course>
        <speed>3.96841584935522</speed>
      </trkpt>
      <trkpt lat="49.194019" lon="7.65181">
        <ele>384</ele>
        <time>2010-12-10T02:00:16Z</time>
        <course>107.676519647223</course>
        <speed>3.96637976232438</speed>
      </trkpt>
      <trkpt lat="49.193958" lon="7.65141">
        <ele>385</ele>
        <time>2010-12-10T02:00:24Z</time>
        <course>95.5529477642269</course>
        <speed>3.96962156307037</speed>
      </trkpt>
      <trkpt lat="49.193932" lon="7.65085">
        <ele>388</ele>
        <time>2010-12-10T02:00:34Z</time>
        <course>73.1981584796988</course>
        <speed>2.35555299574592</speed>
      </trkpt>
      <trkpt lat="49.194" lon="7.65038">
        <ele>392</ele>
        <time>2010-12-10T02:00:49Z</time>
        <course>71.0110637758869</course>
        <speed>2.3562982978262</speed>
      </trkpt>
      <trkpt lat="49.194061" lon="7.65001">
        <ele>395</ele>
        <time>2010-12-10T02:01:00Z</time>
        <course>87.7328055380539</course>
        <speed>2.35613999609511</speed>
      </trkpt>
      <trkpt lat="49.194069" lon="7.64959">
        <ele>399</ele>
        <time>2010-12-10T02:01:13Z</time>
        <course>101.015227760166</course>
        <speed>2.3563702073078</speed>
      </trkpt>
      <trkpt lat="49.193989" lon="7.64873">
        <ele>407</ele>
        <time>2010-12-10T02:01:40Z</time>
        <course>112.508298007691</course>
        <speed>2.35598927946077</speed>
      </trkpt>
      <trkpt lat="49.193779" lon="7.64767">
        <ele>418</ele>
        <time>2010-12-10T02:02:14Z</time>
        <course>118.018297123649</course>
        <speed>7.15424778544364</speed>
      </trkpt>
      <trkpt lat="49.193451" lon="7.64638">
        <ele>418</ele>
        <time>2010-12-10T02:02:28Z</time>
        <course>109.226568073339</course>
        <speed>7.15234705704874</speed>
      </trkpt>
      <trkpt lat="49.19313" lon="7.64445">
        <ele>420</ele>
        <time>2010-12-10T02:02:49Z</time>
        <course>102.754740585087</course>
        <speed>8.31697572035426</speed>
      </trkpt>
      <trkpt lat="49.192951" lon="7.64279">
        <ele>411</ele>
        <time>2010-12-10T02:03:03Z</time>
        <course>111.41286563556</course>
        <speed>8.31745141948824</speed>
      </trkpt>
      <trkpt lat="49.192581" lon="7.64081">
        <ele>401</ele>
        <time>2010-12-10T02:03:21Z</time>
        <course>101.239943837332</course>
        <speed>4.77869406424506</speed>
      </trkpt>
      <trkpt lat="49.192509" lon="7.64005">
        <ele>403</ele>
        <time>2010-12-10T02:03:33Z</time>
        <course>121.058820798843</course>
        <speed>4.7840614648439</speed>
      </trkpt>
      <trkpt lat="49.19244" lon="7.63981">
        <ele>403</ele>
        <time>2010-12-10T02:03:37Z</time>
        <course>120.905766403967</course>
        <speed>4.7826951343754</speed>
      </trkpt>
      <trkpt lat="49.19236" lon="7.63953">
        <ele>404</ele>
        <time>2010-12-10T02:03:42Z</time>
        <course>135.753971213799</course>
        <speed>4.78151854198371</speed>
      </trkpt>
      <trkpt lat="49.19212" lon="7.63904">
        <ele>406</ele>
        <time>2010-12-10T02:03:51Z</time>
        <course>138.641003998061</course>
        <speed>4.78079755090718</speed>
      </trkpt>
      <trkpt lat="49.19186" lon="7.63856">
        <ele>407</ele>
        <time>2010-12-10T02:04:00Z</time>
        <course>144.290868122531</course>
        <speed>4.77844223299699</speed>
      </trkpt>
      <trkpt lat="49.191502" lon="7.63802">
        <ele>410</ele>
        <time>2010-12-10T02:04:12Z</time>
        <course>178.101361537415</course>
        <speed>7.05033043469324</speed>
      </trkpt>
      <trkpt lat="49.191071" lon="7.63799">
        <ele>410</ele>
        <time>2010-12-10T02:04:19Z</time>
        <course>199.037608476696</course>
        <speed>7.06968291179389</speed>
      </trkpt>
      <trkpt lat="49.191002" lon="7.63804">
        <ele>410</ele>
        <time>2010-12-10T02:04:20Z</time>
        <course>185.909169779382</course>
        <speed>7.07239765591249</speed>
      </trkpt>
      <trkpt lat="49.19091" lon="7.63806">
        <ele>410</ele>
        <time>2010-12-10T02:04:21Z</time>
        <course>182.113187788467</course>
        <speed>7.03571765778749</speed>
      </trkpt>
      <trkpt lat="49.190781" lon="7.63807">
        <ele>410</ele>
        <time>2010-12-10T02:04:23Z</time>
        <course>175.812712863237</course>
        <speed>7.04778348904477</speed>
      </trkpt>
      <trkpt lat="49.190651" lon="7.63805">
        <ele>410</ele>
        <time>2010-12-10T02:04:26Z</time>
        <course>171.671671573407</course>
        <speed>7.05013277564609</speed>
      </trkpt>
      <trkpt lat="49.190521" lon="7.63801">
        <ele>410</ele>
        <time>2010-12-10T02:04:28Z</time>
        <course>166.833607907263</course>
        <speed>7.04935162248869</speed>
      </trkpt>
      <trkpt lat="49.190399" lon="7.63795">
        <ele>411</ele>
        <time>2010-12-10T02:04:30Z</time>
        <course>162.130339402555</course>
        <speed>7.06484166056112</speed>
      </trkpt>
      <trkpt lat="49.190281" lon="7.63787">
        <ele>411</ele>
        <time>2010-12-10T02:04:32Z</time>
        <course>156.813004048936</course>
        <speed>7.0509742974644</speed>
      </trkpt>
      <trkpt lat="49.19017" lon="7.63777">
        <ele>411</ele>
        <time>2010-12-10T02:04:34Z</time>
        <course>154.819687550915</course>
        <speed>7.04115570885536</speed>
      </trkpt>
      <trkpt lat="49.190079" lon="7.63768">
        <ele>411</ele>
        <time>2010-12-10T02:04:35Z</time>
        <course>149.285122803014</course>
        <speed>7.05408458154491</speed>
      </trkpt>
      <trkpt lat="49.189991" lon="7.63757">
        <ele>411</ele>
        <time>2010-12-10T02:04:37Z</time>
        <course>144.51806547792</course>
        <speed>7.03319977873727</speed>
      </trkpt>
      <trkpt lat="49.189911" lon="7.63745">
        <ele>411</ele>
        <time>2010-12-10T02:04:39Z</time>
        <course>136.802630632598</course>
        <speed>7.04845659767781</speed>
      </trkpt>
      <trkpt lat="49.189739" lon="7.63711">
        <ele>412</ele>
        <time>2010-12-10T02:04:43Z</time>
        <course>135.639579614017</course>
        <speed>5.36763425145367</speed>
      </trkpt>
      <trkpt lat="49.189671" lon="7.63697">
        <ele>412</ele>
        <time>2010-12-10T02:04:46Z</time>
        <course>145.606903589777</course>
        <speed>5.36253468640616</speed>
      </trkpt>
      <trkpt lat="49.18956" lon="7.63681">
        <ele>412</ele>
        <time>2010-12-10T02:04:49Z</time>
        <course>148.056603404712</course>
        <speed>5.36912975335899</speed>
      </trkpt>
      <trkpt lat="49.189461" lon="7.63668">
        <ele>413</ele>
        <time>2010-12-10T02:04:52Z</time>
        <course>156.827965613077</course>
        <speed>5.37041596214415</speed>
      </trkpt>
      <trkpt lat="49.189339" lon="7.63657">
        <ele>413</ele>
        <time>2010-12-10T02:04:55Z</time>
        <course>157.507198435084</course>
        <speed>5.36887421160379</speed>
      </trkpt>
      <trkpt lat="49.18919" lon="7.63644">
        <ele>414</ele>
        <time>2010-12-10T02:04:58Z</time>
        <course>157.812316227003</course>
        <speed>5.365456735172</speed>
      </trkpt>
      <trkpt lat="49.188969" lon="7.63625">
        <ele>414</ele>
        <time>2010-12-10T02:05:03Z</time>
        <course>152.610295495523</course>
        <speed>5.3623082483502</speed>
      </trkpt>
      <trkpt lat="49.18885" lon="7.63612">
        <ele>415</ele>
        <time>2010-12-10T02:05:06Z</time>
        <course>147.112999578279</course>
        <speed>5.36823472903887</speed>
      </trkpt>
      <trkpt lat="49.18874" lon="7.63597">
        <ele>415</ele>
        <time>2010-12-10T02:05:09Z</time>
        <course>140.323727636895</course>
        <speed>5.37003586690316</speed>
      </trkpt>
      <trkpt lat="49.18858" lon="7.63569">
        <ele>416</ele>
        <time>2010-12-10T02:05:14Z</time>
        <course>142.574487987008</course>
        <speed>5.3632514794779</speed>
      </trkpt>
      <trkpt lat="49.188419" lon="7.63543">
        <ele>417</ele>
        <time>2010-12-10T02:05:19Z</time>
        <course>134.20122864201</course>
        <speed>5.36197082220058</speed>
      </trkpt>
      <trkpt lat="49.18829" lon="7.63515">
        <ele>418</ele>
        <time>2010-12-10T02:05:24Z</time>
        <course>131.498292016707</course>
        <speed>8.31051792296204</speed>
      </trkpt>
      <trkpt lat="49.188202" lon="7.63494">
        <ele>417</ele>
        <time>2010-12-10T02:05:26Z</time>
        <course>131.251029226371</course>
        <speed>8.31501075886272</speed>
      </trkpt>
      <trkpt lat="49.188011" lon="7.63448">
        <ele>417</ele>
        <time>2010-12-10T02:05:31Z</time>
        <course>136.770219028203</course>
        <speed>8.30779737063383</speed>
      </trkpt>
      <trkpt lat="49.18787" lon="7.6342">
        <ele>416</ele>
        <time>2010-12-10T02:05:34Z</time>
        <course>142.689301930194</course>
        <speed>8.31232126793627</speed>
      </trkpt>
      <trkpt lat="49.187752" lon="7.63401">
        <ele>416</ele>
        <time>2010-12-10T02:05:36Z</time>
        <course>147.216627629438</course>
        <speed>8.30643829708845</speed>
      </trkpt>
      <trkpt lat="49.187561" lon="7.63375">
        <ele>416</ele>
        <time>2010-12-10T02:05:40Z</time>
        <course>153.317526998544</course>
        <speed>8.32526661778012</speed>
      </trkpt>
      <trkpt lat="49.187401" lon="7.63358">
        <ele>415</ele>
        <time>2010-12-10T02:05:42Z</time>
        <course>161.10349526977</course>
        <speed>8.30827089402517</speed>
      </trkpt>
      <trkpt lat="49.18718" lon="7.63342">
        <ele>415</ele>
        <time>2010-12-10T02:05:46Z</time>
        <course>164.886364955949</course>
        <speed>8.33096281033715</speed>
      </trkpt>
      <trkpt lat="49.18697" lon="7.6333">
        <ele>415</ele>
        <time>2010-12-10T02:05:49Z</time>
        <course>164.6538754792</course>
        <speed>8.32710077261994</speed>
      </trkpt>
      <trkpt lat="49.186729" lon="7.63316">
        <ele>415</ele>
        <time>2010-12-10T02:05:52Z</time>
        <course>173.020634059745</course>
        <speed>8.31423277467579</speed>
      </trkpt>
      <trkpt lat="49.186459" lon="7.63309">
        <ele>415</ele>
        <time>2010-12-10T02:05:56Z</time>
        <course>172.207551016242</course>
        <speed>8.30176631707024</speed>
      </trkpt>
      <trkpt lat="49.18639" lon="7.63307">
        <ele>415</ele>
        <time>2010-12-10T02:05:57Z</time>
        <course>177.27065594315</course>
        <speed>8.32062539223083</speed>
      </trkpt>
      <trkpt lat="49.186192" lon="7.63305">
        <ele>415</ele>
        <time>2010-12-10T02:05:59Z</time>
        <course>175.802603071477</course>
        <speed>8.31802325929587</speed>
      </trkpt>
      <trkpt lat="49.185101" lon="7.63288">
        <ele>415</ele>
        <time>2010-12-10T02:06:14Z</time>
        <course>178.128166206023</course>
        <speed>8.31371370402402</speed>
      </trkpt>
      <trkpt lat="49.184669" lon="7.63285">
        <ele>415</ele>
        <time>2010-12-10T02:06:20Z</time>
        <course>178.365804243846</course>
        <speed>8.31846634596099</speed>
      </trkpt>
      <trkpt lat="49.18401" lon="7.63281">
        <ele>415</ele>
        <time>2010-12-10T02:06:28Z</time>
        <course>174.604830631597</course>
        <speed>8.32198346212062</speed>
      </trkpt>
      <trkpt lat="49.183811" lon="7.63277">
        <ele>415</ele>
        <time>2010-12-10T02:06:31Z</time>
        <course>168.387503256604</course>
        <speed>8.32967334353852</speed>
      </trkpt>
      <trkpt lat="49.183651" lon="7.6327">
        <ele>415</ele>
        <time>2010-12-10T02:06:33Z</time>
        <course>163.644191138562</course>
        <speed>8.31410429145999</speed>
      </trkpt>
      <trkpt lat="49.183491" lon="7.6326">
        <ele>415</ele>
        <time>2010-12-10T02:06:36Z</time>
        <course>153.853744621981</course>
        <speed>8.30389017801867</speed>
      </trkpt>
      <trkpt lat="49.183338" lon="7.63244">
        <ele>415</ele>
        <time>2010-12-10T02:06:38Z</time>
        <course>141.500498902961</course>
        <speed>8.32726678567966</speed>
      </trkpt>
      <trkpt lat="49.18322" lon="7.63224">
        <ele>414</ele>
        <time>2010-12-10T02:06:41Z</time>
        <course>133.696327841227</course>
        <speed>8.31957280023705</speed>
      </trkpt>
      <trkpt lat="49.18309" lon="7.63195">
        <ele>414</ele>
        <time>2010-12-10T02:06:44Z</time>
        <course>129.998797319793</course>
        <speed>8.31720729918375</speed>
      </trkpt>
      <trkpt lat="49.182968" lon="7.63164">
        <ele>413</ele>
        <time>2010-12-10T02:06:47Z</time>
        <course>124.288496623417</course>
        <speed>8.3230759909464</speed>
      </trkpt>
      <trkpt lat="49.182789" lon="7.63108">
        <ele>413</ele>
        <time>2010-12-10T02:06:52Z</time>
        <course>123.440029749191</course>
        <speed>8.3136546827975</speed>
      </trkpt>
      <trkpt lat="49.182659" lon="7.63066">
        <ele>412</ele>
        <time>2010-12-10T02:06:56Z</time>
        <course>112.816648448077</course>
        <speed>8.32377320485223</speed>
      </trkpt>
      <trkpt lat="49.18259" lon="7.63031">
        <ele>412</ele>
        <time>2010-12-10T02:06:59Z</time>
        <course>110.404533100457</course>
        <speed>8.32593231478981</speed>
      </trkpt>
      <trkpt lat="49.182529" lon="7.62996">
        <ele>412</ele>
        <time>2010-12-10T02:07:03Z</time>
        <course>106.413462106084</course>
        <speed>6.24895714440629</speed>
      </trkpt>
      <trkpt lat="49.182449" lon="7.62938">
        <ele>412</ele>
        <time>2010-12-10T02:07:09Z</time>
        <course>110.957854434569</course>
        <speed>6.24606824917087</speed>
      </trkpt>
      <trkpt lat="49.182388" lon="7.62904">
        <ele>413</ele>
        <time>2010-12-10T02:07:14Z</time>
        <course>107.591020056056</course>
        <speed>6.23854571128647</speed>
      </trkpt>
      <trkpt lat="49.182339" lon="7.62871">
        <ele>413</ele>
        <time>2010-12-10T02:07:18Z</time>
        <course>113.654791323278</course>
        <speed>6.25039989856917</speed>
      </trkpt>
      <trkpt lat="49.182259" lon="7.62832">
        <ele>414</ele>
        <time>2010-12-10T02:07:22Z</time>
        <course>111.852206072924</course>
        <speed>6.24274899813168</speed>
      </trkpt>
      <trkpt lat="49.182152" lon="7.62775">
        <ele>414</ele>
        <time>2010-12-10T02:07:29Z</time>
        <course>40.9427454447076</course>
        <speed>6.24642205123582</speed>
      </trkpt>
      <trkpt lat="49.182579" lon="7.62696">
        <ele>416</ele>
        <time>2010-12-10T02:07:41Z</time>
        <course>151.960798400632</course>
        <speed>7.42744075532977</speed>
      </trkpt>
      <trkpt lat="49.182491" lon="7.62686">
        <ele>416</ele>
        <time>2010-12-10T02:07:43Z</time>
        <course>137.573096574555</course>
        <speed>7.43638377049056</speed>
      </trkpt>
      <trkpt lat="49.181938" lon="7.62578">
        <ele>416</ele>
        <time>2010-12-10T02:07:56Z</time>
        <course>119.894118125356</course>
        <speed>7.43511937005871</speed>
      </trkpt>
      <trkpt lat="49.181171" lon="7.62292">
        <ele>418</ele>
        <time>2010-12-10T02:08:26Z</time>
        <course>119.894118125356</course>
        <speed>7.43511937005871</speed>
      </trkpt>
      <trkpt lat="49.181171" lon="7.62292">
        <ele>418</ele>
        <time>2010-12-10T02:08:27Z</time>
        <course>157.796233378192</course>
        <speed>6.98317173273331</speed>
      </trkpt>
      <trkpt lat="49.180759" lon="7.62256">
        <ele>418</ele>
        <time>2010-12-10T02:08:35Z</time>
        <course>148.49947761515</course>
        <speed>6.98022175159769</speed>
      </trkpt>
      <trkpt lat="49.180401" lon="7.62209">
        <ele>419</ele>
        <time>2010-12-10T02:08:42Z</time>
        <course>147.403626691191</course>
        <speed>6.98154408832967</speed>
      </trkpt>
      <trkpt lat="49.18008" lon="7.62165">
        <ele>419</ele>
        <time>2010-12-10T02:08:49Z</time>
        <course>146.070495794887</course>
        <speed>6.97987308616672</speed>
      </trkpt>
      <trkpt lat="49.17836" lon="7.61916">
        <ele>422</ele>
        <time>2010-12-10T02:09:27Z</time>
        <course>148.919010208403</course>
        <speed>8.3192038564201</speed>
      </trkpt>
      <trkpt lat="49.17799" lon="7.61868">
        <ele>421</ele>
        <time>2010-12-10T02:09:33Z</time>
        <course>153.870006805553</course>
        <speed>8.3149226772971</speed>
      </trkpt>
      <trkpt lat="49.177479" lon="7.61814">
        <ele>419</ele>
        <time>2010-12-10T02:09:42Z</time>
        <course>154.754378667215</course>
        <speed>8.31645864737311</speed>
      </trkpt>
      <trkpt lat="49.176781" lon="7.61743">
        <ele>418</ele>
        <time>2010-12-10T02:09:53Z</time>
        <course>154.419798242548</course>
        <speed>7.6351375363839</speed>
      </trkpt>
      <trkpt lat="49.175121" lon="7.61571">
        <ele>419</ele>
        <time>2010-12-10T02:10:22Z</time>
        <course>155.491514439918</course>
        <speed>5.85979095691445</speed>
      </trkpt>
      <trkpt lat="49.174271" lon="7.61487">
        <ele>421</ele>
        <time>2010-12-10T02:10:41Z</time>
        <course>163.804603313625</course>
        <speed>5.86003220749053</speed>
      </trkpt>
      <trkpt lat="49.173779" lon="7.61456">
        <ele>422</ele>
        <time>2010-12-10T02:10:51Z</time>
        <course>172.858506423107</course>
        <speed>5.86257958258607</speed>
      </trkpt>
      <trkpt lat="49.173191" lon="7.6144">
        <ele>424</ele>
        <time>2010-12-10T02:11:03Z</time>
        <course>180</course>
        <speed>5.65837185929222</speed>
      </trkpt>
      <trkpt lat="49.172279" lon="7.6144">
        <ele>426</ele>
        <time>2010-12-10T02:11:21Z</time>
        <course>195.611926683239</course>
        <speed>5.6542634578689</speed>
      </trkpt>
      <trkpt lat="49.172131" lon="7.61449">
        <ele>426</ele>
        <time>2010-12-10T02:11:24Z</time>
        <course>185.355191862082</course>
        <speed>5.65977703618708</speed>
      </trkpt>
      <trkpt lat="49.171299" lon="7.61466">
        <ele>429</ele>
        <time>2010-12-10T02:11:40Z</time>
        <course>195.768974016092</course>
        <speed>4.54157780884479</speed>
      </trkpt>
      <trkpt lat="49.17065" lon="7.61506">
        <ele>432</ele>
        <time>2010-12-10T02:11:57Z</time>
        <course>199.659235897958</course>
        <speed>4.5389302610983</speed>
      </trkpt>
      <trkpt lat="49.170368" lon="7.61528">
        <ele>433</ele>
        <time>2010-12-10T02:12:05Z</time>
        <course>205.043920477767</course>
        <speed>4.54542220495568</speed>
      </trkpt>
      <trkpt lat="49.170319" lon="7.61533">
        <ele>433</ele>
        <time>2010-12-10T02:12:07Z</time>
        <course>205.396211907474</course>
        <speed>4.53832590743666</speed>
      </trkpt>
      <trkpt lat="49.170078" lon="7.61558">
        <ele>435</ele>
        <time>2010-12-10T02:12:14Z</time>
        <course>183.654985482029</course>
        <speed>4.5393718716489</speed>
      </trkpt>
      <trkpt lat="49.16972" lon="7.61563">
        <ele>436</ele>
        <time>2010-12-10T02:12:22Z</time>
        <course>167.862158835145</course>
        <speed>4.54111079679727</speed>
      </trkpt>
      <trkpt lat="49.168892" lon="7.61524">
        <ele>441</ele>
        <time>2010-12-10T02:12:44Z</time>
        <course>159.221919692558</course>
        <speed>8.32201287924887</speed>
      </trkpt>
      <trkpt lat="49.168171" lon="7.61464">
        <ele>440</ele>
        <time>2010-12-10T02:12:55Z</time>
        <course>147.605376004159</course>
        <speed>8.32103420376542</speed>
      </trkpt>
      <trkpt lat="49.167561" lon="7.61379">
        <ele>439</ele>
        <time>2010-12-10T02:13:06Z</time>
        <course>140.960809762745</course>
        <speed>8.30029142085793</speed>
      </trkpt>
      <trkpt lat="49.167488" lon="7.61366">
        <ele>439</ele>
        <time>2010-12-10T02:13:07Z</time>
        <course>141.24359863193</course>
        <speed>8.32024907442001</speed>
      </trkpt>
      <trkpt lat="49.16708" lon="7.61294">
        <ele>439</ele>
        <time>2010-12-10T02:13:15Z</time>
        <course>142.252689642327</course>
        <speed>7.23147819053116</speed>
      </trkpt>
      <trkpt lat="49.166458" lon="7.61188">
        <ele>439</ele>
        <time>2010-12-10T02:13:30Z</time>
        <course>147.985371488765</course>
        <speed>7.23150210148459</speed>
      </trkpt>
      <trkpt lat="49.16449" lon="7.60916">
        <ele>442</ele>
        <time>2010-12-10T02:14:11Z</time>
        <course>148.144167566599</course>
        <speed>8.3185832010994</speed>
      </trkpt>
      <trkpt lat="49.160599" lon="7.60377">
        <ele>436</ele>
        <time>2010-12-10T02:15:21Z</time>
        <course>148.170116916873</course>
        <speed>8.31873648215803</speed>
      </trkpt>
      <trkpt lat="49.158482" lon="7.60083">
        <ele>436</ele>
        <time>2010-12-10T02:15:59Z</time>
        <course>148.307836265664</course>
        <speed>8.31816405100319</speed>
      </trkpt>
      <trkpt lat="49.157398" lon="7.59933">
        <ele>436</ele>
        <time>2010-12-10T02:16:18Z</time>
        <course>155.161234118892</course>
        <speed>8.32266898987593</speed>
      </trkpt>
      <trkpt lat="49.156849" lon="7.59876">
        <ele>436</ele>
        <time>2010-12-10T02:16:27Z</time>
        <course>157.262671405567</course>
        <speed>8.31981380720056</speed>
      </trkpt>
      <trkpt lat="49.15601" lon="7.59797">
        <ele>436</ele>
        <time>2010-12-10T02:16:40Z</time>
        <course>156.985371119922</course>
        <speed>8.31615654882792</speed>
      </trkpt>
      <trkpt lat="49.155121" lon="7.59712">
        <ele>436</ele>
        <time>2010-12-10T02:16:54Z</time>
        <course>152.186917960467</course>
        <speed>5.30561660459273</speed>
      </trkpt>
      <trkpt lat="49.154591" lon="7.59649">
        <ele>438</ele>
        <time>2010-12-10T02:17:08Z</time>
        <course>149.84934649434</course>
        <speed>5.30593100831943</speed>
      </trkpt>
      <trkpt lat="49.153912" lon="7.5956">
        <ele>440</ele>
        <time>2010-12-10T02:17:27Z</time>
        <course>150.403190328934</course>
        <speed>5.30428869582446</speed>
      </trkpt>
      <trkpt lat="49.152931" lon="7.59434">
        <ele>445</ele>
        <time>2010-12-10T02:17:54Z</time>
        <course>151.213458543312</course>
        <speed>8.32150341903735</speed>
      </trkpt>
      <trkpt lat="49.152569" lon="7.59389">
        <ele>445</ele>
        <time>2010-12-10T02:18:00Z</time>
        <course>163.255585879353</course>
        <speed>8.31831408013921</speed>
      </trkpt>
      <trkpt lat="49.15229" lon="7.5937">
        <ele>445</ele>
        <time>2010-12-10T02:18:04Z</time>
        <course>148.633628557653</course>
        <speed>8.31873314857905</speed>
      </trkpt>
      <trkpt lat="49.151451" lon="7.59254">
        <ele>445</ele>
        <time>2010-12-10T02:18:19Z</time>
        <course>145.445108593325</course>
        <speed>8.31864727929037</speed>
      </trkpt>
      <trkpt lat="49.150028" lon="7.59031">
        <ele>440</ele>
        <time>2010-12-10T02:18:47Z</time>
        <course>147.145896484764</course>
        <speed>8.31823675449968</speed>
      </trkpt>
      <trkpt lat="49.149681" lon="7.5898">
        <ele>439</ele>
        <time>2010-12-10T02:18:53Z</time>
        <course>153.822621563727</course>
        <speed>8.31455681362704</speed>
      </trkpt>
      <trkpt lat="49.149288" lon="7.58936">
        <ele>438</ele>
        <time>2010-12-10T02:19:00Z</time>
        <course>154.285317109626</course>
        <speed>8.32414176700034</speed>
      </trkpt>
      <trkpt lat="49.14896" lon="7.589">
        <ele>438</ele>
        <time>2010-12-10T02:19:05Z</time>
        <course>160.167223735044</course>
        <speed>8.31964185604208</speed>
      </trkpt>
      <trkpt lat="49.148571" lon="7.58868">
        <ele>438</ele>
        <time>2010-12-10T02:19:11Z</time>
        <course>164.373683039085</course>
        <speed>7.57976640931669</speed>
      </trkpt>
      <trkpt lat="49.148289" lon="7.5885">
        <ele>438</ele>
        <time>2010-12-10T02:19:15Z</time>
        <course>165.204159500715</course>
        <speed>7.5703418177602</speed>
      </trkpt>
      <trkpt lat="49.14809" lon="7.58838">
        <ele>438</ele>
        <time>2010-12-10T02:19:19Z</time>
        <course>173.245275876364</course>
        <speed>7.57882782398321</speed>
      </trkpt>
      <trkpt lat="49.147499" lon="7.58822">
        <ele>438</ele>
        <time>2010-12-10T02:19:27Z</time>
        <course>175.06974221465</course>
        <speed>7.58001363487233</speed>
      </trkpt>
      <trkpt lat="49.14679" lon="7.58808">
        <ele>439</ele>
        <time>2010-12-10T02:19:38Z</time>
        <course>178.748147779316</course>
        <speed>8.31418098398612</speed>
      </trkpt>
      <trkpt lat="49.146191" lon="7.58805">
        <ele>438</ele>
        <time>2010-12-10T02:19:46Z</time>
        <course>187.403953996256</course>
        <speed>8.31871788299497</speed>
      </trkpt>
      <trkpt lat="49.145889" lon="7.58814">
        <ele>437</ele>
        <time>2010-12-10T02:19:50Z</time>
        <course>194.583034539749</course>
        <speed>8.32218695209072</speed>
      </trkpt>
      <trkpt lat="49.14537" lon="7.58845">
        <ele>437</ele>
        <time>2010-12-10T02:19:57Z</time>
        <course>199.080345926332</course>
        <speed>8.3219101756367</speed>
      </trkpt>
      <trkpt lat="49.144691" lon="7.58899">
        <ele>436</ele>
        <time>2010-12-10T02:20:08Z</time>
        <course>196.94958778616</course>
        <speed>4.81388667293299</speed>
      </trkpt>
      <trkpt lat="49.140659" lon="7.59184">
        <ele>454</ele>
        <time>2010-12-10T02:21:50Z</time>
        <course>198.724284132426</course>
        <speed>7.63902153839717</speed>
      </trkpt>
      <trkpt lat="49.140049" lon="7.59232">
        <ele>454</ele>
        <time>2010-12-10T02:22:00Z</time>
        <course>196.667447592558</course>
        <speed>7.63749138641576</speed>
      </trkpt>
      <trkpt lat="49.139259" lon="7.59287">
        <ele>454</ele>
        <time>2010-12-10T02:22:13Z</time>
        <course>199.700766729342</course>
        <speed>7.63860689191444</speed>
      </trkpt>
      <trkpt lat="49.138851" lon="7.59321">
        <ele>455</ele>
        <time>2010-12-10T02:22:20Z</time>
        <course>199.485722732715</course>
        <speed>8.31435110934815</speed>
      </trkpt>
      <trkpt lat="49.13839" lon="7.59359">
        <ele>450</ele>
        <time>2010-12-10T02:22:27Z</time>
        <course>203.227044743574</course>
        <speed>8.29927075296487</speed>
      </trkpt>
      <trkpt lat="49.13826" lon="7.59372">
        <ele>449</ele>
        <time>2010-12-10T02:22:29Z</time>
        <course>176.799050736498</course>
        <speed>8.3196351397765</speed>
      </trkpt>
      <trkpt lat="49.136959" lon="7.59355">
        <ele>439</ele>
        <time>2010-12-10T02:22:46Z</time>
        <course>170.912203045838</course>
        <speed>8.3162477709248</speed>
      </trkpt>
      <trkpt lat="49.136211" lon="7.59327">
        <ele>436</ele>
        <time>2010-12-10T02:22:56Z</time>
        <course>167.476761662906</course>
        <speed>8.31908807268711</speed>
      </trkpt>
      <trkpt lat="49.13483" lon="7.59255">
        <ele>432</ele>
        <time>2010-12-10T02:23:16Z</time>
        <course>140.638088000422</course>
        <speed>8.31879770482966</speed>
      </trkpt>
      <trkpt lat="49.134529" lon="7.59197">
        <ele>430</ele>
        <time>2010-12-10T02:23:22Z</time>
        <course>150.37168130663</course>
        <speed>8.31973847648312</speed>
      </trkpt>
      <trkpt lat="49.134312" lon="7.59168">
        <ele>429</ele>
        <time>2010-12-10T02:23:26Z</time>
        <course>153.979210151569</course>
        <speed>8.31005029832382</speed>
      </trkpt>
      <trkpt lat="49.134129" lon="7.59147">
        <ele>428</ele>
        <time>2010-12-10T02:23:29Z</time>
        <course>166.918814465852</course>
        <speed>8.3159817455266</speed>
      </trkpt>
      <trkpt lat="49.13369" lon="7.59123">
        <ele>426</ele>
        <time>2010-12-10T02:23:35Z</time>
        <course>156.3334437216</course>
        <speed>8.32157336005228</speed>
      </trkpt>
      <trkpt lat="49.133438" lon="7.59097">
        <ele>425</ele>
        <time>2010-12-10T02:23:39Z</time>
        <course>144.915656555321</course>
        <speed>8.32327476637214</speed>
      </trkpt>
      <trkpt lat="49.13316" lon="7.59051">
        <ele>424</ele>
        <time>2010-12-10T02:23:45Z</time>
        <course>119.290307792333</course>
        <speed>8.31901056211165</speed>
      </trkpt>
      <trkpt lat="49.133041" lon="7.59001">
        <ele>419</ele>
        <time>2010-12-10T02:23:50Z</time>
        <course>121.711674985081</course>
        <speed>8.31987385084979</speed>
      </trkpt>
      <trkpt lat="49.132889" lon="7.58943">
        <ele>413</ele>
        <time>2010-12-10T02:23:55Z</time>
        <course>114.599003814629</course>
        <speed>8.31781336942704</speed>
      </trkpt>
      <trkpt lat="49.13279" lon="7.58892">
        <ele>409</ele>
        <time>2010-12-10T02:24:00Z</time>
        <course>101.426600158435</course>
        <speed>8.34626890115565</speed>
      </trkpt>
      <trkpt lat="49.132778" lon="7.58878">
        <ele>408</ele>
        <time>2010-12-10T02:24:01Z</time>
        <course>101.426600158435</course>
        <speed>8.34626890115565</speed>
      </trkpt>
      <trkpt lat="49.132778" lon="7.58878">
        <ele>408</ele>
        <time>2010-12-10T02:24:02Z</time>
        <course>101.513283753391</course>
        <speed>8.3166082524558</speed>
      </trkpt>
      <trkpt lat="49.132759" lon="7.58856">
        <ele>407</ele>
        <time>2010-12-10T02:24:04Z</time>
        <course>102.82397389311</course>
        <speed>8.32167921657924</speed>
      </trkpt>
      <trkpt lat="49.132679" lon="7.58773">
        <ele>405</ele>
        <time>2010-12-10T02:24:11Z</time>
        <course>151.862816844397</course>
        <speed>8.32921418475128</speed>
      </trkpt>
      <trkpt lat="49.132568" lon="7.58759">
        <ele>405</ele>
        <time>2010-12-10T02:24:13Z</time>
        <course>187.107760638053</course>
        <speed>8.2739879680273</speed>
      </trkpt>
      <trkpt lat="49.1325" lon="7.58761">
        <ele>405</ele>
        <time>2010-12-10T02:24:14Z</time>
        <course>118.853655159026</course>
        <speed>8.31794816080171</speed>
      </trkpt>
      <trkpt lat="49.132141" lon="7.58607">
        <ele>402</ele>
        <time>2010-12-10T02:24:28Z</time>
        <course>113.169279685693</course>
        <speed>3.06273157165791</speed>
      </trkpt>
      <trkpt lat="49.131969" lon="7.58512">
        <ele>408</ele>
        <time>2010-12-10T02:24:52Z</time>
        <course>94.9449489549736</course>
        <speed>3.06367564472157</speed>
      </trkpt>
      <trkpt lat="49.13195" lon="7.5846">
        <ele>411</ele>
        <time>2010-12-10T02:25:04Z</time>
        <course>47.5232686178986</course>
        <speed>3.06312711748665</speed>
      </trkpt>
      <trkpt lat="49.13221" lon="7.58393">
        <ele>416</ele>
        <time>2010-12-10T02:25:23Z</time>
        <course>39.4594996703485</course>
        <speed>3.06319062694064</speed>
      </trkpt>
      <trkpt lat="49.13271" lon="7.58296">
        <ele>424</ele>
        <time>2010-12-10T02:25:52Z</time>
        <course>42.3486196257698</course>
        <speed>8.31547825373626</speed>
      </trkpt>
      <trkpt lat="49.133148" lon="7.58202">
        <ele>423</ele>
        <time>2010-12-10T02:26:02Z</time>
        <course>21.7015580620613</course>
        <speed>8.3143662487714</speed>
      </trkpt>
      <trkpt lat="49.133511" lon="7.58168">
        <ele>423</ele>
        <time>2010-12-10T02:26:08Z</time>
        <course>38.730441373644</course>
        <speed>8.31696574332843</speed>
      </trkpt>
      <trkpt lat="49.13393" lon="7.58089">
        <ele>423</ele>
        <time>2010-12-10T02:26:17Z</time>
        <course>36.1676869575783</course>
        <speed>4.72942378612681</speed>
      </trkpt>
      <trkpt lat="49.135349" lon="7.57846">
        <ele>432</ele>
        <time>2010-12-10T02:27:07Z</time>
        <course>29.9956123528198</course>
        <speed>8.31514330984991</speed>
      </trkpt>
      <trkpt lat="49.135941" lon="7.57766">
        <ele>430</ele>
        <time>2010-12-10T02:27:17Z</time>
        <course>25.086414969702</course>
        <speed>8.31744106477132</speed>
      </trkpt>
      <trkpt lat="49.136608" lon="7.57693">
        <ele>428</ele>
        <time>2010-12-10T02:27:28Z</time>
        <course>27.7928443000955</course>
        <speed>8.31945460282129</speed>
      </trkpt>
      <trkpt lat="49.138229" lon="7.57494">
        <ele>423</ele>
        <time>2010-12-10T02:27:56Z</time>
        <course>161.65837282302</course>
        <speed>8.31702395965582</speed>
      </trkpt>
      <trkpt lat="49.136681" lon="7.57374">
        <ele>414</ele>
        <time>2010-12-10T02:28:19Z</time>
        <course>150.471596417446</course>
        <speed>8.31840585698485</speed>
      </trkpt>
      <trkpt lat="49.136349" lon="7.5733">
        <ele>412</ele>
        <time>2010-12-10T02:28:25Z</time>
        <course>144.440973448762</course>
        <speed>3.96939612744176</speed>
      </trkpt>
      <trkpt lat="49.135609" lon="7.57206">
        <ele>418</ele>
        <time>2010-12-10T02:28:56Z</time>
        <course>147.832682739365</course>
        <speed>3.96963607103881</speed>
      </trkpt>
      <trkpt lat="49.134041" lon="7.56974">
        <ele>432</ele>
        <time>2010-12-10T02:29:57Z</time>
        <course>154.794935112082</course>
        <speed>8.31912279589943</speed>
      </trkpt>
      <trkpt lat="49.131142" lon="7.56651">
        <ele>431</ele>
        <time>2010-12-10T02:30:45Z</time>
        <course>158.997514152043</course>
        <speed>7.64417310647055</speed>
      </trkpt>
      <trkpt lat="49.13023" lon="7.56568">
        <ele>431</ele>
        <time>2010-12-10T02:31:00Z</time>
        <course>158.221194414946</course>
        <speed>7.64604184662916</speed>
      </trkpt>
      <trkpt lat="49.12965" lon="7.56513">
        <ele>431</ele>
        <time>2010-12-10T02:31:10Z</time>
        <course>57.2933486992876</course>
        <speed>7.64513716156958</speed>
      </trkpt>
      <trkpt lat="49.129761" lon="7.56472">
        <ele>432</ele>
        <time>2010-12-10T02:31:14Z</time>
        <course>47.192569827965</course>
        <speed>8.31591532231392</speed>
      </trkpt>
      <trkpt lat="49.130058" lon="7.56396">
        <ele>427</ele>
        <time>2010-12-10T02:31:22Z</time>
        <course>33.3312752594869</course>
        <speed>8.31798745951954</speed>
      </trkpt>
      <trkpt lat="49.130501" lon="7.56327">
        <ele>423</ele>
        <time>2010-12-10T02:31:31Z</time>
        <course>27.6012429892474</course>
        <speed>8.31729453631683</speed>
      </trkpt>
      <trkpt lat="49.131229" lon="7.56237">
        <ele>417</ele>
        <time>2010-12-10T02:31:43Z</time>
        <course>27.9685642389924</course>
        <speed>8.31537689287441</speed>
      </trkpt>
      <trkpt lat="49.131859" lon="7.56158">
        <ele>412</ele>
        <time>2010-12-10T02:31:54Z</time>
        <course>39.8381904153727</course>
        <speed>8.31962642455731</speed>
      </trkpt>
      <trkpt lat="49.132179" lon="7.56095">
        <ele>409</ele>
        <time>2010-12-10T02:32:01Z</time>
        <course>41.8297060039475</course>
        <speed>8.31779443000959</speed>
      </trkpt>
      <trkpt lat="49.13271" lon="7.55983">
        <ele>404</ele>
        <time>2010-12-10T02:32:13Z</time>
        <course>35.9256250943289</course>
        <speed>4.18859679899714</speed>
      </trkpt>
      <trkpt lat="49.133549" lon="7.5584">
        <ele>410</ele>
        <time>2010-12-10T02:32:46Z</time>
        <course>50.7577174840015</course>
        <speed>4.18880742118106</speed>
      </trkpt>
      <trkpt lat="49.1339" lon="7.55739">
        <ele>415</ele>
        <time>2010-12-10T02:33:06Z</time>
        <course>60.1219124643942</course>
        <speed>8.31571404022682</speed>
      </trkpt>
      <trkpt lat="49.13401" lon="7.55694">
        <ele>413</ele>
        <time>2010-12-10T02:33:10Z</time>
        <course>60.1219124643942</course>
        <speed>8.31571404022682</speed>
      </trkpt>
      <trkpt lat="49.13401" lon="7.55694">
        <ele>413</ele>
        <time>2010-12-10T02:33:11Z</time>
        <course>60.9132846764911</course>
        <speed>8.32356438165229</speed>
      </trkpt>
      <trkpt lat="49.13419" lon="7.55618">
        <ele>412</ele>
        <time>2010-12-10T02:33:18Z</time>
        <course>69.7683409133472</course>
        <speed>8.31495078074298</speed>
      </trkpt>
      <trkpt lat="49.134399" lon="7.55485">
        <ele>412</ele>
        <time>2010-12-10T02:33:30Z</time>
        <course>67.9728716530581</course>
        <speed>8.31448201728499</speed>
      </trkpt>
      <trkpt lat="49.13448" lon="7.55438">
        <ele>412</ele>
        <time>2010-12-10T02:33:35Z</time>
        <course>85.1084269316344</course>
        <speed>8.32200097829388</speed>
      </trkpt>
      <trkpt lat="49.134499" lon="7.55386">
        <ele>412</ele>
        <time>2010-12-10T02:33:39Z</time>
        <course>98.8031164406901</course>
        <speed>8.32203940306095</speed>
      </trkpt>
      <trkpt lat="49.134472" lon="7.55345">
        <ele>411</ele>
        <time>2010-12-10T02:33:43Z</time>
        <course>115.181117888087</course>
        <speed>8.31099611177869</speed>
      </trkpt>
      <trkpt lat="49.13435" lon="7.55284">
        <ele>411</ele>
        <time>2010-12-10T02:33:48Z</time>
        <course>113.553744762268</course>
        <speed>8.31754112106487</speed>
      </trkpt>
      <trkpt lat="49.13377" lon="7.5497">
        <ele>408</ele>
        <time>2010-12-10T02:34:17Z</time>
        <course>111.373051577576</course>
        <speed>8.3203574032083</speed>
      </trkpt>
      <trkpt lat="49.13343" lon="7.54765">
        <ele>401</ele>
        <time>2010-12-10T02:34:35Z</time>
        <course>109.938415701024</course>
        <speed>8.31651327623735</speed>
      </trkpt>
      <trkpt lat="49.13327" lon="7.54661">
        <ele>398</ele>
        <time>2010-12-10T02:34:45Z</time>
        <course>122.298067235282</course>
        <speed>8.31667495533137</speed>
      </trkpt>
      <trkpt lat="49.13282" lon="7.54493">
        <ele>384</ele>
        <time>2010-12-10T02:35:01Z</time>
        <course>127.375330239367</course>
        <speed>8.32106543875616</speed>
      </trkpt>
      <trkpt lat="49.132309" lon="7.54335">
        <ele>372</ele>
        <time>2010-12-10T02:35:16Z</time>
        <course>133.600240949497</course>
        <speed>8.31693208499089</speed>
      </trkpt>
      <trkpt lat="49.1315" lon="7.54134">
        <ele>352</ele>
        <time>2010-12-10T02:35:37Z</time>
        <course>138.088604579795</course>
        <speed>8.32189748992753</speed>
      </trkpt>
      <trkpt lat="49.131161" lon="7.54062">
        <ele>345</ele>
        <time>2010-12-10T02:35:44Z</time>
        <course>150.316196244938</course>
        <speed>8.31919716063785</speed>
      </trkpt>
      <trkpt lat="49.130909" lon="7.54028">
        <ele>344</ele>
        <time>2010-12-10T02:35:49Z</time>
        <course>175.400833387946</course>
        <speed>8.30945053941845</speed>
      </trkpt>
      <trkpt lat="49.130699" lon="7.54024">
        <ele>343</ele>
        <time>2010-12-10T02:35:52Z</time>
        <course>184.024229231564</course>
        <speed>8.3055482105193</speed>
      </trkpt>
      <trkpt lat="49.130459" lon="7.54028">
        <ele>342</ele>
        <time>2010-12-10T02:35:55Z</time>
        <course>187.749868793025</course>
        <speed>8.30825106126196</speed>
      </trkpt>
      <trkpt lat="49.130211" lon="7.54036">
        <ele>341</ele>
        <time>2010-12-10T02:35:58Z</time>
        <course>197.549214067669</course>
        <speed>8.32134862668442</speed>
      </trkpt>
      <trkpt lat="49.129971" lon="7.54054">
        <ele>341</ele>
        <time>2010-12-10T02:36:02Z</time>
        <course>212.680850709134</course>
        <speed>8.33920679330884</speed>
      </trkpt>
      <trkpt lat="49.129879" lon="7.54068">
        <ele>340</ele>
        <time>2010-12-10T02:36:04Z</time>
        <course>225.092360853171</course>
        <speed>8.32775107782309</speed>
      </trkpt>
      <trkpt lat="49.129711" lon="7.54108">
        <ele>339</ele>
        <time>2010-12-10T02:36:08Z</time>
        <course>256.626505398277</course>
        <speed>8.31496839630558</speed>
      </trkpt>
      <trkpt lat="49.12962" lon="7.54199">
        <ele>338</ele>
        <time>2010-12-10T02:36:16Z</time>
        <course>265.756272456204</course>
        <speed>8.3153866189012</speed>
      </trkpt>
      <trkpt lat="49.129601" lon="7.5426">
        <ele>335</ele>
        <time>2010-12-10T02:36:21Z</time>
        <course>282.139257106631</course>
        <speed>8.31024455638999</speed>
      </trkpt>
      <trkpt lat="49.12965" lon="7.54314">
        <ele>333</ele>
        <time>2010-12-10T02:36:26Z</time>
        <course>304.981463859665</course>
        <speed>8.30821661646723</speed>
      </trkpt>
      <trkpt lat="49.129768" lon="7.54354">
        <ele>331</ele>
        <time>2010-12-10T02:36:30Z</time>
        <course>333.498337295536</course>
        <speed>8.31212441378271</speed>
      </trkpt>
      <trkpt lat="49.130081" lon="7.54391">
        <ele>329</ele>
        <time>2010-12-10T02:36:35Z</time>
        <course>342.606056442932</course>
        <speed>8.32052770810525</speed>
      </trkpt>
      <trkpt lat="49.13031" lon="7.54408">
        <ele>327</ele>
        <time>2010-12-10T02:36:38Z</time>
        <course>342.117208112847</course>
        <speed>8.30998105820618</speed>
      </trkpt>
      <trkpt lat="49.130611" lon="7.54431">
        <ele>326</ele>
        <time>2010-12-10T02:36:43Z</time>
        <course>343.754132910297</course>
        <speed>8.31858975508059</speed>
      </trkpt>
      <trkpt lat="49.130901" lon="7.54451">
        <ele>320</ele>
        <time>2010-12-10T02:36:47Z</time>
        <course>305.841340579475</course>
        <speed>8.33017182340171</speed>
      </trkpt>
      <trkpt lat="49.130959" lon="7.5447">
        <ele>318</ele>
        <time>2010-12-10T02:36:49Z</time>
        <course>224.410892444387</course>
        <speed>8.34305613467865</speed>
      </trkpt>
      <trkpt lat="49.13089" lon="7.54486">
        <ele>315</ele>
        <time>2010-12-10T02:36:51Z</time>
        <course>162.182487094956</course>
        <speed>8.33573093365693</speed>
      </trkpt>
      <trkpt lat="49.130798" lon="7.54479">
        <ele>314</ele>
        <time>2010-12-10T02:36:52Z</time>
        <course>165.64610230966</course>
        <speed>8.30479776708607</speed>
      </trkpt>
      <trkpt lat="49.1306" lon="7.54467">
        <ele>310</ele>
        <time>2010-12-10T02:36:55Z</time>
        <course>171.429054572409</course>
        <speed>8.31118705646918</speed>
      </trkpt>
      <trkpt lat="49.130348" lon="7.54458">
        <ele>305</ele>
        <time>2010-12-10T02:36:58Z</time>
        <course>183.472713247708</course>
        <speed>8.31849108491937</speed>
      </trkpt>
      <trkpt lat="49.13007" lon="7.54462">
        <ele>301</ele>
        <time>2010-12-10T02:37:02Z</time>
        <course>191.009196913714</course>
        <speed>8.31404975610631</speed>
      </trkpt>
      <trkpt lat="49.12981" lon="7.54474">
        <ele>296</ele>
        <time>2010-12-10T02:37:06Z</time>
        <course>187.994014913217</course>
        <speed>8.32189324190971</speed>
      </trkpt>
      <trkpt lat="49.12957" lon="7.54482">
        <ele>292</ele>
        <time>2010-12-10T02:37:09Z</time>
        <course>168.917120633895</course>
        <speed>8.3242620421576</speed>
      </trkpt>
      <trkpt lat="49.129398" lon="7.54474">
        <ele>291</ele>
        <time>2010-12-10T02:37:11Z</time>
        <course>151.379153168964</course>
        <speed>8.31754300445721</speed>
      </trkpt>
      <trkpt lat="49.129051" lon="7.54429">
        <ele>291</ele>
        <time>2010-12-10T02:37:17Z</time>
        <course>141.301437837873</course>
        <speed>8.32342538508491</speed>
      </trkpt>
      <trkpt lat="49.128841" lon="7.54389">
        <ele>291</ele>
        <time>2010-12-10T02:37:22Z</time>
        <course>131.044954846216</course>
        <speed>8.31473971512549</speed>
      </trkpt>
      <trkpt lat="49.128658" lon="7.54339">
        <ele>290</ele>
        <time>2010-12-10T02:37:27Z</time>
        <course>125.241976528967</course>
        <speed>8.31808307089273</speed>
      </trkpt>
      <trkpt lat="49.128231" lon="7.54195">
        <ele>290</ele>
        <time>2010-12-10T02:37:41Z</time>
        <course>116.292626597019</course>
        <speed>8.3193407040981</speed>
      </trkpt>
      <trkpt lat="49.127972" lon="7.5407">
        <ele>284</ele>
        <time>2010-12-10T02:37:52Z</time>
        <course>122.186950910361</course>
        <speed>8.31996249872035</speed>
      </trkpt>
      <trkpt lat="49.127529" lon="7.53902">
        <ele>277</ele>
        <time>2010-12-10T02:38:08Z</time>
        <course>199.535488180924</course>
        <speed>3.59743042934731</speed>
      </trkpt>
      <trkpt lat="49.127399" lon="7.53913">
        <ele>278</ele>
        <time>2010-12-10T02:38:13Z</time>
        <course>191.783855261731</course>
        <speed>3.59711805103972</speed>
      </trkpt>
      <trkpt lat="49.127178" lon="7.53924">
        <ele>279</ele>
        <time>2010-12-10T02:38:20Z</time>
        <course>183.392087341352</course>
        <speed>3.59810689607277</speed>
      </trkpt>
      <trkpt lat="49.126331" lon="7.53936">
        <ele>285</ele>
        <time>2010-12-10T02:38:46Z</time>
        <course>192.275147865936</course>
        <speed>3.59824000967935</speed>
      </trkpt>
      <trkpt lat="49.12587" lon="7.5396">
        <ele>289</ele>
        <time>2010-12-10T02:39:01Z</time>
        <course>200.528813303172</course>
        <speed>3.59938613400397</speed>
      </trkpt>
      <trkpt lat="49.12558" lon="7.53986">
        <ele>292</ele>
        <time>2010-12-10T02:39:12Z</time>
        <course>209.41222268279</course>
        <speed>5.00353697055736</speed>
      </trkpt>
      <trkpt lat="49.125099" lon="7.54051">
        <ele>294</ele>
        <time>2010-12-10T02:39:26Z</time>
        <course>211.002395573243</course>
        <speed>5.00383933513474</speed>
      </trkpt>
      <trkpt lat="49.12487" lon="7.54084">
        <ele>295</ele>
        <time>2010-12-10T02:39:33Z</time>
        <course>215.758443844053</course>
        <speed>4.99926378167986</speed>
      </trkpt>
      <trkpt lat="49.12476" lon="7.54103">
        <ele>296</ele>
        <time>2010-12-10T02:39:36Z</time>
        <course>155.625043324054</course>
        <speed>4.99822101794335</speed>
      </trkpt>
      <trkpt lat="49.124668" lon="7.54093">
        <ele>296</ele>
        <time>2010-12-10T02:39:39Z</time>
        <course>155.474716116572</course>
        <speed>5.0074541910586</speed>
      </trkpt>
      <trkpt lat="49.124531" lon="7.54078">
        <ele>297</ele>
        <time>2010-12-10T02:39:43Z</time>
        <course>147.413431686787</course>
        <speed>5.00191635433769</speed>
      </trkpt>
      <trkpt lat="49.124329" lon="7.54047">
        <ele>298</ele>
        <time>2010-12-10T02:39:49Z</time>
        <course>148.416933453296</course>
        <speed>5.00507168363939</speed>
      </trkpt>
      <trkpt lat="49.12418" lon="7.54025">
        <ele>299</ele>
        <time>2010-12-10T02:39:54Z</time>
        <course>144.940388554424</course>
        <speed>4.02559001981597</speed>
      </trkpt>
      <trkpt lat="49.124008" lon="7.53996">
        <ele>300</ele>
        <time>2010-12-10T02:40:01Z</time>
        <course>144.805115871889</course>
        <speed>4.02921875822448</speed>
      </trkpt>
      <trkpt lat="49.12389" lon="7.53976">
        <ele>301</ele>
        <time>2010-12-10T02:40:06Z</time>
        <course>142.224330214454</course>
        <speed>4.02789853099135</speed>
      </trkpt>
      <trkpt lat="49.123611" lon="7.53924">
        <ele>304</ele>
        <time>2010-12-10T02:40:18Z</time>
        <course>135.164321485741</course>
        <speed>4.02840083752499</speed>
      </trkpt>
      <trkpt lat="49.123402" lon="7.53874">
        <ele>306</ele>
        <time>2010-12-10T02:40:28Z</time>
        <course>123.126595862869</course>
        <speed>4.02971279110635</speed>
      </trkpt>
      <trkpt lat="49.12328" lon="7.53829">
        <ele>308</ele>
        <time>2010-12-10T02:40:37Z</time>
        <course>115.718884847417</course>
        <speed>4.0282454744425</speed>
      </trkpt>
      <trkpt lat="49.12315" lon="7.53764">
        <ele>311</ele>
        <time>2010-12-10T02:40:50Z</time>
        <course>119.021115081656</course>
        <speed>2.44565389546326</speed>
      </trkpt>
      <trkpt lat="49.122929" lon="7.53668">
        <ele>319</ele>
        <time>2010-12-10T02:41:20Z</time>
        <course>126.812861443661</course>
        <speed>2.44510895696507</speed>
      </trkpt>
      <trkpt lat="49.122662" lon="7.53582">
        <ele>328</ele>
        <time>2010-12-10T02:41:48Z</time>
        <course>132.251633376233</course>
        <speed>2.44535302380421</speed>
      </trkpt>
      <trkpt lat="49.122372" lon="7.53505">
        <ele>336</ele>
        <time>2010-12-10T02:42:15Z</time>
        <course>38.1889016305507</course>
        <speed>3.30610154036089</speed>
      </trkpt>
      <trkpt lat="49.12262" lon="7.53458">
        <ele>339</ele>
        <time>2010-12-10T02:42:28Z</time>
        <course>341.211418597139</course>
        <speed>3.30128287046507</speed>
      </trkpt>
      <trkpt lat="49.122681" lon="7.53463">
        <ele>339</ele>
        <time>2010-12-10T02:42:30Z</time>
        <course>344.329493695082</course>
        <speed>3.305487981601</speed>
      </trkpt>
      <trkpt lat="49.122829" lon="7.53473">
        <ele>341</ele>
        <time>2010-12-10T02:42:36Z</time>
        <course>352.117043001334</course>
        <speed>3.30803066633891</speed>
      </trkpt>
      <trkpt lat="49.123039" lon="7.5348">
        <ele>343</ele>
        <time>2010-12-10T02:42:43Z</time>
        <course>354.742487325187</course>
        <speed>3.3073892451656</speed>
      </trkpt>
      <trkpt lat="49.12331" lon="7.53486">
        <ele>345</ele>
        <time>2010-12-10T02:42:52Z</time>
        <course>7.93414402592065</course>
        <speed>3.3057503674172</speed>
      </trkpt>
      <trkpt lat="49.123489" lon="7.5348">
        <ele>346</ele>
        <time>2010-12-10T02:42:58Z</time>
        <course>9.44465811642547</course>
        <speed>3.31020603555978</speed>
      </trkpt>
      <trkpt lat="49.123589" lon="7.53476">
        <ele>347</ele>
        <time>2010-12-10T02:43:02Z</time>
        <course>2.16565175205358</course>
        <speed>3.30940885950907</speed>
      </trkpt>
      <trkpt lat="49.123699" lon="7.53475">
        <ele>348</ele>
        <time>2010-12-10T02:43:05Z</time>
        <course>343.558066964583</course>
        <speed>3.30905428267794</speed>
      </trkpt>
      <trkpt lat="49.12384" lon="7.53485">
        <ele>350</ele>
        <time>2010-12-10T02:43:11Z</time>
        <course>317.120097375788</course>
        <speed>3.30684108644452</speed>
      </trkpt>
      <trkpt lat="49.12397" lon="7.53514">
        <ele>352</ele>
        <time>2010-12-10T02:43:18Z</time>
        <course>307.139116938769</course>
        <speed>7.02337078992981</speed>
      </trkpt>
      <trkpt lat="49.124371" lon="7.53641">
        <ele>352</ele>
        <time>2010-12-10T02:43:33Z</time>
        <course>322.212706253754</course>
        <speed>7.01388378800865</speed>
      </trkpt>
      <trkpt lat="49.1245" lon="7.53665">
        <ele>353</ele>
        <time>2010-12-10T02:43:36Z</time>
        <course>338.611274365949</course>
        <speed>7.01676769899595</speed>
      </trkpt>
      <trkpt lat="49.124649" lon="7.53679">
        <ele>353</ele>
        <time>2010-12-10T02:43:39Z</time>
        <course>354.609946990084</course>
        <speed>7.03264131115642</speed>
      </trkpt>
      <trkpt lat="49.12487" lon="7.53684">
        <ele>353</ele>
        <time>2010-12-10T02:43:42Z</time>
        <course>9.31272098148535</course>
        <speed>7.02529914096156</speed>
      </trkpt>
      <trkpt lat="49.125099" lon="7.53675">
        <ele>353</ele>
        <time>2010-12-10T02:43:46Z</time>
        <course>29.3554217089352</course>
        <speed>7.03354538288267</speed>
      </trkpt>
      <trkpt lat="49.12524" lon="7.53656">
        <ele>354</ele>
        <time>2010-12-10T02:43:49Z</time>
        <course>50.4476630585177</course>
        <speed>2.85127455072534</speed>
      </trkpt>
      <trkpt lat="49.12534" lon="7.53627">
        <ele>356</ele>
        <time>2010-12-10T02:43:57Z</time>
        <course>80.7750403363691</course>
        <speed>2.85098975396562</speed>
      </trkpt>
      <trkpt lat="49.125359" lon="7.53599">
        <ele>358</ele>
        <time>2010-12-10T02:44:05Z</time>
        <course>96.8395627067909</course>
        <speed>2.85115628684189</speed>
      </trkpt>
      <trkpt lat="49.12534" lon="7.53561">
        <ele>360</ele>
        <time>2010-12-10T02:44:14Z</time>
        <course>114.74138716651</course>
        <speed>2.85181678737674</speed>
      </trkpt>
      <trkpt lat="49.12529" lon="7.53535">
        <ele>362</ele>
        <time>2010-12-10T02:44:21Z</time>
        <course>131.56496834164</course>
        <speed>2.85105988455738</speed>
      </trkpt>
      <trkpt lat="49.125179" lon="7.53505">
        <ele>365</ele>
        <time>2010-12-10T02:44:30Z</time>
        <course>126.410788280805</course>
        <speed>2.8502415001141</speed>
      </trkpt>
      <trkpt lat="49.125099" lon="7.53479">
        <ele>367</ele>
        <time>2010-12-10T02:44:37Z</time>
        <course>129.996203989786</course>
        <speed>2.85064702583003</speed>
      </trkpt>
      <trkpt lat="49.12505" lon="7.53465">
        <ele>368</ele>
        <time>2010-12-10T02:44:41Z</time>
        <course>114.685542771944</course>
        <speed>2.85337222467815</speed>
      </trkpt>
      <trkpt lat="49.124981" lon="7.53429">
        <ele>370</ele>
        <time>2010-12-10T02:44:51Z</time>
        <course>94.5055128972352</course>
        <speed>2.85140840009395</speed>
      </trkpt>
      <trkpt lat="49.124962" lon="7.53371">
        <ele>375</ele>
        <time>2010-12-10T02:45:06Z</time>
        <course>81.9156733002116</course>
        <speed>4.75873676651754</speed>
      </trkpt>
      <trkpt lat="49.125" lon="7.53307">
        <ele>376</ele>
        <time>2010-12-10T02:45:16Z</time>
        <course>73.6290680562051</course>
        <speed>4.76028345969673</speed>
      </trkpt>
      <trkpt lat="49.125172" lon="7.53167">
        <ele>380</ele>
        <time>2010-12-10T02:45:37Z</time>
        <course>80.1910004369791</course>
        <speed>4.76263603131999</speed>
      </trkpt>
      <trkpt lat="49.125198" lon="7.53131">
        <ele>381</ele>
        <time>2010-12-10T02:45:43Z</time>
        <course>86.786398600607</course>
        <speed>4.76380815048211</speed>
      </trkpt>
      <trkpt lat="49.12521" lon="7.5308">
        <ele>383</ele>
        <time>2010-12-10T02:45:51Z</time>
        <course>94.0222772710805</course>
        <speed>8.31312552877142</speed>
      </trkpt>
      <trkpt lat="49.125198" lon="7.53039">
        <ele>382</ele>
        <time>2010-12-10T02:45:54Z</time>
        <course>112.175205138315</course>
        <speed>8.32481883098455</speed>
      </trkpt>
      <trkpt lat="49.12513" lon="7.52999">
        <ele>381</ele>
        <time>2010-12-10T02:45:58Z</time>
        <course>109.965901266291</course>
        <speed>8.32153035942463</speed>
      </trkpt>
      <trkpt lat="49.12508" lon="7.52966">
        <ele>381</ele>
        <time>2010-12-10T02:46:01Z</time>
        <course>121.994180491403</course>
        <speed>8.30786226952368</speed>
      </trkpt>
      <trkpt lat="49.124981" lon="7.52928">
        <ele>380</ele>
        <time>2010-12-10T02:46:04Z</time>
        <course>122.599866219028</course>
        <speed>8.32408407567858</speed>
      </trkpt>
      <trkpt lat="49.124901" lon="7.52898">
        <ele>380</ele>
        <time>2010-12-10T02:46:07Z</time>
        <course>150.17221917241</course>
        <speed>8.30461725648901</speed>
      </trkpt>
      <trkpt lat="49.124821" lon="7.52887">
        <ele>380</ele>
        <time>2010-12-10T02:46:09Z</time>
        <course>168.769987381201</course>
        <speed>8.28542308334332</speed>
      </trkpt>
      <trkpt lat="49.124779" lon="7.52885">
        <ele>380</ele>
        <time>2010-12-10T02:46:09Z</time>
        <course>184.766406417452</course>
        <speed>8.36326260948919</speed>
      </trkpt>
      <trkpt lat="49.124729" lon="7.52886">
        <ele>380</ele>
        <time>2010-12-10T02:46:10Z</time>
        <course>184.766406417452</course>
        <speed>8.36326260948919</speed>
      </trkpt>
      <trkpt lat="49.124729" lon="7.52886">
        <ele>380</ele>
        <time>2010-12-10T02:46:11Z</time>
        <course>4.76692720024906</course>
        <speed>8.36326260948919</speed>
      </trkpt>
      <trkpt lat="49.124779" lon="7.52885">
        <ele>379</ele>
        <time>2010-12-10T02:46:12Z</time>
        <course>73.8089666367379</course>
        <speed>8.31524452092535</speed>
      </trkpt>
      <trkpt lat="49.124859" lon="7.52819">
        <ele>378</ele>
        <time>2010-12-10T02:46:18Z</time>
        <course>87.4555751311311</course>
        <speed>8.31806798424066</speed>
      </trkpt>
      <trkpt lat="49.12487" lon="7.5276">
        <ele>376</ele>
        <time>2010-12-10T02:46:23Z</time>
        <course>6.89353829701033</course>
        <speed>8.30212398933772</speed>
      </trkpt>
      <trkpt lat="49.124939" lon="7.52758">
        <ele>376</ele>
        <time>2010-12-10T02:46:24Z</time>
        <course>6.87749305540048</course>
        <speed>8.31531664045744</speed>
      </trkpt>
      <trkpt lat="49.125389" lon="7.52745">
        <ele>375</ele>
        <time>2010-12-10T02:46:30Z</time>
        <course>5.67747172880127</course>
        <speed>8.28658103665364</speed>
      </trkpt>
      <trkpt lat="49.125431" lon="7.52744">
        <ele>374</ele>
        <time>2010-12-10T02:46:30Z</time>
        <course>5.77153640529314</course>
        <speed>8.32865913364247</speed>
      </trkpt>
      <trkpt lat="49.125679" lon="7.52738">
        <ele>374</ele>
        <time>2010-12-10T02:46:34Z</time>
        <course>7.12490034243443</course>
        <speed>8.31253228639359</speed>
      </trkpt>
      <trkpt lat="49.12598" lon="7.52729">
        <ele>373</ele>
        <time>2010-12-10T02:46:38Z</time>
        <course>6.81434752121065</course>
        <speed>8.32967431225769</speed>
      </trkpt>
      <trkpt lat="49.12619" lon="7.52723">
        <ele>372</ele>
        <time>2010-12-10T02:46:41Z</time>
        <course>15.5262956977001</course>
        <speed>8.31854157964658</speed>
      </trkpt>
      <trkpt lat="49.126431" lon="7.52707">
        <ele>372</ele>
        <time>2010-12-10T02:46:44Z</time>
        <course>22.9225737952925</course>
        <speed>8.31983587966488</speed>
      </trkpt>
      <trkpt lat="49.126629" lon="7.52687">
        <ele>372</ele>
        <time>2010-12-10T02:46:47Z</time>
        <course>26.8465364041911</course>
        <speed>8.31809181885722</speed>
      </trkpt>
      <trkpt lat="49.12672" lon="7.52676">
        <ele>372</ele>
        <time>2010-12-10T02:46:49Z</time>
        <course>28.7470534612884</course>
        <speed>8.30570952511079</speed>
      </trkpt>
      <trkpt lat="49.126888" lon="7.52654">
        <ele>372</ele>
        <time>2010-12-10T02:46:52Z</time>
        <course>27.255706531443</course>
        <speed>8.32524236427627</speed>
      </trkpt>
      <trkpt lat="49.12701" lon="7.52639">
        <ele>372</ele>
        <time>2010-12-10T02:46:54Z</time>
        <course>37.0262480205947</course>
        <speed>8.33470359991657</speed>
      </trkpt>
      <trkpt lat="49.12706" lon="7.5263">
        <ele>372</ele>
        <time>2010-12-10T02:46:55Z</time>
        <course>49.5637585615508</course>
        <speed>8.34358142926098</speed>
      </trkpt>
      <trkpt lat="49.12711" lon="7.52616">
        <ele>372</ele>
        <time>2010-12-10T02:46:56Z</time>
        <course>73.3980924066637</course>
        <speed>8.30240455896987</speed>
      </trkpt>
      <trkpt lat="49.12714" lon="7.52592">
        <ele>372</ele>
        <time>2010-12-10T02:46:58Z</time>
        <course>99.3202121165334</course>
        <speed>8.29676245585875</speed>
      </trkpt>
      <trkpt lat="49.127129" lon="7.52576">
        <ele>372</ele>
        <time>2010-12-10T02:47:00Z</time>
        <course>98.0722574933393</course>
        <speed>8.31473241385642</speed>
      </trkpt>
      <trkpt lat="49.12711" lon="7.52544">
        <ele>372</ele>
        <time>2010-12-10T02:47:03Z</time>
        <course>77.2328917219594</course>
        <speed>8.30252013914665</speed>
      </trkpt>
      <trkpt lat="49.127129" lon="7.52524">
        <ele>370</ele>
        <time>2010-12-10T02:47:04Z</time>
        <course>64.1276416339751</course>
        <speed>8.30666557042225</speed>
      </trkpt>
      <trkpt lat="49.12719" lon="7.52494">
        <ele>368</ele>
        <time>2010-12-10T02:47:07Z</time>
        <course>58.6175565498057</course>
        <speed>8.30981580166006</speed>
      </trkpt>
      <trkpt lat="49.1273" lon="7.52451">
        <ele>365</ele>
        <time>2010-12-10T02:47:11Z</time>
        <course>48.8375311216009</course>
        <speed>8.30440998605343</speed>
      </trkpt>
      <trkpt lat="49.127399" lon="7.52424">
        <ele>362</ele>
        <time>2010-12-10T02:47:14Z</time>
        <course>39.9896906594575</course>
        <speed>8.31921263708368</speed>
      </trkpt>
      <trkpt lat="49.127449" lon="7.52414">
        <ele>362</ele>
        <time>2010-12-10T02:47:15Z</time>
        <course>34.2265845064516</course>
        <speed>8.32621903586254</speed>
      </trkpt>
      <trkpt lat="49.12756" lon="7.52396">
        <ele>360</ele>
        <time>2010-12-10T02:47:17Z</time>
        <course>29.2333130150773</course>
        <speed>8.32771749816225</speed>
      </trkpt>
      <trkpt lat="49.1278" lon="7.52364">
        <ele>356</ele>
        <time>2010-12-10T02:47:21Z</time>
        <course>35.7874545895624</course>
        <speed>8.31537486025338</speed>
      </trkpt>
      <trkpt lat="49.127899" lon="7.52347">
        <ele>355</ele>
        <time>2010-12-10T02:47:23Z</time>
        <course>51.0931508971637</course>
        <speed>8.32742802820288</speed>
      </trkpt>
      <trkpt lat="49.12796" lon="7.52329">
        <ele>353</ele>
        <time>2010-12-10T02:47:25Z</time>
        <course>63.7961344662229</course>
        <speed>8.28848073345569</speed>
      </trkpt>
      <trkpt lat="49.127991" lon="7.52314">
        <ele>352</ele>
        <time>2010-12-10T02:47:27Z</time>
        <course>70.1062561241937</course>
        <speed>8.33143157312211</speed>
      </trkpt>
      <trkpt lat="49.128029" lon="7.52289">
        <ele>351</ele>
        <time>2010-12-10T02:47:29Z</time>
        <course>71.1065880176152</course>
        <speed>8.32979211073297</speed>
      </trkpt>
      <trkpt lat="49.128052" lon="7.52273">
        <ele>350</ele>
        <time>2010-12-10T02:47:30Z</time>
        <course>67.5751365524407</course>
        <speed>8.29647373097674</speed>
      </trkpt>
      <trkpt lat="49.128078" lon="7.52258">
        <ele>349</ele>
        <time>2010-12-10T02:47:32Z</time>
        <course>37.140944726822</course>
        <speed>8.32091045048155</speed>
      </trkpt>
      <trkpt lat="49.128139" lon="7.52247">
        <ele>349</ele>
        <time>2010-12-10T02:47:33Z</time>
        <course>31.5847969159847</course>
        <speed>8.33652496067943</speed>
      </trkpt>
      <trkpt lat="49.128262" lon="7.52229">
        <ele>348</ele>
        <time>2010-12-10T02:47:35Z</time>
        <course>39.3903563545298</course>
        <speed>8.30300447557454</speed>
      </trkpt>
      <trkpt lat="49.128349" lon="7.52212">
        <ele>347</ele>
        <time>2010-12-10T02:47:37Z</time>
        <course>63.3274302335031</course>
        <speed>8.28473566621416</speed>
      </trkpt>
      <trkpt lat="49.128368" lon="7.52203">
        <ele>347</ele>
        <time>2010-12-10T02:47:38Z</time>
        <course>98.6142366116379</course>
        <speed>8.28472799749039</speed>
      </trkpt>
      <trkpt lat="49.128361" lon="7.52192">
        <ele>346</ele>
        <time>2010-12-10T02:47:39Z</time>
        <course>138.002292143273</course>
        <speed>8.28648697271026</speed>
      </trkpt>
      <trkpt lat="49.128319" lon="7.52183">
        <ele>346</ele>
        <time>2010-12-10T02:47:40Z</time>
        <course>148.830433755877</course>
        <speed>8.31963378698973</speed>
      </trkpt>
      <trkpt lat="49.127972" lon="7.52133">
        <ele>343</ele>
        <time>2010-12-10T02:47:46Z</time>
        <course>136.067451234756</course>
        <speed>8.31983428369542</speed>
      </trkpt>
      <trkpt lat="49.127911" lon="7.52119">
        <ele>343</ele>
        <time>2010-12-10T02:47:48Z</time>
        <course>71.5582896778849</course>
        <speed>8.26215601451824</speed>
      </trkpt>
      <trkpt lat="49.127918" lon="7.52114">
        <ele>342</ele>
        <time>2010-12-10T02:47:48Z</time>
        <course>42.3862852963304</course>
        <speed>8.38512485654133</speed>
      </trkpt>
      <trkpt lat="49.127941" lon="7.52109">
        <ele>342</ele>
        <time>2010-12-10T02:47:49Z</time>
        <course>18.3388727953987</course>
        <speed>8.33814828393658</speed>
      </trkpt>
      <trkpt lat="49.127979" lon="7.52106">
        <ele>342</ele>
        <time>2010-12-10T02:47:49Z</time>
        <course>360</course>
        <speed>8.29253731140825</speed>
      </trkpt>
      <trkpt lat="49.128029" lon="7.52106">
        <ele>342</ele>
        <time>2010-12-10T02:47:50Z</time>
        <course>351.049849629932</course>
        <speed>8.32121329626799</speed>
      </trkpt>
      <trkpt lat="49.128109" lon="7.52109">
        <ele>341</ele>
        <time>2010-12-10T02:47:51Z</time>
        <course>360</course>
        <speed>8.33400000013041</speed>
      </trkpt>
      <trkpt lat="49.128151" lon="7.52109">
        <ele>341</ele>
        <time>2010-12-10T02:47:52Z</time>
        <course>9.53805685467724</course>
        <speed>8.32343917569708</speed>
      </trkpt>
      <trkpt lat="49.128201" lon="7.52107">
        <ele>341</ele>
        <time>2010-12-10T02:47:52Z</time>
        <course>28.9323663790481</course>
        <speed>8.31654292878603</speed>
      </trkpt>
      <trkpt lat="49.128239" lon="7.52102">
        <ele>341</ele>
        <time>2010-12-10T02:47:53Z</time>
        <course>20.2739335795861</course>
        <speed>8.3326621170428</speed>
      </trkpt>
      <trkpt lat="49.12833" lon="7.52094">
        <ele>340</ele>
        <time>2010-12-10T02:47:54Z</time>
        <course>25.0315193802274</course>
        <speed>8.29345797468616</speed>
      </trkpt>
      <trkpt lat="49.128429" lon="7.52083">
        <ele>340</ele>
        <time>2010-12-10T02:47:56Z</time>
        <course>15.0497875036414</course>
        <speed>8.32079544813448</speed>
      </trkpt>
      <trkpt lat="49.128601" lon="7.52072">
        <ele>339</ele>
        <time>2010-12-10T02:47:58Z</time>
        <course>6.77117744095951</course>
        <speed>8.31568738689525</speed>
      </trkpt>
      <trkpt lat="49.128849" lon="7.52065">
        <ele>338</ele>
        <time>2010-12-10T02:48:02Z</time>
        <course>9.72536029015663</course>
        <speed>8.30539446760192</speed>
      </trkpt>
      <trkpt lat="49.12907" lon="7.52056">
        <ele>337</ele>
        <time>2010-12-10T02:48:05Z</time>
        <course>5.03890259859979</course>
        <speed>8.30320897693755</speed>
      </trkpt>
      <trkpt lat="49.129261" lon="7.52052">
        <ele>336</ele>
        <time>2010-12-10T02:48:07Z</time>
        <course>16.0197806138567</course>
        <speed>8.30049318250277</speed>
      </trkpt>
      <trkpt lat="49.129349" lon="7.52046">
        <ele>336</ele>
        <time>2010-12-10T02:48:09Z</time>
        <course>28.1956072521244</course>
        <speed>8.32825512373476</speed>
      </trkpt>
      <trkpt lat="49.129459" lon="7.52032">
        <ele>335</ele>
        <time>2010-12-10T02:48:11Z</time>
        <course>28.1554454077833</course>
        <speed>8.31222445336757</speed>
      </trkpt>
      <trkpt lat="49.129711" lon="7.52">
        <ele>334</ele>
        <time>2010-12-10T02:48:15Z</time>
        <course>27.7942235749908</course>
        <speed>8.31821960361943</speed>
      </trkpt>
      <trkpt lat="49.129959" lon="7.51969">
        <ele>333</ele>
        <time>2010-12-10T02:48:19Z</time>
        <course>22.7309309745043</course>
        <speed>8.32266061895598</speed>
      </trkpt>
      <trkpt lat="49.130241" lon="7.51941">
        <ele>324</ele>
        <time>2010-12-10T02:48:24Z</time>
        <course>17.8283353241883</course>
        <speed>8.33047314567412</speed>
      </trkpt>
      <trkpt lat="49.130451" lon="7.51925">
        <ele>319</ele>
        <time>2010-12-10T02:48:27Z</time>
        <course>12.7463957187497</course>
        <speed>8.31171514431798</speed>
      </trkpt>
      <trkpt lat="49.130619" lon="7.51916">
        <ele>315</ele>
        <time>2010-12-10T02:48:29Z</time>
        <course>4.52839135151601</course>
        <speed>8.33139973891923</speed>
      </trkpt>
      <trkpt lat="49.130779" lon="7.51913">
        <ele>311</ele>
        <time>2010-12-10T02:48:31Z</time>
        <course>360</course>
        <speed>8.30434163739696</speed>
      </trkpt>
      <trkpt lat="49.130989" lon="7.51913">
        <ele>306</ele>
        <time>2010-12-10T02:48:34Z</time>
        <course>2.18079149176629</course>
        <speed>8.29243759877414</speed>
      </trkpt>
      <trkpt lat="49.1311" lon="7.51912">
        <ele>303</ele>
        <time>2010-12-10T02:48:36Z</time>
        <course>11.3815607432966</course>
        <speed>8.28532959823891</speed>
      </trkpt>
      <trkpt lat="49.131142" lon="7.5191">
        <ele>302</ele>
        <time>2010-12-10T02:48:36Z</time>
        <course>80.6003618054584</course>
        <speed>8.30954701210761</speed>
      </trkpt>
      <trkpt lat="49.131149" lon="7.519">
        <ele>300</ele>
        <time>2010-12-10T02:48:37Z</time>
        <course>122.70585179611</course>
        <speed>8.34873742848382</speed>
      </trkpt>
      <trkpt lat="49.13113" lon="7.51893">
        <ele>299</ele>
        <time>2010-12-10T02:48:38Z</time>
        <course>145.391828743107</course>
        <speed>8.29948380470948</speed>
      </trkpt>
      <trkpt lat="49.131081" lon="7.51885">
        <ele>298</ele>
        <time>2010-12-10T02:48:39Z</time>
        <course>166.609837115541</course>
        <speed>8.32526450557821</speed>
      </trkpt>
      <trkpt lat="49.130939" lon="7.51877">
        <ele>294</ele>
        <time>2010-12-10T02:48:41Z</time>
        <course>176.819290049156</course>
        <speed>8.31015926795373</speed>
      </trkpt>
      <trkpt lat="49.130711" lon="7.51874">
        <ele>289</ele>
        <time>2010-12-10T02:48:44Z</time>
        <course>180</course>
        <speed>8.32477076404141</speed>
      </trkpt>
      <trkpt lat="49.13026" lon="7.51874">
        <ele>288</ele>
        <time>2010-12-10T02:48:50Z</time>
        <course>180.962531387355</course>
        <speed>8.32853612480442</speed>
      </trkpt>
      <trkpt lat="49.130009" lon="7.51875">
        <ele>287</ele>
        <time>2010-12-10T02:48:53Z</time>
        <course>186.36475839336</course>
        <speed>8.31743012674181</speed>
      </trkpt>
      <trkpt lat="49.129669" lon="7.51884">
        <ele>287</ele>
        <time>2010-12-10T02:48:58Z</time>
        <course>185.44940270653</course>
        <speed>8.32404645038714</speed>
      </trkpt>
      <trkpt lat="49.12936" lon="7.51891">
        <ele>286</ele>
        <time>2010-12-10T02:49:02Z</time>
        <course>146.380678734826</course>
        <speed>8.43265069468341</speed>
      </trkpt>
      <trkpt lat="49.129341" lon="7.51888">
        <ele>286</ele>
        <time>2010-12-10T02:49:02Z</time>
        <course>57.6563118852819</course>
        <speed>8.41262987274344</speed>
      </trkpt>
      <trkpt lat="49.129349" lon="7.51885">
        <ele>286</ele>
        <time>2010-12-10T02:49:03Z</time>
        <course>11.8116951373912</course>
        <speed>8.32016020981657</speed>
      </trkpt>
      <trkpt lat="49.12949" lon="7.51878">
        <ele>286</ele>
        <time>2010-12-10T02:49:05Z</time>
        <course>13.6417732330785</course>
        <speed>8.3080515114402</speed>
      </trkpt>
      <trkpt lat="49.129681" lon="7.51867">
        <ele>286</ele>
        <time>2010-12-10T02:49:07Z</time>
        <course>12.8393701058519</course>
        <speed>8.31806651212579</speed>
      </trkpt>
      <trkpt lat="49.12994" lon="7.51853">
        <ele>286</ele>
        <time>2010-12-10T02:49:11Z</time>
        <course>11.6199919707462</course>
        <speed>8.32250002964694</speed>
      </trkpt>
      <trkpt lat="49.130371" lon="7.51832">
        <ele>285</ele>
        <time>2010-12-10T02:49:17Z</time>
        <course>8.44111361059921</course>
        <speed>8.32090001619082</speed>
      </trkpt>
      <trkpt lat="49.130741" lon="7.51819">
        <ele>284</ele>
        <time>2010-12-10T02:49:22Z</time>
        <course>4.22147291155801</course>
        <speed>8.31563187693028</speed>
      </trkpt>
      <trkpt lat="49.13097" lon="7.51815">
        <ele>283</ele>
        <time>2010-12-10T02:49:25Z</time>
        <course>4.69390292786173</course>
        <speed>8.32021899842018</speed>
      </trkpt>
      <trkpt lat="49.131279" lon="7.51809">
        <ele>283</ele>
        <time>2010-12-10T02:49:29Z</time>
        <course>360</course>
        <speed>8.30803738299607</speed>
      </trkpt>
      <trkpt lat="49.131439" lon="7.51809">
        <ele>282</ele>
        <time>2010-12-10T02:49:32Z</time>
        <course>349.576982933157</course>
        <speed>8.30366290507527</speed>
      </trkpt>
      <trkpt lat="49.131531" lon="7.51813">
        <ele>282</ele>
        <time>2010-12-10T02:49:33Z</time>
        <course>336.855463009907</course>
        <speed>8.29341600861572</speed>
      </trkpt>
      <trkpt lat="49.13163" lon="7.51823">
        <ele>282</ele>
        <time>2010-12-10T02:49:34Z</time>
        <course>331.032973609743</course>
        <speed>8.30217289838949</speed>
      </trkpt>
      <trkpt lat="49.13176" lon="7.5184">
        <ele>282</ele>
        <time>2010-12-10T02:49:37Z</time>
        <course>333.786657014378</course>
        <speed>3.02210487907665</speed>
      </trkpt>
      <trkpt lat="49.131889" lon="7.51855">
        <ele>283</ele>
        <time>2010-12-10T02:49:43Z</time>
        <course>337.496207081569</course>
        <speed>3.01940035965729</speed>
      </trkpt>
      <trkpt lat="49.131981" lon="7.51864">
        <ele>284</ele>
        <time>2010-12-10T02:49:47Z</time>
        <course>69.5038823810423</course>
        <speed>3.02247784164854</speed>
      </trkpt>
      <trkpt lat="49.132" lon="7.51852">
        <ele>285</ele>
        <time>2010-12-10T02:49:50Z</time>
        <course>48.0359640967485</course>
        <speed>3.02016222988167</speed>
      </trkpt>
      <trkpt lat="49.13208" lon="7.51831">
        <ele>286</ele>
        <time>2010-12-10T02:49:56Z</time>
        <course>36.5602091737784</course>
        <speed>3.02335115596136</speed>
      </trkpt>
      <trkpt lat="49.13224" lon="7.51803">
        <ele>289</ele>
        <time>2010-12-10T02:50:04Z</time>
        <course>27.3892242612478</course>
        <speed>3.02373256619021</speed>
      </trkpt>
      <trkpt lat="49.13242" lon="7.51781">
        <ele>291</ele>
        <time>2010-12-10T02:50:13Z</time>
        <course>28.7177993390108</course>
        <speed>3.02280201503674</speed>
      </trkpt>
      <trkpt lat="49.132629" lon="7.51754">
        <ele>294</ele>
        <time>2010-12-10T02:50:23Z</time>
        <course>40.1704168703486</course>
        <speed>3.02164295344238</speed>
      </trkpt>
      <trkpt lat="49.13282" lon="7.51716">
        <ele>297</ele>
        <time>2010-12-10T02:50:35Z</time>
        <course>40.3902712212418</course>
        <speed>3.02208737931931</speed>
      </trkpt>
      <trkpt lat="49.134232" lon="7.51434">
        <ele>320</ele>
        <time>2010-12-10T02:52:00Z</time>
        <course>46.001092814811</course>
        <speed>8.30954523341745</speed>
      </trkpt>
      <trkpt lat="49.13438" lon="7.51398">
        <ele>319</ele>
        <time>2010-12-10T02:52:04Z</time>
        <course>61.1457651942538</course>
        <speed>8.33264779152107</speed>
      </trkpt>
      <trkpt lat="49.134441" lon="7.51372">
        <ele>318</ele>
        <time>2010-12-10T02:52:06Z</time>
        <course>85.33511294885</course>
        <speed>8.33114415068505</speed>
      </trkpt>
      <trkpt lat="49.134449" lon="7.51349">
        <ele>318</ele>
        <time>2010-12-10T02:52:08Z</time>
        <course>103.223949360699</course>
        <speed>8.31799285259054</speed>
      </trkpt>
      <trkpt lat="49.13443" lon="7.5133">
        <ele>318</ele>
        <time>2010-12-10T02:52:10Z</time>
        <course>96.3771624355666</course>
        <speed>8.30719894603936</speed>
      </trkpt>
      <trkpt lat="49.134411" lon="7.5129">
        <ele>317</ele>
        <time>2010-12-10T02:52:13Z</time>
        <course>90.0054437422364</course>
        <speed>8.29777824118656</speed>
      </trkpt>
      <trkpt lat="49.134411" lon="7.51269">
        <ele>317</ele>
        <time>2010-12-10T02:52:15Z</time>
        <course>75.2937500129786</course>
        <speed>8.30381647393124</speed>
      </trkpt>
      <trkpt lat="49.13443" lon="7.51252">
        <ele>317</ele>
        <time>2010-12-10T02:52:17Z</time>
        <course>56.8812815266741</course>
        <speed>8.31423248080108</speed>
      </trkpt>
      <trkpt lat="49.13448" lon="7.51234">
        <ele>316</ele>
        <time>2010-12-10T02:52:18Z</time>
        <course>34.6830152635985</course>
        <speed>8.3174569599811</speed>
      </trkpt>
      <trkpt lat="49.13456" lon="7.51221">
        <ele>316</ele>
        <time>2010-12-10T02:52:20Z</time>
        <course>21.166477275347</course>
        <speed>8.31156101775814</speed>
      </trkpt>
      <trkpt lat="49.134659" lon="7.51212">
        <ele>316</ele>
        <time>2010-12-10T02:52:21Z</time>
        <course>2.41575636177042</course>
        <speed>8.33084760400029</speed>
      </trkpt>
      <trkpt lat="49.134861" lon="7.5121">
        <ele>316</ele>
        <time>2010-12-10T02:52:24Z</time>
        <course>354.204996066396</course>
        <speed>8.3230478667471</speed>
      </trkpt>
      <trkpt lat="49.135029" lon="7.51214">
        <ele>315</ele>
        <time>2010-12-10T02:52:26Z</time>
        <course>345.001920197634</course>
        <speed>8.31417029302152</speed>
      </trkpt>
      <trkpt lat="49.13522" lon="7.51226">
        <ele>315</ele>
        <time>2010-12-10T02:52:29Z</time>
        <course>337.663023099849</course>
        <speed>8.32409951281634</speed>
      </trkpt>
      <trkpt lat="49.13549" lon="7.51252">
        <ele>314</ele>
        <time>2010-12-10T02:52:33Z</time>
        <course>335.896243488262</course>
        <speed>8.31647892555338</speed>
      </trkpt>
      <trkpt lat="49.135719" lon="7.51276">
        <ele>314</ele>
        <time>2010-12-10T02:52:37Z</time>
        <course>339.631454761567</course>
        <speed>8.34166163025244</speed>
      </trkpt>
      <trkpt lat="49.135811" lon="7.51284">
        <ele>314</ele>
        <time>2010-12-10T02:52:39Z</time>
        <course>351.172836500443</course>
        <speed>8.32078017371792</speed>
      </trkpt>
      <trkpt lat="49.135921" lon="7.51288">
        <ele>314</ele>
        <time>2010-12-10T02:52:40Z</time>
        <course>7.24603191050639</course>
        <speed>8.30514592791317</speed>
      </trkpt>
      <trkpt lat="49.136089" lon="7.51283">
        <ele>313</ele>
        <time>2010-12-10T02:52:42Z</time>
        <course>3.46874168597818</course>
        <speed>8.32552647735664</speed>
      </trkpt>
      <trkpt lat="49.13623" lon="7.51281">
        <ele>313</ele>
        <time>2010-12-10T02:52:44Z</time>
        <course>344.965449584283</course>
        <speed>8.31414117560664</speed>
      </trkpt>
      <trkpt lat="49.136421" lon="7.51293">
        <ele>313</ele>
        <time>2010-12-10T02:52:47Z</time>
        <course>345.256488007144</course>
        <speed>8.32753440937622</speed>
      </trkpt>
      <trkpt lat="49.136551" lon="7.51301">
        <ele>313</ele>
        <time>2010-12-10T02:52:49Z</time>
        <course>350.098241505654</course>
        <speed>2.25427246474428</speed>
      </trkpt>
      <trkpt lat="49.1366" lon="7.51303">
        <ele>313</ele>
        <time>2010-12-10T02:52:51Z</time>
        <course>9.70853481799308</course>
        <speed>2.25220011056437</speed>
      </trkpt>
      <trkpt lat="49.13665" lon="7.51301">
        <ele>314</ele>
        <time>2010-12-10T02:52:54Z</time>
        <course>29.3723690818649</course>
        <speed>2.25574069658553</speed>
      </trkpt>
      <trkpt lat="49.136688" lon="7.51296">
        <ele>315</ele>
        <time>2010-12-10T02:52:56Z</time>
        <course>52.4732033526026</course>
        <speed>2.25983380457494</speed>
      </trkpt>
      <trkpt lat="49.136711" lon="7.51289">
        <ele>316</ele>
        <time>2010-12-10T02:52:59Z</time>
        <course>78.2636641121722</course>
        <speed>2.2536514454818</speed>
      </trkpt>
      <trkpt lat="49.136719" lon="7.5128">
        <ele>316</ele>
        <time>2010-12-10T02:53:02Z</time>
        <course>101.740996882592</course>
        <speed>2.25365144552154</speed>
      </trkpt>
      <trkpt lat="49.136711" lon="7.51271">
        <ele>317</ele>
        <time>2010-12-10T02:53:05Z</time>
        <course>135.056302485298</course>
        <speed>2.25322558653985</speed>
      </trkpt>
      <trkpt lat="49.136681" lon="7.51264">
        <ele>318</ele>
        <time>2010-12-10T02:53:07Z</time>
        <course>142.409743421205</course>
        <speed>2.2529597506516</speed>
      </trkpt>
      <trkpt lat="49.136631" lon="7.51255">
        <ele>319</ele>
        <time>2010-12-10T02:53:11Z</time>
        <course>153.861408790108</course>
        <speed>2.25428313643398</speed>
      </trkpt>
      <trkpt lat="49.13657" lon="7.51248">
        <ele>320</ele>
        <time>2010-12-10T02:53:15Z</time>
        <course>153.864330664952</course>
        <speed>2.25428413650468</speed>
      </trkpt>
      <trkpt lat="49.136509" lon="7.51241">
        <ele>322</ele>
        <time>2010-12-10T02:53:19Z</time>
        <course>173.797351576305</course>
        <speed>2.25676001592841</speed>
      </trkpt>
      <trkpt lat="49.136391" lon="7.51238">
        <ele>323</ele>
        <time>2010-12-10T02:53:25Z</time>
        <course>175.596598341196</course>
        <speed>2.25403419790052</speed>
      </trkpt>
      <trkpt lat="49.13628" lon="7.51236">
        <ele>325</ele>
        <time>2010-12-10T02:53:30Z</time>
        <course>183.05694932603</course>
        <speed>2.25519070542579</speed>
      </trkpt>
      <trkpt lat="49.13612" lon="7.51238">
        <ele>327</ele>
        <time>2010-12-10T02:53:38Z</time>
        <course>184.914973819826</course>
        <speed>2.25674579582021</speed>
      </trkpt>
      <trkpt lat="49.135971" lon="7.51241">
        <ele>330</ele>
        <time>2010-12-10T02:53:46Z</time>
        <course>180</course>
        <speed>2.25482228117703</speed>
      </trkpt>
      <trkpt lat="49.135818" lon="7.51241">
        <ele>332</ele>
        <time>2010-12-10T02:53:53Z</time>
        <course>173.909332200838</course>
        <speed>2.25475154696919</speed>
      </trkpt>
      <trkpt lat="49.135658" lon="7.51237">
        <ele>334</ele>
        <time>2010-12-10T02:54:01Z</time>
        <course>162.51575312528</course>
        <speed>2.25609073671887</speed>
      </trkpt>
      <trkpt lat="49.135509" lon="7.51226">
        <ele>337</ele>
        <time>2010-12-10T02:54:09Z</time>
        <course>149.239690568201</course>
        <speed>2.25431330599604</speed>
      </trkpt>
      <trkpt lat="49.13538" lon="7.51208">
        <ele>340</ele>
        <time>2010-12-10T02:54:18Z</time>
        <course>148.31153125891</course>
        <speed>6.42462817482058</speed>
      </trkpt>
      <trkpt lat="49.13509" lon="7.51166">
        <ele>340</ele>
        <time>2010-12-10T02:54:25Z</time>
        <course>148.677569593899</course>
        <speed>6.421136430606</speed>
      </trkpt>
      <trkpt lat="49.134789" lon="7.51123">
        <ele>341</ele>
        <time>2010-12-10T02:54:32Z</time>
        <course>158.138952982094</course>
        <speed>6.43332848880423</speed>
      </trkpt>
      <trkpt lat="49.134651" lon="7.5111">
        <ele>341</ele>
        <time>2010-12-10T02:54:35Z</time>
        <course>166.531937046259</course>
        <speed>6.42205729327605</speed>
      </trkpt>
      <trkpt lat="49.134491" lon="7.51101">
        <ele>341</ele>
        <time>2010-12-10T02:54:38Z</time>
        <course>176.25340093015</course>
        <speed>6.42415899784983</speed>
      </trkpt>
      <trkpt lat="49.134361" lon="7.51099">
        <ele>342</ele>
        <time>2010-12-10T02:54:40Z</time>
        <course>186.389108524233</course>
        <speed>6.41901812196556</speed>
      </trkpt>
      <trkpt lat="49.134209" lon="7.51103">
        <ele>342</ele>
        <time>2010-12-10T02:54:43Z</time>
        <course>195.831154567829</course>
        <speed>6.41811725335976</speed>
      </trkpt>
      <trkpt lat="49.134029" lon="7.51115">
        <ele>342</ele>
        <time>2010-12-10T02:54:46Z</time>
        <course>211.102798065716</course>
        <speed>6.42994528636211</speed>
      </trkpt>
      <trkpt lat="49.133881" lon="7.51136">
        <ele>343</ele>
        <time>2010-12-10T02:54:49Z</time>
        <course>225.955489614488</course>
        <speed>4.43284747888152</speed>
      </trkpt>
      <trkpt lat="49.13377" lon="7.51163">
        <ele>344</ele>
        <time>2010-12-10T02:54:55Z</time>
        <course>244.792358168925</course>
        <speed>4.42655794573072</speed>
      </trkpt>
      <trkpt lat="49.13369" lon="7.51203">
        <ele>345</ele>
        <time>2010-12-10T02:55:02Z</time>
        <course>255.195174060722</course>
        <speed>4.42859873702826</speed>
      </trkpt>
      <trkpt lat="49.133579" lon="7.51302">
        <ele>348</ele>
        <time>2010-12-10T02:55:18Z</time>
        <course>252.854064782045</course>
        <speed>4.4336670296991</speed>
      </trkpt>
      <trkpt lat="49.133541" lon="7.51331">
        <ele>349</ele>
        <time>2010-12-10T02:55:23Z</time>
        <course>235.861995176801</course>
        <speed>4.43288289528222</speed>
      </trkpt>
      <trkpt lat="49.133469" lon="7.51356">
        <ele>350</ele>
        <time>2010-12-10T02:55:27Z</time>
        <course>221.745987205199</course>
        <speed>4.42636728758062</speed>
      </trkpt>
      <trkpt lat="49.133331" lon="7.51385">
        <ele>351</ele>
        <time>2010-12-10T02:55:33Z</time>
        <course>213.205637936759</course>
        <speed>4.42921549859033</speed>
      </trkpt>
      <trkpt lat="49.132832" lon="7.51462">
        <ele>355</ele>
        <time>2010-12-10T02:55:51Z</time>
        <course>200.242362562618</course>
        <speed>7.15010238136501</speed>
      </trkpt>
      <trkpt lat="49.132648" lon="7.51478">
        <ele>355</ele>
        <time>2010-12-10T02:55:54Z</time>
        <course>194.73132015089</course>
        <speed>7.12886556666071</speed>
      </trkpt>
      <trkpt lat="49.132519" lon="7.51486">
        <ele>355</ele>
        <time>2010-12-10T02:55:56Z</time>
        <course>182.757818715942</course>
        <speed>7.15733793636688</speed>
      </trkpt>
      <trkpt lat="49.132431" lon="7.51487">
        <ele>355</ele>
        <time>2010-12-10T02:55:58Z</time>
        <course>172.131553465759</course>
        <speed>7.15968916251955</speed>
      </trkpt>
      <trkpt lat="49.132339" lon="7.51484">
        <ele>355</ele>
        <time>2010-12-10T02:55:59Z</time>
        <course>152.497653302184</course>
        <speed>7.1394711672468</speed>
      </trkpt>
      <trkpt lat="49.131908" lon="7.51431">
        <ele>355</ele>
        <time>2010-12-10T02:56:08Z</time>
        <course>135.336879831425</course>
        <speed>7.14949079661539</speed>
      </trkpt>
      <trkpt lat="49.131741" lon="7.51392">
        <ele>356</ele>
        <time>2010-12-10T02:56:13Z</time>
        <course>139.101999480005</course>
        <speed>7.14522328991547</speed>
      </trkpt>
      <trkpt lat="49.131531" lon="7.51349">
        <ele>356</ele>
        <time>2010-12-10T02:56:18Z</time>
        <course>146.707608544771</course>
        <speed>7.14731137047736</speed>
      </trkpt>
      <trkpt lat="49.131222" lon="7.51301">
        <ele>357</ele>
        <time>2010-12-10T02:56:25Z</time>
        <course>143.389133783107</course>
        <speed>2.69190642460527</speed>
      </trkpt>
      <trkpt lat="49.130932" lon="7.5125">
        <ele>362</ele>
        <time>2010-12-10T02:56:43Z</time>
        <course>150.016085404522</course>
        <speed>2.69250233817198</speed>
      </trkpt>
      <trkpt lat="49.130749" lon="7.51225">
        <ele>364</ele>
        <time>2010-12-10T02:56:53Z</time>
        <course>161.065256286289</course>
        <speed>2.69193550716482</speed>
      </trkpt>
      <trkpt lat="49.130589" lon="7.51212">
        <ele>367</ele>
        <time>2010-12-10T02:57:01Z</time>
        <course>169.765004451418</course>
        <speed>2.69055340453488</speed>
      </trkpt>
      <trkpt lat="49.130402" lon="7.51204">
        <ele>369</ele>
        <time>2010-12-10T02:57:09Z</time>
        <course>175.388211531789</course>
        <speed>2.69186765119749</speed>
      </trkpt>
      <trkpt lat="49.12941" lon="7.51185">
        <ele>381</ele>
        <time>2010-12-10T02:57:50Z</time>
        <course>170.377604894342</course>
        <speed>8.31165906673103</speed>
      </trkpt>
      <trkpt lat="49.129261" lon="7.51179">
        <ele>380</ele>
        <time>2010-12-10T02:57:52Z</time>
        <course>161.731903556445</course>
        <speed>8.30855301740445</speed>
      </trkpt>
      <trkpt lat="49.129108" lon="7.51167">
        <ele>379</ele>
        <time>2010-12-10T02:57:54Z</time>
        <course>144.453920965766</course>
        <speed>8.3056261589246</speed>
      </trkpt>
      <trkpt lat="49.129002" lon="7.51149">
        <ele>379</ele>
        <time>2010-12-10T02:57:57Z</time>
        <course>141.584945344006</course>
        <speed>8.31210058113427</speed>
      </trkpt>
      <trkpt lat="49.12888" lon="7.51126">
        <ele>378</ele>
        <time>2010-12-10T02:57:59Z</time>
        <course>131.084543733904</course>
        <speed>8.33497688105733</speed>
      </trkpt>
      <trkpt lat="49.128792" lon="7.51102">
        <ele>377</ele>
        <time>2010-12-10T02:58:02Z</time>
        <course>125.881867825457</course>
        <speed>8.33082212871233</speed>
      </trkpt>
      <trkpt lat="49.128719" lon="7.51078">
        <ele>377</ele>
        <time>2010-12-10T02:58:04Z</time>
        <course>114.147380834765</course>
        <speed>8.30117088833672</speed>
      </trkpt>
      <trkpt lat="49.12867" lon="7.51052">
        <ele>376</ele>
        <time>2010-12-10T02:58:06Z</time>
        <course>106.768457650871</course>
        <speed>8.29058228994098</speed>
      </trkpt>
      <trkpt lat="49.128651" lon="7.51037">
        <ele>375</ele>
        <time>2010-12-10T02:58:08Z</time>
        <course>109.635787489672</course>
        <speed>8.28874991236969</speed>
      </trkpt>
      <trkpt lat="49.128639" lon="7.51029">
        <ele>375</ele>
        <time>2010-12-10T02:58:08Z</time>
        <course>105.509596240115</course>
        <speed>8.36144726767912</speed>
      </trkpt>
      <trkpt lat="49.128632" lon="7.51023">
        <ele>375</ele>
        <time>2010-12-10T02:58:09Z</time>
        <course>164.588065406188</course>
        <speed>8.28761780766798</speed>
      </trkpt>
      <trkpt lat="49.128571" lon="7.51019">
        <ele>375</ele>
        <time>2010-12-10T02:58:10Z</time>
        <course>175.807825784326</course>
        <speed>8.32758529477242</speed>
      </trkpt>
      <trkpt lat="49.128399" lon="7.51016">
        <ele>374</ele>
        <time>2010-12-10T02:58:12Z</time>
        <course>178.567596058465</course>
        <speed>8.30325142265388</speed>
      </trkpt>
      <trkpt lat="49.128231" lon="7.51015">
        <ele>374</ele>
        <time>2010-12-10T02:58:14Z</time>
        <course>184.999124809997</course>
        <speed>4.38362864160957</speed>
      </trkpt>
      <trkpt lat="49.127991" lon="7.5102">
        <ele>375</ele>
        <time>2010-12-10T02:58:20Z</time>
        <course>188.740859535274</course>
        <speed>4.38267769071512</speed>
      </trkpt>
      <trkpt lat="49.127609" lon="7.51034">
        <ele>377</ele>
        <time>2010-12-10T02:58:30Z</time>
        <course>188.001535907973</course>
        <speed>4.37921389065694</speed>
      </trkpt>
      <trkpt lat="49.12743" lon="7.5104">
        <ele>378</ele>
        <time>2010-12-10T02:58:35Z</time>
        <course>180</course>
        <speed>4.38631578927836</speed>
      </trkpt>
      <trkpt lat="49.12722" lon="7.5104">
        <ele>379</ele>
        <time>2010-12-10T02:58:40Z</time>
        <course>181.702299382742</course>
        <speed>4.38122471479709</speed>
      </trkpt>
      <trkpt lat="49.127079" lon="7.51041">
        <ele>379</ele>
        <time>2010-12-10T02:58:44Z</time>
        <course>191.947129383651</course>
        <speed>4.38868056557057</speed>
      </trkpt>
      <trkpt lat="49.12698" lon="7.51046">
        <ele>380</ele>
        <time>2010-12-10T02:58:47Z</time>
        <course>212.141214500576</course>
        <speed>4.38610298236417</speed>
      </trkpt>
      <trkpt lat="49.1269" lon="7.51058">
        <ele>380</ele>
        <time>2010-12-10T02:58:49Z</time>
        <course>227.528213639035</course>
        <speed>4.38731880255473</speed>
      </trkpt>
      <trkpt lat="49.126808" lon="7.51082">
        <ele>381</ele>
        <time>2010-12-10T02:58:54Z</time>
        <course>224.572642605594</course>
        <speed>4.37630328765164</speed>
      </trkpt>
      <trkpt lat="49.12674" lon="7.51098">
        <ele>382</ele>
        <time>2010-12-10T02:58:57Z</time>
        <course>209.61991466427</course>
        <speed>4.37864857293739</speed>
      </trkpt>
      <trkpt lat="49.126659" lon="7.51109">
        <ele>383</ele>
        <time>2010-12-10T02:59:00Z</time>
        <course>205.657876667005</course>
        <speed>8.31050911438783</speed>
      </trkpt>
      <trkpt lat="49.126598" lon="7.51116">
        <ele>382</ele>
        <time>2010-12-10T02:59:01Z</time>
        <course>190.892085003434</course>
        <speed>8.3434060766277</speed>
      </trkpt>
      <trkpt lat="49.126511" lon="7.5112">
        <ele>382</ele>
        <time>2010-12-10T02:59:02Z</time>
        <course>180</course>
        <speed>8.27730612127569</speed>
      </trkpt>
      <trkpt lat="49.126438" lon="7.5112">
        <ele>382</ele>
        <time>2010-12-10T02:59:03Z</time>
        <course>156.230006108508</course>
        <speed>8.35988922004301</speed>
      </trkpt>
      <trkpt lat="49.126381" lon="7.51114">
        <ele>382</ele>
        <time>2010-12-10T02:59:04Z</time>
        <course>159.895272557733</course>
        <speed>8.32825292818006</speed>
      </trkpt>
      <trkpt lat="49.126301" lon="7.51107">
        <ele>382</ele>
        <time>2010-12-10T02:59:05Z</time>
        <course>157.636704669061</course>
        <speed>8.31040316888434</speed>
      </trkpt>
      <trkpt lat="49.12624" lon="7.51101">
        <ele>382</ele>
        <time>2010-12-10T02:59:06Z</time>
        <course>180</course>
        <speed>8.3682962962215</speed>
      </trkpt>
      <trkpt lat="49.126179" lon="7.51101">
        <ele>382</ele>
        <time>2010-12-10T02:59:07Z</time>
        <course>190.666388558795</course>
        <speed>8.29614888090873</speed>
      </trkpt>
      <trkpt lat="49.126068" lon="7.51106">
        <ele>382</ele>
        <time>2010-12-10T02:59:09Z</time>
        <course>197.884186788611</course>
        <speed>8.31081524799076</speed>
      </trkpt>
      <trkpt lat="49.125809" lon="7.51126">
        <ele>381</ele>
        <time>2010-12-10T02:59:13Z</time>
        <course>195.900614479998</course>
        <speed>8.30059156742068</speed>
      </trkpt>
      <trkpt lat="49.125721" lon="7.51132">
        <ele>381</ele>
        <time>2010-12-10T02:59:14Z</time>
        <course>182.989116533992</course>
        <speed>8.33578674265082</speed>
      </trkpt>
      <trkpt lat="49.125641" lon="7.51133">
        <ele>381</ele>
        <time>2010-12-10T02:59:15Z</time>
        <course>171.098403605701</course>
        <speed>8.32123682104628</speed>
      </trkpt>
      <trkpt lat="49.125561" lon="7.5113">
        <ele>381</ele>
        <time>2010-12-10T02:59:16Z</time>
        <course>145.605004910528</course>
        <speed>8.28417903424755</speed>
      </trkpt>
      <trkpt lat="49.1255" lon="7.5112">
        <ele>381</ele>
        <time>2010-12-10T02:59:17Z</time>
        <course>149.743199147335</course>
        <speed>8.32021619893045</speed>
      </trkpt>
      <trkpt lat="49.125221" lon="7.51081">
        <ele>380</ele>
        <time>2010-12-10T02:59:22Z</time>
        <course>153.207507776502</course>
        <speed>8.31606944103207</speed>
      </trkpt>
      <trkpt lat="49.124668" lon="7.51014">
        <ele>380</ele>
        <time>2010-12-10T02:59:32Z</time>
        <course>153.12359946206</course>
        <speed>2.47445761402752</speed>
      </trkpt>
      <trkpt lat="49.12429" lon="7.50968">
        <ele>386</ele>
        <time>2010-12-10T02:59:53Z</time>
        <course>148.432323047702</course>
        <speed>2.47303605667418</speed>
      </trkpt>
      <trkpt lat="49.124229" lon="7.50959">
        <ele>387</ele>
        <time>2010-12-10T02:59:57Z</time>
        <course>134.440469111425</course>
        <speed>2.47252062561074</speed>
      </trkpt>
      <trkpt lat="49.12418" lon="7.50947">
        <ele>388</ele>
        <time>2010-12-10T03:00:01Z</time>
        <course>124.093097645796</course>
        <speed>2.47423753677884</speed>
      </trkpt>
      <trkpt lat="49.124149" lon="7.50936">
        <ele>389</ele>
        <time>2010-12-10T03:00:05Z</time>
        <course>104.437949568894</course>
        <speed>2.47392351091164</speed>
      </trkpt>
      <trkpt lat="49.124119" lon="7.50908">
        <ele>392</ele>
        <time>2010-12-10T03:00:13Z</time>
        <course>93.2067261151196</course>
        <speed>2.47479527275091</speed>
      </trkpt>
      <trkpt lat="49.1241" lon="7.50826">
        <ele>399</ele>
        <time>2010-12-10T03:00:37Z</time>
        <course>100.351819084248</course>
        <speed>2.47325046789696</speed>
      </trkpt>
      <trkpt lat="49.124081" lon="7.50801">
        <ele>401</ele>
        <time>2010-12-10T03:00:45Z</time>
        <course>116.814146298599</course>
        <speed>2.47499890827171</speed>
      </trkpt>
      <trkpt lat="49.12402" lon="7.50772">
        <ele>404</ele>
        <time>2010-12-10T03:00:54Z</time>
        <course>132.609756607522</course>
        <speed>6.12303227017744</speed>
      </trkpt>
      <trkpt lat="49.123909" lon="7.50743">
        <ele>404</ele>
        <time>2010-12-10T03:00:58Z</time>
        <course>142.990723216607</course>
        <speed>6.12969601917466</speed>
      </trkpt>
      <trkpt lat="49.12376" lon="7.50716">
        <ele>404</ele>
        <time>2010-12-10T03:01:02Z</time>
        <course>153.182515463116</course>
        <speed>6.12444076660046</speed>
      </trkpt>
      <trkpt lat="49.12339" lon="7.50671">
        <ele>405</ele>
        <time>2010-12-10T03:01:10Z</time>
        <course>153.989472300334</course>
        <speed>6.12783814797749</speed>
      </trkpt>
      <trkpt lat="49.12299" lon="7.50624">
        <ele>406</ele>
        <time>2010-12-10T03:01:20Z</time>
        <course>153.187418892778</course>
        <speed>6.12181632001555</speed>
      </trkpt>
      <trkpt lat="49.122719" lon="7.50591">
        <ele>407</ele>
        <time>2010-12-10T03:01:26Z</time>
        <course>146.011448569457</course>
        <speed>6.12117119369872</speed>
      </trkpt>
      <trkpt lat="49.122559" lon="7.50565">
        <ele>408</ele>
        <time>2010-12-10T03:01:30Z</time>
        <course>136.110804720762</course>
        <speed>8.29437469576858</speed>
      </trkpt>
      <trkpt lat="49.12249" lon="7.50549">
        <ele>407</ele>
        <time>2010-12-10T03:01:32Z</time>
        <course>134.433478414069</course>
        <speed>8.33944749687031</speed>
      </trkpt>
      <trkpt lat="49.122429" lon="7.50534">
        <ele>407</ele>
        <time>2010-12-10T03:01:33Z</time>
        <course>128.687306961349</course>
        <speed>8.32273659382375</speed>
      </trkpt>
      <trkpt lat="49.1222" lon="7.50465">
        <ele>407</ele>
        <time>2010-12-10T03:01:40Z</time>
        <course>129.279177701151</course>
        <speed>8.31339264235988</speed>
      </trkpt>
      <trkpt lat="49.121929" lon="7.50385">
        <ele>407</ele>
        <time>2010-12-10T03:01:48Z</time>
        <course>130.028283800181</course>
        <speed>8.31498761662563</speed>
      </trkpt>
      <trkpt lat="49.121571" lon="7.50282">
        <ele>407</ele>
        <time>2010-12-10T03:01:58Z</time>
        <course>130.105871508895</course>
        <speed>8.31936177324987</speed>
      </trkpt>
      <trkpt lat="49.121181" lon="7.5017">
        <ele>404</ele>
        <time>2010-12-10T03:02:09Z</time>
        <course>132.675881654746</course>
        <speed>8.31245160162651</speed>
      </trkpt>
      <trkpt lat="49.121059" lon="7.50138">
        <ele>404</ele>
        <time>2010-12-10T03:02:13Z</time>
        <course>129.431206702953</course>
        <speed>8.32002160312527</speed>
      </trkpt>
      <trkpt lat="49.120991" lon="7.50118">
        <ele>403</ele>
        <time>2010-12-10T03:02:14Z</time>
        <course>119.939828301363</course>
        <speed>8.33399961304773</speed>
      </trkpt>
      <trkpt lat="49.120941" lon="7.50097">
        <ele>403</ele>
        <time>2010-12-10T03:02:16Z</time>
        <course>109.066766235245</course>
        <speed>8.31471382104049</speed>
      </trkpt>
      <trkpt lat="49.120911" lon="7.50076">
        <ele>402</ele>
        <time>2010-12-10T03:02:18Z</time>
        <course>100.422851974309</course>
        <speed>8.31964306913671</speed>
      </trkpt>
      <trkpt lat="49.120892" lon="7.50051">
        <ele>402</ele>
        <time>2010-12-10T03:02:21Z</time>
        <course>90.0054778655985</course>
        <speed>8.30004098139081</speed>
      </trkpt>
      <trkpt lat="49.120892" lon="7.5003">
        <ele>402</ele>
        <time>2010-12-10T03:02:22Z</time>
        <course>84.9124976131365</course>
        <speed>8.33702855028145</speed>
      </trkpt>
      <trkpt lat="49.120899" lon="7.50011">
        <ele>400</ele>
        <time>2010-12-10T03:02:24Z</time>
        <course>69.3885935248167</course>
        <speed>8.30556965815004</speed>
      </trkpt>
      <trkpt lat="49.120941" lon="7.49984">
        <ele>398</ele>
        <time>2010-12-10T03:02:26Z</time>
        <course>69.2768967015705</course>
        <speed>8.31976118494429</speed>
      </trkpt>
      <trkpt lat="49.121071" lon="7.49901">
        <ele>393</ele>
        <time>2010-12-10T03:02:34Z</time>
        <course>77.6716915892284</course>
        <speed>8.31119176283158</speed>
      </trkpt>
      <trkpt lat="49.121109" lon="7.49859">
        <ele>390</ele>
        <time>2010-12-10T03:02:38Z</time>
        <course>79.4822007159091</course>
        <speed>8.32095716255312</speed>
      </trkpt>
      <trkpt lat="49.121159" lon="7.49794">
        <ele>386</ele>
        <time>2010-12-10T03:02:43Z</time>
        <course>73.4647731440831</course>
        <speed>8.32178086027211</speed>
      </trkpt>
      <trkpt lat="49.12125" lon="7.4972">
        <ele>381</ele>
        <time>2010-12-10T03:02:50Z</time>
        <course>76.4157909466283</course>
        <speed>8.32841665579285</speed>
      </trkpt>
      <trkpt lat="49.121262" lon="7.49708">
        <ele>379</ele>
        <time>2010-12-10T03:02:51Z</time>
        <course>57.8585128717722</course>
        <speed>8.32471412085919</speed>
      </trkpt>
      <trkpt lat="49.121288" lon="7.49698">
        <ele>377</ele>
        <time>2010-12-10T03:02:52Z</time>
        <course>25.4030421832301</course>
        <speed>8.31083001557643</speed>
      </trkpt>
      <trkpt lat="49.121349" lon="7.49691">
        <ele>375</ele>
        <time>2010-12-10T03:02:53Z</time>
        <course>14.6301783622782</course>
        <speed>8.33971244264376</speed>
      </trkpt>
      <trkpt lat="49.12146" lon="7.49684">
        <ele>372</ele>
        <time>2010-12-10T03:02:55Z</time>
        <course>3.43362307597807</course>
        <speed>8.2813885879092</speed>
      </trkpt>
      <trkpt lat="49.121529" lon="7.49683">
        <ele>371</ele>
        <time>2010-12-10T03:02:55Z</time>
        <course>3.43362307597807</course>
        <speed>8.2813885879092</speed>
      </trkpt>
      <trkpt lat="49.121529" lon="7.49683">
        <ele>371</ele>
        <time>2010-12-10T03:02:56Z</time>
        <course>6.44347135514411</course>
        <speed>7.57096138493624</speed>
      </trkpt>
      <trkpt lat="49.121639" lon="7.4968">
        <ele>371</ele>
        <time>2010-12-10T03:02:58Z</time>
        <course>2.63542092577478</course>
        <speed>7.56770275756969</speed>
      </trkpt>
      <trkpt lat="49.121819" lon="7.49678">
        <ele>371</ele>
        <time>2010-12-10T03:03:01Z</time>
        <course>1.24956132386036</course>
        <speed>7.57179960079241</speed>
      </trkpt>
      <trkpt lat="49.122009" lon="7.49677">
        <ele>371</ele>
        <time>2010-12-10T03:03:04Z</time>
        <course>360</course>
        <speed>7.57997142824804</speed>
      </trkpt>
      <trkpt lat="49.1222" lon="7.49677">
        <ele>371</ele>
        <time>2010-12-10T03:03:06Z</time>
        <course>360</course>
        <speed>7.53146666739162</speed>
      </trkpt>
      <trkpt lat="49.122261" lon="7.49677">
        <ele>371</ele>
        <time>2010-12-10T03:03:07Z</time>
        <course>9.41871510850563</course>
        <speed>7.55686418107009</speed>
      </trkpt>
      <trkpt lat="49.122311" lon="7.49675">
        <ele>371</ele>
        <time>2010-12-10T03:03:08Z</time>
        <course>28.6223686557295</course>
        <speed>7.53022373136372</speed>
      </trkpt>
      <trkpt lat="49.122349" lon="7.4967">
        <ele>371</ele>
        <time>2010-12-10T03:03:09Z</time>
        <course>34.656048030223</course>
        <speed>7.58917257939734</speed>
      </trkpt>
      <trkpt lat="49.122379" lon="7.49665">
        <ele>371</ele>
        <time>2010-12-10T03:03:09Z</time>
        <course>64.2588690746015</course>
        <speed>7.60420439447141</speed>
      </trkpt>
      <trkpt lat="49.122391" lon="7.49659">
        <ele>371</ele>
        <time>2010-12-10T03:03:10Z</time>
        <course>83.1301580166703</course>
        <speed>7.56351527900228</speed>
      </trkpt>
      <trkpt lat="49.122398" lon="7.49645">
        <ele>371</ele>
        <time>2010-12-10T03:03:11Z</time>
        <course>85.9745408689976</course>
        <speed>7.57507676065002</speed>
      </trkpt>
      <trkpt lat="49.12241" lon="7.49604">
        <ele>371</ele>
        <time>2010-12-10T03:03:15Z</time>
        <course>90.0109481676368</course>
        <speed>7.56020195556918</speed>
      </trkpt>
      <trkpt lat="49.12241" lon="7.49562">
        <ele>371</ele>
        <time>2010-12-10T03:03:19Z</time>
        <course>100.858458150467</course>
        <speed>7.57824770951229</speed>
      </trkpt>
      <trkpt lat="49.122379" lon="7.49523">
        <ele>372</ele>
        <time>2010-12-10T03:03:23Z</time>
        <course>118.192495183696</course>
        <speed>8.32772269801266</speed>
      </trkpt>
      <trkpt lat="49.122299" lon="7.49487">
        <ele>369</ele>
        <time>2010-12-10T03:03:26Z</time>
        <course>129.567910400876</course>
        <speed>8.31180611395799</speed>
      </trkpt>
      <trkpt lat="49.122162" lon="7.49447">
        <ele>365</ele>
        <time>2010-12-10T03:03:30Z</time>
        <course>135.681431445403</course>
        <speed>8.31746018316927</speed>
      </trkpt>
      <trkpt lat="49.121899" lon="7.49385">
        <ele>359</ele>
        <time>2010-12-10T03:03:37Z</time>
        <course>141.128558825569</course>
        <speed>8.32681625927632</speed>
      </trkpt>
      <trkpt lat="49.12175" lon="7.49356">
        <ele>356</ele>
        <time>2010-12-10T03:03:40Z</time>
        <course>144.960995131877</course>
        <speed>8.32380904095044</speed>
      </trkpt>
      <trkpt lat="49.121449" lon="7.49305">
        <ele>351</ele>
        <time>2010-12-10T03:03:46Z</time>
        <course>147.118547029776</course>
        <speed>8.3187950989509</speed>
      </trkpt>
      <trkpt lat="49.121078" lon="7.49247">
        <ele>345</ele>
        <time>2010-12-10T03:03:53Z</time>
        <course>148.201424505097</course>
        <speed>8.32334291099486</speed>
      </trkpt>
      <trkpt lat="49.120838" lon="7.49211">
        <ele>340</ele>
        <time>2010-12-10T03:03:58Z</time>
        <course>152.227112175161</course>
        <speed>8.32149893121372</speed>
      </trkpt>
      <trkpt lat="49.120258" lon="7.49137">
        <ele>328</ele>
        <time>2010-12-10T03:04:08Z</time>
        <course>152.746408403361</course>
        <speed>8.32145201656881</speed>
      </trkpt>
      <trkpt lat="49.11953" lon="7.49046">
        <ele>315</ele>
        <time>2010-12-10T03:04:20Z</time>
        <course>153.421198338351</course>
        <speed>8.31925140338182</speed>
      </trkpt>
      <trkpt lat="49.118511" lon="7.48922">
        <ele>305</ele>
        <time>2010-12-10T03:04:38Z</time>
        <course>154.938652238764</course>
        <speed>8.31813181264105</speed>
      </trkpt>
      <trkpt lat="49.11787" lon="7.48849">
        <ele>299</ele>
        <time>2010-12-10T03:04:48Z</time>
        <course>143.951297528545</course>
        <speed>8.30504059950981</speed>
      </trkpt>
      <trkpt lat="49.117729" lon="7.48824">
        <ele>297</ele>
        <time>2010-12-10T03:04:51Z</time>
        <course>130.746821665192</course>
        <speed>8.32572872113946</speed>
      </trkpt>
      <trkpt lat="49.11763" lon="7.48796">
        <ele>295</ele>
        <time>2010-12-10T03:04:54Z</time>
        <course>112.443046018345</course>
        <speed>8.32173013765938</speed>
      </trkpt>
      <trkpt lat="49.117569" lon="7.4876">
        <ele>294</ele>
        <time>2010-12-10T03:04:57Z</time>
        <course>98.2409084660166</course>
        <speed>8.31632233400675</speed>
      </trkpt>
      <trkpt lat="49.11755" lon="7.48728">
        <ele>292</ele>
        <time>2010-12-10T03:05:00Z</time>
        <course>90.0078373529606</course>
        <speed>8.32775600303079</speed>
      </trkpt>
      <trkpt lat="49.11755" lon="7.48698">
        <ele>291</ele>
        <time>2010-12-10T03:05:03Z</time>
        <course>62.8536652317391</course>
        <speed>8.31849168769513</speed>
      </trkpt>
      <trkpt lat="49.11763" lon="7.4866">
        <ele>289</ele>
        <time>2010-12-10T03:05:06Z</time>
        <course>62.4249091716587</course>
        <speed>8.3173864111305</speed>
      </trkpt>
      <trkpt lat="49.117821" lon="7.48571">
        <ele>285</ele>
        <time>2010-12-10T03:05:14Z</time>
        <course>65.6385364382865</course>
        <speed>8.31514600909043</speed>
      </trkpt>
      <trkpt lat="49.117901" lon="7.48528">
        <ele>282</ele>
        <time>2010-12-10T03:05:18Z</time>
        <course>75.2017267836979</course>
        <speed>8.32349481398611</speed>
      </trkpt>
      <trkpt lat="49.117939" lon="7.48493">
        <ele>280</ele>
        <time>2010-12-10T03:05:21Z</time>
        <course>94.5753529545852</course>
        <speed>8.31404333871683</speed>
      </trkpt>
      <trkpt lat="49.11792" lon="7.48435">
        <ele>276</ele>
        <time>2010-12-10T03:05:26Z</time>
        <course>97.5387201900611</course>
        <speed>8.3199985921728</speed>
      </trkpt>
      <trkpt lat="49.117901" lon="7.484">
        <ele>274</ele>
        <time>2010-12-10T03:05:30Z</time>
        <course>86.8610707490315</course>
        <speed>8.3244517232172</speed>
      </trkpt>
      <trkpt lat="49.117908" lon="7.48369">
        <ele>272</ele>
        <time>2010-12-10T03:05:32Z</time>
        <course>77.3805856444859</course>
        <speed>8.30808941894358</speed>
      </trkpt>
      <trkpt lat="49.117931" lon="7.48344">
        <ele>270</ele>
        <time>2010-12-10T03:05:34Z</time>
        <course>85.8808907520397</course>
        <speed>8.3291558036408</speed>
      </trkpt>
      <trkpt lat="49.117939" lon="7.48317">
        <ele>269</ele>
        <time>2010-12-10T03:05:37Z</time>
        <course>202.527608134623</course>
        <speed>8.29411232063317</speed>
      </trkpt>
      <trkpt lat="49.11784" lon="7.48327">
        <ele>268</ele>
        <time>2010-12-10T03:05:38Z</time>
        <course>211.659812666516</course>
        <speed>4.04240980615122</speed>
      </trkpt>
      <trkpt lat="49.117401" lon="7.48393">
        <ele>271</ele>
        <time>2010-12-10T03:05:55Z</time>
        <course>203.348399625418</course>
        <speed>4.04552348492577</speed>
      </trkpt>
      <trkpt lat="49.117249" lon="7.48409">
        <ele>272</ele>
        <time>2010-12-10T03:06:00Z</time>
        <course>191.679494375059</course>
        <speed>4.04788212022669</speed>
      </trkpt>
      <trkpt lat="49.11713" lon="7.48415">
        <ele>273</ele>
        <time>2010-12-10T03:06:04Z</time>
        <course>169.748835807661</course>
        <speed>4.03326753819457</speed>
      </trkpt>
      <trkpt lat="49.117062" lon="7.48412">
        <ele>273</ele>
        <time>2010-12-10T03:06:06Z</time>
        <course>130.471068506439</course>
        <speed>4.04232003913848</speed>
      </trkpt>
      <trkpt lat="49.116779" lon="7.48331">
        <ele>277</ele>
        <time>2010-12-10T03:06:22Z</time>
        <course>144.658350838961</course>
        <speed>4.04114491792952</speed>
      </trkpt>
      <trkpt lat="49.1166" lon="7.483">
        <ele>279</ele>
        <time>2010-12-10T03:06:30Z</time>
        <course>154.383640754149</course>
        <speed>8.31085413782004</speed>
      </trkpt>
      <trkpt lat="49.116489" lon="7.48287">
        <ele>278</ele>
        <time>2010-12-10T03:06:32Z</time>
        <course>162.051273854522</course>
        <speed>8.32033353086807</speed>
      </trkpt>
      <trkpt lat="49.116249" lon="7.48268">
        <ele>276</ele>
        <time>2010-12-10T03:06:35Z</time>
        <course>170.01027763244</course>
        <speed>8.31868526566469</speed>
      </trkpt>
      <trkpt lat="49.115669" lon="7.48243">
        <ele>273</ele>
        <time>2010-12-10T03:06:43Z</time>
        <course>165.188374434762</course>
        <speed>8.32531330754236</speed>
      </trkpt>
      <trkpt lat="49.115391" lon="7.48225">
        <ele>271</ele>
        <time>2010-12-10T03:06:47Z</time>
        <course>160.894254404123</course>
        <speed>8.32077556445867</speed>
      </trkpt>
      <trkpt lat="49.11512" lon="7.48202">
        <ele>269</ele>
        <time>2010-12-10T03:06:51Z</time>
        <course>156.623313606471</course>
        <speed>8.31960829857746</speed>
      </trkpt>
      <trkpt lat="49.114639" lon="7.48151">
        <ele>266</ele>
        <time>2010-12-10T03:06:59Z</time>
        <course>165.814339206223</course>
        <speed>5.4665840216176</speed>
      </trkpt>
      <trkpt lat="49.11451" lon="7.48143">
        <ele>266</ele>
        <time>2010-12-10T03:07:02Z</time>
        <course>173.337987923603</course>
        <speed>5.45740402115065</speed>
      </trkpt>
      <trkpt lat="49.114231" lon="7.48135">
        <ele>267</ele>
        <time>2010-12-10T03:07:08Z</time>
        <course>180.788722059061</course>
        <speed>5.46035156191298</speed>
      </trkpt>
      <trkpt lat="49.11364" lon="7.48137">
        <ele>268</ele>
        <time>2010-12-10T03:07:20Z</time>
        <course>170.893673946884</course>
        <speed>5.46386264412934</speed>
      </trkpt>
      <trkpt lat="49.113361" lon="7.48126">
        <ele>269</ele>
        <time>2010-12-10T03:07:26Z</time>
        <course>160.681444149984</course>
        <speed>5.45993224210274</speed>
      </trkpt>
      <trkpt lat="49.112701" lon="7.48069">
        <ele>272</ele>
        <time>2010-12-10T03:07:41Z</time>
        <course>155.65005302529</course>
        <speed>6.71895526198703</speed>
      </trkpt>
      <trkpt lat="49.11245" lon="7.48041">
        <ele>272</ele>
        <time>2010-12-10T03:07:46Z</time>
        <course>150.230796011096</course>
        <speed>6.71277227425248</speed>
      </trkpt>
      <trkpt lat="49.111389" lon="7.47891">
        <ele>274</ele>
        <time>2010-12-10T03:08:10Z</time>
        <course>156.440297668936</course>
        <speed>6.7104625816831</speed>
      </trkpt>
      <trkpt lat="49.110981" lon="7.47847">
        <ele>275</ele>
        <time>2010-12-10T03:08:19Z</time>
        <course>159.194055563655</course>
        <speed>5.25259596951852</speed>
      </trkpt>
      <trkpt lat="49.110142" lon="7.47768">
        <ele>278</ele>
        <time>2010-12-10T03:08:39Z</time>
        <course>153.305191341613</course>
        <speed>5.25197830551175</speed>
      </trkpt>
      <trkpt lat="49.109669" lon="7.47709">
        <ele>280</ele>
        <time>2010-12-10T03:08:52Z</time>
        <course>170.507980467261</course>
        <speed>5.25572910318343</speed>
      </trkpt>
      <trkpt lat="49.109428" lon="7.47699">
        <ele>281</ele>
        <time>2010-12-10T03:08:58Z</time>
        <course>180</course>
        <speed>7.06787905943418</speed>
      </trkpt>
      <trkpt lat="49.10886" lon="7.47699">
        <ele>281</ele>
        <time>2010-12-10T03:09:07Z</time>
        <course>174.273020323581</course>
        <speed>7.06086430417916</speed>
      </trkpt>
      <trkpt lat="49.108379" lon="7.47687">
        <ele>282</ele>
        <time>2010-12-10T03:09:14Z</time>
        <course>178.561818891438</course>
        <speed>7.0611408539561</speed>
      </trkpt>
      <trkpt lat="49.108059" lon="7.47685">
        <ele>282</ele>
        <time>2010-12-10T03:09:19Z</time>
        <course>181.934169454556</course>
        <speed>7.06579315234779</speed>
      </trkpt>
      <trkpt lat="49.1064" lon="7.47699">
        <ele>284</ele>
        <time>2010-12-10T03:09:45Z</time>
        <course>180</course>
        <speed>8.32477076415864</speed>
      </trkpt>
      <trkpt lat="49.105949" lon="7.47699">
        <ele>281</ele>
        <time>2010-12-10T03:09:51Z</time>
        <course>187.689024061125</course>
        <speed>8.33821275000176</speed>
      </trkpt>
      <trkpt lat="49.105801" lon="7.47704">
        <ele>280</ele>
        <time>2010-12-10T03:09:53Z</time>
        <course>191.061502091777</course>
        <speed>8.32326342795656</speed>
      </trkpt>
      <trkpt lat="49.105209" lon="7.47733">
        <ele>277</ele>
        <time>2010-12-10T03:10:02Z</time>
        <course>193.034266073755</course>
        <speed>8.32062623529254</speed>
      </trkpt>
      <trkpt lat="49.10416" lon="7.47794">
        <ele>272</ele>
        <time>2010-12-10T03:10:17Z</time>
        <course>185.475666522933</course>
        <speed>3.85827299794547</speed>
      </trkpt>
      <trkpt lat="49.103828" lon="7.47802">
        <ele>274</ele>
        <time>2010-12-10T03:10:26Z</time>
        <course>176.400803948354</course>
        <speed>3.85812252426432</speed>
      </trkpt>
      <trkpt lat="49.103512" lon="7.47797">
        <ele>276</ele>
        <time>2010-12-10T03:10:36Z</time>
        <course>171.085625524972</course>
        <speed>3.85794059514707</speed>
      </trkpt>
      <trkpt lat="49.103031" lon="7.47778">
        <ele>279</ele>
        <time>2010-12-10T03:10:50Z</time>
        <course>172.570918624821</course>
        <speed>3.85848697045575</speed>
      </trkpt>
      <trkpt lat="49.10218" lon="7.4775">
        <ele>285</ele>
        <time>2010-12-10T03:11:15Z</time>
        <course>169.967725391548</course>
        <speed>8.3180162498105</speed>
      </trkpt>
      <trkpt lat="49.101509" lon="7.4772">
        <ele>280</ele>
        <time>2010-12-10T03:11:24Z</time>
        <course>167.08920445257</course>
        <speed>8.32368182608221</speed>
      </trkpt>
      <trkpt lat="49.101009" lon="7.47691">
        <ele>277</ele>
        <time>2010-12-10T03:11:31Z</time>
        <course>163.500944841282</course>
        <speed>8.32230127348071</speed>
      </trkpt>
      <trkpt lat="49.100689" lon="7.47667">
        <ele>275</ele>
        <time>2010-12-10T03:11:36Z</time>
        <course>160.229864984814</course>
        <speed>8.31789381795638</speed>
      </trkpt>
      <trkpt lat="49.100239" lon="7.47626">
        <ele>272</ele>
        <time>2010-12-10T03:11:43Z</time>
        <course>164.224740289881</course>
        <speed>5.12687166309416</speed>
      </trkpt>
      <trkpt lat="49.099709" lon="7.47588">
        <ele>274</ele>
        <time>2010-12-10T03:11:56Z</time>
        <course>170.764913557653</course>
        <speed>5.13160441937423</speed>
      </trkpt>
      <trkpt lat="49.099491" lon="7.47579">
        <ele>274</ele>
        <time>2010-12-10T03:12:01Z</time>
        <course>184.345251642569</course>
        <speed>5.12527846649487</speed>
      </trkpt>
      <trkpt lat="49.099232" lon="7.47584">
        <ele>275</ele>
        <time>2010-12-10T03:12:06Z</time>
        <course>194.468076730145</course>
        <speed>5.12268100195696</speed>
      </trkpt>
      <trkpt lat="49.09911" lon="7.47592">
        <ele>276</ele>
        <time>2010-12-10T03:12:09Z</time>
        <course>199.747449713745</course>
        <speed>5.12296421581815</speed>
      </trkpt>
      <trkpt lat="49.098869" lon="7.47614">
        <ele>277</ele>
        <time>2010-12-10T03:12:15Z</time>
        <course>203.376590744212</course>
        <speed>5.12697759899072</speed>
      </trkpt>
      <trkpt lat="49.0975" lon="7.47765">
        <ele>283</ele>
        <time>2010-12-10T03:12:52Z</time>
        <course>198.456239676597</course>
        <speed>8.31657273146566</speed>
      </trkpt>
      <trkpt lat="49.097019" lon="7.47806">
        <ele>280</ele>
        <time>2010-12-10T03:12:59Z</time>
        <course>191.735810148508</course>
        <speed>8.32597639725268</speed>
      </trkpt>
      <trkpt lat="49.09668" lon="7.47824">
        <ele>279</ele>
        <time>2010-12-10T03:13:04Z</time>
        <course>184.967003749439</course>
        <speed>8.31779157007477</speed>
      </trkpt>
      <trkpt lat="49.0965" lon="7.47828">
        <ele>278</ele>
        <time>2010-12-10T03:13:07Z</time>
        <course>181.94458379633</course>
        <speed>8.32036677143028</speed>
      </trkpt>
      <trkpt lat="49.09581" lon="7.47834">
        <ele>276</ele>
        <time>2010-12-10T03:13:16Z</time>
        <course>178.028421703604</course>
        <speed>8.31731990660006</speed>
      </trkpt>
      <trkpt lat="49.09547" lon="7.47831">
        <ele>275</ele>
        <time>2010-12-10T03:13:20Z</time>
        <course>184.18222964975</course>
        <speed>6.07210123220407</speed>
      </trkpt>
      <trkpt lat="49.09531" lon="7.47834">
        <ele>275</ele>
        <time>2010-12-10T03:13:23Z</time>
        <course>189.550785548062</course>
        <speed>6.06914134574801</speed>
      </trkpt>
      <trkpt lat="49.094662" lon="7.47862">
        <ele>276</ele>
        <time>2010-12-10T03:13:36Z</time>
        <course>186.945536522264</course>
        <speed>6.06951707705333</speed>
      </trkpt>
      <trkpt lat="49.093578" lon="7.47896">
        <ele>279</ele>
        <time>2010-12-10T03:13:56Z</time>
        <course>184.956217971001</course>
        <speed>5.69470395525672</speed>
      </trkpt>
      <trkpt lat="49.09322" lon="7.47904">
        <ele>279</ele>
        <time>2010-12-10T03:14:03Z</time>
        <course>183.081350570159</course>
        <speed>5.69253856967488</speed>
      </trkpt>
      <trkpt lat="49.09164" lon="7.47926">
        <ele>284</ele>
        <time>2010-12-10T03:14:34Z</time>
        <course>190.857637797587</course>
        <speed>5.58478645533688</speed>
      </trkpt>
      <trkpt lat="49.091358" lon="7.4794">
        <ele>284</ele>
        <time>2010-12-10T03:14:40Z</time>
        <course>202.237618019729</course>
        <speed>5.58708566719027</speed>
      </trkpt>
      <trkpt lat="49.09066" lon="7.48014">
        <ele>287</ele>
        <time>2010-12-10T03:14:57Z</time>
        <course>210.880319084796</course>
        <speed>5.58913767086876</speed>
      </trkpt>
      <trkpt lat="49.09037" lon="7.48059">
        <ele>288</ele>
        <time>2010-12-10T03:15:05Z</time>
        <course>204.379722244937</course>
        <speed>5.58569216529675</speed>
      </trkpt>
      <trkpt lat="49.090149" lon="7.48085">
        <ele>289</ele>
        <time>2010-12-10T03:15:10Z</time>
        <course>196.501320801188</course>
        <speed>8.33760487218297</speed>
      </trkpt>
      <trkpt lat="49.090019" lon="7.48095">
        <ele>288</ele>
        <time>2010-12-10T03:15:12Z</time>
        <course>188.821647018225</course>
        <speed>8.3097247897278</speed>
      </trkpt>
      <trkpt lat="49.089771" lon="7.48105">
        <ele>287</ele>
        <time>2010-12-10T03:15:16Z</time>
        <course>178.193556308203</course>
        <speed>8.32893055720123</speed>
      </trkpt>
      <trkpt lat="49.089649" lon="7.48104">
        <ele>287</ele>
        <time>2010-12-10T03:15:17Z</time>
        <course>170.082072662268</course>
        <speed>8.3354558235204</speed>
      </trkpt>
      <trkpt lat="49.089539" lon="7.48099">
        <ele>287</ele>
        <time>2010-12-10T03:15:19Z</time>
        <course>160.362946983398</course>
        <speed>8.31387108908591</speed>
      </trkpt>
      <trkpt lat="49.089119" lon="7.4806">
        <ele>286</ele>
        <time>2010-12-10T03:15:26Z</time>
        <course>156.963933682577</course>
        <speed>8.31401047526754</speed>
      </trkpt>
      <trkpt lat="49.088821" lon="7.48027">
        <ele>285</ele>
        <time>2010-12-10T03:15:30Z</time>
        <course>153.522652246294</course>
        <speed>8.31505401602417</speed>
      </trkpt>
      <trkpt lat="49.088459" lon="7.4798">
        <ele>284</ele>
        <time>2010-12-10T03:15:37Z</time>
        <course>169.035999209251</course>
        <speed>4.32350947084526</speed>
      </trkpt>
      <trkpt lat="49.08836" lon="7.47975">
        <ele>284</ele>
        <time>2010-12-10T03:15:40Z</time>
        <course>180</course>
        <speed>4.33105511798117</speed>
      </trkpt>
      <trkpt lat="49.088261" lon="7.47975">
        <ele>285</ele>
        <time>2010-12-10T03:15:42Z</time>
        <course>191.770445498461</course>
        <speed>4.32321372449716</speed>
      </trkpt>
      <trkpt lat="49.088169" lon="7.4798">
        <ele>285</ele>
        <time>2010-12-10T03:15:45Z</time>
        <course>203.219593802124</course>
        <speed>4.3206446500542</speed>
      </trkpt>
      <trkpt lat="49.08791" lon="7.48009">
        <ele>287</ele>
        <time>2010-12-10T03:15:53Z</time>
        <course>211.863199175795</course>
        <speed>4.31994029492152</speed>
      </trkpt>
      <trkpt lat="49.087719" lon="7.4804">
        <ele>288</ele>
        <time>2010-12-10T03:16:00Z</time>
        <course>240.609911712819</course>
        <speed>4.32399599032973</speed>
      </trkpt>
      <trkpt lat="49.08765" lon="7.48072">
        <ele>289</ele>
        <time>2010-12-10T03:16:06Z</time>
        <course>265.016226924915</course>
        <speed>4.32484656447865</speed>
      </trkpt>
      <trkpt lat="49.087639" lon="7.48105">
        <ele>290</ele>
        <time>2010-12-10T03:16:11Z</time>
        <course>288.060223758892</course>
        <speed>4.32227987397661</speed>
      </trkpt>
      <trkpt lat="49.087719" lon="7.48169">
        <ele>293</ele>
        <time>2010-12-10T03:16:22Z</time>
        <course>272.869465906192</course>
        <speed>4.32276010210899</speed>
      </trkpt>
      <trkpt lat="49.08773" lon="7.48226">
        <ele>295</ele>
        <time>2010-12-10T03:16:32Z</time>
        <course>245.521156596405</course>
        <speed>8.31451128580411</speed>
      </trkpt>
      <trkpt lat="49.087669" lon="7.48261">
        <ele>294</ele>
        <time>2010-12-10T03:16:35Z</time>
        <course>230.198504841678</course>
        <speed>8.31914514457215</speed>
      </trkpt>
      <trkpt lat="49.087551" lon="7.48298">
        <ele>293</ele>
        <time>2010-12-10T03:16:39Z</time>
        <course>214.37352562156</course>
        <speed>8.32220765126334</speed>
      </trkpt>
      <trkpt lat="49.087372" lon="7.4833">
        <ele>292</ele>
        <time>2010-12-10T03:16:42Z</time>
        <course>205.101033886539</course>
        <speed>8.3221074455172</speed>
      </trkpt>
      <trkpt lat="49.08707" lon="7.48367">
        <ele>290</ele>
        <time>2010-12-10T03:16:47Z</time>
        <course>199.343821755499</course>
        <speed>8.31639592188666</speed>
      </trkpt>
      <trkpt lat="49.0867" lon="7.48401">
        <ele>288</ele>
        <time>2010-12-10T03:16:53Z</time>
        <course>202.581130213455</course>
        <speed>8.32963918005218</speed>
      </trkpt>
      <trkpt lat="49.086498" lon="7.48423">
        <ele>288</ele>
        <time>2010-12-10T03:16:56Z</time>
        <course>209.840650661134</course>
        <speed>4.69647558519179</speed>
      </trkpt>
      <trkpt lat="49.08588" lon="7.48516">
        <ele>291</ele>
        <time>2010-12-10T03:17:17Z</time>
        <course>190.619246441047</course>
        <speed>4.68503621165215</speed>
      </trkpt>
      <trkpt lat="49.085819" lon="7.48519">
        <ele>292</ele>
        <time>2010-12-10T03:17:19Z</time>
        <course>269.999735157042</course>
        <speed>8.08617611716424</speed>
      </trkpt>
      <trkpt lat="49.085819" lon="7.4852">
        <ele>292</ele>
        <time>2010-12-10T03:17:19Z</time>
        <course>190.895949888868</course>
        <speed>3.9013690690058</speed>
      </trkpt>
      <trkpt lat="49.08572" lon="7.48525">
        <ele>292</ele>
        <time>2010-12-10T03:17:22Z</time>
        <course>175.641364971656</course>
        <speed>3.89129186818941</speed>
      </trkpt>
      <trkpt lat="49.08567" lon="7.48524">
        <ele>292</ele>
        <time>2010-12-10T03:17:23Z</time>
        <course>153.324033047361</course>
        <speed>3.89535401858873</speed>
      </trkpt>
      <trkpt lat="49.085579" lon="7.48512">
        <ele>293</ele>
        <time>2010-12-10T03:17:26Z</time>
        <course>133.037904883312</course>
        <speed>3.89791630117101</speed>
      </trkpt>
      <trkpt lat="49.085419" lon="7.48467">
        <ele>295</ele>
        <time>2010-12-10T03:17:36Z</time>
        <course>145.31311571303</course>
        <speed>3.89767558155503</speed>
      </trkpt>
      <trkpt lat="49.085232" lon="7.48433">
        <ele>297</ele>
        <time>2010-12-10T03:17:44Z</time>
        <course>159.48041906782</course>
        <speed>3.90147570380519</speed>
      </trkpt>
      <trkpt lat="49.085049" lon="7.48415">
        <ele>299</ele>
        <time>2010-12-10T03:17:51Z</time>
        <course>166.495797206056</course>
        <speed>3.9000052808629</speed>
      </trkpt>
      <trkpt lat="49.084511" lon="7.48381">
        <ele>302</ele>
        <time>2010-12-10T03:18:07Z</time>
        <course>159.332900341659</course>
        <speed>3.89830566680531</speed>
      </trkpt>
      <trkpt lat="49.084209" lon="7.48351">
        <ele>305</ele>
        <time>2010-12-10T03:18:17Z</time>
        <course>154.452784330054</course>
        <speed>5.24136190033565</speed>
      </trkpt>
      <trkpt lat="49.082958" lon="7.48193">
        <ele>310</ele>
        <time>2010-12-10T03:18:52Z</time>
        <course>147.744676895081</course>
        <speed>5.24102630317793</speed>
      </trkpt>
      <trkpt lat="49.082401" lon="7.481">
        <ele>313</ele>
        <time>2010-12-10T03:19:09Z</time>
        <course>156.335858693031</course>
        <speed>4.94829935175085</speed>
      </trkpt>
      <trkpt lat="49.082039" lon="7.48058">
        <ele>314</ele>
        <time>2010-12-10T03:19:20Z</time>
        <course>162.039615501345</course>
        <speed>4.94943294064975</speed>
      </trkpt>
      <trkpt lat="49.081841" lon="7.48041">
        <ele>315</ele>
        <time>2010-12-10T03:19:25Z</time>
        <course>167.412642201098</course>
        <speed>4.94906510505268</speed>
      </trkpt>
      <trkpt lat="49.08152" lon="7.48022">
        <ele>316</ele>
        <time>2010-12-10T03:19:32Z</time>
        <course>171.571070265457</course>
        <speed>4.94840895550886</speed>
      </trkpt>
      <trkpt lat="49.081291" lon="7.48013">
        <ele>317</ele>
        <time>2010-12-10T03:19:38Z</time>
        <course>175.703477114398</course>
        <speed>4.94773136618226</speed>
      </trkpt>
      <trkpt lat="49.08094" lon="7.48006">
        <ele>319</ele>
        <time>2010-12-10T03:19:46Z</time>
        <course>180.941939714799</course>
        <speed>4.94308479220405</speed>
      </trkpt>
      <trkpt lat="49.080711" lon="7.48007">
        <ele>320</ele>
        <time>2010-12-10T03:19:51Z</time>
        <course>186.259441474928</course>
        <speed>8.31580427899797</speed>
      </trkpt>
      <trkpt lat="49.080231" lon="7.48021">
        <ele>316</ele>
        <time>2010-12-10T03:19:57Z</time>
        <course>193.251705204155</course>
        <speed>8.31599706569544</speed>
      </trkpt>
      <trkpt lat="49.07988" lon="7.48043">
        <ele>313</ele>
        <time>2010-12-10T03:20:02Z</time>
        <course>199.259848762083</course>
        <speed>8.31923232402221</speed>
      </trkpt>
      <trkpt lat="49.078018" lon="7.48217">
        <ele>296</ele>
        <time>2010-12-10T03:20:32Z</time>
        <course>197.032853982171</course>
        <speed>3.92444613997118</speed>
      </trkpt>
      <trkpt lat="49.077579" lon="7.48253">
        <ele>299</ele>
        <time>2010-12-10T03:20:46Z</time>
        <course>190.426817595614</course>
        <speed>3.9250127472069</speed>
      </trkpt>
      <trkpt lat="49.076809" lon="7.48291">
        <ele>304</ele>
        <time>2010-12-10T03:21:09Z</time>
        <course>193.719070905842</course>
        <speed>3.92689113231746</speed>
      </trkpt>
      <trkpt lat="49.076519" lon="7.4831">
        <ele>306</ele>
        <time>2010-12-10T03:21:17Z</time>
        <course>199.037034245704</course>
        <speed>3.92390669310512</speed>
      </trkpt>
      <trkpt lat="49.07626" lon="7.48334">
        <ele>308</ele>
        <time>2010-12-10T03:21:26Z</time>
        <course>205.579338289104</course>
        <speed>3.49143319907747</speed>
      </trkpt>
      <trkpt lat="49.076019" lon="7.48365">
        <ele>310</ele>
        <time>2010-12-10T03:21:36Z</time>
        <course>212.71259764729</course>
        <speed>3.49263957767275</speed>
      </trkpt>
      <trkpt lat="49.075279" lon="7.48493">
        <ele>319</ele>
        <time>2010-12-10T03:22:12Z</time>
        <course>204.892238490337</course>
        <speed>3.49193311202672</speed>
      </trkpt>
      <trkpt lat="49.075031" lon="7.48524">
        <ele>321</ele>
        <time>2010-12-10T03:22:22Z</time>
        <course>198.204453783752</course>
        <speed>3.49101158358499</speed>
      </trkpt>
      <trkpt lat="49.074749" lon="7.48549">
        <ele>324</ele>
        <time>2010-12-10T03:22:32Z</time>
        <course>192.620917426097</course>
        <speed>4.78010362094454</speed>
      </trkpt>
      <trkpt lat="49.074451" lon="7.48567">
        <ele>325</ele>
        <time>2010-12-10T03:22:40Z</time>
        <course>187.440333465681</course>
        <speed>4.7825384974301</speed>
      </trkpt>
      <trkpt lat="49.074139" lon="7.48578">
        <ele>326</ele>
        <time>2010-12-10T03:22:47Z</time>
        <course>182.640615989775</course>
        <speed>4.78451404041235</speed>
      </trkpt>
      <trkpt lat="49.073818" lon="7.48582">
        <ele>327</ele>
        <time>2010-12-10T03:22:55Z</time>
        <course>176.452249635608</course>
        <speed>4.78234871546425</speed>
      </trkpt>
      <trkpt lat="49.073341" lon="7.48574">
        <ele>329</ele>
        <time>2010-12-10T03:23:06Z</time>
        <course>168.95753314344</course>
        <speed>4.78256068758283</speed>
      </trkpt>
      <trkpt lat="49.072868" lon="7.48549">
        <ele>332</ele>
        <time>2010-12-10T03:23:17Z</time>
        <course>161.696806770568</course>
        <speed>8.32335289672327</speed>
      </trkpt>
      <trkpt lat="49.072578" lon="7.48523">
        <ele>331</ele>
        <time>2010-12-10T03:23:22Z</time>
        <course>152.829650732895</course>
        <speed>8.31754508196409</speed>
      </trkpt>
      <trkpt lat="49.07008" lon="7.48173">
        <ele>330</ele>
        <time>2010-12-10T03:24:07Z</time>
        <course>149.833632504419</course>
        <speed>8.31837800600316</speed>
      </trkpt>
      <trkpt lat="49.067501" lon="7.47761">
        <ele>326</ele>
        <time>2010-12-10T03:24:57Z</time>
        <course>142.707014605318</course>
        <speed>8.32344832122763</speed>
      </trkpt>
      <trkpt lat="49.0672" lon="7.47698">
        <ele>324</ele>
        <time>2010-12-10T03:25:04Z</time>
        <course>127.845767082828</course>
        <speed>8.32695957655582</speed>
      </trkpt>
      <trkpt lat="49.06707" lon="7.47652">
        <ele>324</ele>
        <time>2010-12-10T03:25:08Z</time>
        <course>118.702842571944</course>
        <speed>8.31919902841683</speed>
      </trkpt>
      <trkpt lat="49.066879" lon="7.47556">
        <ele>322</ele>
        <time>2010-12-10T03:25:17Z</time>
        <course>116.256767876807</course>
        <speed>8.3168481573685</speed>
      </trkpt>
      <trkpt lat="49.066368" lon="7.4727">
        <ele>319</ele>
        <time>2010-12-10T03:25:43Z</time>
        <course>125.845838593733</course>
        <speed>8.3227300103935</speed>
      </trkpt>
      <trkpt lat="49.06625" lon="7.47225">
        <ele>317</ele>
        <time>2010-12-10T03:25:47Z</time>
        <course>138.259133122912</course>
        <speed>8.32262144051974</speed>
      </trkpt>
      <trkpt lat="49.066002" lon="7.47164">
        <ele>316</ele>
        <time>2010-12-10T03:25:53Z</time>
        <course>150.133118512599</course>
        <speed>8.32684426975902</speed>
      </trkpt>
      <trkpt lat="49.065781" lon="7.47129">
        <ele>315</ele>
        <time>2010-12-10T03:25:58Z</time>
        <course>155.719576094776</course>
        <speed>8.32709471864839</speed>
      </trkpt>
      <trkpt lat="49.06554" lon="7.47099">
        <ele>314</ele>
        <time>2010-12-10T03:26:02Z</time>
        <course>161.495113814907</course>
        <speed>8.31848313894439</speed>
      </trkpt>
      <trkpt lat="49.064041" lon="7.4696">
        <ele>308</ele>
        <time>2010-12-10T03:26:25Z</time>
        <course>161.37207175033</course>
        <speed>8.31569984249145</speed>
      </trkpt>
      <trkpt lat="49.063549" lon="7.46914">
        <ele>303</ele>
        <time>2010-12-10T03:26:33Z</time>
        <course>158.750594147547</course>
        <speed>8.31220486831898</speed>
      </trkpt>
      <trkpt lat="49.06316" lon="7.46872">
        <ele>299</ele>
        <time>2010-12-10T03:26:39Z</time>
        <course>150.314244247301</course>
        <speed>8.32709118187332</speed>
      </trkpt>
      <trkpt lat="49.062939" lon="7.46837">
        <ele>296</ele>
        <time>2010-12-10T03:26:44Z</time>
        <course>139.681877393833</course>
        <speed>8.31487268358122</speed>
      </trkpt>
      <trkpt lat="49.062672" lon="7.46774">
        <ele>293</ele>
        <time>2010-12-10T03:26:50Z</time>
        <course>129.016701523477</course>
        <speed>6.26550283991686</speed>
      </trkpt>
      <trkpt lat="49.062538" lon="7.46728">
        <ele>293</ele>
        <time>2010-12-10T03:26:56Z</time>
        <course>115.374616510829</course>
        <speed>6.26478472713427</speed>
      </trkpt>
      <trkpt lat="49.061661" lon="7.4621">
        <ele>300</ele>
        <time>2010-12-10T03:27:58Z</time>
        <course>122.925220636179</course>
        <speed>5.78718408913481</speed>
      </trkpt>
      <trkpt lat="49.061089" lon="7.45963">
        <ele>304</ele>
        <time>2010-12-10T03:28:31Z</time>
        <course>129.354483856684</course>
        <speed>5.78707184157804</speed>
      </trkpt>
      <trkpt lat="49.060951" lon="7.45916">
        <ele>305</ele>
        <time>2010-12-10T03:28:38Z</time>
        <course>132.820751569625</course>
        <speed>8.31905748088828</speed>
      </trkpt>
      <trkpt lat="49.059818" lon="7.45573">
        <ele>303</ele>
        <time>2010-12-10T03:29:11Z</time>
        <course>134.519566500545</course>
        <speed>8.31901576983876</speed>
      </trkpt>
      <trkpt lat="49.059212" lon="7.454">
        <ele>303</ele>
        <time>2010-12-10T03:29:28Z</time>
        <course>139.52612370312</course>
        <speed>8.32212306689267</speed>
      </trkpt>
      <trkpt lat="49.058899" lon="7.45325">
        <ele>303</ele>
        <time>2010-12-10T03:29:36Z</time>
        <course>142.847447491126</course>
        <speed>8.3161662415648</speed>
      </trkpt>
      <trkpt lat="49.05835" lon="7.45208">
        <ele>301</ele>
        <time>2010-12-10T03:29:49Z</time>
        <course>148.66498279553</course>
        <speed>8.31479695572133</speed>
      </trkpt>
      <trkpt lat="49.058029" lon="7.45153">
        <ele>300</ele>
        <time>2010-12-10T03:29:55Z</time>
        <course>155.041728171812</course>
        <speed>8.31934434110656</speed>
      </trkpt>
      <trkpt lat="49.05764" lon="7.45102">
        <ele>300</ele>
        <time>2010-12-10T03:30:02Z</time>
        <course>155.080990967069</course>
        <speed>7.49983076174231</speed>
      </trkpt>
      <trkpt lat="49.057388" lon="7.45069">
        <ele>300</ele>
        <time>2010-12-10T03:30:07Z</time>
        <course>152.623252236357</course>
        <speed>7.49452325259888</speed>
      </trkpt>
      <trkpt lat="49.057121" lon="7.4503">
        <ele>300</ele>
        <time>2010-12-10T03:30:13Z</time>
        <course>145.248020409887</course>
        <speed>7.49680617699892</speed>
      </trkpt>
      <trkpt lat="49.056728" lon="7.44953">
        <ele>300</ele>
        <time>2010-12-10T03:30:22Z</time>
        <course>138.975228125251</course>
        <speed>7.49735006707096</speed>
      </trkpt>
      <trkpt lat="49.05571" lon="7.44702">
        <ele>302</ele>
        <time>2010-12-10T03:30:51Z</time>
        <course>133.017566205801</course>
        <speed>4.88630996805836</speed>
      </trkpt>
      <trkpt lat="49.054451" lon="7.44318">
        <ele>313</ele>
        <time>2010-12-10T03:31:55Z</time>
        <course>134.114497546834</course>
        <speed>6.2041222532561</speed>
      </trkpt>
      <trkpt lat="49.05426" lon="7.44262">
        <ele>313</ele>
        <time>2010-12-10T03:32:02Z</time>
        <course>287.616215042078</course>
        <speed>6.2170546810923</speed>
      </trkpt>
      <trkpt lat="49.054279" lon="7.44279">
        <ele>314</ele>
        <time>2010-12-10T03:32:04Z</time>
        <course>287.616215042078</course>
        <speed>6.2170546810923</speed>
      </trkpt>
      <trkpt lat="49.054279" lon="7.44279">
        <ele>314</ele>
        <time>2010-12-10T03:32:05Z</time>
        <course>107.625332370342</course>
        <speed>7.5653315998834</speed>
      </trkpt>
      <trkpt lat="49.05426" lon="7.44262">
        <ele>314</ele>
        <time>2010-12-10T03:32:07Z</time>
        <course>107.288626878337</course>
        <speed>7.56624188365785</speed>
      </trkpt>
      <trkpt lat="49.053982" lon="7.44007">
        <ele>315</ele>
        <time>2010-12-10T03:32:32Z</time>
        <course>104.872315735392</course>
        <speed>8.32087024248507</speed>
      </trkpt>
      <trkpt lat="49.05386" lon="7.43876">
        <ele>312</ele>
        <time>2010-12-10T03:32:43Z</time>
        <course>90.0064367513044</course>
        <speed>8.32256145079598</speed>
      </trkpt>
      <trkpt lat="49.05386" lon="7.43852">
        <ele>312</ele>
        <time>2010-12-10T03:32:45Z</time>
        <course>90.0040229695615</course>
        <speed>8.33844420166183</speed>
      </trkpt>
      <trkpt lat="49.05386" lon="7.43837">
        <ele>311</ele>
        <time>2010-12-10T03:32:47Z</time>
        <course>5.90348676141724</course>
        <speed>8.27445677636186</speed>
      </trkpt>
      <trkpt lat="49.053928" lon="7.43835">
        <ele>311</ele>
        <time>2010-12-10T03:32:48Z</time>
        <course>13.5415479092285</course>
        <speed>8.30979110522383</speed>
      </trkpt>
      <trkpt lat="49.054001" lon="7.4383">
        <ele>311</ele>
        <time>2010-12-10T03:32:49Z</time>
        <course>39.37108502176</course>
        <speed>8.34357174331074</speed>
      </trkpt>
      <trkpt lat="49.054031" lon="7.43823">
        <ele>311</ele>
        <time>2010-12-10T03:32:49Z</time>
        <course>75.817110931151</course>
        <speed>8.26750870859541</speed>
      </trkpt>
      <trkpt lat="49.054039" lon="7.43814">
        <ele>311</ele>
        <time>2010-12-10T03:32:50Z</time>
        <course>102.818750914306</course>
        <speed>8.33667486179117</speed>
      </trkpt>
      <trkpt lat="49.054031" lon="7.43804">
        <ele>311</ele>
        <time>2010-12-10T03:32:51Z</time>
        <course>136.842886656385</course>
        <speed>8.28656655077659</speed>
      </trkpt>
      <trkpt lat="49.054001" lon="7.43796">
        <ele>310</ele>
        <time>2010-12-10T03:32:52Z</time>
        <course>169.096254572361</course>
        <speed>8.28741184987638</speed>
      </trkpt>
      <trkpt lat="49.053928" lon="7.43792">
        <ele>310</ele>
        <time>2010-12-10T03:32:53Z</time>
        <course>180</course>
        <speed>8.30347252768851</speed>
      </trkpt>
      <trkpt lat="49.05386" lon="7.43792">
        <ele>310</ele>
        <time>2010-12-10T03:32:54Z</time>
        <course>189.806165264342</course>
        <speed>8.28103103321641</speed>
      </trkpt>
      <trkpt lat="49.053799" lon="7.43795">
        <ele>310</ele>
        <time>2010-12-10T03:32:55Z</time>
        <course>117.249971879649</course>
        <speed>8.30627311642327</speed>
      </trkpt>
      <trkpt lat="49.053761" lon="7.43774">
        <ele>310</ele>
        <time>2010-12-10T03:32:57Z</time>
        <course>113.124071151157</course>
        <speed>8.33371105528273</speed>
      </trkpt>
      <trkpt lat="49.053719" lon="7.43746">
        <ele>310</ele>
        <time>2010-12-10T03:32:59Z</time>
        <course>107.202819355396</course>
        <speed>8.32256149342535</speed>
      </trkpt>
      <trkpt lat="49.053669" lon="7.437">
        <ele>310</ele>
        <time>2010-12-10T03:33:03Z</time>
        <course>113.403551263237</course>
        <speed>8.30619938198813</speed>
      </trkpt>
      <trkpt lat="49.053631" lon="7.43675">
        <ele>310</ele>
        <time>2010-12-10T03:33:05Z</time>
        <course>123.7470828056</course>
        <speed>8.31019558240506</speed>
      </trkpt>
      <trkpt lat="49.05357" lon="7.43649">
        <ele>310</ele>
        <time>2010-12-10T03:33:08Z</time>
        <course>138.439261011665</course>
        <speed>8.30909854238371</speed>
      </trkpt>
      <trkpt lat="49.053471" lon="7.43624">
        <ele>310</ele>
        <time>2010-12-10T03:33:10Z</time>
        <course>144.028607607581</course>
        <speed>8.31420649131013</speed>
      </trkpt>
      <trkpt lat="49.053181" lon="7.43564">
        <ele>310</ele>
        <time>2010-12-10T03:33:17Z</time>
        <course>138.417810717936</course>
        <speed>8.312524109736</speed>
      </trkpt>
      <trkpt lat="49.05294" lon="7.43503">
        <ele>310</ele>
        <time>2010-12-10T03:33:23Z</time>
        <course>143.915567140928</course>
        <speed>8.31726348451368</speed>
      </trkpt>
      <trkpt lat="49.05257" lon="7.43426">
        <ele>309</ele>
        <time>2010-12-10T03:33:32Z</time>
        <course>143.21856638969</course>
        <speed>8.31659723480157</speed>
      </trkpt>
      <trkpt lat="49.052219" lon="7.43351">
        <ele>308</ele>
        <time>2010-12-10T03:33:40Z</time>
        <course>42.6458491140715</course>
        <speed>8.25304644334692</speed>
      </trkpt>
      <trkpt lat="49.052238" lon="7.43346">
        <ele>308</ele>
        <time>2010-12-10T03:33:40Z</time>
        <course>90.0018785265891</course>
        <speed>8.35694296690578</speed>
      </trkpt>
      <trkpt lat="49.052238" lon="7.43339">
        <ele>308</ele>
        <time>2010-12-10T03:33:41Z</time>
        <course>132.141397227722</course>
        <speed>8.36694312228215</speed>
      </trkpt>
      <trkpt lat="49.052219" lon="7.43333">
        <ele>308</ele>
        <time>2010-12-10T03:33:41Z</time>
        <course>159.779061205512</course>
        <speed>8.27398064497937</speed>
      </trkpt>
      <trkpt lat="49.052181" lon="7.43329">
        <ele>308</ele>
        <time>2010-12-10T03:33:42Z</time>
        <course>180</course>
        <speed>8.3339999988831</speed>
      </trkpt>
      <trkpt lat="49.052139" lon="7.43329">
        <ele>308</ele>
        <time>2010-12-10T03:33:43Z</time>
        <course>186.651804971737</course>
        <speed>8.32248460515629</speed>
      </trkpt>
      <trkpt lat="49.052109" lon="7.4333">
        <ele>308</ele>
        <time>2010-12-10T03:33:43Z</time>
        <course>135.638168762801</course>
        <speed>8.32115817459185</speed>
      </trkpt>
      <trkpt lat="49.051991" lon="7.43297">
        <ele>307</ele>
        <time>2010-12-10T03:33:46Z</time>
        <course>140.395941191344</course>
        <speed>8.32072282844597</speed>
      </trkpt>
      <trkpt lat="49.05159" lon="7.43202">
        <ele>307</ele>
        <time>2010-12-10T03:33:56Z</time>
        <course>141.934203546141</course>
        <speed>7.0807390321067</speed>
      </trkpt>
      <trkpt lat="49.051109" lon="7.43094">
        <ele>307</ele>
        <time>2010-12-10T03:34:10Z</time>
        <course>143.750322722129</course>
        <speed>7.08336339012624</speed>
      </trkpt>
      <trkpt lat="49.050838" lon="7.43037">
        <ele>308</ele>
        <time>2010-12-10T03:34:17Z</time>
        <course>141.097005135241</course>
        <speed>7.08018680497462</speed>
      </trkpt>
      <trkpt lat="49.050579" lon="7.42977">
        <ele>308</ele>
        <time>2010-12-10T03:34:24Z</time>
        <course>144.312488924144</course>
        <speed>7.08402422267389</speed>
      </trkpt>
      <trkpt lat="49.050419" lon="7.42944">
        <ele>309</ele>
        <time>2010-12-10T03:34:28Z</time>
        <course>143.588337139833</course>
        <speed>8.31000354242321</speed>
      </trkpt>
      <trkpt lat="49.050301" lon="7.42919">
        <ele>306</ele>
        <time>2010-12-10T03:34:31Z</time>
        <course>175.373056233361</course>
        <speed>8.3333493894378</speed>
      </trkpt>
      <trkpt lat="49.050129" lon="7.42915">
        <ele>304</ele>
        <time>2010-12-10T03:34:33Z</time>
        <course>191.660818340001</course>
        <speed>8.32445565655038</speed>
      </trkpt>
      <trkpt lat="49.050011" lon="7.42922">
        <ele>302</ele>
        <time>2010-12-10T03:34:35Z</time>
        <course>194.976754330244</course>
        <speed>8.33896917102561</speed>
      </trkpt>
      <trkpt lat="49.049881" lon="7.42932">
        <ele>300</ele>
        <time>2010-12-10T03:34:37Z</time>
        <course>191.281005773057</course>
        <speed>8.3238535112987</speed>
      </trkpt>
      <trkpt lat="49.049759" lon="7.42939">
        <ele>298</ele>
        <time>2010-12-10T03:34:39Z</time>
        <course>171.022120505472</course>
        <speed>8.29533740023446</speed>
      </trkpt>
      <trkpt lat="49.049671" lon="7.42935">
        <ele>297</ele>
        <time>2010-12-10T03:34:40Z</time>
        <course>53.3063661355935</course>
        <speed>8.3230800971255</speed>
      </trkpt>
      <trkpt lat="49.049728" lon="7.42913">
        <ele>295</ele>
        <time>2010-12-10T03:34:42Z</time>
        <course>53.3872933788524</course>
        <speed>8.31309542396267</speed>
      </trkpt>
      <trkpt lat="49.049759" lon="7.42901">
        <ele>294</ele>
        <time>2010-12-10T03:34:43Z</time>
        <course>116.358558192874</course>
        <speed>8.31543244999988</speed>
      </trkpt>
      <trkpt lat="49.049728" lon="7.42883">
        <ele>292</ele>
        <time>2010-12-10T03:34:45Z</time>
        <course>153.996079732463</course>
        <speed>8.35533069409385</speed>
      </trkpt>
      <trkpt lat="49.049671" lon="7.42875">
        <ele>291</ele>
        <time>2010-12-10T03:34:46Z</time>
        <course>167.095492673254</course>
        <speed>8.34521715233594</speed>
      </trkpt>
      <trkpt lat="49.04958" lon="7.42869">
        <ele>290</ele>
        <time>2010-12-10T03:34:47Z</time>
        <course>176.658691273898</course>
        <speed>8.31453795030939</speed>
      </trkpt>
      <trkpt lat="49.049461" lon="7.42867">
        <ele>289</ele>
        <time>2010-12-10T03:34:49Z</time>
        <course>180</course>
        <speed>8.31510204099971</speed>
      </trkpt>
      <trkpt lat="49.049351" lon="7.42867">
        <ele>287</ele>
        <time>2010-12-10T03:34:50Z</time>
        <course>166.708104948505</course>
        <speed>8.32972008414486</speed>
      </trkpt>
      <trkpt lat="49.04916" lon="7.42854">
        <ele>285</ele>
        <time>2010-12-10T03:34:53Z</time>
        <course>162.771492321245</course>
        <speed>5.73444763883811</speed>
      </trkpt>
      <trkpt lat="49.048981" lon="7.42838">
        <ele>285</ele>
        <time>2010-12-10T03:34:57Z</time>
        <course>163.216739009239</course>
        <speed>5.73989319036539</speed>
      </trkpt>
      <trkpt lat="49.048889" lon="7.4283">
        <ele>285</ele>
        <time>2010-12-10T03:34:59Z</time>
        <course>162.503433920485</course>
        <speed>5.71997377623093</speed>
      </trkpt>
      <trkpt lat="49.048801" lon="7.42822">
        <ele>286</ele>
        <time>2010-12-10T03:35:01Z</time>
        <course>154.412236559806</course>
        <speed>5.7250903621683</speed>
      </trkpt>
      <trkpt lat="49.048649" lon="7.42801">
        <ele>286</ele>
        <time>2010-12-10T03:35:05Z</time>
        <course>154.968591665279</course>
        <speed>5.72995134019982</speed>
      </trkpt>
      <trkpt lat="49.048382" lon="7.42765">
        <ele>287</ele>
        <time>2010-12-10T03:35:12Z</time>
        <course>153.758450561612</course>
        <speed>5.72903106254298</speed>
      </trkpt>
      <trkpt lat="49.047989" lon="7.42709">
        <ele>288</ele>
        <time>2010-12-10T03:35:22Z</time>
        <course>151.278443516239</course>
        <speed>5.73190392587785</speed>
      </trkpt>
      <trkpt lat="49.047661" lon="7.42657">
        <ele>290</ele>
        <time>2010-12-10T03:35:32Z</time>
        <course>145.355154325047</course>
        <speed>4.21169428223404</speed>
      </trkpt>
      <trkpt lat="49.047501" lon="7.42625">
        <ele>291</ele>
        <time>2010-12-10T03:35:39Z</time>
        <course>184.787823119951</course>
        <speed>4.21430979268785</speed>
      </trkpt>
      <trkpt lat="49.04594" lon="7.42663">
        <ele>300</ele>
        <time>2010-12-10T03:36:20Z</time>
        <course>188.982174136837</course>
        <speed>7.32295600046693</speed>
      </trkpt>
      <trkpt lat="49.042149" lon="7.42839">
        <ele>303</ele>
        <time>2010-12-10T03:37:20Z</time>
        <course>188.00749239696</course>
        <speed>8.31611689992107</speed>
      </trkpt>
      <trkpt lat="49.041569" lon="7.42863">
        <ele>302</ele>
        <time>2010-12-10T03:37:28Z</time>
        <course>179.406696322731</course>
        <speed>8.32297669783233</speed>
      </trkpt>
      <trkpt lat="49.041241" lon="7.42862">
        <ele>302</ele>
        <time>2010-12-10T03:37:33Z</time>
        <course>175.502205081941</course>
        <speed>8.31945943932891</speed>
      </trkpt>
      <trkpt lat="49.040939" lon="7.42855">
        <ele>301</ele>
        <time>2010-12-10T03:37:37Z</time>
        <course>179.556603070782</course>
        <speed>8.32068556141851</speed>
      </trkpt>
      <trkpt lat="49.040501" lon="7.42854">
        <ele>301</ele>
        <time>2010-12-10T03:37:43Z</time>
        <course>179.064987923939</course>
        <speed>8.32144133017277</speed>
      </trkpt>
      <trkpt lat="49.039879" lon="7.42851">
        <ele>301</ele>
        <time>2010-12-10T03:37:51Z</time>
        <course>183.24423367312</course>
        <speed>5.9731834817464</speed>
      </trkpt>
      <trkpt lat="49.0397" lon="7.42854">
        <ele>301</ele>
        <time>2010-12-10T03:37:54Z</time>
        <course>188.058517654003</course>
        <speed>5.98081782310027</speed>
      </trkpt>
      <trkpt lat="49.039509" lon="7.42862">
        <ele>301</ele>
        <time>2010-12-10T03:37:58Z</time>
        <course>192.616090411049</course>
        <speed>5.98012654091229</speed>
      </trkpt>
      <trkpt lat="49.03817" lon="7.42951">
        <ele>305</ele>
        <time>2010-12-10T03:38:25Z</time>
        <course>200.173382197484</course>
        <speed>4.0744559100195</speed>
      </trkpt>
      <trkpt lat="49.037941" lon="7.42976">
        <ele>306</ele>
        <time>2010-12-10T03:38:33Z</time>
        <course>196.001637774836</course>
        <speed>4.07588450792945</speed>
      </trkpt>
      <trkpt lat="49.037601" lon="7.43005">
        <ele>308</ele>
        <time>2010-12-10T03:38:43Z</time>
        <course>196.734630423871</course>
        <speed>4.07266910167561</speed>
      </trkpt>
      <trkpt lat="49.037411" lon="7.43022">
        <ele>310</ele>
        <time>2010-12-10T03:38:49Z</time>
        <course>196.39286896682</course>
        <speed>4.07409934122194</speed>
      </trkpt>
      <trkpt lat="49.036091" lon="7.43138">
        <ele>319</ele>
        <time>2010-12-10T03:39:31Z</time>
        <course>196.363545861826</course>
        <speed>5.67195488832392</speed>
      </trkpt>
      <trkpt lat="49.030109" lon="7.43672">
        <ele>337</ele>
        <time>2010-12-10T03:41:47Z</time>
        <course>197.769471501637</course>
        <speed>6.24767161337857</speed>
      </trkpt>
      <trkpt lat="49.02932" lon="7.43749">
        <ele>338</ele>
        <time>2010-12-10T03:42:03Z</time>
        <course>202.967363388592</course>
        <speed>6.24368623076073</speed>
      </trkpt>
      <trkpt lat="49.029049" lon="7.43784">
        <ele>339</ele>
        <time>2010-12-10T03:42:10Z</time>
        <course>230.727272260819</course>
        <speed>6.25194506805076</speed>
      </trkpt>
      <trkpt lat="49.028931" lon="7.43828">
        <ele>339</ele>
        <time>2010-12-10T03:42:15Z</time>
        <course>253.967320328713</course>
        <speed>6.24400192910669</speed>
      </trkpt>
      <trkpt lat="49.028851" lon="7.43913">
        <ele>341</ele>
        <time>2010-12-10T03:42:25Z</time>
        <course>265.439845093764</course>
        <speed>4.10546862878536</speed>
      </trkpt>
      <trkpt lat="49.028839" lon="7.43959">
        <ele>342</ele>
        <time>2010-12-10T03:42:34Z</time>
        <course>229.002122366918</course>
        <speed>4.10564530623393</speed>
      </trkpt>
      <trkpt lat="49.028782" lon="7.43979">
        <ele>343</ele>
        <time>2010-12-10T03:42:37Z</time>
        <course>192.655895032117</course>
        <speed>4.09780318776633</speed>
      </trkpt>
      <trkpt lat="49.028709" lon="7.43984">
        <ele>344</ele>
        <time>2010-12-10T03:42:40Z</time>
        <course>192.655895032117</course>
        <speed>4.09780318776633</speed>
      </trkpt>
      <trkpt lat="49.028709" lon="7.43984">
        <ele>344</ele>
        <time>2010-12-10T03:42:41Z</time>
        <course>193.727448993181</course>
        <speed>4.23438320316667</speed>
      </trkpt>
      <trkpt lat="49.028481" lon="7.44001">
        <ele>345</ele>
        <time>2010-12-10T03:42:47Z</time>
        <course>181.764329269163</course>
        <speed>4.23474741063934</speed>
      </trkpt>
      <trkpt lat="49.02795" lon="7.44006">
        <ele>348</ele>
        <time>2010-12-10T03:43:01Z</time>
        <course>169.297959431567</course>
        <speed>4.23404532238761</speed>
      </trkpt>
      <trkpt lat="49.027328" lon="7.4397">
        <ele>351</ele>
        <time>2010-12-10T03:43:19Z</time>
        <course>172.029289858946</course>
        <speed>4.23274182687574</speed>
      </trkpt>
      <trkpt lat="49.026932" lon="7.43953">
        <ele>354</ele>
        <time>2010-12-10T03:43:29Z</time>
        <course>166.969150819296</course>
        <speed>8.31785348480554</speed>
      </trkpt>
      <trkpt lat="49.026299" lon="7.43908">
        <ele>350</ele>
        <time>2010-12-10T03:43:39Z</time>
        <course>159.540048458792</course>
        <speed>8.32440143712092</speed>
      </trkpt>
      <trkpt lat="49.02602" lon="7.43876">
        <ele>348</ele>
        <time>2010-12-10T03:43:43Z</time>
        <course>143.202958782965</course>
        <speed>8.32448651597555</speed>
      </trkpt>
      <trkpt lat="49.025768" lon="7.43818">
        <ele>345</ele>
        <time>2010-12-10T03:43:50Z</time>
        <course>137.352728941258</course>
        <speed>8.31940398530532</speed>
      </trkpt>
      <trkpt lat="49.025398" lon="7.43713">
        <ele>341</ele>
        <time>2010-12-10T03:44:00Z</time>
        <course>149.846979122209</course>
        <speed>8.31415982833956</speed>
      </trkpt>
      <trkpt lat="49.025169" lon="7.43672">
        <ele>341</ele>
        <time>2010-12-10T03:44:05Z</time>
        <course>165.773808390589</course>
        <speed>8.32544086049324</speed>
      </trkpt>
      <trkpt lat="49.024811" lon="7.43644">
        <ele>341</ele>
        <time>2010-12-10T03:44:10Z</time>
        <course>165.202668169964</course>
        <speed>8.32221936617855</speed>
      </trkpt>
      <trkpt lat="49.024529" lon="7.43621">
        <ele>341</ele>
        <time>2010-12-10T03:44:14Z</time>
        <course>159.268170463514</course>
        <speed>8.32430224772967</speed>
      </trkpt>
      <trkpt lat="49.02417" lon="7.43579">
        <ele>341</ele>
        <time>2010-12-10T03:44:20Z</time>
        <course>146.528131954863</course>
        <speed>8.31562294384341</speed>
      </trkpt>
      <trkpt lat="49.023701" lon="7.43483">
        <ele>341</ele>
        <time>2010-12-10T03:44:31Z</time>
        <course>135.140458556235</course>
        <speed>6.88998371003672</speed>
      </trkpt>
      <trkpt lat="49.02338" lon="7.43384">
        <ele>341</ele>
        <time>2010-12-10T03:44:43Z</time>
        <course>121.922653357218</course>
        <speed>6.89233655015974</speed>
      </trkpt>
      <trkpt lat="49.022831" lon="7.4311">
        <ele>344</ele>
        <time>2010-12-10T03:45:13Z</time>
        <course>139.777642226023</course>
        <speed>7.59528385852004</speed>
      </trkpt>
      <trkpt lat="49.022751" lon="7.43089">
        <ele>344</ele>
        <time>2010-12-10T03:45:15Z</time>
        <course>167.637382432159</course>
        <speed>7.57067837713154</speed>
      </trkpt>
      <trkpt lat="49.02256" lon="7.43076">
        <ele>344</ele>
        <time>2010-12-10T03:45:18Z</time>
        <course>175.183988652482</course>
        <speed>7.58252624616713</speed>
      </trkpt>
      <trkpt lat="49.022369" lon="7.43071">
        <ele>344</ele>
        <time>2010-12-10T03:45:21Z</time>
        <course>188.801796169791</course>
        <speed>7.58129311661328</speed>
      </trkpt>
      <trkpt lat="49.022099" lon="7.43084">
        <ele>344</ele>
        <time>2010-12-10T03:45:25Z</time>
        <course>196.435076022692</course>
        <speed>7.58283830159122</speed>
      </trkpt>
      <trkpt lat="49.02124" lon="7.43163">
        <ele>345</ele>
        <time>2010-12-10T03:45:40Z</time>
        <course>165.181727835221</course>
        <speed>8.31729196191168</speed>
      </trkpt>
      <trkpt lat="49.020309" lon="7.43086">
        <ele>342</ele>
        <time>2010-12-10T03:45:54Z</time>
        <course>156.873117253745</course>
        <speed>8.31890187124773</speed>
      </trkpt>
      <trkpt lat="49.01992" lon="7.43034">
        <ele>340</ele>
        <time>2010-12-10T03:46:01Z</time>
        <course>154.911503791831</course>
        <speed>8.3222812836141</speed>
      </trkpt>
      <trkpt lat="49.019409" lon="7.42959">
        <ele>339</ele>
        <time>2010-12-10T03:46:10Z</time>
        <course>162.19265783008</course>
        <speed>6.74060125425833</speed>
      </trkpt>
      <trkpt lat="49.019032" lon="7.42921">
        <ele>339</ele>
        <time>2010-12-10T03:46:18Z</time>
        <course>171.868615456288</course>
        <speed>6.74161613689136</speed>
      </trkpt>
      <trkpt lat="49.018631" lon="7.42903">
        <ele>340</ele>
        <time>2010-12-10T03:46:25Z</time>
        <course>182.955615079738</course>
        <speed>6.73617150625165</speed>
      </trkpt>
      <trkpt lat="49.0182" lon="7.4291">
        <ele>340</ele>
        <time>2010-12-10T03:46:32Z</time>
        <course>184.990848700841</course>
        <speed>6.73940012307029</speed>
      </trkpt>
      <trkpt lat="49.01722" lon="7.42937">
        <ele>342</ele>
        <time>2010-12-10T03:46:48Z</time>
        <course>191.583224047787</course>
        <speed>6.19626841857388</speed>
      </trkpt>
      <trkpt lat="49.016911" lon="7.42957">
        <ele>342</ele>
        <time>2010-12-10T03:46:54Z</time>
        <course>203.135562667852</course>
        <speed>6.19956967581048</speed>
      </trkpt>
      <trkpt lat="49.01643" lon="7.43022">
        <ele>343</ele>
        <time>2010-12-10T03:47:06Z</time>
        <course>207.175468270903</course>
        <speed>6.20166566726793</speed>
      </trkpt>
      <trkpt lat="49.015301" lon="7.43206">
        <ele>347</ele>
        <time>2010-12-10T03:47:36Z</time>
        <course>198.099704515426</course>
        <speed>5.27170827320701</speed>
      </trkpt>
      <trkpt lat="49.012482" lon="7.43501">
        <ele>358</ele>
        <time>2010-12-10T03:48:48Z</time>
        <course>193.600400061898</course>
        <speed>8.32017225135858</speed>
      </trkpt>
      <trkpt lat="49.012211" lon="7.43522">
        <ele>357</ele>
        <time>2010-12-10T03:48:52Z</time>
        <course>185.483030921034</course>
        <speed>8.32590090401032</speed>
      </trkpt>
      <trkpt lat="49.011951" lon="7.4353">
        <ele>356</ele>
        <time>2010-12-10T03:48:55Z</time>
        <course>171.179589413562</course>
        <speed>8.30645540868976</speed>
      </trkpt>
      <trkpt lat="49.01173" lon="7.43519">
        <ele>355</ele>
        <time>2010-12-10T03:48:58Z</time>
        <course>163.977583055845</course>
        <speed>8.321481980712</speed>
      </trkpt>
      <trkpt lat="49.011318" lon="7.43481">
        <ele>354</ele>
        <time>2010-12-10T03:49:05Z</time>
        <course>160.128910866106</course>
        <speed>8.32486674858112</speed>
      </trkpt>
      <trkpt lat="49.010948" lon="7.43438">
        <ele>352</ele>
        <time>2010-12-10T03:49:11Z</time>
        <course>162.272713860745</course>
        <speed>8.31628950267045</speed>
      </trkpt>
      <trkpt lat="49.01022" lon="7.43363">
        <ele>350</ele>
        <time>2010-12-10T03:49:23Z</time>
        <course>169.983178913093</course>
        <speed>8.31102225363688</speed>
      </trkpt>
      <trkpt lat="49.009869" lon="7.43343">
        <ele>347</ele>
        <time>2010-12-10T03:49:28Z</time>
        <course>175.564493235465</course>
        <speed>8.32258601025853</speed>
      </trkpt>
      <trkpt lat="49.00943" lon="7.43332">
        <ele>345</ele>
        <time>2010-12-10T03:49:34Z</time>
        <course>179.677465882422</course>
        <speed>8.32322430035576</speed>
      </trkpt>
      <trkpt lat="49.008881" lon="7.43331">
        <ele>342</ele>
        <time>2010-12-10T03:49:41Z</time>
        <course>183.364581076683</course>
        <speed>8.32447129498242</speed>
      </trkpt>
      <trkpt lat="49.008461" lon="7.43339">
        <ele>340</ele>
        <time>2010-12-10T03:49:47Z</time>
        <course>187.385681239018</course>
        <speed>8.31551802435344</speed>
      </trkpt>
      <trkpt lat="49.007938" lon="7.43361">
        <ele>337</ele>
        <time>2010-12-10T03:49:54Z</time>
        <course>190.662535728466</course>
        <speed>8.32098199749817</speed>
      </trkpt>
      <trkpt lat="49.00766" lon="7.43378">
        <ele>335</ele>
        <time>2010-12-10T03:49:58Z</time>
        <course>202.365951211385</course>
        <speed>8.30830317367252</speed>
      </trkpt>
      <trkpt lat="49.007488" lon="7.43401">
        <ele>333</ele>
        <time>2010-12-10T03:50:01Z</time>
        <course>266.813174274302</course>
        <speed>8.32734086532856</speed>
      </trkpt>
      <trkpt lat="49.007481" lon="7.43442">
        <ele>331</ele>
        <time>2010-12-10T03:50:05Z</time>
        <course>320.232909412152</course>
        <speed>8.3197572102602</speed>
      </trkpt>
      <trkpt lat="49.007729" lon="7.43509">
        <ele>328</ele>
        <time>2010-12-10T03:50:11Z</time>
        <course>324.29693183734</course>
        <speed>8.32030710277178</speed>
      </trkpt>
      <trkpt lat="49.008438" lon="7.43674">
        <ele>320</ele>
        <time>2010-12-10T03:50:29Z</time>
        <course>330.595867802488</course>
        <speed>8.31877904333035</speed>
      </trkpt>
      <trkpt lat="49.00993" lon="7.43945">
        <ele>316</ele>
        <time>2010-12-10T03:51:00Z</time>
        <course>338.404634986578</course>
        <speed>8.31319661531856</speed>
      </trkpt>
      <trkpt lat="49.01033" lon="7.43996">
        <ele>316</ele>
        <time>2010-12-10T03:51:06Z</time>
        <course>351.143402146135</course>
        <speed>8.31564892136715</speed>
      </trkpt>
      <trkpt lat="49.010689" lon="7.44014">
        <ele>316</ele>
        <time>2010-12-10T03:51:12Z</time>
        <course>0.806728233962654</course>
        <speed>8.31415688314388</speed>
      </trkpt>
      <trkpt lat="49.011131" lon="7.44012">
        <ele>316</ele>
        <time>2010-12-10T03:51:17Z</time>
        <course>330.568368555002</course>
        <speed>8.3228169811046</speed>
      </trkpt>
      <trkpt lat="49.01128" lon="7.44039">
        <ele>316</ele>
        <time>2010-12-10T03:51:21Z</time>
        <course>329.20844425289</course>
        <speed>8.32351109813796</speed>
      </trkpt>
      <trkpt lat="49.01162" lon="7.44104">
        <ele>316</ele>
        <time>2010-12-10T03:51:28Z</time>
        <course>326.424169056071</course>
        <speed>8.31508028478498</speed>
      </trkpt>
      <trkpt lat="49.011902" lon="7.44164">
        <ele>312</ele>
        <time>2010-12-10T03:51:34Z</time>
        <course>317.164660647106</course>
        <speed>8.31519718499986</speed>
      </trkpt>
      <trkpt lat="49.012131" lon="7.44232">
        <ele>308</ele>
        <time>2010-12-10T03:51:41Z</time>
        <course>297.341034212296</course>
        <speed>8.32169440335628</speed>
      </trkpt>
      <trkpt lat="49.012291" lon="7.44331">
        <ele>302</ele>
        <time>2010-12-10T03:51:50Z</time>
        <course>322.094014182791</course>
        <speed>8.31686440138238</speed>
      </trkpt>
      <trkpt lat="49.012741" lon="7.44443">
        <ele>296</ele>
        <time>2010-12-10T03:52:01Z</time>
        <course>310.881014359453</course>
        <speed>8.32440170429619</speed>
      </trkpt>
      <trkpt lat="49.01289" lon="7.44498">
        <ele>294</ele>
        <time>2010-12-10T03:52:07Z</time>
        <course>275.319838473092</course>
        <speed>8.3194001322217</speed>
      </trkpt>
      <trkpt lat="49.012909" lon="7.44563">
        <ele>293</ele>
        <time>2010-12-10T03:52:12Z</time>
        <course>254.056561582862</course>
        <speed>8.3213304851123</speed>
      </trkpt>
      <trkpt lat="49.012859" lon="7.44619">
        <ele>291</ele>
        <time>2010-12-10T03:52:17Z</time>
        <course>209.827188381949</course>
        <speed>8.31860836716822</speed>
      </trkpt>
      <trkpt lat="49.012581" lon="7.4467">
        <ele>290</ele>
        <time>2010-12-10T03:52:23Z</time>
        <course>195.589206165552</course>
        <speed>8.31667673790471</speed>
      </trkpt>
      <trkpt lat="49.0121" lon="7.44713">
        <ele>288</ele>
        <time>2010-12-10T03:52:31Z</time>
        <course>190.442085761248</course>
        <speed>8.3192745542137</speed>
      </trkpt>
      <trkpt lat="49.00993" lon="7.44842">
        <ele>271</ele>
        <time>2010-12-10T03:53:02Z</time>
        <course>185.789706736189</course>
        <speed>8.31979701028635</speed>
      </trkpt>
      <trkpt lat="49.009411" lon="7.44859">
        <ele>267</ele>
        <time>2010-12-10T03:53:09Z</time>
        <course>177.161855621597</course>
        <speed>8.3133318567452</speed>
      </trkpt>
      <trkpt lat="49.00885" lon="7.4485">
        <ele>263</ele>
        <time>2010-12-10T03:53:16Z</time>
        <course>168.382606561503</course>
        <speed>8.32067965036123</speed>
      </trkpt>
      <trkpt lat="49.00819" lon="7.44806">
        <ele>258</ele>
        <time>2010-12-10T03:53:26Z</time>
        <course>168.976615555589</course>
        <speed>8.31797326873238</speed>
      </trkpt>
      <trkpt lat="49.005989" lon="7.44666">
        <ele>252</ele>
        <time>2010-12-10T03:53:58Z</time>
        <course>162.132827914966</course>
        <speed>8.31843615929339</speed>
      </trkpt>
      <trkpt lat="49.004608" lon="7.4452">
        <ele>248</ele>
        <time>2010-12-10T03:54:20Z</time>
        <course>174.463754895998</course>
        <speed>8.31539525419335</speed>
      </trkpt>
      <trkpt lat="49.003792" lon="7.44494">
        <ele>247</ele>
        <time>2010-12-10T03:54:31Z</time>
        <course>162.318148211019</course>
        <speed>8.31946168051597</speed>
      </trkpt>
      <trkpt lat="49.003059" lon="7.44417">
        <ele>246</ele>
        <time>2010-12-10T03:54:43Z</time>
        <course>164.942540594398</course>
        <speed>8.32495500204654</speed>
      </trkpt>
      <trkpt lat="49.002811" lon="7.44395">
        <ele>246</ele>
        <time>2010-12-10T03:54:47Z</time>
        <course>180</course>
        <speed>8.31189389925821</speed>
      </trkpt>
      <trkpt lat="49.002529" lon="7.44395">
        <ele>246</ele>
        <time>2010-12-10T03:54:51Z</time>
        <course>187.257684096659</course>
        <speed>8.32239746113178</speed>
      </trkpt>
      <trkpt lat="49.00222" lon="7.44408">
        <ele>246</ele>
        <time>2010-12-10T03:54:55Z</time>
        <course>180</course>
        <speed>8.32343726238978</speed>
      </trkpt>
      <trkpt lat="49.001629" lon="7.44408">
        <ele>246</ele>
        <time>2010-12-10T03:55:03Z</time>
        <course>173.648491172013</course>
        <speed>5.13450734672154</speed>
      </trkpt>
      <trkpt lat="49.00106" lon="7.44387">
        <ele>248</ele>
        <time>2010-12-10T03:55:16Z</time>
        <course>174.251496907831</course>
        <speed>5.13368655932949</speed>
      </trkpt>
      <trkpt lat="49.000671" lon="7.44374">
        <ele>249</ele>
        <time>2010-12-10T03:55:24Z</time>
        <course>178.437735648923</course>
        <speed>5.13886801226981</speed>
      </trkpt>
      <trkpt lat="49.00034" lon="7.44371">
        <ele>250</ele>
        <time>2010-12-10T03:55:31Z</time>
        <course>182.787691804402</course>
        <speed>5.13556604186925</speed>
      </trkpt>
      <trkpt lat="48.999908" lon="7.44378">
        <ele>252</ele>
        <time>2010-12-10T03:55:41Z</time>
        <course>183.090962316309</course>
        <speed>5.13294892711555</speed>
      </trkpt>
      <trkpt lat="48.99963" lon="7.44383">
        <ele>253</ele>
        <time>2010-12-10T03:55:47Z</time>
        <course>174.447725460681</course>
        <speed>8.31310819906381</speed>
      </trkpt>
      <trkpt lat="48.999229" lon="7.4437">
        <ele>252</ele>
        <time>2010-12-10T03:55:52Z</time>
        <course>173.776896337993</course>
        <speed>8.31895930491651</speed>
      </trkpt>
      <trkpt lat="48.998051" lon="7.44327">
        <ele>252</ele>
        <time>2010-12-10T03:56:09Z</time>
        <course>180</course>
        <speed>8.31382082325711</speed>
      </trkpt>
      <trkpt lat="48.997742" lon="7.44327">
        <ele>252</ele>
        <time>2010-12-10T03:56:13Z</time>
        <course>183.03265024976</course>
        <speed>8.32115567212083</speed>
      </trkpt>
      <trkpt lat="48.997292" lon="7.44335">
        <ele>250</ele>
        <time>2010-12-10T03:56:19Z</time>
        <course>173.915244695969</course>
        <speed>8.32029554282734</speed>
      </trkpt>
      <trkpt lat="48.996929" lon="7.44322">
        <ele>250</ele>
        <time>2010-12-10T03:56:24Z</time>
        <course>176.841963290665</course>
        <speed>8.31837238459135</speed>
      </trkpt>
      <trkpt lat="48.996498" lon="7.44314">
        <ele>248</ele>
        <time>2010-12-10T03:56:30Z</time>
        <course>177.25731848341</course>
        <speed>8.32181239064784</speed>
      </trkpt>
      <trkpt lat="48.99625" lon="7.4431">
        <ele>248</ele>
        <time>2010-12-10T03:56:33Z</time>
        <course>192.434722999823</course>
        <speed>8.31323145087433</speed>
      </trkpt>
      <trkpt lat="48.995739" lon="7.44348">
        <ele>247</ele>
        <time>2010-12-10T03:56:40Z</time>
        <course>183.919711796211</course>
        <speed>5.33832478242571</speed>
      </trkpt>
      <trkpt lat="48.99535" lon="7.44357">
        <ele>248</ele>
        <time>2010-12-10T03:56:49Z</time>
        <course>178.22873848313</course>
        <speed>5.33672356322773</speed>
      </trkpt>
      <trkpt lat="48.99411" lon="7.44344">
        <ele>252</ele>
        <time>2010-12-10T03:57:15Z</time>
        <course>172.620348695017</course>
        <speed>5.33592339558768</speed>
      </trkpt>
      <trkpt lat="48.993519" lon="7.44318">
        <ele>254</ele>
        <time>2010-12-10T03:57:27Z</time>
        <course>167.404728925014</course>
        <speed>8.31500631776</speed>
      </trkpt>
      <trkpt lat="48.992901" lon="7.44271">
        <ele>246</ele>
        <time>2010-12-10T03:57:37Z</time>
        <course>165.43281890934</course>
        <speed>8.32019468457421</speed>
      </trkpt>
      <trkpt lat="48.991741" lon="7.44168">
        <ele>232</ele>
        <time>2010-12-10T03:57:55Z</time>
        <course>169.958886680904</course>
        <speed>3.72084528796151</speed>
      </trkpt>
      <trkpt lat="48.99118" lon="7.44134">
        <ele>236</ele>
        <time>2010-12-10T03:58:13Z</time>
        <course>177.29600741765</course>
        <speed>3.72080650838519</speed>
      </trkpt>
      <trkpt lat="48.990871" lon="7.44129">
        <ele>238</ele>
        <time>2010-12-10T03:58:22Z</time>
        <course>180</course>
        <speed>3.71525835874455</speed>
      </trkpt>
      <trkpt lat="48.990761" lon="7.44129">
        <ele>239</ele>
        <time>2010-12-10T03:58:25Z</time>
        <course>188.34082778307</course>
        <speed>3.72025938365238</speed>
      </trkpt>
      <trkpt lat="48.990582" lon="7.44138">
        <ele>240</ele>
        <time>2010-12-10T03:58:31Z</time>
        <course>213.923358474871</course>
        <speed>3.7182908210427</speed>
      </trkpt>
      <trkpt lat="48.990452" lon="7.44168">
        <ele>241</ele>
        <time>2010-12-10T03:58:38Z</time>
        <course>260.961257521763</course>
        <speed>3.72146891380172</speed>
      </trkpt>
      <trkpt lat="48.990421" lon="7.44235">
        <ele>245</ele>
        <time>2010-12-10T03:58:51Z</time>
        <course>213.665401421067</course>
        <speed>8.31837415069035</speed>
      </trkpt>
      <trkpt lat="48.99015" lon="7.44297">
        <ele>238</ele>
        <time>2010-12-10T03:58:58Z</time>
        <course>199.662455050398</course>
        <speed>8.31612712488263</speed>
      </trkpt>
      <trkpt lat="48.98967" lon="7.44356">
        <ele>230</ele>
        <time>2010-12-10T03:59:06Z</time>
        <course>200.888149169617</course>
        <speed>8.29799047149884</speed>
      </trkpt>
      <trkpt lat="48.989571" lon="7.44369">
        <ele>229</ele>
        <time>2010-12-10T03:59:07Z</time>
        <course>200.888149169617</course>
        <speed>8.29799047149884</speed>
      </trkpt>
      <trkpt lat="48.989571" lon="7.44369">
        <ele>229</ele>
        <time>2010-12-10T03:59:08Z</time>
        <course>200.067506916081</course>
        <speed>5.9533608381291</speed>
      </trkpt>
      <trkpt lat="48.989269" lon="7.44407">
        <ele>229</ele>
        <time>2010-12-10T03:59:16Z</time>
        <course>182.623145056056</course>
        <speed>5.96230968641587</speed>
      </trkpt>
      <trkpt lat="48.989079" lon="7.4441">
        <ele>230</ele>
        <time>2010-12-10T03:59:19Z</time>
        <course>178.809520564572</course>
        <speed>5.9571518715208</speed>
      </trkpt>
      <trkpt lat="48.9888" lon="7.44408">
        <ele>230</ele>
        <time>2010-12-10T03:59:25Z</time>
        <course>164.70068787847</course>
        <speed>5.95867249608635</speed>
      </trkpt>
      <trkpt lat="48.988419" lon="7.44372">
        <ele>231</ele>
        <time>2010-12-10T03:59:33Z</time>
        <course>154.532870414325</course>
        <speed>5.95623354160129</speed>
      </trkpt>
      <trkpt lat="48.988079" lon="7.44316">
        <ele>233</ele>
        <time>2010-12-10T03:59:42Z</time>
        <course>138.795441872127</course>
        <speed>8.31442933647414</speed>
      </trkpt>
      <trkpt lat="48.987881" lon="7.44256">
        <ele>232</ele>
        <time>2010-12-10T03:59:48Z</time>
        <course>155.520111563963</course>
        <speed>8.32295811070797</speed>
      </trkpt>
      <trkpt lat="48.98764" lon="7.44218">
        <ele>231</ele>
        <time>2010-12-10T03:59:53Z</time>
        <course>176.559812568987</course>
        <speed>8.30767680125984</speed>
      </trkpt>
      <trkpt lat="48.9874" lon="7.44213">
        <ele>231</ele>
        <time>2010-12-10T03:59:56Z</time>
        <course>191.597566913618</course>
        <speed>8.31115645442448</speed>
      </trkpt>
      <trkpt lat="48.987091" lon="7.44235">
        <ele>231</ele>
        <time>2010-12-10T04:00:01Z</time>
        <course>228.73760840283</course>
        <speed>8.322927149861</speed>
      </trkpt>
      <trkpt lat="48.987" lon="7.44271">
        <ele>230</ele>
        <time>2010-12-10T04:00:04Z</time>
        <course>258.305198377314</course>
        <speed>8.32267271320374</speed>
      </trkpt>
      <trkpt lat="48.98695" lon="7.44355">
        <ele>230</ele>
        <time>2010-12-10T04:00:11Z</time>
        <course>218.56951286924</course>
        <speed>8.32318740771168</speed>
      </trkpt>
      <trkpt lat="48.98682" lon="7.44391">
        <ele>230</ele>
        <time>2010-12-10T04:00:15Z</time>
        <course>200.655442854135</course>
        <speed>8.32687345905436</speed>
      </trkpt>
      <trkpt lat="48.986591" lon="7.44421">
        <ele>230</ele>
        <time>2010-12-10T04:00:19Z</time>
        <course>189.222457311725</course>
        <speed>8.31480427342033</speed>
      </trkpt>
      <trkpt lat="48.98629" lon="7.44438">
        <ele>230</ele>
        <time>2010-12-10T04:00:23Z</time>
        <course>202.943866584057</course>
        <speed>8.31920360311289</speed>
      </trkpt>
      <trkpt lat="48.985329" lon="7.4458">
        <ele>230</ele>
        <time>2010-12-10T04:00:41Z</time>
        <course>196.674477877481</course>
        <speed>5.37781632148892</speed>
      </trkpt>
      <trkpt lat="48.984718" lon="7.44644">
        <ele>232</ele>
        <time>2010-12-10T04:00:56Z</time>
        <course>205.996769029818</course>
        <speed>5.37688153046031</speed>
      </trkpt>
      <trkpt lat="48.98439" lon="7.447">
        <ele>233</ele>
        <time>2010-12-10T04:01:07Z</time>
        <course>229.149173902875</course>
        <speed>5.37808057768567</speed>
      </trkpt>
      <trkpt lat="48.984131" lon="7.44805">
        <ele>236</ele>
        <time>2010-12-10T04:01:22Z</time>
        <course>222.787989768154</course>
        <speed>8.32017469038819</speed>
      </trkpt>
      <trkpt lat="48.98386" lon="7.44893">
        <ele>234</ele>
        <time>2010-12-10T04:01:30Z</time>
        <course>207.883480284008</course>
        <speed>8.31715318829215</speed>
      </trkpt>
      <trkpt lat="48.983349" lon="7.44988">
        <ele>232</ele>
        <time>2010-12-10T04:01:41Z</time>
        <course>205.403950467177</course>
        <speed>8.31806562423052</speed>
      </trkpt>
      <trkpt lat="48.982441" lon="7.4514">
        <ele>229</ele>
        <time>2010-12-10T04:01:59Z</time>
        <course>202.432540831828</course>
        <speed>3.73245549330922</speed>
      </trkpt>
      <trkpt lat="48.981899" lon="7.45219">
        <ele>234</ele>
        <time>2010-12-10T04:02:22Z</time>
        <course>204.691985163975</course>
        <speed>3.73192909966554</speed>
      </trkpt>
      <trkpt lat="48.981579" lon="7.45271">
        <ele>237</ele>
        <time>2010-12-10T04:02:35Z</time>
        <course>148.835176665428</course>
        <speed>3.73244362422852</speed>
      </trkpt>
      <trkpt lat="48.981098" lon="7.45168">
        <ele>243</ele>
        <time>2010-12-10T04:03:00Z</time>
        <course>149.032721117385</course>
        <speed>8.31645045847777</speed>
      </trkpt>
      <trkpt lat="48.98045" lon="7.4503">
        <ele>237</ele>
        <time>2010-12-10T04:03:15Z</time>
        <course>159.90446270235</course>
        <speed>8.31658171664318</speed>
      </trkpt>
      <trkpt lat="48.979858" lon="7.44953">
        <ele>234</ele>
        <time>2010-12-10T04:03:25Z</time>
        <course>159.88748851583</course>
        <speed>5.48250662131983</speed>
      </trkpt>
      <trkpt lat="48.97868" lon="7.44799">
        <ele>238</ele>
        <time>2010-12-10T04:03:57Z</time>
        <course>145.311874499313</course>
        <speed>5.48300545633268</speed>
      </trkpt>
      <trkpt lat="48.978401" lon="7.4473">
        <ele>240</ele>
        <time>2010-12-10T04:04:08Z</time>
        <course>131.530029960214</course>
        <speed>7.20049782290873</speed>
      </trkpt>
      <trkpt lat="48.978062" lon="7.44593">
        <ele>240</ele>
        <time>2010-12-10T04:04:22Z</time>
        <course>142.458581416048</course>
        <speed>7.19767103112849</speed>
      </trkpt>
      <trkpt lat="48.977409" lon="7.44413">
        <ele>242</ele>
        <time>2010-12-10T04:04:43Z</time>
        <course>141.611609366311</course>
        <speed>7.61799429608454</speed>
      </trkpt>
      <trkpt lat="48.976791" lon="7.44237">
        <ele>242</ele>
        <time>2010-12-10T04:05:02Z</time>
        <course>134.773428810032</course>
        <speed>7.61835385986608</speed>
      </trkpt>
      <trkpt lat="48.97654" lon="7.44146">
        <ele>243</ele>
        <time>2010-12-10T04:05:12Z</time>
        <course>154.605119008084</course>
        <speed>8.31715992377482</speed>
      </trkpt>
      <trkpt lat="48.975269" lon="7.43928">
        <ele>242</ele>
        <time>2010-12-10T04:05:37Z</time>
        <course>156.349989540968</course>
        <speed>5.24700862214353</speed>
      </trkpt>
      <trkpt lat="48.97501" lon="7.43887">
        <ele>243</ele>
        <time>2010-12-10T04:05:45Z</time>
        <course>161.796092375953</course>
        <speed>5.25083191751037</speed>
      </trkpt>
      <trkpt lat="48.97459" lon="7.43837">
        <ele>244</ele>
        <time>2010-12-10T04:05:57Z</time>
        <course>162.725598844466</course>
        <speed>5.24976991701469</speed>
      </trkpt>
      <trkpt lat="48.972851" lon="7.4364">
        <ele>252</ele>
        <time>2010-12-10T04:06:43Z</time>
        <course>157.470901744167</course>
        <speed>8.31016821993452</speed>
      </trkpt>
      <trkpt lat="48.972679" lon="7.43614">
        <ele>251</ele>
        <time>2010-12-10T04:06:46Z</time>
        <course>199.789807264354</course>
        <speed>8.28154688792387</speed>
      </trkpt>
      <trkpt lat="48.972618" lon="7.43622">
        <ele>251</ele>
        <time>2010-12-10T04:06:47Z</time>
        <course>182.05686344169</course>
        <speed>8.31934681665346</speed>
      </trkpt>
      <trkpt lat="48.972389" lon="7.43625">
        <ele>251</ele>
        <time>2010-12-10T04:06:50Z</time>
        <course>185.861462199899</course>
        <speed>8.32269956913925</speed>
      </trkpt>
      <trkpt lat="48.971989" lon="7.4364">
        <ele>251</ele>
        <time>2010-12-10T04:06:55Z</time>
        <course>188.381797606214</course>
        <speed>8.32686459883837</speed>
      </trkpt>
      <trkpt lat="48.971859" lon="7.43647">
        <ele>251</ele>
        <time>2010-12-10T04:06:57Z</time>
        <course>189.48941906757</course>
        <speed>8.30882142962902</speed>
      </trkpt>
      <trkpt lat="48.97163" lon="7.43661">
        <ele>251</ele>
        <time>2010-12-10T04:07:01Z</time>
        <course>180.845628322797</course>
        <speed>8.31116651094018</speed>
      </trkpt>
      <trkpt lat="48.97126" lon="7.43663">
        <ele>251</ele>
        <time>2010-12-10T04:07:06Z</time>
        <course>169.437160859201</course>
        <speed>8.31747808157225</speed>
      </trkpt>
      <trkpt lat="48.970909" lon="7.43639">
        <ele>251</ele>
        <time>2010-12-10T04:07:11Z</time>
        <course>174.961630902016</course>
        <speed>4.24454015787134</speed>
      </trkpt>
      <trkpt lat="48.9706" lon="7.43629">
        <ele>252</ele>
        <time>2010-12-10T04:07:19Z</time>
        <course>177.443417081885</course>
        <speed>4.23444487873583</speed>
      </trkpt>
      <trkpt lat="48.970539" lon="7.43628">
        <ele>253</ele>
        <time>2010-12-10T04:07:21Z</time>
        <course>181.5753662758</course>
        <speed>4.24039901006416</speed>
      </trkpt>
      <trkpt lat="48.97044" lon="7.43629">
        <ele>253</ele>
        <time>2010-12-10T04:07:23Z</time>
        <course>183.035087530871</course>
        <speed>4.24683651851046</speed>
      </trkpt>
      <trkpt lat="48.970081" lon="7.43636">
        <ele>255</ele>
        <time>2010-12-10T04:07:33Z</time>
        <course>180.886590797519</course>
        <speed>4.24705065927892</speed>
      </trkpt>
      <trkpt lat="48.96973" lon="7.43638">
        <ele>257</ele>
        <time>2010-12-10T04:07:42Z</time>
        <course>174.982507172819</course>
        <speed>4.24454449218129</speed>
      </trkpt>
      <trkpt lat="48.969421" lon="7.43628">
        <ele>259</ele>
        <time>2010-12-10T04:07:50Z</time>
        <course>170.080664811764</course>
        <speed>4.24461178467658</speed>
      </trkpt>
      <trkpt lat="48.96891" lon="7.43595">
        <ele>262</ele>
        <time>2010-12-10T04:08:05Z</time>
        <course>170.093310591265</course>
        <speed>4.25273970730032</speed>
      </trkpt>
      <trkpt lat="48.968029" lon="7.43538">
        <ele>267</ele>
        <time>2010-12-10T04:08:30Z</time>
        <course>170.943957347313</course>
        <speed>4.25391854067763</speed>
      </trkpt>
      <trkpt lat="48.96764" lon="7.43515">
        <ele>269</ele>
        <time>2010-12-10T04:08:40Z</time>
        <course>166.885664485148</course>
        <speed>4.25381274077185</speed>
      </trkpt>
      <trkpt lat="48.967201" lon="7.43477">
        <ele>272</ele>
        <time>2010-12-10T04:08:54Z</time>
        <course>169.102571331441</course>
        <speed>2.12031930988978</speed>
      </trkpt>
      <trkpt lat="48.966629" lon="7.43436">
        <ele>282</ele>
        <time>2010-12-10T04:09:27Z</time>
        <course>174.615869485787</course>
        <speed>2.12030029665689</speed>
      </trkpt>
      <trkpt lat="48.966259" lon="7.43423">
        <ele>288</ele>
        <time>2010-12-10T04:09:47Z</time>
        <course>177.517356125342</course>
        <speed>2.11966095451134</speed>
      </trkpt>
      <trkpt lat="48.96595" lon="7.43418">
        <ele>293</ele>
        <time>2010-12-10T04:10:03Z</time>
        <course>178.216522176208</course>
        <speed>2.12038150030475</speed>
      </trkpt>
      <trkpt lat="48.965778" lon="7.43416">
        <ele>296</ele>
        <time>2010-12-10T04:10:12Z</time>
        <course>188.615759763887</course>
        <speed>2.11900714377505</speed>
      </trkpt>
      <trkpt lat="48.965672" lon="7.43422">
        <ele>298</ele>
        <time>2010-12-10T04:10:18Z</time>
        <course>223.821834780109</course>
        <speed>2.11950676759024</speed>
      </trkpt>
      <trkpt lat="48.96558" lon="7.43455">
        <ele>302</ele>
        <time>2010-12-10T04:10:30Z</time>
        <course>319.689630076776</course>
        <speed>2.08767180850447</speed>
      </trkpt>
      <trkpt lat="48.96582" lon="7.43531">
        <ele>311</ele>
        <time>2010-12-10T04:11:00Z</time>
        <course>313.491489425723</course>
        <speed>2.08838884872491</speed>
      </trkpt>
      <trkpt lat="48.965881" lon="7.43555">
        <ele>314</ele>
        <time>2010-12-10T04:11:09Z</time>
        <course>317.665435139859</course>
        <speed>2.08746248219077</speed>
      </trkpt>
      <trkpt lat="48.965931" lon="7.43572">
        <ele>316</ele>
        <time>2010-12-10T04:11:15Z</time>
        <course>308.225360672018</course>
        <speed>2.08780266411712</speed>
      </trkpt>
      <trkpt lat="48.965988" lon="7.43599">
        <ele>319</ele>
        <time>2010-12-10T04:11:25Z</time>
        <course>320.878375440959</course>
        <speed>2.08697302519696</speed>
      </trkpt>
      <trkpt lat="48.966209" lon="7.43666">
        <ele>327</ele>
        <time>2010-12-10T04:11:51Z</time>
        <course>253.984805937519</course>
        <speed>2.08785905209025</speed>
      </trkpt>
      <trkpt lat="48.966179" lon="7.43705">
        <ele>331</ele>
        <time>2010-12-10T04:12:05Z</time>
        <course>236.571442141795</course>
        <speed>2.08681660382812</speed>
      </trkpt>
      <trkpt lat="48.96611" lon="7.43744">
        <ele>336</ele>
        <time>2010-12-10T04:12:19Z</time>
        <course>302.787977975203</course>
        <speed>8.29768743035675</speed>
      </trkpt>
      <trkpt lat="48.966129" lon="7.43755">
        <ele>335</ele>
        <time>2010-12-10T04:12:20Z</time>
        <course>302.707367087396</course>
        <speed>8.32850355659419</speed>
      </trkpt>
      <trkpt lat="48.96616" lon="7.43773">
        <ele>335</ele>
        <time>2010-12-10T04:12:22Z</time>
        <course>330.517743809448</course>
        <speed>8.3220057469093</speed>
      </trkpt>
      <trkpt lat="48.96664" lon="7.43874">
        <ele>332</ele>
        <time>2010-12-10T04:12:33Z</time>
        <course>310.217156069591</course>
        <speed>8.32525121507691</speed>
      </trkpt>
      <trkpt lat="48.96674" lon="7.43918">
        <ele>330</ele>
        <time>2010-12-10T04:12:37Z</time>
        <course>228.44857724797</course>
        <speed>8.3142310792547</speed>
      </trkpt>
      <trkpt lat="48.96669" lon="7.43939">
        <ele>330</ele>
        <time>2010-12-10T04:12:39Z</time>
        <course>216.218494318839</course>
        <speed>8.32487767531341</speed>
      </trkpt>
      <trkpt lat="48.966591" lon="7.43966">
        <ele>329</ele>
        <time>2010-12-10T04:12:42Z</time>
        <course>193.916935267851</course>
        <speed>8.32072677731048</speed>
      </trkpt>
      <trkpt lat="48.966461" lon="7.43978">
        <ele>329</ele>
        <time>2010-12-10T04:12:44Z</time>
        <course>185.988955812509</course>
        <speed>2.06179994101291</speed>
      </trkpt>
      <trkpt lat="48.966282" lon="7.43985">
        <ele>332</ele>
        <time>2010-12-10T04:12:54Z</time>
        <course>194.003547293665</course>
        <speed>2.06024803935916</speed>
      </trkpt>
      <trkpt lat="48.96611" lon="7.44001">
        <ele>335</ele>
        <time>2010-12-10T04:13:04Z</time>
        <course>190.601075470137</course>
        <speed>2.06002679162855</speed>
      </trkpt>
      <trkpt lat="48.965881" lon="7.44017">
        <ele>339</ele>
        <time>2010-12-10T04:13:18Z</time>
        <course>189.866179812827</course>
        <speed>2.0605378401012</speed>
      </trkpt>
      <trkpt lat="48.965389" lon="7.44049">
        <ele>348</ele>
        <time>2010-12-10T04:13:47Z</time>
        <course>214.056556854034</course>
        <speed>2.06118417169205</speed>
      </trkpt>
      <trkpt lat="48.965302" lon="7.44071">
        <ele>351</ele>
        <time>2010-12-10T04:13:56Z</time>
        <course>274.819632031812</course>
        <speed>2.06088412471088</speed>
      </trkpt>
      <trkpt lat="48.965309" lon="7.44102">
        <ele>355</ele>
        <time>2010-12-10T04:14:07Z</time>
        <course>311.727982564811</course>
        <speed>2.05918113875075</speed>
      </trkpt>
      <trkpt lat="48.96534" lon="7.44115">
        <ele>356</ele>
        <time>2010-12-10T04:14:12Z</time>
        <course>256.664543896354</course>
        <speed>2.06065642088799</speed>
      </trkpt>
      <trkpt lat="48.965321" lon="7.44145">
        <ele>360</ele>
        <time>2010-12-10T04:14:22Z</time>
        <course>211.83661512789</course>
        <speed>8.31920908538744</speed>
      </trkpt>
      <trkpt lat="48.965179" lon="7.44178">
        <ele>359</ele>
        <time>2010-12-10T04:14:26Z</time>
        <course>194.371224432093</course>
        <speed>8.30795903392705</speed>
      </trkpt>
      <trkpt lat="48.964981" lon="7.44197">
        <ele>358</ele>
        <time>2010-12-10T04:14:29Z</time>
        <course>187.797094542189</course>
        <speed>8.311885157493</speed>
      </trkpt>
      <trkpt lat="48.964611" lon="7.44216">
        <ele>357</ele>
        <time>2010-12-10T04:14:34Z</time>
        <course>185.385721488947</course>
        <speed>8.31689468630645</speed>
      </trkpt>
      <trkpt lat="48.964272" lon="7.44228">
        <ele>356</ele>
        <time>2010-12-10T04:14:39Z</time>
        <course>180</course>
        <speed>8.31865193378981</speed>
      </trkpt>
      <trkpt lat="48.964001" lon="7.44228">
        <ele>355</ele>
        <time>2010-12-10T04:14:43Z</time>
        <course>193.700709827478</course>
        <speed>8.32002071500039</speed>
      </trkpt>
      <trkpt lat="48.963772" lon="7.44249">
        <ele>355</ele>
        <time>2010-12-10T04:14:46Z</time>
        <course>204.914586644824</course>
        <speed>8.31783173996933</speed>
      </trkpt>
      <trkpt lat="48.963509" lon="7.44295">
        <ele>354</ele>
        <time>2010-12-10T04:14:51Z</time>
        <course>216.255893101939</course>
        <speed>8.31486826973626</speed>
      </trkpt>
      <trkpt lat="48.96331" lon="7.4435">
        <ele>351</ele>
        <time>2010-12-10T04:14:57Z</time>
        <course>234.612207497324</course>
        <speed>8.32671480908359</speed>
      </trkpt>
      <trkpt lat="48.963261" lon="7.44376">
        <ele>351</ele>
        <time>2010-12-10T04:14:59Z</time>
        <course>263.984413482386</course>
        <speed>8.32864648793513</speed>
      </trkpt>
      <trkpt lat="48.963249" lon="7.44419">
        <ele>349</ele>
        <time>2010-12-10T04:15:03Z</time>
        <course>276.958150907473</course>
        <speed>8.31577930069314</speed>
      </trkpt>
      <trkpt lat="48.963261" lon="7.44456">
        <ele>348</ele>
        <time>2010-12-10T04:15:06Z</time>
        <course>291.875206870628</course>
        <speed>8.32337335856106</speed>
      </trkpt>
      <trkpt lat="48.963341" lon="7.44531">
        <ele>345</ele>
        <time>2010-12-10T04:15:13Z</time>
        <course>266.896042570434</course>
        <speed>8.31704846342973</speed>
      </trkpt>
      <trkpt lat="48.963329" lon="7.44615">
        <ele>343</ele>
        <time>2010-12-10T04:15:20Z</time>
        <course>313.069321666226</course>
        <speed>8.31470130341496</speed>
      </trkpt>
      <trkpt lat="48.96357" lon="7.44712">
        <ele>336</ele>
        <time>2010-12-10T04:15:30Z</time>
        <course>321.810826013928</course>
        <speed>8.31866758942475</speed>
      </trkpt>
      <trkpt lat="48.963871" lon="7.44801">
        <ele>331</ele>
        <time>2010-12-10T04:15:38Z</time>
        <course>331.9869539522</course>
        <speed>8.3365251079588</speed>
      </trkpt>
      <trkpt lat="48.963921" lon="7.44811">
        <ele>330</ele>
        <time>2010-12-10T04:15:39Z</time>
        <course>350.359117270551</course>
        <speed>8.32748063606</speed>
      </trkpt>
      <trkpt lat="48.964062" lon="7.4482">
        <ele>328</ele>
        <time>2010-12-10T04:15:41Z</time>
        <course>353.56336892664</course>
        <speed>8.29883145443313</speed>
      </trkpt>
      <trkpt lat="48.96418" lon="7.44825">
        <ele>327</ele>
        <time>2010-12-10T04:15:43Z</time>
        <course>335.754147931003</course>
        <speed>8.31225554713694</speed>
      </trkpt>
      <trkpt lat="48.96447" lon="7.44874">
        <ele>324</ele>
        <time>2010-12-10T04:15:49Z</time>
        <course>280.614395094747</course>
        <speed>8.32410687817282</speed>
      </trkpt>
      <trkpt lat="48.964489" lon="7.44912">
        <ele>323</ele>
        <time>2010-12-10T04:15:52Z</time>
        <course>188.46343679811</course>
        <speed>8.32114481644139</speed>
      </trkpt>
      <trkpt lat="48.96381" lon="7.4495">
        <ele>320</ele>
        <time>2010-12-10T04:16:02Z</time>
        <course>180.972718293901</course>
        <speed>8.31917334093177</speed>
      </trkpt>
      <trkpt lat="48.963341" lon="7.44953">
        <ele>319</ele>
        <time>2010-12-10T04:16:08Z</time>
        <course>190.613578405249</course>
        <speed>8.31345843853124</speed>
      </trkpt>
      <trkpt lat="48.963058" lon="7.44973">
        <ele>317</ele>
        <time>2010-12-10T04:16:12Z</time>
        <course>177.272335174012</course>
        <speed>8.31710870338733</speed>
      </trkpt>
      <trkpt lat="48.96278" lon="7.44968">
        <ele>317</ele>
        <time>2010-12-10T04:16:16Z</time>
        <course>168.497443490985</course>
        <speed>8.32287080504466</speed>
      </trkpt>
      <trkpt lat="48.962429" lon="7.44941">
        <ele>313</ele>
        <time>2010-12-10T04:16:21Z</time>
        <course>172.717081465666</course>
        <speed>8.31459463590276</speed>
      </trkpt>
      <trkpt lat="48.96183" lon="7.44912">
        <ele>308</ele>
        <time>2010-12-10T04:16:30Z</time>
        <course>175.584550695101</course>
        <speed>8.3138224687164</speed>
      </trkpt>
      <trkpt lat="48.961182" lon="7.44893">
        <ele>302</ele>
        <time>2010-12-10T04:16:39Z</time>
        <course>170.863873065198</course>
        <speed>8.3173901202986</speed>
      </trkpt>
      <trkpt lat="48.960659" lon="7.44861">
        <ele>298</ele>
        <time>2010-12-10T04:16:46Z</time>
        <course>177.603890909364</course>
        <speed>8.31327026468698</speed>
      </trkpt>
      <trkpt lat="48.96022" lon="7.44854">
        <ele>296</ele>
        <time>2010-12-10T04:16:52Z</time>
        <course>182.77156394567</course>
        <speed>8.31827493982148</speed>
      </trkpt>
      <trkpt lat="48.959679" lon="7.44864">
        <ele>294</ele>
        <time>2010-12-10T04:16:59Z</time>
        <course>172.823425660423</course>
        <speed>8.32008591019119</speed>
      </trkpt>
      <trkpt lat="48.95916" lon="7.44839">
        <ele>293</ele>
        <time>2010-12-10T04:17:07Z</time>
        <course>160.063971943022</course>
        <speed>8.31725850579981</speed>
      </trkpt>
      <trkpt lat="48.958248" lon="7.44712">
        <ele>289</ele>
        <time>2010-12-10T04:17:23Z</time>
        <course>159.961312742581</course>
        <speed>8.32266656742309</speed>
      </trkpt>
      <trkpt lat="48.95787" lon="7.44659">
        <ele>287</ele>
        <time>2010-12-10T04:17:30Z</time>
        <course>164.768195114541</course>
        <speed>8.31661233481507</speed>
      </trkpt>
      <trkpt lat="48.957298" lon="7.44599">
        <ele>285</ele>
        <time>2010-12-10T04:17:39Z</time>
        <course>173.230392599658</course>
        <speed>8.31621048391099</speed>
      </trkpt>
      <trkpt lat="48.9566" lon="7.44567">
        <ele>284</ele>
        <time>2010-12-10T04:17:49Z</time>
        <course>179.111597252164</course>
        <speed>8.3238178928908</speed>
      </trkpt>
      <trkpt lat="48.9561" lon="7.44564">
        <ele>282</ele>
        <time>2010-12-10T04:17:56Z</time>
        <course>186.368462966832</course>
        <speed>8.3196363689238</speed>
      </trkpt>
      <trkpt lat="48.955292" lon="7.44599">
        <ele>280</ele>
        <time>2010-12-10T04:18:07Z</time>
        <course>176.444927161319</course>
        <speed>8.32323397847046</speed>
      </trkpt>
      <trkpt lat="48.955002" lon="7.44592">
        <ele>279</ele>
        <time>2010-12-10T04:18:11Z</time>
        <course>188.676962924021</course>
        <speed>8.31991732860316</speed>
      </trkpt>
      <trkpt lat="48.954262" lon="7.44636">
        <ele>277</ele>
        <time>2010-12-10T04:18:21Z</time>
        <course>176.501095148126</course>
        <speed>8.3172075193262</speed>
      </trkpt>
      <trkpt lat="48.9533" lon="7.44613">
        <ele>275</ele>
        <time>2010-12-10T04:18:34Z</time>
        <course>179.542661577363</course>
        <speed>8.30978652528391</speed>
      </trkpt>
      <trkpt lat="48.95298" lon="7.44612">
        <ele>275</ele>
        <time>2010-12-10T04:18:39Z</time>
        <course>188.636966739027</course>
        <speed>8.3283748541226</speed>
      </trkpt>
      <trkpt lat="48.952728" lon="7.44627">
        <ele>274</ele>
        <time>2010-12-10T04:18:42Z</time>
        <course>186.161679516744</course>
        <speed>8.31443925251329</speed>
      </trkpt>
      <trkpt lat="48.952209" lon="7.44649">
        <ele>274</ele>
        <time>2010-12-10T04:18:49Z</time>
        <course>176.574400135035</course>
        <speed>6.95975275968419</speed>
      </trkpt>
      <trkpt lat="48.95153" lon="7.44633">
        <ele>274</ele>
        <time>2010-12-10T04:19:00Z</time>
        <course>181.815969670837</course>
        <speed>6.95748857734925</speed>
      </trkpt>
      <trkpt lat="48.95113" lon="7.44638">
        <ele>275</ele>
        <time>2010-12-10T04:19:07Z</time>
        <course>190.884041607667</course>
        <speed>6.95605486882371</speed>
      </trkpt>
      <trkpt lat="48.950459" lon="7.44689">
        <ele>276</ele>
        <time>2010-12-10T04:19:19Z</time>
        <course>187.268132546254</course>
        <speed>8.32055702144092</speed>
      </trkpt>
      <trkpt lat="48.950142" lon="7.44705">
        <ele>275</ele>
        <time>2010-12-10T04:19:23Z</time>
        <course>185.07649287447</course>
        <speed>8.31409798428417</speed>
      </trkpt>
      <trkpt lat="48.949631" lon="7.44723">
        <ele>274</ele>
        <time>2010-12-10T04:19:30Z</time>
        <course>188.681425026117</course>
        <speed>8.31603420179632</speed>
      </trkpt>
      <trkpt lat="48.94912" lon="7.44754">
        <ele>273</ele>
        <time>2010-12-10T04:19:38Z</time>
        <course>200.254374656691</course>
        <speed>8.31913949752301</speed>
      </trkpt>
      <trkpt lat="48.948372" lon="7.44864">
        <ele>271</ele>
        <time>2010-12-10T04:19:51Z</time>
        <course>204.11747941206</course>
        <speed>8.3155067867926</speed>
      </trkpt>
      <trkpt lat="48.94812" lon="7.44909">
        <ele>267</ele>
        <time>2010-12-10T04:19:57Z</time>
        <course>193.066864032042</course>
        <speed>8.31865435256335</speed>
      </trkpt>
      <trkpt lat="48.947861" lon="7.44933">
        <ele>265</ele>
        <time>2010-12-10T04:20:01Z</time>
        <course>179.249216439195</course>
        <speed>8.32802465018889</speed>
      </trkpt>
      <trkpt lat="48.94767" lon="7.44932">
        <ele>263</ele>
        <time>2010-12-10T04:20:03Z</time>
        <course>170.057295977775</course>
        <speed>8.30888596469788</speed>
      </trkpt>
      <trkpt lat="48.947399" lon="7.44913">
        <ele>261</ele>
        <time>2010-12-10T04:20:07Z</time>
        <course>165.631757744393</course>
        <speed>8.31811891223252</speed>
      </trkpt>
      <trkpt lat="48.94698" lon="7.4487">
        <ele>257</ele>
        <time>2010-12-10T04:20:14Z</time>
        <course>168.602158798593</course>
        <speed>8.32108055992139</speed>
      </trkpt>
      <trkpt lat="48.94619" lon="7.44806">
        <ele>250</ele>
        <time>2010-12-10T04:20:26Z</time>
        <course>176.015468032873</course>
        <speed>6.21548697843891</speed>
      </trkpt>
      <trkpt lat="48.944981" lon="7.44772">
        <ele>252</ele>
        <time>2010-12-10T04:20:48Z</time>
        <course>172.700321550011</course>
        <speed>6.21016468836662</speed>
      </trkpt>
      <trkpt lat="48.944672" lon="7.44756">
        <ele>252</ele>
        <time>2010-12-10T04:20:54Z</time>
        <course>171.642026681027</course>
        <speed>6.21602111692527</speed>
      </trkpt>
      <trkpt lat="48.943649" lon="7.44695">
        <ele>255</ele>
        <time>2010-12-10T04:21:13Z</time>
        <course>176.389890406886</course>
        <speed>8.32681302124585</speed>
      </trkpt>
      <trkpt lat="48.943298" lon="7.44686">
        <ele>252</ele>
        <time>2010-12-10T04:21:18Z</time>
        <course>177.431169526885</course>
        <speed>8.32250130233151</speed>
      </trkpt>
      <trkpt lat="48.94286" lon="7.44678">
        <ele>250</ele>
        <time>2010-12-10T04:21:24Z</time>
        <course>180</course>
        <speed>8.32599423643653</speed>
      </trkpt>
      <trkpt lat="48.9426" lon="7.44678">
        <ele>248</ele>
        <time>2010-12-10T04:21:28Z</time>
        <course>176.931345991193</course>
        <speed>8.31563685861275</speed>
      </trkpt>
      <trkpt lat="48.94228" lon="7.44671">
        <ele>246</ele>
        <time>2010-12-10T04:21:32Z</time>
        <course>176.373939549888</course>
        <speed>8.31240921308437</speed>
      </trkpt>
      <trkpt lat="48.941971" lon="7.44663">
        <ele>244</ele>
        <time>2010-12-10T04:21:36Z</time>
        <course>172.292642618264</course>
        <speed>8.32256527799378</speed>
      </trkpt>
      <trkpt lat="48.9417" lon="7.44648">
        <ele>243</ele>
        <time>2010-12-10T04:21:40Z</time>
        <course>177.468241711987</course>
        <speed>8.32675038688927</speed>
      </trkpt>
      <trkpt lat="48.941479" lon="7.44644">
        <ele>242</ele>
        <time>2010-12-10T04:21:43Z</time>
        <course>177.601699013156</course>
        <speed>8.32139764816582</speed>
      </trkpt>
      <trkpt lat="48.940781" lon="7.44632">
        <ele>240</ele>
        <time>2010-12-10T04:21:52Z</time>
        <course>184.964281448111</course>
        <speed>8.32245756768973</speed>
      </trkpt>
      <trkpt lat="48.940361" lon="7.44647">
        <ele>239</ele>
        <time>2010-12-10T04:21:58Z</time>
        <course>193.403193906376</course>
        <speed>8.32162916082664</speed>
      </trkpt>
      <trkpt lat="48.940208" lon="7.44662">
        <ele>238</ele>
        <time>2010-12-10T04:22:00Z</time>
        <course>207.048125922571</course>
        <speed>8.31880728165453</speed>
      </trkpt>
      <trkpt lat="48.939899" lon="7.44727">
        <ele>237</ele>
        <time>2010-12-10T04:22:07Z</time>
        <course>206.923372031969</course>
        <speed>8.31656125987288</speed>
      </trkpt>
      <trkpt lat="48.939522" lon="7.44806">
        <ele>235</ele>
        <time>2010-12-10T04:22:16Z</time>
        <course>203.984198267871</course>
        <speed>8.3211420790771</speed>
      </trkpt>
      <trkpt lat="48.939201" lon="7.44865">
        <ele>234</ele>
        <time>2010-12-10T04:22:23Z</time>
        <course>196.695524978632</course>
        <speed>8.31957761725284</speed>
      </trkpt>
      <trkpt lat="48.938549" lon="7.44946">
        <ele>232</ele>
        <time>2010-12-10T04:22:34Z</time>
        <course>197.366953876041</course>
        <speed>4.08605626331218</speed>
      </trkpt>
      <trkpt lat="48.938179" lon="7.44994">
        <ele>234</ele>
        <time>2010-12-10T04:22:47Z</time>
        <course>201.564574526742</course>
        <speed>4.08869523814031</speed>
      </trkpt>
      <trkpt lat="48.937771" lon="7.45061">
        <ele>238</ele>
        <time>2010-12-10T04:23:04Z</time>
        <course>210.384099651047</course>
        <speed>4.08737164316084</speed>
      </trkpt>
      <trkpt lat="48.937439" lon="7.45142">
        <ele>241</ele>
        <time>2010-12-10T04:23:21Z</time>
        <course>222.665256391402</course>
        <speed>4.08801103131759</speed>
      </trkpt>
      <trkpt lat="48.937111" lon="7.45268">
        <ele>247</ele>
        <time>2010-12-10T04:23:45Z</time>
        <course>214.113979579295</course>
        <speed>8.32107208252941</speed>
      </trkpt>
      <trkpt lat="48.936729" lon="7.45376">
        <ele>243</ele>
        <time>2010-12-10T04:23:56Z</time>
        <course>206.621045108718</course>
        <speed>8.32073257995661</speed>
      </trkpt>
      <trkpt lat="48.93639" lon="7.45447">
        <ele>241</ele>
        <time>2010-12-10T04:24:03Z</time>
        <course>200.700083888856</course>
        <speed>8.33384090257499</speed>
      </trkpt>
      <trkpt lat="48.936352" lon="7.45453">
        <ele>240</ele>
        <time>2010-12-10T04:24:04Z</time>
        <course>250.559577254865</course>
        <speed>8.32159484186374</speed>
      </trkpt>
      <trkpt lat="48.936298" lon="7.45517">
        <ele>239</ele>
        <time>2010-12-10T04:24:10Z</time>
        <course>231.194711931601</course>
        <speed>8.31852695687303</speed>
      </trkpt>
      <trkpt lat="48.93615" lon="7.45594">
        <ele>236</ele>
        <time>2010-12-10T04:24:17Z</time>
        <course>251.140326665747</course>
        <speed>8.31907657443216</speed>
      </trkpt>
      <trkpt lat="48.936001" lon="7.45777">
        <ele>229</ele>
        <time>2010-12-10T04:24:33Z</time>
        <course>282.591529700284</course>
        <speed>8.31940144852653</speed>
      </trkpt>
      <trkpt lat="48.936069" lon="7.45904">
        <ele>225</ele>
        <time>2010-12-10T04:24:44Z</time>
        <course>216.443944698741</course>
        <speed>3.86923214536074</speed>
      </trkpt>
      <trkpt lat="48.935959" lon="7.45938">
        <ele>226</ele>
        <time>2010-12-10T04:24:51Z</time>
        <course>209.22197430451</course>
        <speed>3.8691695344298</speed>
      </trkpt>
      <trkpt lat="48.935848" lon="7.45964">
        <ele>227</ele>
        <time>2010-12-10T04:24:57Z</time>
        <course>204.045427912565</course>
        <speed>3.868718155573</speed>
      </trkpt>
      <trkpt lat="48.93557" lon="7.46016">
        <ele>230</ele>
        <time>2010-12-10T04:25:10Z</time>
        <course>191.646830238125</course>
        <speed>3.86744303501275</speed>
      </trkpt>
      <trkpt lat="48.935131" lon="7.46054">
        <ele>233</ele>
        <time>2010-12-10T04:25:24Z</time>
        <course>188.846859610823</course>
        <speed>3.86799480118361</speed>
      </trkpt>
      <trkpt lat="48.934551" lon="7.46092">
        <ele>238</ele>
        <time>2010-12-10T04:25:42Z</time>
        <course>203.95253779854</course>
        <speed>8.31810483976781</speed>
      </trkpt>
      <trkpt lat="48.93438" lon="7.46124">
        <ele>237</ele>
        <time>2010-12-10T04:25:46Z</time>
        <course>200.795029381106</course>
        <speed>8.30983009563517</speed>
      </trkpt>
      <trkpt lat="48.93433" lon="7.46132">
        <ele>237</ele>
        <time>2010-12-10T04:25:47Z</time>
        <course>213.114310326092</course>
        <speed>8.31631436138633</speed>
      </trkpt>
      <trkpt lat="48.934101" lon="7.46195">
        <ele>236</ele>
        <time>2010-12-10T04:25:53Z</time>
        <course>202.262273321252</course>
        <speed>8.31742730541179</speed>
      </trkpt>
      <trkpt lat="48.93391" lon="7.46228">
        <ele>236</ele>
        <time>2010-12-10T04:25:57Z</time>
        <course>190.149187557135</course>
        <speed>8.31671733309002</speed>
      </trkpt>
      <trkpt lat="48.93325" lon="7.46278">
        <ele>235</ele>
        <time>2010-12-10T04:26:07Z</time>
        <course>194.46780566178</course>
        <speed>8.31805373368422</speed>
      </trkpt>
      <trkpt lat="48.93272" lon="7.46336">
        <ele>229</ele>
        <time>2010-12-10T04:26:16Z</time>
        <course>187.908591813098</course>
        <speed>8.31276871897079</speed>
      </trkpt>
      <trkpt lat="48.932381" lon="7.46356">
        <ele>227</ele>
        <time>2010-12-10T04:26:21Z</time>
        <course>187.908591813098</course>
        <speed>8.31276871897079</speed>
      </trkpt>
      <trkpt lat="48.932381" lon="7.46356">
        <ele>227</ele>
        <time>2010-12-10T04:26:22Z</time>
        <course>202.647036821215</course>
        <speed>8.32285312681429</speed>
      </trkpt>
      <trkpt lat="48.93224" lon="7.46381">
        <ele>226</ele>
        <time>2010-12-10T04:26:24Z</time>
        <course>359.373241597443</course>
        <speed>8.31857097097731</speed>
      </trkpt>
      <trkpt lat="48.932671" lon="7.46383">
        <ele>224</ele>
        <time>2010-12-10T04:26:30Z</time>
        <course>349.53772289724</course>
        <speed>8.31317045772621</speed>
      </trkpt>
      <trkpt lat="48.933029" lon="7.46411">
        <ele>222</ele>
        <time>2010-12-10T04:26:36Z</time>
        <course>344.285216702927</course>
        <speed>8.32526581318609</speed>
      </trkpt>
      <trkpt lat="48.933281" lon="7.46441">
        <ele>221</ele>
        <time>2010-12-10T04:26:40Z</time>
        <course>345.404891397019</course>
        <speed>8.32360690277038</speed>
      </trkpt>
      <trkpt lat="48.93359" lon="7.46475">
        <ele>219</ele>
        <time>2010-12-10T04:26:45Z</time>
        <course>341.152882361934</course>
        <speed>8.32311591257426</speed>
      </trkpt>
      <trkpt lat="48.933819" lon="7.46508">
        <ele>218</ele>
        <time>2010-12-10T04:26:49Z</time>
        <course>203.744655256768</course>
        <speed>7.99917440058605</speed>
      </trkpt>
      <trkpt lat="48.933239" lon="7.46616">
        <ele>218</ele>
        <time>2010-12-10T04:27:02Z</time>
        <course>236.31586182153</course>
        <speed>7.99680822161794</speed>
      </trkpt>
      <trkpt lat="48.933121" lon="7.46691">
        <ele>218</ele>
        <time>2010-12-10T04:27:09Z</time>
        <course>232.838572794888</course>
        <speed>8.00056319124451</speed>
      </trkpt>
      <trkpt lat="48.932308" lon="7.47148">
        <ele>219</ele>
        <time>2010-12-10T04:27:52Z</time>
        <course>249.729002904456</course>
        <speed>7.70980480687686</speed>
      </trkpt>
      <trkpt lat="48.932171" lon="7.47306">
        <ele>219</ele>
        <time>2010-12-10T04:28:07Z</time>
        <course>273.827803002385</course>
        <speed>7.7124379958066</speed>
      </trkpt>
      <trkpt lat="48.932201" lon="7.47494">
        <ele>220</ele>
        <time>2010-12-10T04:28:25Z</time>
        <course>238.115669636887</course>
        <speed>8.31836537513876</speed>
      </trkpt>
      <trkpt lat="48.932049" lon="7.47598">
        <ele>219</ele>
        <time>2010-12-10T04:28:34Z</time>
        <course>234.659960273442</course>
        <speed>8.30661611238183</speed>
      </trkpt>
      <trkpt lat="48.931999" lon="7.47628">
        <ele>219</ele>
        <time>2010-12-10T04:28:37Z</time>
        <course>300.379818093964</course>
        <speed>8.31739812641354</speed>
      </trkpt>
      <trkpt lat="48.93222" lon="7.47788">
        <ele>219</ele>
        <time>2010-12-10T04:28:51Z</time>
        <course>327.66086413865</course>
        <speed>6.95416110580491</speed>
      </trkpt>
      <trkpt lat="48.932339" lon="7.4782">
        <ele>219</ele>
        <time>2010-12-10T04:28:55Z</time>
        <course>286.274511382078</course>
        <speed>6.94900873585049</speed>
      </trkpt>
      <trkpt lat="48.93235" lon="7.47836">
        <ele>219</ele>
        <time>2010-12-10T04:28:57Z</time>
        <course>334.124320443465</course>
        <speed>6.95280734887854</speed>
      </trkpt>
      <trkpt lat="48.932739" lon="7.47916">
        <ele>220</ele>
        <time>2010-12-10T04:29:07Z</time>
        <course>331.52727268126</course>
        <speed>6.95046962284547</speed>
      </trkpt>
      <trkpt lat="48.933022" lon="7.47981">
        <ele>220</ele>
        <time>2010-12-10T04:29:16Z</time>
        <course>306.280333872203</course>
        <speed>6.94762011778368</speed>
      </trkpt>
      <trkpt lat="48.933048" lon="7.47996">
        <ele>220</ele>
        <time>2010-12-10T04:29:17Z</time>
        <course>316.639850960755</course>
        <speed>6.95269331073067</speed>
      </trkpt>
      <trkpt lat="48.933449" lon="7.48156">
        <ele>222</ele>
        <time>2010-12-10T04:29:35Z</time>
        <course>310.544392450688</course>
        <speed>8.32376286149595</speed>
      </trkpt>
      <trkpt lat="48.933609" lon="7.48235">
        <ele>221</ele>
        <time>2010-12-10T04:29:42Z</time>
        <course>302.846927991283</course>
        <speed>8.3187531779794</speed>
      </trkpt>
      <trkpt lat="48.933762" lon="7.48335">
        <ele>221</ele>
        <time>2010-12-10T04:29:51Z</time>
        <course>284.50876075265</course>
        <speed>8.31858297521935</speed>
      </trkpt>
      <trkpt lat="48.933861" lon="7.48496">
        <ele>221</ele>
        <time>2010-12-10T04:30:06Z</time>
        <course>312.590660467986</course>
        <speed>8.31431346525987</speed>
      </trkpt>
      <trkpt lat="48.933922" lon="7.48524">
        <ele>220</ele>
        <time>2010-12-10T04:30:08Z</time>
        <course>299.941798323274</course>
        <speed>8.31852764742708</speed>
      </trkpt>
      <trkpt lat="48.934071" lon="7.48633">
        <ele>218</ele>
        <time>2010-12-10T04:30:18Z</time>
        <course>314.277817866997</course>
        <speed>8.32708784279473</speed>
      </trkpt>
      <trkpt lat="48.934189" lon="7.48684">
        <ele>217</ele>
        <time>2010-12-10T04:30:23Z</time>
        <course>308.619607155566</course>
        <speed>8.31465215299208</speed>
      </trkpt>
      <trkpt lat="48.934299" lon="7.48742">
        <ele>216</ele>
        <time>2010-12-10T04:30:28Z</time>
        <course>301.985018778005</course>
        <speed>8.32092942318541</speed>
      </trkpt>
      <trkpt lat="48.934559" lon="7.48917">
        <ele>214</ele>
        <time>2010-12-10T04:30:44Z</time>
        <course>279.000505657134</course>
        <speed>5.60319795237121</speed>
      </trkpt>
      <trkpt lat="48.934582" lon="7.48978">
        <ele>215</ele>
        <time>2010-12-10T04:30:52Z</time>
        <course>263.396233774395</course>
        <speed>5.60475048071069</speed>
      </trkpt>
      <trkpt lat="48.934528" lon="7.49176">
        <ele>218</ele>
        <time>2010-12-10T04:31:18Z</time>
        <course>219.617966113333</course>
        <speed>5.60480475792451</speed>
      </trkpt>
      <trkpt lat="48.93417" lon="7.49301">
        <ele>221</ele>
        <time>2010-12-10T04:31:35Z</time>
        <course>199.765901906001</course>
        <speed>8.31999928066725</speed>
      </trkpt>
      <trkpt lat="48.933479" lon="7.49406">
        <ele>217</ele>
        <time>2010-12-10T04:31:48Z</time>
        <course>188.198544637342</course>
        <speed>8.31151598005422</speed>
      </trkpt>
      <trkpt lat="48.933102" lon="7.49429">
        <ele>216</ele>
        <time>2010-12-10T04:31:54Z</time>
        <course>213.162515692166</course>
        <speed>8.32095988863689</speed>
      </trkpt>
      <trkpt lat="48.932529" lon="7.49588">
        <ele>213</ele>
        <time>2010-12-10T04:32:10Z</time>
        <course>259.113090198416</course>
        <speed>8.31692461701775</speed>
      </trkpt>
      <trkpt lat="48.932442" lon="7.49781">
        <ele>209</ele>
        <time>2010-12-10T04:32:27Z</time>
        <course>277.056455612819</course>
        <speed>8.31821566291801</speed>
      </trkpt>
      <trkpt lat="48.932461" lon="7.49846">
        <ele>208</ele>
        <time>2010-12-10T04:32:32Z</time>
        <course>215.439732611895</course>
        <speed>8.3136470915218</speed>
      </trkpt>
      <trkpt lat="48.93219" lon="7.49928">
        <ele>207</ele>
        <time>2010-12-10T04:32:40Z</time>
        <course>184.014621672175</course>
        <speed>7.82870289462341</speed>
      </trkpt>
      <trkpt lat="48.931122" lon="7.4996">
        <ele>207</ele>
        <time>2010-12-10T04:32:56Z</time>
        <course>201.99539880228</course>
        <speed>7.82597938166873</speed>
      </trkpt>
      <trkpt lat="48.929951" lon="7.50163">
        <ele>208</ele>
        <time>2010-12-10T04:33:21Z</time>
        <course>196.755973801045</course>
        <speed>7.9856002018672</speed>
      </trkpt>
      <trkpt lat="48.92865" lon="7.50332">
        <ele>208</ele>
        <time>2010-12-10T04:33:45Z</time>
        <course>191.75967710431</course>
        <speed>7.98660944023496</speed>
      </trkpt>
      <trkpt lat="48.926411" lon="7.50535">
        <ele>209</ele>
        <time>2010-12-10T04:34:21Z</time>
        <course>202.626356068273</course>
        <speed>6.95557909656402</speed>
      </trkpt>
      <trkpt lat="48.922909" lon="7.51181">
        <ele>215</ele>
        <time>2010-12-10T04:35:49Z</time>
        <course>188.540688301439</course>
        <speed>8.31831792478187</speed>
      </trkpt>
      <trkpt lat="48.919979" lon="7.51378">
        <ele>196</ele>
        <time>2010-12-10T04:36:32Z</time>
        <course>198.721998812437</course>
        <speed>6.6504384159225</speed>
      </trkpt>
      <trkpt lat="48.916458" lon="7.51921">
        <ele>203</ele>
        <time>2010-12-10T04:37:56Z</time>
        <course>180.721819114788</course>
        <speed>4.57906320599728</speed>
      </trkpt>
      <trkpt lat="48.91404" lon="7.51935">
        <ele>214</ele>
        <time>2010-12-10T04:38:54Z</time>
        <course>199.241069945975</course>
        <speed>8.31935891467459</speed>
      </trkpt>
      <trkpt lat="48.912819" lon="7.52132">
        <ele>203</ele>
        <time>2010-12-10T04:39:18Z</time>
        <course>215.822608701468</course>
        <speed>8.3184445021871</speed>
      </trkpt>
      <trkpt lat="48.912281" lon="7.52312">
        <ele>195</ele>
        <time>2010-12-10T04:39:35Z</time>
        <course>190.942270063535</course>
        <speed>6.89649472520132</speed>
      </trkpt>
      <trkpt lat="48.91148" lon="7.52384">
        <ele>196</ele>
        <time>2010-12-10T04:39:50Z</time>
        <course>186.626307589486</course>
        <speed>6.89447749760553</speed>
      </trkpt>
      <trkpt lat="48.909081" lon="7.52515">
        <ele>199</ele>
        <time>2010-12-10T04:40:32Z</time>
        <course>192.296644218816</course>
        <speed>8.31738840795201</speed>
      </trkpt>
      <trkpt lat="48.90781" lon="7.52646">
        <ele>192</ele>
        <time>2010-12-10T04:40:52Z</time>
        <course>201.356364682889</course>
        <speed>8.32035011223943</speed>
      </trkpt>
      <trkpt lat="48.907249" lon="7.5275">
        <ele>189</ele>
        <time>2010-12-10T04:41:04Z</time>
        <course>175.724432798289</course>
        <speed>7.24679082328572</speed>
      </trkpt>
      <trkpt lat="48.907108" lon="7.52745">
        <ele>189</ele>
        <time>2010-12-10T04:41:06Z</time>
        <course>185.724090145182</course>
        <speed>7.23848586736003</speed>
      </trkpt>
      <trkpt lat="48.905708" lon="7.52812">
        <ele>190</ele>
        <time>2010-12-10T04:41:29Z</time>
        <course>183.23785259</course>
        <speed>7.2308447396872</speed>
      </trkpt>
      <trkpt lat="48.90556" lon="7.52816">
        <ele>190</ele>
        <time>2010-12-10T04:41:31Z</time>
        <course>318.89216992989</course>
        <speed>7.24118591523756</speed>
      </trkpt>
      <trkpt lat="48.905781" lon="7.52908">
        <ele>191</ele>
        <time>2010-12-10T04:41:41Z</time>
        <course>310.886131327927</course>
        <speed>7.66232620711828</speed>
      </trkpt>
      <trkpt lat="48.90583" lon="7.52935">
        <ele>191</ele>
        <time>2010-12-10T04:41:43Z</time>
        <course>187.443047943873</course>
        <speed>7.67087374238482</speed>
      </trkpt>
      <trkpt lat="48.90527" lon="7.5297">
        <ele>191</ele>
        <time>2010-12-10T04:41:52Z</time>
        <course>184.061333124699</course>
        <speed>7.66732606890351</speed>
      </trkpt>
      <trkpt lat="48.9048" lon="7.52986">
        <ele>191</ele>
        <time>2010-12-10T04:41:59Z</time>
        <course>177.481079035141</course>
        <speed>7.67197487786143</speed>
      </trkpt>
      <trkpt lat="48.90395" lon="7.52968">
        <ele>192</ele>
        <time>2010-12-10T04:42:12Z</time>
        <course>184.565816251711</course>
        <speed>8.32065895702071</speed>
      </trkpt>
      <trkpt lat="48.903431" lon="7.52988">
        <ele>191</ele>
        <time>2010-12-10T04:42:19Z</time>
        <course>194.911398892177</course>
        <speed>8.31711574201936</speed>
      </trkpt>
      <trkpt lat="48.901871" lon="7.5319">
        <ele>189</ele>
        <time>2010-12-10T04:42:46Z</time>
        <course>196.264593037637</course>
        <speed>8.32008857185844</speed>
      </trkpt>
      <trkpt lat="48.900791" lon="7.53344">
        <ele>189</ele>
        <time>2010-12-10T04:43:06Z</time>
        <course>192.663676711322</course>
        <speed>8.31873369368334</speed>
      </trkpt>
      <trkpt lat="48.89938" lon="7.535">
        <ele>189</ele>
        <time>2010-12-10T04:43:29Z</time>
        <course>183.401727847221</course>
        <speed>8.31882893668246</speed>
      </trkpt>
      <trkpt lat="48.89819" lon="7.53535">
        <ele>188</ele>
        <time>2010-12-10T04:43:45Z</time>
        <course>185.739730024137</course>
        <speed>8.31213596483069</speed>
      </trkpt>
      <trkpt lat="48.897949" lon="7.53547">
        <ele>187</ele>
        <time>2010-12-10T04:43:49Z</time>
        <course>193.041292218861</course>
        <speed>8.31701885675905</speed>
      </trkpt>
      <trkpt lat="48.896969" lon="7.5366">
        <ele>187</ele>
        <time>2010-12-10T04:44:05Z</time>
        <course>184.553168582289</course>
        <speed>8.31879763720609</speed>
      </trkpt>
      <trkpt lat="48.89584" lon="7.53705">
        <ele>186</ele>
        <time>2010-12-10T04:44:21Z</time>
        <course>194.645060217908</course>
        <speed>8.31957905559518</speed>
      </trkpt>
      <trkpt lat="48.89473" lon="7.53851">
        <ele>186</ele>
        <time>2010-12-10T04:44:40Z</time>
        <course>194.317065829226</course>
        <speed>8.32560157977258</speed>
      </trkpt>
      <trkpt lat="48.89452" lon="7.53878">
        <ele>186</ele>
        <time>2010-12-10T04:44:44Z</time>
        <course>189.000845171054</course>
        <speed>8.31851088483686</speed>
      </trkpt>
      <trkpt lat="48.892941" lon="7.54005">
        <ele>186</ele>
        <time>2010-12-10T04:45:08Z</time>
        <course>194.700018063234</course>
        <speed>6.38893080048624</speed>
      </trkpt>
      <trkpt lat="48.891762" lon="7.54163">
        <ele>188</ele>
        <time>2010-12-10T04:45:35Z</time>
        <course>204.580025666928</course>
        <speed>6.38755673241561</speed>
      </trkpt>
      <trkpt lat="48.890999" lon="7.54342">
        <ele>191</ele>
        <time>2010-12-10T04:46:00Z</time>
        <course>222.325409646131</course>
        <speed>8.32104948480414</speed>
      </trkpt>
      <trkpt lat="48.890751" lon="7.54458">
        <ele>188</ele>
        <time>2010-12-10T04:46:10Z</time>
        <course>198.148147936686</course>
        <speed>8.32031068739433</speed>
      </trkpt>
      <trkpt lat="48.890011" lon="7.54583">
        <ele>184</ele>
        <time>2010-12-10T04:46:25Z</time>
        <course>196.056119955202</course>
        <speed>8.31916935379738</speed>
      </trkpt>
      <trkpt lat="48.887371" lon="7.5498">
        <ele>183</ele>
        <time>2010-12-10T04:47:15Z</time>
        <course>191.601090234422</course>
        <speed>7.39362312454338</speed>
      </trkpt>
      <trkpt lat="48.886711" lon="7.55051">
        <ele>183</ele>
        <time>2010-12-10T04:47:27Z</time>
        <course>191.243113183204</course>
        <speed>7.38868966803395</speed>
      </trkpt>
      <trkpt lat="48.886089" lon="7.55116">
        <ele>184</ele>
        <time>2010-12-10T04:47:38Z</time>
        <course>189.704112248523</course>
        <speed>7.3901499287591</speed>
      </trkpt>
      <trkpt lat="48.884972" lon="7.55217">
        <ele>185</ele>
        <time>2010-12-10T04:47:58Z</time>
        <course>184.974333973976</course>
        <speed>7.7286276101235</speed>
      </trkpt>
      <trkpt lat="48.88456" lon="7.55236">
        <ele>185</ele>
        <time>2010-12-10T04:48:04Z</time>
        <course>186.075897599105</course>
        <speed>7.72935004096541</speed>
      </trkpt>
      <trkpt lat="48.882751" lon="7.55339">
        <ele>186</ele>
        <time>2010-12-10T04:48:32Z</time>
        <course>183.175121180542</course>
        <speed>8.31651882454224</speed>
      </trkpt>
      <trkpt lat="48.882549" lon="7.55345">
        <ele>186</ele>
        <time>2010-12-10T04:48:35Z</time>
        <course>183.175121180542</course>
        <speed>8.31651882454224</speed>
      </trkpt>
      <trkpt lat="48.882549" lon="7.55345">
        <ele>186</ele>
        <time>2010-12-10T04:48:36Z</time>
        <course>180</course>
        <speed>6.66719999807538</speed>
      </trkpt>
      <trkpt lat="48.882519" lon="7.55345">
        <ele>186</ele>
        <time>2010-12-10T04:48:36Z</time>
        <course>152.581395057686</course>
        <speed>6.6581798125034</speed>
      </trkpt>
      <trkpt lat="48.882271" lon="7.55276">
        <ele>186</ele>
        <time>2010-12-10T04:48:45Z</time>
        <course>136.594347366334</course>
        <speed>6.6594545962058</speed>
      </trkpt>
      <trkpt lat="48.882141" lon="7.5521">
        <ele>187</ele>
        <time>2010-12-10T04:48:52Z</time>
        <course>186.034087038239</course>
        <speed>6.65504879036034</speed>
      </trkpt>
      <trkpt lat="48.881561" lon="7.55243">
        <ele>188</ele>
        <time>2010-12-10T04:49:03Z</time>
        <course>184.464885524875</course>
        <speed>6.65832831185562</speed>
      </trkpt>
      <trkpt lat="48.881039" lon="7.55265">
        <ele>189</ele>
        <time>2010-12-10T04:49:12Z</time>
        <course>184.811866371323</course>
        <speed>8.31586374307869</speed>
      </trkpt>
      <trkpt lat="48.880032" lon="7.55311">
        <ele>184</ele>
        <time>2010-12-10T04:49:26Z</time>
        <course>184.665831740844</course>
        <speed>8.33212860706877</speed>
      </trkpt>
      <trkpt lat="48.879829" lon="7.5532">
        <ele>183</ele>
        <time>2010-12-10T04:49:28Z</time>
        <course>176.062786665726</course>
        <speed>8.32358327821992</speed>
      </trkpt>
      <trkpt lat="48.879269" lon="7.55299">
        <ele>181</ele>
        <time>2010-12-10T04:49:36Z</time>
        <course>174.187990264677</course>
        <speed>8.31747425968177</speed>
      </trkpt>
      <trkpt lat="48.878479" lon="7.55255">
        <ele>181</ele>
        <time>2010-12-10T04:49:47Z</time>
        <course>179.36434482289</course>
        <speed>8.32040469747376</speed>
      </trkpt>
      <trkpt lat="48.877659" lon="7.5525">
        <ele>181</ele>
        <time>2010-12-10T04:49:58Z</time>
        <course>183.69257444261</course>
        <speed>8.3230033690587</speed>
      </trkpt>
      <trkpt lat="48.877209" lon="7.55266">
        <ele>181</ele>
        <time>2010-12-10T04:50:05Z</time>
        <course>181.060437463352</course>
        <speed>7.61683974245325</speed>
      </trkpt>
      <trkpt lat="48.87672" lon="7.55271">
        <ele>181</ele>
        <time>2010-12-10T04:50:12Z</time>
        <course>179.843408344234</course>
        <speed>7.61607904449718</speed>
      </trkpt>
      <trkpt lat="48.87606" lon="7.5527">
        <ele>181</ele>
        <time>2010-12-10T04:50:21Z</time>
        <course>181.173668291097</course>
        <speed>7.61212662271465</speed>
      </trkpt>
      <trkpt lat="48.875271" lon="7.55279">
        <ele>182</ele>
        <time>2010-12-10T04:50:33Z</time>
        <course>183.356275999424</course>
        <speed>7.04033729691682</speed>
      </trkpt>
      <trkpt lat="48.875118" lon="7.55284">
        <ele>182</ele>
        <time>2010-12-10T04:50:35Z</time>
        <course>184.907010188144</course>
        <speed>7.04011546502898</speed>
      </trkpt>
      <trkpt lat="48.873379" lon="7.55368">
        <ele>184</ele>
        <time>2010-12-10T04:51:04Z</time>
        <course>188.011208296869</course>
        <speed>8.31709864774577</speed>
      </trkpt>
      <trkpt lat="48.873089" lon="7.55391">
        <ele>183</ele>
        <time>2010-12-10T04:51:09Z</time>
        <course>189.683711558494</course>
        <speed>8.32041636485806</speed>
      </trkpt>
      <trkpt lat="48.871819" lon="7.55514">
        <ele>183</ele>
        <time>2010-12-10T04:51:29Z</time>
        <course>192.791699587556</course>
        <speed>8.30915895907206</speed>
      </trkpt>
      <trkpt lat="48.871571" lon="7.55546">
        <ele>182</ele>
        <time>2010-12-10T04:51:33Z</time>
        <course>201.743001663577</course>
        <speed>8.32004916651083</speed>
      </trkpt>
      <trkpt lat="48.871052" lon="7.55664">
        <ele>181</ele>
        <time>2010-12-10T04:51:45Z</time>
        <course>191.11324828157</course>
        <speed>8.31564890297764</speed>
      </trkpt>
      <trkpt lat="48.870571" lon="7.55718">
        <ele>181</ele>
        <time>2010-12-10T04:51:53Z</time>
        <course>196.373666248295</course>
        <speed>8.32036937008839</speed>
      </trkpt>
      <trkpt lat="48.869759" lon="7.55855">
        <ele>178</ele>
        <time>2010-12-10T04:52:10Z</time>
        <course>192.990741288297</course>
        <speed>8.31650324797502</speed>
      </trkpt>
      <trkpt lat="48.86945" lon="7.55896">
        <ele>178</ele>
        <time>2010-12-10T04:52:15Z</time>
        <course>190.215397601255</course>
        <speed>8.31607583260979</speed>
      </trkpt>
      <trkpt lat="48.8685" lon="7.55995">
        <ele>176</ele>
        <time>2010-12-10T04:52:31Z</time>
        <course>190.889374485087</course>
        <speed>6.55732495689548</speed>
      </trkpt>
      <trkpt lat="48.867668" lon="7.56088">
        <ele>177</ele>
        <time>2010-12-10T04:52:48Z</time>
        <course>194.266608548515</course>
        <speed>6.55582536896148</speed>
      </trkpt>
      <trkpt lat="48.86731" lon="7.56141">
        <ele>178</ele>
        <time>2010-12-10T04:52:56Z</time>
        <course>194.148971736349</course>
        <speed>6.55429805069741</speed>
      </trkpt>
      <trkpt lat="48.86697" lon="7.56191">
        <ele>179</ele>
        <time>2010-12-10T04:53:05Z</time>
        <course>193.432097369522</course>
        <speed>7.1753125218012</speed>
      </trkpt>
      <trkpt lat="48.866619" lon="7.5624">
        <ele>179</ele>
        <time>2010-12-10T04:53:12Z</time>
        <course>192.336752352487</course>
        <speed>7.17536873335533</speed>
      </trkpt>
      <trkpt lat="48.865261" lon="7.56415">
        <ele>181</ele>
        <time>2010-12-10T04:53:39Z</time>
        <course>192.694194207543</course>
        <speed>8.31790448405723</speed>
      </trkpt>
      <trkpt lat="48.86422" lon="7.56554">
        <ele>178</ele>
        <time>2010-12-10T04:53:58Z</time>
        <course>195.156875921717</course>
        <speed>8.3079668712202</speed>
      </trkpt>
      <trkpt lat="48.864052" lon="7.56581">
        <ele>178</ele>
        <time>2010-12-10T04:54:01Z</time>
        <course>199.421673688865</course>
        <speed>8.32507656425804</speed>
      </trkpt>
      <trkpt lat="48.863861" lon="7.56621">
        <ele>178</ele>
        <time>2010-12-10T04:54:06Z</time>
        <course>206.860726403782</course>
        <speed>7.64320179030573</speed>
      </trkpt>
      <trkpt lat="48.862949" lon="7.56897">
        <ele>179</ele>
        <time>2010-12-10T04:54:35Z</time>
        <course>203.131963988075</course>
        <speed>7.10616905088988</speed>
      </trkpt>
      <trkpt lat="48.862808" lon="7.56933">
        <ele>179</ele>
        <time>2010-12-10T04:54:39Z</time>
        <course>194.704125349241</course>
        <speed>7.11364777754221</speed>
      </trkpt>
      <trkpt lat="48.86153" lon="7.57135">
        <ele>181</ele>
        <time>2010-12-10T04:55:08Z</time>
        <course>196.425845189168</course>
        <speed>8.32188248062757</speed>
      </trkpt>
      <trkpt lat="48.861019" lon="7.57226">
        <ele>179</ele>
        <time>2010-12-10T04:55:19Z</time>
        <course>251.340044820938</course>
        <speed>8.31815961270095</speed>
      </trkpt>
      <trkpt lat="48.86084" lon="7.57548">
        <ele>177</ele>
        <time>2010-12-10T04:55:47Z</time>
        <course>221.499062938379</course>
        <speed>7.09102283738977</speed>
      </trkpt>
      <trkpt lat="48.860741" lon="7.57601">
        <ele>177</ele>
        <time>2010-12-10T04:55:53Z</time>
        <course>210.436572956952</course>
        <speed>7.09119684712361</speed>
      </trkpt>
      <trkpt lat="48.860069" lon="7.57841">
        <ele>179</ele>
        <time>2010-12-10T04:56:20Z</time>
        <course>204.648571144041</course>
        <speed>8.32398199149209</speed>
      </trkpt>
      <trkpt lat="48.859829" lon="7.57908">
        <ele>177</ele>
        <time>2010-12-10T04:56:26Z</time>
        <course>202.606417459425</course>
        <speed>8.31756057254383</speed>
      </trkpt>
      <trkpt lat="48.859341" lon="7.58032">
        <ele>175</ele>
        <time>2010-12-10T04:56:39Z</time>
        <course>230.019433895799</course>
        <speed>8.31182000429211</speed>
      </trkpt>
      <trkpt lat="48.859249" lon="7.58099">
        <ele>174</ele>
        <time>2010-12-10T04:56:45Z</time>
        <course>348.314784134827</course>
        <speed>8.3178346301323</speed>
      </trkpt>
      <trkpt lat="48.86047" lon="7.58252">
        <ele>173</ele>
        <time>2010-12-10T04:57:06Z</time>
        <course>269.988980508216</course>
        <speed>8.31226349500946</speed>
      </trkpt>
      <trkpt lat="48.86047" lon="7.58291">
        <ele>173</ele>
        <time>2010-12-10T04:57:10Z</time>
        <course>309.501124707594</course>
        <speed>4.86870168691288</speed>
      </trkpt>
      <trkpt lat="48.860519" lon="7.58327">
        <ele>173</ele>
        <time>2010-12-10T04:57:15Z</time>
        <course>342.562607377219</course>
        <speed>4.87155765471377</speed>
      </trkpt>
      <trkpt lat="48.861641" lon="7.58539">
        <ele>181</ele>
        <time>2010-12-10T04:57:56Z</time>
        <course>337.910063034575</course>
        <speed>4.35326698430641</speed>
      </trkpt>
      <trkpt lat="48.862171" lon="7.58668">
        <ele>186</ele>
        <time>2010-12-10T04:58:22Z</time>
        <course>325.181328116986</course>
        <speed>4.35267084392912</speed>
      </trkpt>
      <trkpt lat="48.86264" lon="7.58863">
        <ele>193</ele>
        <time>2010-12-10T04:58:56Z</time>
        <course>323.256975654616</course>
        <speed>2.89731378625867</speed>
      </trkpt>
      <trkpt lat="48.86277" lon="7.58921">
        <ele>197</ele>
        <time>2010-12-10T04:59:12Z</time>
        <course>315.561324124022</course>
        <speed>2.89793313172386</speed>
      </trkpt>
      <trkpt lat="48.862881" lon="7.58986">
        <ele>201</ele>
        <time>2010-12-10T04:59:29Z</time>
        <course>307.101677215927</course>
        <speed>2.89667117253584</speed>
      </trkpt>
      <trkpt lat="48.862919" lon="7.59016">
        <ele>203</ele>
        <time>2010-12-10T04:59:37Z</time>
        <course>280.057403180943</course>
        <speed>2.89574722502938</speed>
      </trkpt>
      <trkpt lat="48.86293" lon="7.59053">
        <ele>206</ele>
        <time>2010-12-10T04:59:46Z</time>
        <course>281.892150822059</course>
        <speed>2.89759233698498</speed>
      </trkpt>
      <trkpt lat="48.862942" lon="7.59087">
        <ele>208</ele>
        <time>2010-12-10T04:59:55Z</time>
        <course>248.286835920386</course>
        <speed>2.89402535332074</speed>
      </trkpt>
      <trkpt lat="48.86293" lon="7.59105">
        <ele>210</ele>
        <time>2010-12-10T04:59:59Z</time>
        <course>248.622227390686</course>
        <speed>2.89855367637502</speed>
      </trkpt>
      <trkpt lat="48.862911" lon="7.59134">
        <ele>212</ele>
        <time>2010-12-10T05:00:06Z</time>
        <course>210.265604089712</course>
        <speed>5.62434392873757</speed>
      </trkpt>
      <trkpt lat="48.862782" lon="7.59179">
        <ele>212</ele>
        <time>2010-12-10T05:00:13Z</time>
        <course>206.993826577339</course>
        <speed>5.62222934354782</speed>
      </trkpt>
      <trkpt lat="48.862141" lon="7.59375">
        <ele>216</ele>
        <time>2010-12-10T05:00:41Z</time>
        <course>206.558345059035</course>
        <speed>5.61309363162751</speed>
      </trkpt>
      <trkpt lat="48.862091" lon="7.5939">
        <ele>217</ele>
        <time>2010-12-10T05:00:43Z</time>
        <course>239.025850433161</course>
        <speed>7.60158066356024</speed>
      </trkpt>
      <trkpt lat="48.86208" lon="7.59401">
        <ele>217</ele>
        <time>2010-12-10T05:00:45Z</time>
        <course>312.552111543907</course>
        <speed>7.62274417764417</speed>
      </trkpt>
      <trkpt lat="48.86227" lon="7.59525">
        <ele>217</ele>
        <time>2010-12-10T05:00:57Z</time>
        <course>316.733798750955</course>
        <speed>7.60558651158609</speed>
      </trkpt>
      <trkpt lat="48.862309" lon="7.59547">
        <ele>217</ele>
        <time>2010-12-10T05:00:59Z</time>
        <course>302.201606246412</course>
        <speed>7.61787058951964</speed>
      </trkpt>
      <trkpt lat="48.86235" lon="7.59586">
        <ele>217</ele>
        <time>2010-12-10T05:01:03Z</time>
        <course>269.982769836732</course>
        <speed>7.62265862375906</speed>
      </trkpt>
      <trkpt lat="48.86235" lon="7.59647">
        <ele>217</ele>
        <time>2010-12-10T05:01:09Z</time>
        <course>243.451978556395</course>
        <speed>7.62276435135422</speed>
      </trkpt>
      <trkpt lat="48.86232" lon="7.59683">
        <ele>218</ele>
        <time>2010-12-10T05:01:12Z</time>
        <course>247.859597352584</course>
        <speed>8.33090145195913</speed>
      </trkpt>
      <trkpt lat="48.862301" lon="7.59711">
        <ele>217</ele>
        <time>2010-12-10T05:01:15Z</time>
        <course>228.215279334218</course>
        <speed>8.30934572822943</speed>
      </trkpt>
      <trkpt lat="48.862228" lon="7.5976">
        <ele>217</ele>
        <time>2010-12-10T05:01:19Z</time>
        <course>219.310585285109</course>
        <speed>8.30478482687252</speed>
      </trkpt>
      <trkpt lat="48.862171" lon="7.59788">
        <ele>217</ele>
        <time>2010-12-10T05:01:22Z</time>
        <course>237.2602241572</course>
        <speed>8.32870478586253</speed>
      </trkpt>
      <trkpt lat="48.862141" lon="7.59816">
        <ele>217</ele>
        <time>2010-12-10T05:01:24Z</time>
        <course>256.048640123225</course>
        <speed>8.33008773719057</speed>
      </trkpt>
      <trkpt lat="48.862129" lon="7.59845">
        <ele>216</ele>
        <time>2010-12-10T05:01:27Z</time>
        <course>269.989548526703</course>
        <speed>8.32248042715498</speed>
      </trkpt>
      <trkpt lat="48.862129" lon="7.59882">
        <ele>216</ele>
        <time>2010-12-10T05:01:30Z</time>
        <course>283.934976502824</course>
        <speed>8.33008773719057</speed>
      </trkpt>
      <trkpt lat="48.862141" lon="7.59911">
        <ele>216</ele>
        <time>2010-12-10T05:01:32Z</time>
        <course>300.952023939078</course>
        <speed>8.30815128852571</speed>
      </trkpt>
      <trkpt lat="48.862171" lon="7.59941">
        <ele>216</ele>
        <time>2010-12-10T05:01:35Z</time>
        <course>334.971126199698</course>
        <speed>8.3180352310384</speed>
      </trkpt>
      <trkpt lat="48.862221" lon="7.59955">
        <ele>216</ele>
        <time>2010-12-10T05:01:36Z</time>
        <course>187.978982078766</course>
        <speed>8.33016029870336</speed>
      </trkpt>
      <trkpt lat="48.862019" lon="7.59972">
        <ele>214</ele>
        <time>2010-12-10T05:01:40Z</time>
        <course>183.825430925909</course>
        <speed>8.31625390327231</speed>
      </trkpt>
      <trkpt lat="48.861671" lon="7.59986">
        <ele>213</ele>
        <time>2010-12-10T05:01:44Z</time>
        <course>183.32144541183</course>
        <speed>8.32318941212332</speed>
      </trkpt>
      <trkpt lat="48.861271" lon="7.6">
        <ele>211</ele>
        <time>2010-12-10T05:01:50Z</time>
        <course>184.145267020235</course>
        <speed>8.33377985430956</speed>
      </trkpt>
      <trkpt lat="48.861111" lon="7.60007">
        <ele>210</ele>
        <time>2010-12-10T05:01:52Z</time>
        <course>184.556594069281</course>
        <speed>8.31759814373452</speed>
      </trkpt>
      <trkpt lat="48.860531" lon="7.60035">
        <ele>208</ele>
        <time>2010-12-10T05:02:00Z</time>
        <course>183.815072690388</course>
        <speed>8.31745578244293</speed>
      </trkpt>
      <trkpt lat="48.859669" lon="7.6007">
        <ele>204</ele>
        <time>2010-12-10T05:02:12Z</time>
        <course>180.771047302998</course>
        <speed>8.32052853179928</speed>
      </trkpt>
      <trkpt lat="48.85894" lon="7.60076">
        <ele>203</ele>
        <time>2010-12-10T05:02:22Z</time>
        <course>180</course>
        <speed>8.31830508479039</speed>
      </trkpt>
      <trkpt lat="48.85841" lon="7.60076">
        <ele>203</ele>
        <time>2010-12-10T05:02:29Z</time>
        <course>180.777057797487</course>
        <speed>8.3205149794475</speed>
      </trkpt>
      <trkpt lat="48.85817" lon="7.60078">
        <ele>203</ele>
        <time>2010-12-10T05:02:32Z</time>
        <course>181.414099050816</course>
        <speed>8.31239311064647</speed>
      </trkpt>
      <trkpt lat="48.857841" lon="7.60083">
        <ele>203</ele>
        <time>2010-12-10T05:02:37Z</time>
        <course>182.634400175712</course>
        <speed>8.3208604466453</speed>
      </trkpt>
      <trkpt lat="48.857208" lon="7.60101">
        <ele>199</ele>
        <time>2010-12-10T05:02:45Z</time>
        <course>183.525948349582</course>
        <speed>8.3191392023985</speed>
      </trkpt>
      <trkpt lat="48.856972" lon="7.6011">
        <ele>198</ele>
        <time>2010-12-10T05:02:48Z</time>
        <course>184.827495751368</course>
        <speed>8.31834464898063</speed>
      </trkpt>
      <trkpt lat="48.8568" lon="7.60119">
        <ele>197</ele>
        <time>2010-12-10T05:02:51Z</time>
        <course>187.030901785166</course>
        <speed>8.32074909805084</speed>
      </trkpt>
      <trkpt lat="48.855721" lon="7.60202">
        <ele>191</ele>
        <time>2010-12-10T05:03:07Z</time>
        <course>186.859291977229</course>
        <speed>8.3209935976022</speed>
      </trkpt>
      <trkpt lat="48.854912" lon="7.60263">
        <ele>185</ele>
        <time>2010-12-10T05:03:19Z</time>
        <course>185.66298540564</course>
        <speed>8.31513760915214</speed>
      </trkpt>
      <trkpt lat="48.854271" lon="7.60303">
        <ele>180</ele>
        <time>2010-12-10T05:03:28Z</time>
        <course>185.356454580252</course>
        <speed>8.32132402254914</speed>
      </trkpt>
      <trkpt lat="48.85368" lon="7.60338">
        <ele>177</ele>
        <time>2010-12-10T05:03:37Z</time>
        <course>184.822533305762</course>
        <speed>8.32301864585392</speed>
      </trkpt>
      <trkpt lat="48.853119" lon="7.60368">
        <ele>174</ele>
        <time>2010-12-10T05:03:45Z</time>
        <course>184.762407454083</course>
        <speed>8.31531189926283</speed>
      </trkpt>
      <trkpt lat="48.85276" lon="7.60387">
        <ele>172</ele>
        <time>2010-12-10T05:03:50Z</time>
        <course>183.741371726037</course>
        <speed>8.31667704194788</speed>
      </trkpt>
      <trkpt lat="48.85228" lon="7.60407">
        <ele>170</ele>
        <time>2010-12-10T05:03:56Z</time>
        <course>184.154042919954</course>
        <speed>8.3181961334109</speed>
      </trkpt>
      <trkpt lat="48.851849" lon="7.60427">
        <ele>169</ele>
        <time>2010-12-10T05:04:02Z</time>
        <course>185.199381326154</course>
        <speed>4.96919866545894</speed>
      </trkpt>
      <trkpt lat="48.85154" lon="7.60445">
        <ele>170</ele>
        <time>2010-12-10T05:04:10Z</time>
        <course>185.819413105459</course>
        <speed>4.96274626149242</speed>
      </trkpt>
      <trkpt lat="48.851341" lon="7.60458">
        <ele>171</ele>
        <time>2010-12-10T05:04:15Z</time>
        <course>188.815715071739</course>
        <speed>4.96734928169283</speed>
      </trkpt>
      <trkpt lat="48.85112" lon="7.6048">
        <ele>172</ele>
        <time>2010-12-10T05:04:21Z</time>
        <course>188.859441288183</course>
        <speed>4.96819940866669</speed>
      </trkpt>
      <trkpt lat="48.850761" lon="7.60516">
        <ele>173</ele>
        <time>2010-12-10T05:04:30Z</time>
        <course>188.266271630837</course>
        <speed>4.96977502504781</speed>
      </trkpt>
      <trkpt lat="48.85059" lon="7.60532">
        <ele>174</ele>
        <time>2010-12-10T05:04:35Z</time>
        <course>191.923088930108</course>
        <speed>4.96674963900053</speed>
      </trkpt>
      <trkpt lat="48.84988" lon="7.60629">
        <ele>178</ele>
        <time>2010-12-10T05:04:56Z</time>
        <course>192.688589797851</course>
        <speed>8.31978906874394</speed>
      </trkpt>
      <trkpt lat="48.849251" lon="7.60721">
        <ele>174</ele>
        <time>2010-12-10T05:05:08Z</time>
        <course>191.81045480754</course>
        <speed>8.31644769998854</speed>
      </trkpt>
      <trkpt lat="48.848511" lon="7.60822">
        <ele>171</ele>
        <time>2010-12-10T05:05:21Z</time>
        <course>194.487605027148</course>
        <speed>8.32291472550562</speed>
      </trkpt>
      <trkpt lat="48.848221" lon="7.60871">
        <ele>171</ele>
        <time>2010-12-10T05:05:27Z</time>
        <course>196.428852810617</course>
        <speed>8.32387325247451</speed>
      </trkpt>
      <trkpt lat="48.848019" lon="7.6091">
        <ele>171</ele>
        <time>2010-12-10T05:05:31Z</time>
        <course>198.439961706047</course>
        <speed>8.33039535992095</speed>
      </trkpt>
      <trkpt lat="48.8479" lon="7.60936">
        <ele>171</ele>
        <time>2010-12-10T05:05:34Z</time>
        <course>208.818047512204</course>
        <speed>8.31281876036276</speed>
      </trkpt>
      <trkpt lat="48.847839" lon="7.60958">
        <ele>171</ele>
        <time>2010-12-10T05:05:36Z</time>
        <course>344.247858166394</course>
        <speed>8.33924759190362</speed>
      </trkpt>
      <trkpt lat="48.847931" lon="7.60975">
        <ele>171</ele>
        <time>2010-12-10T05:05:38Z</time>
        <course>304.6573682434</course>
        <speed>8.33156250424508</speed>
      </trkpt>
      <trkpt lat="48.84795" lon="7.60993">
        <ele>171</ele>
        <time>2010-12-10T05:05:40Z</time>
        <course>320.863054905496</course>
        <speed>8.31705139755416</speed>
      </trkpt>
      <trkpt lat="48.848042" lon="7.61042">
        <ele>171</ele>
        <time>2010-12-10T05:05:44Z</time>
        <course>320.863054905496</course>
        <speed>8.31705139755416</speed>
      </trkpt>
      <trkpt lat="48.848042" lon="7.61042">
        <ele>171</ele>
        <time>2010-12-10T05:05:45Z</time>
        <course>319.037665339145</course>
        <speed>8.32292137909091</speed>
      </trkpt>
      <trkpt lat="48.84819" lon="7.61126">
        <ele>170</ele>
        <time>2010-12-10T05:05:53Z</time>
        <course>293.92221439405</course>
        <speed>8.33322533744134</speed>
      </trkpt>
      <trkpt lat="48.848209" lon="7.61154">
        <ele>169</ele>
        <time>2010-12-10T05:05:55Z</time>
        <course>325.364054993049</course>
        <speed>8.30866350876302</speed>
      </trkpt>
      <trkpt lat="48.84824" lon="7.61168">
        <ele>169</ele>
        <time>2010-12-10T05:05:56Z</time>
        <course>326.744858461602</course>
        <speed>8.31255376160327</speed>
      </trkpt>
      <trkpt lat="48.848289" lon="7.61189">
        <ele>169</ele>
        <time>2010-12-10T05:05:58Z</time>
        <course>343.405687022058</course>
        <speed>8.31343681851121</speed>
      </trkpt>
      <trkpt lat="48.848541" lon="7.61238">
        <ele>168</ele>
        <time>2010-12-10T05:06:04Z</time>
        <course>349.294610788923</course>
        <speed>8.32359282705284</speed>
      </trkpt>
      <trkpt lat="48.84898" lon="7.61292">
        <ele>168</ele>
        <time>2010-12-10T05:06:11Z</time>
        <course>343.750101178824</course>
        <speed>7.68771248363893</speed>
      </trkpt>
      <trkpt lat="48.84935" lon="7.61362">
        <ele>168</ele>
        <time>2010-12-10T05:06:20Z</time>
        <course>333.312374624923</course>
        <speed>7.68428486582861</speed>
      </trkpt>
      <trkpt lat="48.849571" lon="7.61434">
        <ele>168</ele>
        <time>2010-12-10T05:06:28Z</time>
        <course>315.152178874642</course>
        <speed>7.68479172036636</speed>
      </trkpt>
      <trkpt lat="48.849689" lon="7.6151">
        <ele>168</ele>
        <time>2010-12-10T05:06:35Z</time>
        <course>249.046620974744</course>
        <speed>7.68401590515961</speed>
      </trkpt>
      <trkpt lat="48.84964" lon="7.61593">
        <ele>169</ele>
        <time>2010-12-10T05:06:43Z</time>
        <course>231.94729591521</course>
        <speed>8.3203047163512</speed>
      </trkpt>
      <trkpt lat="48.849529" lon="7.61685">
        <ele>168</ele>
        <time>2010-12-10T05:06:51Z</time>
        <course>221.5863397618</course>
        <speed>8.31713368308357</speed>
      </trkpt>
      <trkpt lat="48.84911" lon="7.61927">
        <ele>168</ele>
        <time>2010-12-10T05:07:13Z</time>
        <course>247.986802052463</course>
        <speed>8.31694679644127</speed>
      </trkpt>
      <trkpt lat="48.848949" lon="7.62187">
        <ele>166</ele>
        <time>2010-12-10T05:07:36Z</time>
        <course>224.897507906528</course>
        <speed>8.32008350340423</speed>
      </trkpt>
      <trkpt lat="48.848709" lon="7.62343">
        <ele>165</ele>
        <time>2010-12-10T05:07:50Z</time>
        <course>243.809518869869</course>
        <speed>6.13339579655216</speed>
      </trkpt>
      <trkpt lat="48.84866" lon="7.62408">
        <ele>165</ele>
        <time>2010-12-10T05:07:58Z</time>
        <course>313.996676483033</course>
        <speed>6.12890050133296</speed>
      </trkpt>
      <trkpt lat="48.848789" lon="7.62495">
        <ele>167</ele>
        <time>2010-12-10T05:08:09Z</time>
        <course>316.822038775583</course>
        <speed>6.13034577541451</speed>
      </trkpt>
      <trkpt lat="48.84903" lon="7.62642">
        <ele>169</ele>
        <time>2010-12-10T05:08:27Z</time>
        <course>311.344317080304</course>
        <speed>8.31724268585021</speed>
      </trkpt>
      <trkpt lat="48.849319" lon="7.62855">
        <ele>165</ele>
        <time>2010-12-10T05:08:46Z</time>
        <course>269.998301636012</course>
        <speed>8.27791442241265</speed>
      </trkpt>
      <trkpt lat="48.849319" lon="7.62861">
        <ele>165</ele>
        <time>2010-12-10T05:08:46Z</time>
        <course>230.47007477322</course>
        <speed>8.31853114130947</speed>
      </trkpt>
      <trkpt lat="48.849239" lon="7.62924">
        <ele>164</ele>
        <time>2010-12-10T05:08:52Z</time>
        <course>350.794657421564</course>
        <speed>6.11502336441412</speed>
      </trkpt>
      <trkpt lat="48.849258" lon="7.62926">
        <ele>164</ele>
        <time>2010-12-10T05:08:52Z</time>
        <course>345.829527446415</course>
        <speed>6.07964862834573</speed>
      </trkpt>
      <trkpt lat="48.849319" lon="7.62936">
        <ele>164</ele>
        <time>2010-12-10T05:08:54Z</time>
        <course>331.268550293088</course>
        <speed>6.0906616467909</speed>
      </trkpt>
      <trkpt lat="48.849609" lon="7.63039">
        <ele>165</ele>
        <time>2010-12-10T05:09:07Z</time>
        <course>323.038486725506</course>
        <speed>6.08868678339332</speed>
      </trkpt>
      <trkpt lat="48.8498" lon="7.63132">
        <ele>167</ele>
        <time>2010-12-10T05:09:19Z</time>
        <course>328.927478617461</course>
        <speed>6.09352084231236</speed>
      </trkpt>
      <trkpt lat="48.849972" lon="7.63199">
        <ele>168</ele>
        <time>2010-12-10T05:09:28Z</time>
        <course>297.774880148045</course>
        <speed>8.31545129781028</speed>
      </trkpt>
      <trkpt lat="48.850101" lon="7.63357">
        <ele>167</ele>
        <time>2010-12-10T05:09:42Z</time>
        <course>257.517197212738</course>
        <speed>8.32033676724126</speed>
      </trkpt>
      <trkpt lat="48.85006" lon="7.63477">
        <ele>167</ele>
        <time>2010-12-10T05:09:52Z</time>
        <course>230.259740400623</course>
        <speed>7.64785388221375</speed>
      </trkpt>
      <trkpt lat="48.849911" lon="7.63593">
        <ele>167</ele>
        <time>2010-12-10T05:10:04Z</time>
        <course>215.073715616212</course>
        <speed>7.64864071398878</speed>
      </trkpt>
      <trkpt lat="48.849689" lon="7.63694">
        <ele>167</ele>
        <time>2010-12-10T05:10:14Z</time>
        <course>232.609071538647</course>
        <speed>7.64694933937683</speed>
      </trkpt>
      <trkpt lat="48.84959" lon="7.63778">
        <ele>168</ele>
        <time>2010-12-10T05:10:22Z</time>
        <course>236.38586477729</course>
        <speed>8.31768550602869</speed>
      </trkpt>
      <trkpt lat="48.849461" lon="7.63904">
        <ele>166</ele>
        <time>2010-12-10T05:10:33Z</time>
        <course>218.363491966961</course>
        <speed>8.32018325368636</speed>
      </trkpt>
      <trkpt lat="48.849319" lon="7.63977">
        <ele>165</ele>
        <time>2010-12-10T05:10:40Z</time>
        <course>247.637371267289</course>
        <speed>8.31616733307766</speed>
      </trkpt>
      <trkpt lat="48.8493" lon="7.64007">
        <ele>164</ele>
        <time>2010-12-10T05:10:43Z</time>
        <course>180</course>
        <speed>8.44511999946553</speed>
      </trkpt>
      <trkpt lat="48.849281" lon="7.64007">
        <ele>164</ele>
        <time>2010-12-10T05:10:43Z</time>
        <course>184.192505730176</course>
        <speed>8.28949998039654</speed>
      </trkpt>
      <trkpt lat="48.849239" lon="7.64009">
        <ele>164</ele>
        <time>2010-12-10T05:10:43Z</time>
        <course>205.922287217414</course>
        <speed>8.25232747518971</speed>
      </trkpt>
      <trkpt lat="48.84922" lon="7.64015">
        <ele>164</ele>
        <time>2010-12-10T05:10:44Z</time>
        <course>220.012818559579</course>
        <speed>8.28071558718379</speed>
      </trkpt>
      <trkpt lat="48.849209" lon="7.64021">
        <ele>164</ele>
        <time>2010-12-10T05:10:45Z</time>
        <course>325.021580602235</course>
        <speed>8.38043751187481</speed>
      </trkpt>
      <trkpt lat="48.84922" lon="7.64026">
        <ele>164</ele>
        <time>2010-12-10T05:10:45Z</time>
        <course>338.951743479773</course>
        <speed>8.28107220929063</speed>
      </trkpt>
      <trkpt lat="48.849232" lon="7.64029">
        <ele>164</ele>
        <time>2010-12-10T05:10:45Z</time>
        <course>346.337518860528</course>
        <speed>8.22865643713158</speed>
      </trkpt>
      <trkpt lat="48.849251" lon="7.64032">
        <ele>164</ele>
        <time>2010-12-10T05:10:46Z</time>
        <course>356.403313624532</course>
        <speed>8.29096570776207</speed>
      </trkpt>
      <trkpt lat="48.8493" lon="7.64034">
        <ele>164</ele>
        <time>2010-12-10T05:10:46Z</time>
        <course>251.20825847173</course>
        <speed>6.58295343702278</speed>
      </trkpt>
      <trkpt lat="48.849289" lon="7.64055">
        <ele>164</ele>
        <time>2010-12-10T05:10:49Z</time>
        <course>306.745158541346</course>
        <speed>6.59820657229284</speed>
      </trkpt>
      <trkpt lat="48.849312" lon="7.64075">
        <ele>164</ele>
        <time>2010-12-10T05:10:51Z</time>
        <course>312.689841234131</course>
        <speed>6.58025937140068</speed>
      </trkpt>
      <trkpt lat="48.849339" lon="7.64094">
        <ele>164</ele>
        <time>2010-12-10T05:10:53Z</time>
        <course>182.003885269132</course>
        <speed>6.5915415075239</speed>
      </trkpt>
      <trkpt lat="48.849251" lon="7.64096">
        <ele>164</ele>
        <time>2010-12-10T05:10:55Z</time>
        <course>185.740187911701</course>
        <speed>6.58617053284298</speed>
      </trkpt>
      <trkpt lat="48.849098" lon="7.64106">
        <ele>164</ele>
        <time>2010-12-10T05:10:57Z</time>
        <course>193.647868348694</course>
        <speed>6.61871241470141</speed>
      </trkpt>
      <trkpt lat="48.849079" lon="7.64109">
        <ele>165</ele>
        <time>2010-12-10T05:10:58Z</time>
        <course>193.647868348694</course>
        <speed>6.61871241470141</speed>
      </trkpt>
      <trkpt lat="48.849079" lon="7.64109">
        <ele>165</ele>
        <time>2010-12-10T05:10:59Z</time>
        <course>197.937090487662</course>
        <speed>6.21943480319119</speed>
      </trkpt>
      <trkpt lat="48.84906" lon="7.64113">
        <ele>165</ele>
        <time>2010-12-10T05:10:59Z</time>
        <course>195.465609772852</course>
        <speed>6.28663484197463</speed>
      </trkpt>
      <trkpt lat="48.84901" lon="7.64122">
        <ele>165</ele>
        <time>2010-12-10T05:11:01Z</time>
        <course>212.317440366671</course>
        <speed>6.27126899825449</speed>
      </trkpt>
      <trkpt lat="48.848942" lon="7.6415">
        <ele>165</ele>
        <time>2010-12-10T05:11:04Z</time>
        <course>220.935368173424</course>
        <speed>6.271036744312</speed>
      </trkpt>
      <trkpt lat="48.848751" lon="7.64258">
        <ele>166</ele>
        <time>2010-12-10T05:11:17Z</time>
        <course>219.497302024583</course>
        <speed>6.27162315272009</speed>
      </trkpt>
      <trkpt lat="48.848671" lon="7.64301">
        <ele>167</ele>
        <time>2010-12-10T05:11:23Z</time>
        <course>221.221995024879</course>
        <speed>6.26185591924225</speed>
      </trkpt>
      <trkpt lat="48.848629" lon="7.64325">
        <ele>167</ele>
        <time>2010-12-10T05:11:25Z</time>
        <course>220.051921311064</course>
        <speed>6.2617965042803</speed>
      </trkpt>
      <trkpt lat="48.848598" lon="7.64342">
        <ele>167</ele>
        <time>2010-12-10T05:11:28Z</time>
        <course>227.120017064757</course>
        <speed>6.27095442107655</speed>
      </trkpt>
      <trkpt lat="48.848358" lon="7.64511">
        <ele>170</ele>
        <time>2010-12-10T05:11:48Z</time>
        <course>246.082370910964</course>
        <speed>7.62333554830682</speed>
      </trkpt>
      <trkpt lat="48.848339" lon="7.64539">
        <ele>170</ele>
        <time>2010-12-10T05:11:50Z</time>
        <course>254.86919856508</course>
        <speed>7.61645000540924</speed>
      </trkpt>
      <trkpt lat="48.848301" lon="7.64631">
        <ele>170</ele>
        <time>2010-12-10T05:11:59Z</time>
        <course>264.200105944917</course>
        <speed>7.61135045963391</speed>
      </trkpt>
      <trkpt lat="48.848282" lon="7.64754">
        <ele>170</ele>
        <time>2010-12-10T05:12:11Z</time>
        <course>275.013564450923</course>
        <speed>7.62163530799555</speed>
      </trkpt>
      <trkpt lat="48.848289" lon="7.64806">
        <ele>171</ele>
        <time>2010-12-10T05:12:16Z</time>
        <course>263.771095441165</course>
        <speed>8.32562196526871</speed>
      </trkpt>
      <trkpt lat="48.848282" lon="7.64848">
        <ele>170</ele>
        <time>2010-12-10T05:12:20Z</time>
        <course>220.349754044335</course>
        <speed>8.33069691075769</speed>
      </trkpt>
      <trkpt lat="48.848228" lon="7.64878">
        <ele>169</ele>
        <time>2010-12-10T05:12:22Z</time>
        <course>214.184151128194</course>
        <speed>8.31367836630827</speed>
      </trkpt>
      <trkpt lat="48.848129" lon="7.64922">
        <ele>169</ele>
        <time>2010-12-10T05:12:27Z</time>
        <course>211.418663780578</course>
        <speed>8.31350232307194</speed>
      </trkpt>
      <trkpt lat="48.848019" lon="7.64966">
        <ele>168</ele>
        <time>2010-12-10T05:12:31Z</time>
        <course>195.29606070886</course>
        <speed>8.32017242098521</speed>
      </trkpt>
      <trkpt lat="48.847618" lon="7.65038">
        <ele>167</ele>
        <time>2010-12-10T05:12:39Z</time>
        <course>195.626794082926</course>
        <speed>8.29279108019037</speed>
      </trkpt>
      <trkpt lat="48.847569" lon="7.65047">
        <ele>167</ele>
        <time>2010-12-10T05:12:40Z</time>
        <course>217.285247610646</course>
        <speed>8.26234975039197</speed>
      </trkpt>
      <trkpt lat="48.847561" lon="7.65051">
        <ele>167</ele>
        <time>2010-12-10T05:12:40Z</time>
        <course>203.506928758369</course>
        <speed>8.3519499000561</speed>
      </trkpt>
      <trkpt lat="48.847519" lon="7.65063">
        <ele>167</ele>
        <time>2010-12-10T05:12:42Z</time>
        <course>279.108870305349</course>
        <speed>8.3152988278016</speed>
      </trkpt>
      <trkpt lat="48.84753" lon="7.65108">
        <ele>167</ele>
        <time>2010-12-10T05:12:46Z</time>
        <course>283.479706676535</course>
        <speed>8.31509604637359</speed>
      </trkpt>
      <trkpt lat="48.847549" lon="7.6516">
        <ele>167</ele>
        <time>2010-12-10T05:12:50Z</time>
        <course>285.71118137333</course>
        <speed>8.30693839481152</speed>
      </trkpt>
      <trkpt lat="48.847561" lon="7.65188">
        <ele>167</ele>
        <time>2010-12-10T05:12:53Z</time>
        <course>307.141637093345</course>
        <speed>8.31996344981047</speed>
      </trkpt>
      <trkpt lat="48.847591" lon="7.65214">
        <ele>167</ele>
        <time>2010-12-10T05:12:55Z</time>
        <course>280.616309516348</course>
        <speed>8.33090880976936</speed>
      </trkpt>
      <trkpt lat="48.847599" lon="7.65242">
        <ele>167</ele>
        <time>2010-12-10T05:12:57Z</time>
        <course>280.222464386618</course>
        <speed>8.31680716506856</speed>
      </trkpt>
      <trkpt lat="48.84761" lon="7.65282">
        <ele>167</ele>
        <time>2010-12-10T05:13:01Z</time>
        <course>297.698979090126</course>
        <speed>8.33285355325988</speed>
      </trkpt>
      <trkpt lat="48.84763" lon="7.65307">
        <ele>167</ele>
        <time>2010-12-10T05:13:03Z</time>
        <course>316.01604432641</course>
        <speed>8.30691714075984</speed>
      </trkpt>
      <trkpt lat="48.84766" lon="7.65326">
        <ele>167</ele>
        <time>2010-12-10T05:13:05Z</time>
        <course>291.486002922214</course>
        <speed>6.6450053110626</speed>
      </trkpt>
      <trkpt lat="48.847672" lon="7.65346">
        <ele>167</ele>
        <time>2010-12-10T05:13:07Z</time>
        <course>293.993531388317</course>
        <speed>6.66125477988158</speed>
      </trkpt>
      <trkpt lat="48.847691" lon="7.65374">
        <ele>167</ele>
        <time>2010-12-10T05:13:10Z</time>
        <course>269.989524111228</course>
        <speed>6.64763225487626</speed>
      </trkpt>
      <trkpt lat="48.847691" lon="7.65411">
        <ele>167</ele>
        <time>2010-12-10T05:13:14Z</time>
        <course>269.995469885973</course>
        <speed>6.64763225484587</speed>
      </trkpt>
      <trkpt lat="48.847691" lon="7.65427">
        <ele>167</ele>
        <time>2010-12-10T05:13:16Z</time>
        <course>254.82255243787</course>
        <speed>6.64757777898526</speed>
      </trkpt>
      <trkpt lat="48.847672" lon="7.65473">
        <ele>168</ele>
        <time>2010-12-10T05:13:21Z</time>
        <course>274.511734380864</course>
        <speed>6.64875221923481</speed>
      </trkpt>
      <trkpt lat="48.847679" lon="7.65531">
        <ele>168</ele>
        <time>2010-12-10T05:13:27Z</time>
        <course>249.446364734976</course>
        <speed>6.65255819888692</speed>
      </trkpt>
      <trkpt lat="48.84761" lon="7.65652">
        <ele>170</ele>
        <time>2010-12-10T05:13:41Z</time>
        <course>244.216138274246</course>
        <speed>7.55821200042498</speed>
      </trkpt>
      <trkpt lat="48.847549" lon="7.65735">
        <ele>170</ele>
        <time>2010-12-10T05:13:49Z</time>
        <course>287.952132036509</course>
        <speed>7.56437880559531</speed>
      </trkpt>
      <trkpt lat="48.847591" lon="7.6582">
        <ele>170</ele>
        <time>2010-12-10T05:13:57Z</time>
        <course>343.052819695645</course>
        <speed>7.58983822692665</speed>
      </trkpt>
      <trkpt lat="48.847641" lon="7.6583">
        <ele>170</ele>
        <time>2010-12-10T05:13:58Z</time>
        <course>348.755088025071</course>
        <speed>7.54059418795262</speed>
      </trkpt>
      <trkpt lat="48.84771" lon="7.65839">
        <ele>170</ele>
        <time>2010-12-10T05:14:00Z</time>
        <course>352.336618496769</course>
        <speed>7.53238742056118</speed>
      </trkpt>
      <trkpt lat="48.847778" lon="7.65845">
        <ele>170</ele>
        <time>2010-12-10T05:14:01Z</time>
        <course>349.933717893033</course>
        <speed>7.56794860094688</speed>
      </trkpt>
      <trkpt lat="48.84795" lon="7.65865">
        <ele>170</ele>
        <time>2010-12-10T05:14:04Z</time>
        <course>348.13885644892</course>
        <speed>7.53994098192362</speed>
      </trkpt>
      <trkpt lat="48.84803" lon="7.65876">
        <ele>170</ele>
        <time>2010-12-10T05:14:06Z</time>
        <course>335.373532073714</course>
        <speed>7.54320422908616</speed>
      </trkpt>
      <trkpt lat="48.84808" lon="7.65891">
        <ele>171</ele>
        <time>2010-12-10T05:14:07Z</time>
        <course>339.47842676041</course>
        <speed>8.32810637954437</speed>
      </trkpt>
      <trkpt lat="48.848129" lon="7.65903">
        <ele>170</ele>
        <time>2010-12-10T05:14:08Z</time>
        <course>294.713032254397</course>
        <speed>8.30788995363607</speed>
      </trkpt>
      <trkpt lat="48.848148" lon="7.6593">
        <ele>170</ele>
        <time>2010-12-10T05:14:11Z</time>
        <course>297.833418720529</course>
        <speed>8.31007306618248</speed>
      </trkpt>
      <trkpt lat="48.84819" lon="7.65982">
        <ele>170</ele>
        <time>2010-12-10T05:14:15Z</time>
        <course>304.635207369307</course>
        <speed>8.31397614836498</speed>
      </trkpt>
      <trkpt lat="48.848282" lon="7.66069">
        <ele>169</ele>
        <time>2010-12-10T05:14:23Z</time>
        <course>297.838615618984</course>
        <speed>8.32362214852345</speed>
      </trkpt>
      <trkpt lat="48.84832" lon="7.66116">
        <ele>168</ele>
        <time>2010-12-10T05:14:27Z</time>
        <course>291.185529495115</course>
        <speed>8.31660815746682</speed>
      </trkpt>
      <trkpt lat="48.848358" lon="7.6618">
        <ele>168</ele>
        <time>2010-12-10T05:14:33Z</time>
        <course>296.869092139592</course>
        <speed>7.20964036729887</speed>
      </trkpt>
      <trkpt lat="48.848431" lon="7.66274">
        <ele>168</ele>
        <time>2010-12-10T05:14:43Z</time>
        <course>296.541080341521</course>
        <speed>7.21505354486388</speed>
      </trkpt>
      <trkpt lat="48.84848" lon="7.66338">
        <ele>168</ele>
        <time>2010-12-10T05:14:49Z</time>
        <course>277.907963336542</course>
        <speed>7.2107995227504</speed>
      </trkpt>
      <trkpt lat="48.848499" lon="7.66427">
        <ele>169</ele>
        <time>2010-12-10T05:14:58Z</time>
        <course>267.546896968922</course>
        <speed>7.21245963025023</speed>
      </trkpt>
      <trkpt lat="48.848492" lon="7.66535">
        <ele>170</ele>
        <time>2010-12-10T05:15:09Z</time>
        <course>257.436572643048</course>
        <speed>8.31845919551478</speed>
      </trkpt>
      <trkpt lat="48.848461" lon="7.66626">
        <ele>170</ele>
        <time>2010-12-10T05:15:17Z</time>
        <course>234.69738921206</course>
        <speed>8.3221946795986</speed>
      </trkpt>
      <trkpt lat="48.84837" lon="7.6671">
        <ele>170</ele>
        <time>2010-12-10T05:15:25Z</time>
        <course>227.126025097079</course>
        <speed>8.32035235562679</speed>
      </trkpt>
      <trkpt lat="48.848221" lon="7.66815">
        <ele>170</ele>
        <time>2010-12-10T05:15:34Z</time>
        <course>227.533401651732</course>
        <speed>8.31602768869887</speed>
      </trkpt>
      <trkpt lat="48.848091" lon="7.66908">
        <ele>169</ele>
        <time>2010-12-10T05:15:42Z</time>
        <course>228.647962839874</course>
        <speed>8.31868020722046</speed>
      </trkpt>
      <trkpt lat="48.84795" lon="7.67013">
        <ele>168</ele>
        <time>2010-12-10T05:15:52Z</time>
        <course>252.289138306046</course>
        <speed>8.31286203164234</speed>
      </trkpt>
      <trkpt lat="48.847931" lon="7.67052">
        <ele>168</ele>
        <time>2010-12-10T05:15:55Z</time>
        <course>213.036353207001</course>
        <speed>8.30631111811395</speed>
      </trkpt>
      <trkpt lat="48.84787" lon="7.67078">
        <ele>168</ele>
        <time>2010-12-10T05:15:58Z</time>
        <course>207.329505426538</course>
        <speed>8.32572954393887</speed>
      </trkpt>
      <trkpt lat="48.847752" lon="7.67118">
        <ele>168</ele>
        <time>2010-12-10T05:16:01Z</time>
        <course>197.133589470275</course>
        <speed>8.31834017327902</speed>
      </trkpt>
      <trkpt lat="48.847382" lon="7.67193">
        <ele>167</ele>
        <time>2010-12-10T05:16:10Z</time>
        <course>206.647573467362</course>
        <speed>8.31857343366442</speed>
      </trkpt>
      <trkpt lat="48.847149" lon="7.6727">
        <ele>167</ele>
        <time>2010-12-10T05:16:17Z</time>
        <course>216.796004058361</course>
        <speed>8.32151808402626</speed>
      </trkpt>
      <trkpt lat="48.84692" lon="7.67383">
        <ele>167</ele>
        <time>2010-12-10T05:16:28Z</time>
        <course>221.049983951211</course>
        <speed>8.32039294169085</speed>
      </trkpt>
      <trkpt lat="48.846649" lon="7.67539">
        <ele>166</ele>
        <time>2010-12-10T05:16:42Z</time>
        <course>240.7220210917</course>
        <speed>8.31805438416315</speed>
      </trkpt>
      <trkpt lat="48.8465" lon="7.67715">
        <ele>166</ele>
        <time>2010-12-10T05:16:57Z</time>
        <course>244.414819646566</course>
        <speed>8.31806979012426</speed>
      </trkpt>
      <trkpt lat="48.846329" lon="7.67952">
        <ele>164</ele>
        <time>2010-12-10T05:17:18Z</time>
        <course>251.435039981896</course>
        <speed>8.321753265459</speed>
      </trkpt>
      <trkpt lat="48.846291" lon="7.68027">
        <ele>164</ele>
        <time>2010-12-10T05:17:25Z</time>
        <course>236.478291246602</course>
        <speed>8.30771648778983</speed>
      </trkpt>
      <trkpt lat="48.84626" lon="7.68058">
        <ele>164</ele>
        <time>2010-12-10T05:17:28Z</time>
        <course>213.190783429103</course>
        <speed>8.32557215988886</speed>
      </trkpt>
      <trkpt lat="48.84623" lon="7.68071">
        <ele>164</ele>
        <time>2010-12-10T05:17:29Z</time>
        <course>210.295172049083</course>
        <speed>8.34251221045811</speed>
      </trkpt>
      <trkpt lat="48.846199" lon="7.68083">
        <ele>164</ele>
        <time>2010-12-10T05:17:30Z</time>
        <course>209.266808868867</course>
        <speed>8.31821882561882</speed>
      </trkpt>
      <trkpt lat="48.84589" lon="7.68198">
        <ele>164</ele>
        <time>2010-12-10T05:17:41Z</time>
        <course>205.726360355515</course>
        <speed>8.30283388443208</speed>
      </trkpt>
      <trkpt lat="48.84584" lon="7.68214">
        <ele>164</ele>
        <time>2010-12-10T05:17:43Z</time>
        <course>205.726360355515</course>
        <speed>8.30283388443208</speed>
      </trkpt>
      <trkpt lat="48.84584" lon="7.68214">
        <ele>164</ele>
        <time>2010-12-10T05:17:44Z</time>
        <course>208.985318054491</course>
        <speed>7.94656431357339</speed>
      </trkpt>
      <trkpt lat="48.844391" lon="7.68753">
        <ele>165</ele>
        <time>2010-12-10T05:18:37Z</time>
        <course>216.140895905869</course>
        <speed>8.3183535601397</speed>
      </trkpt>
      <trkpt lat="48.84412" lon="7.68886">
        <ele>163</ele>
        <time>2010-12-10T05:18:49Z</time>
        <course>223.971934165183</course>
        <speed>8.31526604635396</speed>
      </trkpt>
      <trkpt lat="48.843929" lon="7.6901">
        <ele>162</ele>
        <time>2010-12-10T05:19:01Z</time>
        <course>247.226896856213</course>
        <speed>8.31701209745724</speed>
      </trkpt>
      <trkpt lat="48.843781" lon="7.69248">
        <ele>161</ele>
        <time>2010-12-10T05:19:22Z</time>
        <course>239.482490705287</course>
        <speed>8.31247628952717</speed>
      </trkpt>
      <trkpt lat="48.843739" lon="7.69296">
        <ele>160</ele>
        <time>2010-12-10T05:19:26Z</time>
        <course>213.323793480456</course>
        <speed>8.31788883120186</speed>
      </trkpt>
      <trkpt lat="48.843159" lon="7.69554">
        <ele>159</ele>
        <time>2010-12-10T05:19:50Z</time>
        <course>212.369580379997</course>
        <speed>7.32240674534621</speed>
      </trkpt>
      <trkpt lat="48.842861" lon="7.69682">
        <ele>159</ele>
        <time>2010-12-10T05:20:03Z</time>
        <course>207.416441672368</course>
        <speed>7.32237772513354</speed>
      </trkpt>
      <trkpt lat="48.84256" lon="7.69788">
        <ele>160</ele>
        <time>2010-12-10T05:20:15Z</time>
        <course>203.888947001666</course>
        <speed>7.32059281833417</speed>
      </trkpt>
      <trkpt lat="48.84153" lon="7.701">
        <ele>162</ele>
        <time>2010-12-10T05:20:50Z</time>
        <course>203.764818079207</course>
        <speed>8.31745097206088</speed>
      </trkpt>
      <trkpt lat="48.840439" lon="7.70431">
        <ele>161</ele>
        <time>2010-12-10T05:21:22Z</time>
        <course>203.953507368724</course>
        <speed>8.31683389692151</speed>
      </trkpt>
      <trkpt lat="48.840279" lon="7.7048">
        <ele>160</ele>
        <time>2010-12-10T05:21:27Z</time>
        <course>223.879915984978</course>
        <speed>8.32337690270379</speed>
      </trkpt>
      <trkpt lat="48.840172" lon="7.70551">
        <ele>158</ele>
        <time>2010-12-10T05:21:33Z</time>
        <course>223.368363698041</course>
        <speed>8.31340341126734</speed>
      </trkpt>
      <trkpt lat="48.840031" lon="7.70643">
        <ele>156</ele>
        <time>2010-12-10T05:21:42Z</time>
        <course>269.994047376354</course>
        <speed>8.30182671137123</speed>
      </trkpt>
      <trkpt lat="48.840031" lon="7.70664">
        <ele>156</ele>
        <time>2010-12-10T05:21:44Z</time>
        <course>295.791711953656</course>
        <speed>8.35768336877333</speed>
      </trkpt>
      <trkpt lat="48.840038" lon="7.70674">
        <ele>156</ele>
        <time>2010-12-10T05:21:45Z</time>
        <course>335.70796409947</course>
        <speed>8.31223763198459</speed>
      </trkpt>
      <trkpt lat="48.840099" lon="7.70693">
        <ele>156</ele>
        <time>2010-12-10T05:21:46Z</time>
        <course>269.998299267383</course>
        <speed>7.56569387436873</speed>
      </trkpt>
      <trkpt lat="48.840099" lon="7.70699">
        <ele>156</ele>
        <time>2010-12-10T05:21:47Z</time>
        <course>307.637030496258</course>
        <speed>7.59695312170437</speed>
      </trkpt>
      <trkpt lat="48.840118" lon="7.70716">
        <ele>156</ele>
        <time>2010-12-10T05:21:49Z</time>
        <course>232.353332031983</course>
        <speed>7.59695312163424</speed>
      </trkpt>
      <trkpt lat="48.840099" lon="7.70733">
        <ele>156</ele>
        <time>2010-12-10T05:21:50Z</time>
        <course>203.141001857885</course>
        <speed>7.59329128576866</speed>
      </trkpt>
      <trkpt lat="48.840038" lon="7.70751">
        <ele>156</ele>
        <time>2010-12-10T05:21:52Z</time>
        <course>201.431560930441</course>
        <speed>7.59521678155984</speed>
      </trkpt>
      <trkpt lat="48.839828" lon="7.70808">
        <ele>156</ele>
        <time>2010-12-10T05:21:59Z</time>
        <course>215.631519257694</course>
        <speed>7.60132135825267</speed>
      </trkpt>
      <trkpt lat="48.839699" lon="7.70872">
        <ele>156</ele>
        <time>2010-12-10T05:22:05Z</time>
        <course>222.891587696199</course>
        <speed>7.59997500891499</speed>
      </trkpt>
      <trkpt lat="48.839119" lon="7.71247">
        <ele>158</ele>
        <time>2010-12-10T05:22:42Z</time>
        <course>227.718012719556</course>
        <speed>8.31860513213169</speed>
      </trkpt>
      <trkpt lat="48.838871" lon="7.71437">
        <ele>156</ele>
        <time>2010-12-10T05:22:59Z</time>
        <course>238.642849433039</course>
        <speed>8.32142611465473</speed>
      </trkpt>
      <trkpt lat="48.83876" lon="7.71564">
        <ele>156</ele>
        <time>2010-12-10T05:23:10Z</time>
        <course>217.716214559572</course>
        <speed>6.18054194991288</speed>
      </trkpt>
      <trkpt lat="48.838558" lon="7.71673">
        <ele>157</ele>
        <time>2010-12-10T05:23:24Z</time>
        <course>217.238294851955</course>
        <speed>6.17782683612507</speed>
      </trkpt>
      <trkpt lat="48.838051" lon="7.71943">
        <ele>161</ele>
        <time>2010-12-10T05:23:57Z</time>
        <course>214.73545098649</course>
        <speed>8.32291955588887</speed>
      </trkpt>
      <trkpt lat="48.837872" lon="7.7203">
        <ele>160</ele>
        <time>2010-12-10T05:24:05Z</time>
        <course>210.552572397416</course>
        <speed>8.31768186876925</speed>
      </trkpt>
      <trkpt lat="48.837448" lon="7.72206">
        <ele>160</ele>
        <time>2010-12-10T05:24:21Z</time>
        <course>212.519352928247</course>
        <speed>8.31921373628479</speed>
      </trkpt>
      <trkpt lat="48.836769" lon="7.72512">
        <ele>156</ele>
        <time>2010-12-10T05:24:50Z</time>
        <course>211.807476034801</course>
        <speed>7.05472703594228</speed>
      </trkpt>
      <trkpt lat="48.836262" lon="7.72735">
        <ele>157</ele>
        <time>2010-12-10T05:25:14Z</time>
        <course>210.908955417831</course>
        <speed>7.05167525218855</speed>
      </trkpt>
      <trkpt lat="48.836109" lon="7.728">
        <ele>158</ele>
        <time>2010-12-10T05:25:21Z</time>
        <course>208.376379096602</course>
        <speed>8.31474694169174</speed>
      </trkpt>
      <trkpt lat="48.835911" lon="7.72876">
        <ele>157</ele>
        <time>2010-12-10T05:25:29Z</time>
        <course>253.631768662452</course>
        <speed>8.32373239131598</speed>
      </trkpt>
      <trkpt lat="48.835892" lon="7.72922">
        <ele>157</ele>
        <time>2010-12-10T05:25:33Z</time>
        <course>312.954636895704</course>
        <speed>8.31683325858245</speed>
      </trkpt>
      <trkpt lat="48.835972" lon="7.72983">
        <ele>156</ele>
        <time>2010-12-10T05:25:38Z</time>
        <course>301.966076401097</course>
        <speed>8.31925340582402</speed>
      </trkpt>
      <trkpt lat="48.83606" lon="7.73083">
        <ele>156</ele>
        <time>2010-12-10T05:25:47Z</time>
        <course>312.022351990597</course>
        <speed>7.91253996415149</speed>
      </trkpt>
      <trkpt lat="48.83633" lon="7.73295">
        <ele>156</ele>
        <time>2010-12-10T05:26:07Z</time>
        <course>315.237024213366</course>
        <speed>7.90975326888046</speed>
      </trkpt>
      <trkpt lat="48.836769" lon="7.73602">
        <ele>157</ele>
        <time>2010-12-10T05:26:36Z</time>
        <course>316.466499435784</course>
        <speed>8.31928384436264</speed>
      </trkpt>
      <trkpt lat="48.837059" lon="7.73796">
        <ele>155</ele>
        <time>2010-12-10T05:26:54Z</time>
        <course>187.218007586218</course>
        <speed>8.32118005788036</speed>
      </trkpt>
      <trkpt lat="48.83659" lon="7.73838">
        <ele>155</ele>
        <time>2010-12-10T05:27:01Z</time>
        <course>182.332170858409</course>
        <speed>8.315233185864</speed>
      </trkpt>
      <trkpt lat="48.836071" lon="7.73853">
        <ele>154</ele>
        <time>2010-12-10T05:27:08Z</time>
        <course>180.143350351937</course>
        <speed>8.32344601818302</speed>
      </trkpt>
      <trkpt lat="48.83551" lon="7.73854">
        <ele>154</ele>
        <time>2010-12-10T05:27:15Z</time>
        <course>178.934961680097</course>
        <speed>8.3188720339148</speed>
      </trkpt>
      <trkpt lat="48.834759" lon="7.73844">
        <ele>154</ele>
        <time>2010-12-10T05:27:25Z</time>
        <course>178.441693671421</course>
        <speed>8.31553788331421</speed>
      </trkpt>
      <trkpt lat="48.83374" lon="7.73824">
        <ele>152</ele>
        <time>2010-12-10T05:27:39Z</time>
        <course>178.081971984139</course>
        <speed>8.31759556895535</speed>
      </trkpt>
      <trkpt lat="48.832958" lon="7.73805">
        <ele>152</ele>
        <time>2010-12-10T05:27:50Z</time>
        <course>177.094695820542</course>
        <speed>8.31734170980441</speed>
      </trkpt>
      <trkpt lat="48.83239" lon="7.73784">
        <ele>151</ele>
        <time>2010-12-10T05:27:58Z</time>
        <course>179.458741639361</course>
        <speed>8.31391487219062</speed>
      </trkpt>
      <trkpt lat="48.8321" lon="7.73782">
        <ele>151</ele>
        <time>2010-12-10T05:28:01Z</time>
        <course>183.795846506197</course>
        <speed>8.32483296760618</speed>
      </trkpt>
      <trkpt lat="48.831791" lon="7.73797">
        <ele>151</ele>
        <time>2010-12-10T05:28:06Z</time>
        <course>185.377119813615</course>
        <speed>8.31805228582927</speed>
      </trkpt>
      <trkpt lat="48.830582" lon="7.73881">
        <ele>150</ele>
        <time>2010-12-10T05:28:24Z</time>
        <course>185.415197881772</course>
        <speed>8.31229678900909</speed>
      </trkpt>
      <trkpt lat="48.830311" lon="7.739">
        <ele>150</ele>
        <time>2010-12-10T05:28:28Z</time>
        <course>187.262954884026</course>
        <speed>8.32917987334569</speed>
      </trkpt>
      <trkpt lat="48.830078" lon="7.73922">
        <ele>150</ele>
        <time>2010-12-10T05:28:31Z</time>
        <course>312.088181458141</course>
        <speed>8.32161423942294</speed>
      </trkpt>
      <trkpt lat="48.830139" lon="7.73972">
        <ele>150</ele>
        <time>2010-12-10T05:28:36Z</time>
        <course>317.992210742452</course>
        <speed>8.30310935719034</speed>
      </trkpt>
      <trkpt lat="48.830181" lon="7.74">
        <ele>150</ele>
        <time>2010-12-10T05:28:38Z</time>
        <course>11.1666255748024</course>
        <speed>8.31246456966871</speed>
      </trkpt>
      <trkpt lat="48.830318" lon="7.7398">
        <ele>150</ele>
        <time>2010-12-10T05:28:41Z</time>
        <course>11.1666255748024</course>
        <speed>8.31246456966871</speed>
      </trkpt>
      <trkpt lat="48.830318" lon="7.7398">
        <ele>150</ele>
        <time>2010-12-10T05:28:42Z</time>
        <course>191.155271552619</course>
        <speed>7.56762007417868</speed>
      </trkpt>
      <trkpt lat="48.830181" lon="7.74">
        <ele>150</ele>
        <time>2010-12-10T05:28:45Z</time>
        <course>193.668132038981</course>
        <speed>7.56346623259348</speed>
      </trkpt>
      <trkpt lat="48.83007" lon="7.7402">
        <ele>150</ele>
        <time>2010-12-10T05:28:47Z</time>
        <course>188.613746856709</course>
        <speed>7.57669740610565</speed>
      </trkpt>
      <trkpt lat="48.82975" lon="7.74056">
        <ele>150</ele>
        <time>2010-12-10T05:28:53Z</time>
        <course>195.307988869278</course>
        <speed>7.57726151095592</speed>
      </trkpt>
      <trkpt lat="48.829529" lon="7.74101">
        <ele>150</ele>
        <time>2010-12-10T05:28:58Z</time>
        <course>201.432843282552</course>
        <speed>7.56682971966437</speed>
      </trkpt>
      <trkpt lat="48.829399" lon="7.74139">
        <ele>150</ele>
        <time>2010-12-10T05:29:02Z</time>
        <course>207.478318062844</course>
        <speed>7.56425596267923</speed>
      </trkpt>
      <trkpt lat="48.829319" lon="7.7417">
        <ele>150</ele>
        <time>2010-12-10T05:29:06Z</time>
        <course>213.385703824814</course>
        <speed>7.57568885962328</speed>
      </trkpt>
      <trkpt lat="48.829262" lon="7.74198">
        <ele>151</ele>
        <time>2010-12-10T05:29:08Z</time>
        <course>214.987001412479</course>
        <speed>8.31145016058475</speed>
      </trkpt>
      <trkpt lat="48.829239" lon="7.7421">
        <ele>150</ele>
        <time>2010-12-10T05:29:10Z</time>
        <course>236.467340609502</course>
        <speed>8.30415854770763</speed>
      </trkpt>
      <trkpt lat="48.829231" lon="7.74219">
        <ele>150</ele>
        <time>2010-12-10T05:29:10Z</time>
        <course>175.860798612699</course>
        <speed>8.32367864295371</speed>
      </trkpt>
      <trkpt lat="48.828972" lon="7.74205">
        <ele>150</ele>
        <time>2010-12-10T05:29:14Z</time>
        <course>176.317359059406</course>
        <speed>8.32343414782294</speed>
      </trkpt>
      <trkpt lat="48.82864" lon="7.74189">
        <ele>149</ele>
        <time>2010-12-10T05:29:19Z</time>
        <course>176.560109800288</course>
        <speed>8.30013059840102</speed>
      </trkpt>
      <trkpt lat="48.828529" lon="7.74184">
        <ele>149</ele>
        <time>2010-12-10T05:29:20Z</time>
        <course>176.467944870757</course>
        <speed>8.31853266769345</speed>
      </trkpt>
      <trkpt lat="48.828098" lon="7.74164">
        <ele>148</ele>
        <time>2010-12-10T05:29:26Z</time>
        <course>178.612800521425</course>
        <speed>8.32277392720091</speed>
      </trkpt>
      <trkpt lat="48.82766" lon="7.74156">
        <ele>147</ele>
        <time>2010-12-10T05:29:32Z</time>
        <course>178.833754949753</course>
        <speed>8.32063129209589</speed>
      </trkpt>
      <trkpt lat="48.8274" lon="7.74152">
        <ele>147</ele>
        <time>2010-12-10T05:29:36Z</time>
        <course>179.022125769698</course>
        <speed>8.31644907058166</speed>
      </trkpt>
      <trkpt lat="48.826019" lon="7.74134">
        <ele>147</ele>
        <time>2010-12-10T05:29:54Z</time>
        <course>178.490447366914</course>
        <speed>8.3231893531012</speed>
      </trkpt>
      <trkpt lat="48.825771" lon="7.74129">
        <ele>147</ele>
        <time>2010-12-10T05:29:58Z</time>
        <course>177.049791767271</course>
        <speed>8.31012721862256</speed>
      </trkpt>
      <trkpt lat="48.825619" lon="7.74123">
        <ele>147</ele>
        <time>2010-12-10T05:30:00Z</time>
        <course>175.674005143083</course>
        <speed>8.28960780415924</speed>
      </trkpt>
      <trkpt lat="48.82555" lon="7.74119">
        <ele>147</ele>
        <time>2010-12-10T05:30:01Z</time>
        <course>175.481557905633</course>
        <speed>8.34101430324077</speed>
      </trkpt>
      <trkpt lat="48.825451" lon="7.74113">
        <ele>146</ele>
        <time>2010-12-10T05:30:02Z</time>
        <course>142.745793070816</course>
        <speed>8.26829704760712</speed>
      </trkpt>
      <trkpt lat="48.825439" lon="7.74106">
        <ele>146</ele>
        <time>2010-12-10T05:30:03Z</time>
        <course>160.83267378929</course>
        <speed>8.31523845685476</speed>
      </trkpt>
      <trkpt lat="48.825409" lon="7.74098">
        <ele>146</ele>
        <time>2010-12-10T05:30:03Z</time>
        <course>172.576135644519</course>
        <speed>8.31497412464159</speed>
      </trkpt>
      <trkpt lat="48.825359" lon="7.74093">
        <ele>146</ele>
        <time>2010-12-10T05:30:04Z</time>
        <course>177.55484731425</course>
        <speed>8.35473999259741</speed>
      </trkpt>
      <trkpt lat="48.825298" lon="7.74091">
        <ele>146</ele>
        <time>2010-12-10T05:30:05Z</time>
        <course>182.615377818987</course>
        <speed>8.33415082172276</speed>
      </trkpt>
      <trkpt lat="48.825241" lon="7.74093">
        <ele>146</ele>
        <time>2010-12-10T05:30:06Z</time>
        <course>187.065496782758</course>
        <speed>8.34631518774779</speed>
      </trkpt>
      <trkpt lat="48.825199" lon="7.74097">
        <ele>146</ele>
        <time>2010-12-10T05:30:07Z</time>
        <course>191.610309811063</course>
        <speed>8.23070821875385</speed>
      </trkpt>
      <trkpt lat="48.82518" lon="7.741">
        <ele>146</ele>
        <time>2010-12-10T05:30:07Z</time>
        <course>191.608674574406</course>
        <speed>8.2307098423543</speed>
      </trkpt>
      <trkpt lat="48.825161" lon="7.74103">
        <ele>146</ele>
        <time>2010-12-10T05:30:07Z</time>
        <course>210.597016817327</course>
        <speed>8.3840588221906</speed>
      </trkpt>
      <trkpt lat="48.82515" lon="7.74108">
        <ele>146</ele>
        <time>2010-12-10T05:30:08Z</time>
        <course>180.999278007898</course>
        <speed>8.3107017227594</speed>
      </trkpt>
      <trkpt lat="48.825001" lon="7.7411">
        <ele>145</ele>
        <time>2010-12-10T05:30:10Z</time>
        <course>180.670156011798</course>
        <speed>8.29261503071601</speed>
      </trkpt>
      <trkpt lat="48.82489" lon="7.74111">
        <ele>145</ele>
        <time>2010-12-10T05:30:11Z</time>
        <course>180.353946178874</course>
        <speed>8.31826151604349</speed>
      </trkpt>
      <trkpt lat="48.824471" lon="7.74113">
        <ele>145</ele>
        <time>2010-12-10T05:30:17Z</time>
        <course>178.600841023432</course>
        <speed>8.31466569457246</speed>
      </trkpt>
      <trkpt lat="48.823681" lon="7.74098">
        <ele>144</ele>
        <time>2010-12-10T05:30:27Z</time>
        <course>181.648629257163</course>
        <speed>8.32587148570938</speed>
      </trkpt>
      <trkpt lat="48.82328" lon="7.74107">
        <ele>144</ele>
        <time>2010-12-10T05:30:33Z</time>
        <course>183.493381570409</course>
        <speed>8.28988486792403</speed>
      </trkpt>
      <trkpt lat="48.823238" lon="7.74109">
        <ele>144</ele>
        <time>2010-12-10T05:30:33Z</time>
        <course>183.493381570409</course>
        <speed>8.28988486792403</speed>
      </trkpt>
      <trkpt lat="48.823238" lon="7.74109">
        <ele>144</ele>
        <time>2010-12-10T05:30:34Z</time>
        <course>3.49451802748412</course>
        <speed>8.28988486792403</speed>
      </trkpt>
      <trkpt lat="48.82328" lon="7.74107">
        <ele>144</ele>
        <time>2010-12-10T05:30:35Z</time>
        <course>3.49451802748412</course>
        <speed>8.28988486792403</speed>
      </trkpt>
      <trkpt lat="48.82328" lon="7.74107">
        <ele>144</ele>
        <time>2010-12-10T05:30:36Z</time>
        <course>1.65374316752948</course>
        <speed>8.32587148570938</speed>
      </trkpt>
      <trkpt lat="48.823681" lon="7.74098">
        <ele>144</ele>
        <time>2010-12-10T05:30:41Z</time>
        <course>358.592318497847</course>
        <speed>8.31466569457246</speed>
      </trkpt>
      <trkpt lat="48.824471" lon="7.74113">
        <ele>144</ele>
        <time>2010-12-10T05:30:52Z</time>
        <course>178.600841023432</course>
        <speed>8.31466569457246</speed>
      </trkpt>
      <trkpt lat="48.823681" lon="7.74098">
        <ele>144</ele>
        <time>2010-12-10T05:31:03Z</time>
        <course>181.648629257163</course>
        <speed>8.32587148570938</speed>
      </trkpt>
      <trkpt lat="48.82328" lon="7.74107">
        <ele>143</ele>
        <time>2010-12-10T05:31:08Z</time>
        <course>183.120134377917</course>
        <speed>8.30163574314704</speed>
      </trkpt>
      <trkpt lat="48.823139" lon="7.74113">
        <ele>143</ele>
        <time>2010-12-10T05:31:10Z</time>
        <course>182.455279253069</course>
        <speed>8.31391347970158</speed>
      </trkpt>
      <trkpt lat="48.82296" lon="7.74119">
        <ele>143</ele>
        <time>2010-12-10T05:31:13Z</time>
        <course>181.92749679608</course>
        <speed>8.24128840020141</speed>
      </trkpt>
      <trkpt lat="48.822922" lon="7.7412">
        <ele>143</ele>
        <time>2010-12-10T05:31:13Z</time>
        <course>201.933550464449</course>
        <speed>8.30223145474964</speed>
      </trkpt>
      <trkpt lat="48.822849" lon="7.74143">
        <ele>143</ele>
        <time>2010-12-10T05:31:15Z</time>
        <course>202.066941233014</course>
        <speed>8.32223150994543</speed>
      </trkpt>
      <trkpt lat="48.822701" lon="7.7419">
        <ele>142</ele>
        <time>2010-12-10T05:31:20Z</time>
        <course>199.110051350959</course>
        <speed>8.32156309088089</speed>
      </trkpt>
      <trkpt lat="48.822319" lon="7.74294">
        <ele>142</ele>
        <time>2010-12-10T05:31:30Z</time>
        <course>202.593141108976</course>
        <speed>7.41775270524091</speed>
      </trkpt>
      <trkpt lat="48.822151" lon="7.74349">
        <ele>142</ele>
        <time>2010-12-10T05:31:36Z</time>
        <course>213.588614644909</course>
        <speed>7.41123420530299</speed>
      </trkpt>
      <trkpt lat="48.822021" lon="7.74417">
        <ele>142</ele>
        <time>2010-12-10T05:31:43Z</time>
        <course>218.986562154571</course>
        <speed>7.41334173723233</speed>
      </trkpt>
      <trkpt lat="48.82188" lon="7.74507">
        <ele>142</ele>
        <time>2010-12-10T05:31:53Z</time>
        <course>221.860228314502</course>
        <speed>7.4145834726214</speed>
      </trkpt>
      <trkpt lat="48.821571" lon="7.74726">
        <ele>144</ele>
        <time>2010-12-10T05:32:15Z</time>
        <course>221.855735414752</course>
        <speed>8.31369551847447</speed>
      </trkpt>
      <trkpt lat="48.821468" lon="7.74799">
        <ele>144</ele>
        <time>2010-12-10T05:32:21Z</time>
        <course>175.74855744773</course>
        <speed>8.35369082616904</speed>
      </trkpt>
      <trkpt lat="48.8214" lon="7.74795">
        <ele>144</ele>
        <time>2010-12-10T05:32:22Z</time>
        <course>175.74855744773</course>
        <speed>8.35369082616904</speed>
      </trkpt>
      <trkpt lat="48.8214" lon="7.74795">
        <ele>144</ele>
        <time>2010-12-10T05:32:23Z</time>
        <course>355.746284001075</course>
        <speed>8.35369082616904</speed>
      </trkpt>
      <trkpt lat="48.821468" lon="7.74799">
        <ele>144</ele>
        <time>2010-12-10T05:32:24Z</time>
        <course>220.431871474626</course>
        <speed>8.31528682976542</speed>
      </trkpt>
      <trkpt lat="48.821308" lon="7.74907">
        <ele>144</ele>
        <time>2010-12-10T05:32:34Z</time>
        <course>214.347234170869</course>
        <speed>8.31913571981327</speed>
      </trkpt>
      <trkpt lat="48.821072" lon="7.75035">
        <ele>144</ele>
        <time>2010-12-10T05:32:46Z</time>
        <course>213.232494798096</course>
        <speed>8.32034071524706</speed>
      </trkpt>
      <trkpt lat="48.82066" lon="7.7525">
        <ele>144</ele>
        <time>2010-12-10T05:33:05Z</time>
        <course>209.721004400891</course>
        <speed>8.32019710077041</speed>
      </trkpt>
      <trkpt lat="48.820309" lon="7.7541">
        <ele>142</ele>
        <time>2010-12-10T05:33:20Z</time>
        <course>209.642093628826</course>
        <speed>8.31699321377753</speed>
      </trkpt>
      <trkpt lat="48.820221" lon="7.7545">
        <ele>142</ele>
        <time>2010-12-10T05:33:24Z</time>
        <course>209.248950723669</course>
        <speed>8.31588725439192</speed>
      </trkpt>
      <trkpt lat="48.81992" lon="7.75585">
        <ele>141</ele>
        <time>2010-12-10T05:33:36Z</time>
        <course>211.312014971215</course>
        <speed>7.82855192577386</speed>
      </trkpt>
      <trkpt lat="48.819881" lon="7.75604">
        <ele>141</ele>
        <time>2010-12-10T05:33:38Z</time>
        <course>211.097468003806</course>
        <speed>7.81447734971624</speed>
      </trkpt>
      <trkpt lat="48.819759" lon="7.75663">
        <ele>141</ele>
        <time>2010-12-10T05:33:44Z</time>
        <course>208.387792216528</course>
        <speed>7.81293712035652</speed>
      </trkpt>
      <trkpt lat="48.819729" lon="7.75676">
        <ele>141</ele>
        <time>2010-12-10T05:33:45Z</time>
        <course>208.835066745402</course>
        <speed>7.81831842090913</speed>
      </trkpt>
      <trkpt lat="48.81937" lon="7.75835">
        <ele>141</ele>
        <time>2010-12-10T05:34:01Z</time>
        <course>210.987266995867</course>
        <speed>7.81911496040362</speed>
      </trkpt>
      <trkpt lat="48.81905" lon="7.7599">
        <ele>142</ele>
        <time>2010-12-10T05:34:16Z</time>
        <course>209.383611968351</course>
        <speed>7.80777272708973</speed>
      </trkpt>
      <trkpt lat="48.81876" lon="7.76122">
        <ele>142</ele>
        <time>2010-12-10T05:34:29Z</time>
        <course>217.578750357811</course>
        <speed>7.80639465535263</speed>
      </trkpt>
      <trkpt lat="48.818569" lon="7.76241">
        <ele>142</ele>
        <time>2010-12-10T05:34:41Z</time>
        <course>235.775217671752</course>
        <speed>7.80905029502913</speed>
      </trkpt>
      <trkpt lat="48.818439" lon="7.76396">
        <ele>143</ele>
        <time>2010-12-10T05:34:55Z</time>
        <course>244.923837777202</course>
        <speed>8.32040420277536</speed>
      </trkpt>
      <trkpt lat="48.818329" lon="7.76587">
        <ele>142</ele>
        <time>2010-12-10T05:35:12Z</time>
        <course>291.188680519057</course>
        <speed>8.31167500670695</speed>
      </trkpt>
      <trkpt lat="48.81834" lon="7.7661">
        <ele>142</ele>
        <time>2010-12-10T05:35:14Z</time>
        <course>184.621638205658</course>
        <speed>8.29568473931881</speed>
      </trkpt>
      <trkpt lat="48.818279" lon="7.76614">
        <ele>142</ele>
        <time>2010-12-10T05:35:15Z</time>
        <course>183.192625616248</course>
        <speed>8.31893172272992</speed>
      </trkpt>
      <trkpt lat="48.817162" lon="7.76665">
        <ele>142</ele>
        <time>2010-12-10T05:35:31Z</time>
        <course>183.192625616248</course>
        <speed>8.31893172272992</speed>
      </trkpt>
      <trkpt lat="48.817162" lon="7.76665">
        <ele>142</ele>
        <time>2010-12-10T05:35:32Z</time>
        <course>183.322682157291</course>
        <speed>7.66227638227582</speed>
      </trkpt>
      <trkpt lat="48.81691" lon="7.76677">
        <ele>142</ele>
        <time>2010-12-10T05:35:36Z</time>
        <course>193.364856299332</course>
        <speed>7.66885383965282</speed>
      </trkpt>
      <trkpt lat="48.816608" lon="7.76736">
        <ele>142</ele>
        <time>2010-12-10T05:35:43Z</time>
        <course>202.243926312995</course>
        <speed>7.66746432856688</speed>
      </trkpt>
      <trkpt lat="48.816341" lon="7.76826">
        <ele>142</ele>
        <time>2010-12-10T05:35:52Z</time>
        <course>187.347796721057</course>
        <speed>7.65187295906362</speed>
      </trkpt>
      <trkpt lat="48.8162" lon="7.76841">
        <ele>142</ele>
        <time>2010-12-10T05:35:55Z</time>
        <course>182.150236175886</course>
        <speed>7.65980361624534</speed>
      </trkpt>
      <trkpt lat="48.816071" lon="7.76845">
        <ele>142</ele>
        <time>2010-12-10T05:35:56Z</time>
        <course>181.24106519609</course>
        <speed>7.66931947691326</speed>
      </trkpt>
      <trkpt lat="48.815681" lon="7.76852">
        <ele>143</ele>
        <time>2010-12-10T05:36:02Z</time>
        <course>180.597921287682</course>
        <speed>7.78888339141295</speed>
      </trkpt>
      <trkpt lat="48.814991" lon="7.76858">
        <ele>143</ele>
        <time>2010-12-10T05:36:12Z</time>
        <course>179.258692448431</course>
        <speed>7.78633001534634</speed>
      </trkpt>
      <trkpt lat="48.814529" lon="7.76853">
        <ele>143</ele>
        <time>2010-12-10T05:36:19Z</time>
        <course>90.0011376964254</course>
        <speed>7.70235464691436</speed>
      </trkpt>
      <trkpt lat="48.814529" lon="7.76849">
        <ele>143</ele>
        <time>2010-12-10T05:36:19Z</time>
        <course>164.416624142912</course>
        <speed>7.83504986982921</speed>
      </trkpt>
      <trkpt lat="48.814499" lon="7.76842">
        <ele>143</ele>
        <time>2010-12-10T05:36:20Z</time>
        <course>175.207624497024</course>
        <speed>7.75267871701443</speed>
      </trkpt>
      <trkpt lat="48.814442" lon="7.76838">
        <ele>143</ele>
        <time>2010-12-10T05:36:21Z</time>
        <course>181.266838776132</course>
        <speed>7.74991062853354</speed>
      </trkpt>
      <trkpt lat="48.814388" lon="7.76839">
        <ele>143</ele>
        <time>2010-12-10T05:36:21Z</time>
        <course>190.674513183904</course>
        <speed>7.80949625272441</speed>
      </trkpt>
      <trkpt lat="48.81435" lon="7.76845">
        <ele>143</ele>
        <time>2010-12-10T05:36:22Z</time>
        <course>200.652474390052</course>
        <speed>7.73274171605451</speed>
      </trkpt>
      <trkpt lat="48.814331" lon="7.76851">
        <ele>143</ele>
        <time>2010-12-10T05:36:23Z</time>
        <course>181.194725065352</course>
        <speed>7.78950576733154</speed>
      </trkpt>
      <trkpt lat="48.813141" lon="7.76872">
        <ele>144</ele>
        <time>2010-12-10T05:36:40Z</time>
        <course>180.959212503428</course>
        <speed>5.68091029060995</speed>
      </trkpt>
      <trkpt lat="48.813" lon="7.76874">
        <ele>144</ele>
        <time>2010-12-10T05:36:43Z</time>
        <course>179.501838290407</course>
        <speed>5.68202222919151</speed>
      </trkpt>
      <trkpt lat="48.812191" lon="7.76868">
        <ele>146</ele>
        <time>2010-12-10T05:36:59Z</time>
        <course>180</course>
        <speed>5.68323664121112</speed>
      </trkpt>
      <trkpt lat="48.811588" lon="7.76868">
        <ele>148</ele>
        <time>2010-12-10T05:37:10Z</time>
        <course>181.66160299566</course>
        <speed>5.68340592524769</speed>
      </trkpt>
      <trkpt lat="48.810829" lon="7.76887">
        <ele>150</ele>
        <time>2010-12-10T05:37:25Z</time>
        <course>181.972428529764</course>
        <speed>6.00105563985395</speed>
      </trkpt>
      <trkpt lat="48.810661" lon="7.76892">
        <ele>150</ele>
        <time>2010-12-10T05:37:29Z</time>
        <course>205.165203673648</course>
        <speed>5.99440284519156</speed>
      </trkpt>
      <trkpt lat="48.8102" lon="7.7708">
        <ele>153</ele>
        <time>2010-12-10T05:37:53Z</time>
        <course>204.30414316883</course>
        <speed>5.99091576433799</speed>
      </trkpt>
      <trkpt lat="48.81007" lon="7.77131">
        <ele>154</ele>
        <time>2010-12-10T05:38:00Z</time>
        <course>205.462006920061</course>
        <speed>7.60476917346586</speed>
      </trkpt>
      <trkpt lat="48.809639" lon="7.7731">
        <ele>154</ele>
        <time>2010-12-10T05:38:18Z</time>
        <course>207.128876528481</course>
        <speed>7.60619042649699</speed>
      </trkpt>
      <trkpt lat="48.809429" lon="7.77404">
        <ele>155</ele>
        <time>2010-12-10T05:38:28Z</time>
        <course>207.128876528481</course>
        <speed>7.60619042649699</speed>
      </trkpt>
      <trkpt lat="48.809429" lon="7.77404">
        <ele>155</ele>
        <time>2010-12-10T05:38:29Z</time>
        <course>208.632601583984</course>
        <speed>8.31278131011356</speed>
      </trkpt>
      <trkpt lat="48.809341" lon="7.77446">
        <ele>155</ele>
        <time>2010-12-10T05:38:33Z</time>
        <course>176.047442052764</course>
        <speed>8.31923761590365</speed>
      </trkpt>
      <trkpt lat="48.80883" lon="7.77415">
        <ele>155</ele>
        <time>2010-12-10T05:38:40Z</time>
        <course>178.598362911916</course>
        <speed>8.32162358286205</speed>
      </trkpt>
      <trkpt lat="48.808182" lon="7.77401">
        <ele>155</ele>
        <time>2010-12-10T05:38:49Z</time>
        <course>136.661369533303</course>
        <speed>8.35803934643398</speed>
      </trkpt>
      <trkpt lat="48.80817" lon="7.77391">
        <ele>155</ele>
        <time>2010-12-10T05:38:50Z</time>
        <course>136.661369533303</course>
        <speed>8.35803934643398</speed>
      </trkpt>
      <trkpt lat="48.80817" lon="7.77391">
        <ele>155</ele>
        <time>2010-12-10T05:38:51Z</time>
        <course>134.172611235578</course>
        <speed>7.57096215297957</speed>
      </trkpt>
      <trkpt lat="48.808159" lon="7.77381">
        <ele>155</ele>
        <time>2010-12-10T05:38:52Z</time>
        <course>137.331531159793</course>
        <speed>7.56531498553792</speed>
      </trkpt>
      <trkpt lat="48.808029" lon="7.77275">
        <ele>155</ele>
        <time>2010-12-10T05:39:02Z</time>
        <course>184.512564721204</course>
        <speed>7.5677180455142</speed>
      </trkpt>
      <trkpt lat="48.807091" lon="7.77341">
        <ele>156</ele>
        <time>2010-12-10T05:39:17Z</time>
        <course>184.135079264334</course>
        <speed>8.31760906912847</speed>
      </trkpt>
      <trkpt lat="48.806061" lon="7.77408">
        <ele>154</ele>
        <time>2010-12-10T05:39:32Z</time>
        <course>348.488368138564</course>
        <speed>8.31887849675638</speed>
      </trkpt>
      <trkpt lat="48.806919" lon="7.77564">
        <ele>153</ele>
        <time>2010-12-10T05:39:50Z</time>
        <course>189.356168796471</course>
        <speed>6.79258752068632</speed>
      </trkpt>
      <trkpt lat="48.806641" lon="7.77605">
        <ele>153</ele>
        <time>2010-12-10T05:39:56Z</time>
        <course>190.481478901324</course>
        <speed>6.7918990545215</speed>
      </trkpt>
      <trkpt lat="48.806412" lon="7.77643">
        <ele>153</ele>
        <time>2010-12-10T05:40:02Z</time>
        <course>195.551356395283</course>
        <speed>6.79309574622537</speed>
      </trkpt>
      <trkpt lat="48.80624" lon="7.77686">
        <ele>154</ele>
        <time>2010-12-10T05:40:07Z</time>
        <course>195.832235509636</course>
        <speed>6.79216376732737</speed>
      </trkpt>
      <trkpt lat="48.805962" lon="7.77757">
        <ele>155</ele>
        <time>2010-12-10T05:40:16Z</time>
        <course>195.832235509636</course>
        <speed>6.79216376732737</speed>
      </trkpt>
      <trkpt lat="48.805962" lon="7.77757">
        <ele>155</ele>
        <time>2010-12-10T05:40:17Z</time>
        <course>193.37998773109</course>
        <speed>8.32215533261764</speed>
      </trkpt>
      <trkpt lat="48.80592" lon="7.77766">
        <ele>155</ele>
        <time>2010-12-10T05:40:18Z</time>
        <course>196.146992524114</course>
        <speed>8.32027998764556</speed>
      </trkpt>
      <trkpt lat="48.805721" lon="7.77818">
        <ele>155</ele>
        <time>2010-12-10T05:40:23Z</time>
        <course>203.651721032414</course>
        <speed>8.32464772426049</speed>
      </trkpt>
      <trkpt lat="48.80563" lon="7.77854">
        <ele>155</ele>
        <time>2010-12-10T05:40:27Z</time>
        <course>210.042645899543</course>
        <speed>8.31786097863991</speed>
      </trkpt>
      <trkpt lat="48.8055" lon="7.77922">
        <ele>155</ele>
        <time>2010-12-10T05:40:33Z</time>
        <course>201.026511630567</course>
        <speed>8.33264429242421</speed>
      </trkpt>
      <trkpt lat="48.805431" lon="7.77946">
        <ele>155</ele>
        <time>2010-12-10T05:40:35Z</time>
        <course>197.833949779471</course>
        <speed>8.31582973465025</speed>
      </trkpt>
      <trkpt lat="48.805092" lon="7.78045">
        <ele>155</ele>
        <time>2010-12-10T05:40:45Z</time>
        <course>199.949159358223</course>
        <speed>8.31702870861486</speed>
      </trkpt>
      <trkpt lat="48.804729" lon="7.78165">
        <ele>154</ele>
        <time>2010-12-10T05:40:57Z</time>
        <course>204.023069008165</course>
        <speed>8.32111601062788</speed>
      </trkpt>
      <trkpt lat="48.80452" lon="7.7825">
        <ele>153</ele>
        <time>2010-12-10T05:41:05Z</time>
        <course>202.70218574472</course>
        <speed>8.31548382418772</speed>
      </trkpt>
      <trkpt lat="48.80423" lon="7.78361">
        <ele>153</ele>
        <time>2010-12-10T05:41:15Z</time>
        <course>202.996073285541</course>
        <speed>8.32032350602341</speed>
      </trkpt>
      <trkpt lat="48.80405" lon="7.78431">
        <ele>152</ele>
        <time>2010-12-10T05:41:22Z</time>
        <course>184.585566114501</course>
        <speed>8.31250813092326</speed>
      </trkpt>
      <trkpt lat="48.803982" lon="7.78436">
        <ele>152</ele>
        <time>2010-12-10T05:41:23Z</time>
        <course>184.585566114501</course>
        <speed>8.31250813092326</speed>
      </trkpt>
    </trkseg>
  </trk>
</gpx>